<?xml version="1.0" encoding="UTF-8" standalone="no" ?>
<gpx xmlns="http://www.topografix.com/GPX/1/1" xmlns:xsi="http://www.w3.org/2001/XMLSchema-instance" xsi:schemaLocation="http://www.topografix.com/GPX/1/1 http://www.topografix.com/GPX/1/1/gpx.xsd" version="1.1" creator="VisuGPX - https://www.visugpx.com">
  <metadata>
    <name>021VCSG76-8024104</name>
    <desc><![CDATA[
02]]></desc>
  </metadata>
  <trk>
    <name><![CDATA[021VCSG76-8024104]]></name>
    <trkseg>
      <trkpt lat="46.69861" lon="-1.93397">
        <ele>5</ele>
        <time>2018-03-07T21:47:36Z</time>
      </trkpt>
      <trkpt lat="46.69892" lon="-1.93385">
        <ele>5</ele>
        <time>2018-03-07T21:48:36Z</time>
      </trkpt>
      <trkpt lat="46.69898" lon="-1.93383">
        <ele>5</ele>
        <time>2018-03-07T21:49:36Z</time>
      </trkpt>
      <trkpt lat="46.69901" lon="-1.93383">
        <ele>5</ele>
        <time>2018-03-07T21:50:36Z</time>
      </trkpt>
      <trkpt lat="46.69908" lon="-1.93383">
        <ele>4</ele>
        <time>2018-03-07T21:51:36Z</time>
      </trkpt>
      <trkpt lat="46.69907" lon="-1.93379">
        <ele>5</ele>
        <time>2018-03-07T21:52:36Z</time>
      </trkpt>
      <trkpt lat="46.69908" lon="-1.93377">
        <ele>5</ele>
        <time>2018-03-07T21:53:36Z</time>
      </trkpt>
      <trkpt lat="46.69908" lon="-1.93376">
        <ele>5</ele>
        <time>2018-03-07T21:54:36Z</time>
      </trkpt>
      <trkpt lat="46.69909" lon="-1.93375">
        <ele>5</ele>
        <time>2018-03-07T21:55:36Z</time>
      </trkpt>
      <trkpt lat="46.69911" lon="-1.93375">
        <ele>5</ele>
        <time>2018-03-07T21:56:36Z</time>
      </trkpt>
      <trkpt lat="46.69912" lon="-1.93375">
        <ele>5</ele>
        <time>2018-03-07T21:57:36Z</time>
      </trkpt>
      <trkpt lat="46.69914" lon="-1.93375">
        <ele>5</ele>
        <time>2018-03-07T21:58:36Z</time>
      </trkpt>
      <trkpt lat="46.69915" lon="-1.93376">
        <ele>5</ele>
        <time>2018-03-07T21:59:36Z</time>
      </trkpt>
      <trkpt lat="46.69915" lon="-1.93377">
        <ele>4</ele>
        <time>2018-03-07T22:00:36Z</time>
      </trkpt>
      <trkpt lat="46.69916" lon="-1.93379">
        <ele>4</ele>
        <time>2018-03-07T22:01:36Z</time>
      </trkpt>
      <trkpt lat="46.69916" lon="-1.93382">
        <ele>4</ele>
        <time>2018-03-07T22:02:36Z</time>
      </trkpt>
      <trkpt lat="46.69915" lon="-1.93383">
        <ele>4</ele>
        <time>2018-03-07T22:03:36Z</time>
      </trkpt>
      <trkpt lat="46.69922" lon="-1.93383">
        <ele>4</ele>
        <time>2018-03-07T22:04:36Z</time>
      </trkpt>
      <trkpt lat="46.69925" lon="-1.93383">
        <ele>4</ele>
        <time>2018-03-07T22:05:36Z</time>
      </trkpt>
      <trkpt lat="46.69935" lon="-1.93382">
        <ele>4</ele>
        <time>2018-03-07T22:06:36Z</time>
      </trkpt>
      <trkpt lat="46.69944" lon="-1.93381">
        <ele>4</ele>
        <time>2018-03-07T22:07:36Z</time>
      </trkpt>
      <trkpt lat="46.69949" lon="-1.93379">
        <ele>4</ele>
        <time>2018-03-07T22:08:36Z</time>
      </trkpt>
      <trkpt lat="46.69953" lon="-1.93377">
        <ele>4</ele>
        <time>2018-03-07T22:09:36Z</time>
      </trkpt>
      <trkpt lat="46.69958" lon="-1.93375">
        <ele>4</ele>
        <time>2018-03-07T22:10:36Z</time>
      </trkpt>
      <trkpt lat="46.69963" lon="-1.93373">
        <ele>4</ele>
        <time>2018-03-07T22:11:36Z</time>
      </trkpt>
      <trkpt lat="46.69969" lon="-1.9337">
        <ele>4</ele>
        <time>2018-03-07T22:12:36Z</time>
      </trkpt>
      <trkpt lat="46.69973" lon="-1.93367">
        <ele>4</ele>
        <time>2018-03-07T22:13:36Z</time>
      </trkpt>
      <trkpt lat="46.69976" lon="-1.93367">
        <ele>4</ele>
        <time>2018-03-07T22:14:36Z</time>
      </trkpt>
      <trkpt lat="46.69978" lon="-1.93366">
        <ele>3</ele>
        <time>2018-03-07T22:15:36Z</time>
      </trkpt>
      <trkpt lat="46.69979" lon="-1.93366">
        <ele>3</ele>
        <time>2018-03-07T22:16:36Z</time>
      </trkpt>
      <trkpt lat="46.69982" lon="-1.93367">
        <ele>3</ele>
        <time>2018-03-07T22:17:36Z</time>
      </trkpt>
      <trkpt lat="46.69987" lon="-1.93369">
        <ele>3</ele>
        <time>2018-03-07T22:18:36Z</time>
      </trkpt>
      <trkpt lat="46.70002" lon="-1.93375">
        <ele>3</ele>
        <time>2018-03-07T22:19:36Z</time>
      </trkpt>
      <trkpt lat="46.70015" lon="-1.9338">
        <ele>3</ele>
        <time>2018-03-07T22:20:36Z</time>
      </trkpt>
      <trkpt lat="46.7002" lon="-1.93382">
        <ele>3</ele>
        <time>2018-03-07T22:21:36Z</time>
      </trkpt>
      <trkpt lat="46.70023" lon="-1.93384">
        <ele>3</ele>
        <time>2018-03-07T22:22:36Z</time>
      </trkpt>
      <trkpt lat="46.70025" lon="-1.93386">
        <ele>3</ele>
        <time>2018-03-07T22:23:36Z</time>
      </trkpt>
      <trkpt lat="46.70028" lon="-1.93388">
        <ele>3</ele>
        <time>2018-03-07T22:24:36Z</time>
      </trkpt>
      <trkpt lat="46.7003" lon="-1.93391">
        <ele>3</ele>
        <time>2018-03-07T22:25:36Z</time>
      </trkpt>
      <trkpt lat="46.70033" lon="-1.93394">
        <ele>2</ele>
        <time>2018-03-07T22:26:36Z</time>
      </trkpt>
      <trkpt lat="46.70036" lon="-1.93397">
        <ele>2</ele>
        <time>2018-03-07T22:27:36Z</time>
      </trkpt>
      <trkpt lat="46.70038" lon="-1.93398">
        <ele>2</ele>
        <time>2018-03-07T22:28:36Z</time>
      </trkpt>
      <trkpt lat="46.70041" lon="-1.934">
        <ele>2</ele>
        <time>2018-03-07T22:29:36Z</time>
      </trkpt>
      <trkpt lat="46.70043" lon="-1.93401">
        <ele>2</ele>
        <time>2018-03-07T22:30:36Z</time>
      </trkpt>
      <trkpt lat="46.70046" lon="-1.93402">
        <ele>2</ele>
        <time>2018-03-07T22:31:36Z</time>
      </trkpt>
      <trkpt lat="46.70052" lon="-1.93405">
        <ele>2</ele>
        <time>2018-03-07T22:32:36Z</time>
      </trkpt>
      <trkpt lat="46.70052" lon="-1.93404">
        <ele>2</ele>
        <time>2018-03-07T22:33:36Z</time>
      </trkpt>
      <trkpt lat="46.70052" lon="-1.93403">
        <ele>2</ele>
        <time>2018-03-07T22:34:36Z</time>
      </trkpt>
      <trkpt lat="46.70052" lon="-1.93402">
        <ele>2</ele>
        <time>2018-03-07T22:35:36Z</time>
      </trkpt>
      <trkpt lat="46.70052" lon="-1.93401">
        <ele>2</ele>
        <time>2018-03-07T22:36:36Z</time>
      </trkpt>
      <trkpt lat="46.70053" lon="-1.93401">
        <ele>2</ele>
        <time>2018-03-07T22:37:36Z</time>
      </trkpt>
      <trkpt lat="46.70053" lon="-1.934">
        <ele>2</ele>
        <time>2018-03-07T22:38:36Z</time>
      </trkpt>
      <trkpt lat="46.70053" lon="-1.93399">
        <ele>2</ele>
        <time>2018-03-07T22:39:36Z</time>
      </trkpt>
      <trkpt lat="46.70054" lon="-1.93399">
        <ele>2</ele>
        <time>2018-03-07T22:40:36Z</time>
      </trkpt>
      <trkpt lat="46.70054" lon="-1.93398">
        <ele>2</ele>
        <time>2018-03-07T22:41:36Z</time>
      </trkpt>
      <trkpt lat="46.70055" lon="-1.93398">
        <ele>2</ele>
        <time>2018-03-07T22:42:36Z</time>
      </trkpt>
      <trkpt lat="46.70056" lon="-1.93398">
        <ele>2</ele>
        <time>2018-03-07T22:43:36Z</time>
      </trkpt>
      <trkpt lat="46.70056" lon="-1.93397">
        <ele>2</ele>
        <time>2018-03-07T22:44:36Z</time>
      </trkpt>
      <trkpt lat="46.70057" lon="-1.93397">
        <ele>2</ele>
        <time>2018-03-07T22:45:36Z</time>
      </trkpt>
      <trkpt lat="46.70058" lon="-1.93397">
        <ele>2</ele>
        <time>2018-03-07T22:46:36Z</time>
      </trkpt>
      <trkpt lat="46.70059" lon="-1.93398">
        <ele>2</ele>
        <time>2018-03-07T22:47:36Z</time>
      </trkpt>
      <trkpt lat="46.7006" lon="-1.93398">
        <ele>2</ele>
        <time>2018-03-07T22:48:36Z</time>
      </trkpt>
      <trkpt lat="46.7006" lon="-1.93399">
        <ele>2</ele>
        <time>2018-03-07T22:49:36Z</time>
      </trkpt>
      <trkpt lat="46.70061" lon="-1.93399">
        <ele>2</ele>
        <time>2018-03-07T22:50:36Z</time>
      </trkpt>
      <trkpt lat="46.70061" lon="-1.934">
        <ele>2</ele>
        <time>2018-03-07T22:51:36Z</time>
      </trkpt>
      <trkpt lat="46.70061" lon="-1.93401">
        <ele>2</ele>
        <time>2018-03-07T22:52:36Z</time>
      </trkpt>
      <trkpt lat="46.70062" lon="-1.93401">
        <ele>2</ele>
        <time>2018-03-07T22:53:36Z</time>
      </trkpt>
      <trkpt lat="46.70062" lon="-1.93402">
        <ele>2</ele>
        <time>2018-03-07T22:54:36Z</time>
      </trkpt>
      <trkpt lat="46.70062" lon="-1.93403">
        <ele>2</ele>
        <time>2018-03-07T22:55:36Z</time>
      </trkpt>
      <trkpt lat="46.70062" lon="-1.93404">
        <ele>2</ele>
        <time>2018-03-07T22:56:36Z</time>
      </trkpt>
      <trkpt lat="46.70062" lon="-1.93405">
        <ele>2</ele>
        <time>2018-03-07T22:57:36Z</time>
      </trkpt>
      <trkpt lat="46.70083" lon="-1.93405">
        <ele>2</ele>
        <time>2018-03-07T22:58:36Z</time>
      </trkpt>
      <trkpt lat="46.70093" lon="-1.934">
        <ele>2</ele>
        <time>2018-03-07T22:59:36Z</time>
      </trkpt>
      <trkpt lat="46.70098" lon="-1.93397">
        <ele>2</ele>
        <time>2018-03-07T23:00:36Z</time>
      </trkpt>
      <trkpt lat="46.70102" lon="-1.93395">
        <ele>2</ele>
        <time>2018-03-07T23:01:36Z</time>
      </trkpt>
      <trkpt lat="46.70107" lon="-1.93391">
        <ele>2</ele>
        <time>2018-03-07T23:02:36Z</time>
      </trkpt>
      <trkpt lat="46.70111" lon="-1.93388">
        <ele>2</ele>
        <time>2018-03-07T23:03:36Z</time>
      </trkpt>
      <trkpt lat="46.70114" lon="-1.93384">
        <ele>2</ele>
        <time>2018-03-07T23:04:36Z</time>
      </trkpt>
      <trkpt lat="46.70114" lon="-1.93384">
        <ele>2</ele>
        <time>2018-03-07T23:05:36Z</time>
      </trkpt>
      <trkpt lat="46.70115" lon="-1.93383">
        <ele>2</ele>
        <time>2018-03-07T23:06:36Z</time>
      </trkpt>
      <trkpt lat="46.70115" lon="-1.93382">
        <ele>2</ele>
        <time>2018-03-07T23:07:36Z</time>
      </trkpt>
      <trkpt lat="46.70115" lon="-1.93381">
        <ele>2</ele>
        <time>2018-03-07T23:08:36Z</time>
      </trkpt>
      <trkpt lat="46.70116" lon="-1.9338">
        <ele>2</ele>
        <time>2018-03-07T23:09:36Z</time>
      </trkpt>
      <trkpt lat="46.70116" lon="-1.93378">
        <ele>2</ele>
        <time>2018-03-07T23:10:36Z</time>
      </trkpt>
      <trkpt lat="46.70116" lon="-1.93377">
        <ele>2</ele>
        <time>2018-03-07T23:11:36Z</time>
      </trkpt>
      <trkpt lat="46.70117" lon="-1.93376">
        <ele>2</ele>
        <time>2018-03-07T23:12:36Z</time>
      </trkpt>
      <trkpt lat="46.70117" lon="-1.93375">
        <ele>2</ele>
        <time>2018-03-07T23:13:36Z</time>
      </trkpt>
      <trkpt lat="46.70118" lon="-1.93374">
        <ele>1</ele>
        <time>2018-03-07T23:14:36Z</time>
      </trkpt>
      <trkpt lat="46.70119" lon="-1.93373">
        <ele>1</ele>
        <time>2018-03-07T23:15:36Z</time>
      </trkpt>
      <trkpt lat="46.70119" lon="-1.93372">
        <ele>1</ele>
        <time>2018-03-07T23:16:36Z</time>
      </trkpt>
      <trkpt lat="46.7012" lon="-1.93372">
        <ele>1</ele>
        <time>2018-03-07T23:17:36Z</time>
      </trkpt>
      <trkpt lat="46.70121" lon="-1.93371">
        <ele>1</ele>
        <time>2018-03-07T23:18:36Z</time>
      </trkpt>
      <trkpt lat="46.70122" lon="-1.9337">
        <ele>1</ele>
        <time>2018-03-07T23:19:36Z</time>
      </trkpt>
      <trkpt lat="46.70123" lon="-1.93369">
        <ele>1</ele>
        <time>2018-03-07T23:20:36Z</time>
      </trkpt>
      <trkpt lat="46.70124" lon="-1.93369">
        <ele>1</ele>
        <time>2018-03-07T23:21:36Z</time>
      </trkpt>
      <trkpt lat="46.70125" lon="-1.93368">
        <ele>2</ele>
        <time>2018-03-07T23:22:36Z</time>
      </trkpt>
      <trkpt lat="46.70126" lon="-1.93368">
        <ele>2</ele>
        <time>2018-03-07T23:23:36Z</time>
      </trkpt>
      <trkpt lat="46.70127" lon="-1.93368">
        <ele>2</ele>
        <time>2018-03-07T23:24:36Z</time>
      </trkpt>
      <trkpt lat="46.70128" lon="-1.93368">
        <ele>2</ele>
        <time>2018-03-07T23:25:36Z</time>
      </trkpt>
      <trkpt lat="46.70129" lon="-1.93368">
        <ele>2</ele>
        <time>2018-03-07T23:26:36Z</time>
      </trkpt>
      <trkpt lat="46.7013" lon="-1.93368">
        <ele>2</ele>
        <time>2018-03-07T23:27:36Z</time>
      </trkpt>
      <trkpt lat="46.70131" lon="-1.93369">
        <ele>2</ele>
        <time>2018-03-07T23:28:36Z</time>
      </trkpt>
      <trkpt lat="46.70132" lon="-1.93369">
        <ele>2</ele>
        <time>2018-03-07T23:29:36Z</time>
      </trkpt>
      <trkpt lat="46.70132" lon="-1.9337">
        <ele>2</ele>
        <time>2018-03-07T23:30:36Z</time>
      </trkpt>
      <trkpt lat="46.70133" lon="-1.9337">
        <ele>2</ele>
        <time>2018-03-07T23:31:36Z</time>
      </trkpt>
      <trkpt lat="46.70134" lon="-1.93371">
        <ele>2</ele>
        <time>2018-03-07T23:32:36Z</time>
      </trkpt>
      <trkpt lat="46.70135" lon="-1.93372">
        <ele>2</ele>
        <time>2018-03-07T23:33:36Z</time>
      </trkpt>
      <trkpt lat="46.70136" lon="-1.93373">
        <ele>2</ele>
        <time>2018-03-07T23:34:36Z</time>
      </trkpt>
      <trkpt lat="46.70136" lon="-1.93374">
        <ele>2</ele>
        <time>2018-03-07T23:35:36Z</time>
      </trkpt>
      <trkpt lat="46.70137" lon="-1.93374">
        <ele>2</ele>
        <time>2018-03-07T23:36:36Z</time>
      </trkpt>
      <trkpt lat="46.70137" lon="-1.93375">
        <ele>1</ele>
        <time>2018-03-07T23:37:36Z</time>
      </trkpt>
      <trkpt lat="46.70138" lon="-1.93376">
        <ele>1</ele>
        <time>2018-03-07T23:38:36Z</time>
      </trkpt>
      <trkpt lat="46.70138" lon="-1.93377">
        <ele>1</ele>
        <time>2018-03-07T23:39:36Z</time>
      </trkpt>
      <trkpt lat="46.70138" lon="-1.93378">
        <ele>1</ele>
        <time>2018-03-07T23:40:36Z</time>
      </trkpt>
      <trkpt lat="46.70139" lon="-1.93379">
        <ele>1</ele>
        <time>2018-03-07T23:41:36Z</time>
      </trkpt>
      <trkpt lat="46.70139" lon="-1.93381">
        <ele>1</ele>
        <time>2018-03-07T23:42:36Z</time>
      </trkpt>
      <trkpt lat="46.7014" lon="-1.93382">
        <ele>1</ele>
        <time>2018-03-07T23:43:36Z</time>
      </trkpt>
      <trkpt lat="46.7014" lon="-1.93384">
        <ele>1</ele>
        <time>2018-03-07T23:44:36Z</time>
      </trkpt>
      <trkpt lat="46.70141" lon="-1.93386">
        <ele>1</ele>
        <time>2018-03-07T23:45:36Z</time>
      </trkpt>
      <trkpt lat="46.70141" lon="-1.93388">
        <ele>1</ele>
        <time>2018-03-07T23:46:36Z</time>
      </trkpt>
      <trkpt lat="46.70141" lon="-1.9339">
        <ele>1</ele>
        <time>2018-03-07T23:47:36Z</time>
      </trkpt>
      <trkpt lat="46.70141" lon="-1.93391">
        <ele>1</ele>
        <time>2018-03-07T23:48:36Z</time>
      </trkpt>
      <trkpt lat="46.70141" lon="-1.93393">
        <ele>1</ele>
        <time>2018-03-07T23:49:36Z</time>
      </trkpt>
      <trkpt lat="46.70141" lon="-1.93394">
        <ele>1</ele>
        <time>2018-03-07T23:50:36Z</time>
      </trkpt>
      <trkpt lat="46.70141" lon="-1.93395">
        <ele>1</ele>
        <time>2018-03-07T23:51:36Z</time>
      </trkpt>
      <trkpt lat="46.7014" lon="-1.93396">
        <ele>1</ele>
        <time>2018-03-07T23:52:36Z</time>
      </trkpt>
      <trkpt lat="46.7014" lon="-1.93397">
        <ele>1</ele>
        <time>2018-03-07T23:53:36Z</time>
      </trkpt>
      <trkpt lat="46.7014" lon="-1.93398">
        <ele>1</ele>
        <time>2018-03-07T23:54:36Z</time>
      </trkpt>
      <trkpt lat="46.70139" lon="-1.93399">
        <ele>1</ele>
        <time>2018-03-07T23:55:36Z</time>
      </trkpt>
      <trkpt lat="46.70139" lon="-1.93401">
        <ele>1</ele>
        <time>2018-03-07T23:56:36Z</time>
      </trkpt>
      <trkpt lat="46.70138" lon="-1.93408">
        <ele>1</ele>
        <time>2018-03-07T23:57:36Z</time>
      </trkpt>
      <trkpt lat="46.70138" lon="-1.93411">
        <ele>1</ele>
        <time>2018-03-07T23:58:36Z</time>
      </trkpt>
      <trkpt lat="46.70138" lon="-1.93415">
        <ele>1</ele>
        <time>2018-03-07T23:59:36Z</time>
      </trkpt>
      <trkpt lat="46.70138" lon="-1.93418">
        <ele>1</ele>
        <time>2018-03-08T00:00:36Z</time>
      </trkpt>
      <trkpt lat="46.70138" lon="-1.93423">
        <ele>1</ele>
        <time>2018-03-08T00:01:36Z</time>
      </trkpt>
      <trkpt lat="46.70139" lon="-1.93429">
        <ele>1</ele>
        <time>2018-03-08T00:02:36Z</time>
      </trkpt>
      <trkpt lat="46.70139" lon="-1.93431">
        <ele>1</ele>
        <time>2018-03-08T00:03:36Z</time>
      </trkpt>
      <trkpt lat="46.7014" lon="-1.93433">
        <ele>1</ele>
        <time>2018-03-08T00:04:36Z</time>
      </trkpt>
      <trkpt lat="46.7014" lon="-1.93435">
        <ele>1</ele>
        <time>2018-03-08T00:05:36Z</time>
      </trkpt>
      <trkpt lat="46.70141" lon="-1.93441">
        <ele>1</ele>
        <time>2018-03-08T00:06:36Z</time>
      </trkpt>
      <trkpt lat="46.70142" lon="-1.93448">
        <ele>1</ele>
        <time>2018-03-08T00:07:36Z</time>
      </trkpt>
      <trkpt lat="46.70144" lon="-1.93457">
        <ele>1</ele>
        <time>2018-03-08T00:08:36Z</time>
      </trkpt>
      <trkpt lat="46.70146" lon="-1.93464">
        <ele>1</ele>
        <time>2018-03-08T00:09:36Z</time>
      </trkpt>
      <trkpt lat="46.70151" lon="-1.93485">
        <ele>1</ele>
        <time>2018-03-08T00:10:36Z</time>
      </trkpt>
      <trkpt lat="46.70189" lon="-1.93655">
        <ele>1</ele>
        <time>2018-03-08T00:11:36Z</time>
      </trkpt>
      <trkpt lat="46.70196" lon="-1.93681">
        <ele>2</ele>
        <time>2018-03-08T00:12:36Z</time>
      </trkpt>
      <trkpt lat="46.702" lon="-1.93698">
        <ele>2</ele>
        <time>2018-03-08T00:13:36Z</time>
      </trkpt>
      <trkpt lat="46.70204" lon="-1.93714">
        <ele>2</ele>
        <time>2018-03-08T00:14:36Z</time>
      </trkpt>
      <trkpt lat="46.70208" lon="-1.93728">
        <ele>3</ele>
        <time>2018-03-08T00:15:36Z</time>
      </trkpt>
      <trkpt lat="46.70211" lon="-1.93742">
        <ele>3</ele>
        <time>2018-03-08T00:16:36Z</time>
      </trkpt>
      <trkpt lat="46.70214" lon="-1.93753">
        <ele>3</ele>
        <time>2018-03-08T00:17:36Z</time>
      </trkpt>
      <trkpt lat="46.70228" lon="-1.93802">
        <ele>4</ele>
        <time>2018-03-08T00:18:36Z</time>
      </trkpt>
      <trkpt lat="46.70229" lon="-1.93804">
        <ele>4</ele>
        <time>2018-03-08T00:19:36Z</time>
      </trkpt>
      <trkpt lat="46.70239" lon="-1.93837">
        <ele>4</ele>
        <time>2018-03-08T00:20:36Z</time>
      </trkpt>
      <trkpt lat="46.70243" lon="-1.93848">
        <ele>4</ele>
        <time>2018-03-08T00:21:36Z</time>
      </trkpt>
      <trkpt lat="46.70246" lon="-1.93857">
        <ele>3</ele>
        <time>2018-03-08T00:22:36Z</time>
      </trkpt>
      <trkpt lat="46.70248" lon="-1.93861">
        <ele>3</ele>
        <time>2018-03-08T00:23:36Z</time>
      </trkpt>
      <trkpt lat="46.70249" lon="-1.93864">
        <ele>3</ele>
        <time>2018-03-08T00:24:36Z</time>
      </trkpt>
      <trkpt lat="46.70252" lon="-1.9387">
        <ele>3</ele>
        <time>2018-03-08T00:25:36Z</time>
      </trkpt>
      <trkpt lat="46.70253" lon="-1.93874">
        <ele>3</ele>
        <time>2018-03-08T00:26:36Z</time>
      </trkpt>
      <trkpt lat="46.70255" lon="-1.93877">
        <ele>3</ele>
        <time>2018-03-08T00:27:36Z</time>
      </trkpt>
      <trkpt lat="46.70256" lon="-1.93879">
        <ele>3</ele>
        <time>2018-03-08T00:28:36Z</time>
      </trkpt>
      <trkpt lat="46.70257" lon="-1.93881">
        <ele>3</ele>
        <time>2018-03-08T00:29:36Z</time>
      </trkpt>
      <trkpt lat="46.70259" lon="-1.93884">
        <ele>3</ele>
        <time>2018-03-08T00:30:36Z</time>
      </trkpt>
      <trkpt lat="46.70259" lon="-1.93884">
        <ele>3</ele>
        <time>2018-03-08T00:31:36Z</time>
      </trkpt>
      <trkpt lat="46.70261" lon="-1.93884">
        <ele>3</ele>
        <time>2018-03-08T00:32:36Z</time>
      </trkpt>
      <trkpt lat="46.70262" lon="-1.93884">
        <ele>3</ele>
        <time>2018-03-08T00:33:36Z</time>
      </trkpt>
      <trkpt lat="46.70263" lon="-1.93884">
        <ele>3</ele>
        <time>2018-03-08T00:34:36Z</time>
      </trkpt>
      <trkpt lat="46.70264" lon="-1.93884">
        <ele>3</ele>
        <time>2018-03-08T00:35:36Z</time>
      </trkpt>
      <trkpt lat="46.70265" lon="-1.93885">
        <ele>3</ele>
        <time>2018-03-08T00:36:36Z</time>
      </trkpt>
      <trkpt lat="46.70266" lon="-1.93886">
        <ele>3</ele>
        <time>2018-03-08T00:37:36Z</time>
      </trkpt>
      <trkpt lat="46.70267" lon="-1.93886">
        <ele>3</ele>
        <time>2018-03-08T00:38:36Z</time>
      </trkpt>
      <trkpt lat="46.70268" lon="-1.93887">
        <ele>3</ele>
        <time>2018-03-08T00:39:36Z</time>
      </trkpt>
      <trkpt lat="46.70269" lon="-1.93888">
        <ele>3</ele>
        <time>2018-03-08T00:40:36Z</time>
      </trkpt>
      <trkpt lat="46.7027" lon="-1.93889">
        <ele>3</ele>
        <time>2018-03-08T00:41:36Z</time>
      </trkpt>
      <trkpt lat="46.70271" lon="-1.9389">
        <ele>3</ele>
        <time>2018-03-08T00:42:36Z</time>
      </trkpt>
      <trkpt lat="46.70271" lon="-1.93891">
        <ele>3</ele>
        <time>2018-03-08T00:43:36Z</time>
      </trkpt>
      <trkpt lat="46.70272" lon="-1.93893">
        <ele>3</ele>
        <time>2018-03-08T00:44:36Z</time>
      </trkpt>
      <trkpt lat="46.70273" lon="-1.93894">
        <ele>3</ele>
        <time>2018-03-08T00:45:36Z</time>
      </trkpt>
      <trkpt lat="46.70273" lon="-1.93895">
        <ele>3</ele>
        <time>2018-03-08T00:46:36Z</time>
      </trkpt>
      <trkpt lat="46.70274" lon="-1.93897">
        <ele>3</ele>
        <time>2018-03-08T00:47:36Z</time>
      </trkpt>
      <trkpt lat="46.70274" lon="-1.93898">
        <ele>3</ele>
        <time>2018-03-08T00:48:36Z</time>
      </trkpt>
      <trkpt lat="46.70275" lon="-1.939">
        <ele>3</ele>
        <time>2018-03-08T00:49:36Z</time>
      </trkpt>
      <trkpt lat="46.70275" lon="-1.93902">
        <ele>3</ele>
        <time>2018-03-08T00:50:36Z</time>
      </trkpt>
      <trkpt lat="46.70275" lon="-1.93903">
        <ele>3</ele>
        <time>2018-03-08T00:51:36Z</time>
      </trkpt>
      <trkpt lat="46.70275" lon="-1.93905">
        <ele>3</ele>
        <time>2018-03-08T00:52:36Z</time>
      </trkpt>
      <trkpt lat="46.70275" lon="-1.93906">
        <ele>3</ele>
        <time>2018-03-08T00:53:36Z</time>
      </trkpt>
      <trkpt lat="46.70275" lon="-1.93909">
        <ele>2</ele>
        <time>2018-03-08T00:54:36Z</time>
      </trkpt>
      <trkpt lat="46.70275" lon="-1.9391">
        <ele>2</ele>
        <time>2018-03-08T00:55:36Z</time>
      </trkpt>
      <trkpt lat="46.70275" lon="-1.93911">
        <ele>2</ele>
        <time>2018-03-08T00:56:36Z</time>
      </trkpt>
      <trkpt lat="46.70275" lon="-1.93912">
        <ele>2</ele>
        <time>2018-03-08T00:57:36Z</time>
      </trkpt>
      <trkpt lat="46.70275" lon="-1.93913">
        <ele>2</ele>
        <time>2018-03-08T00:58:36Z</time>
      </trkpt>
      <trkpt lat="46.70275" lon="-1.93914">
        <ele>2</ele>
        <time>2018-03-08T00:59:36Z</time>
      </trkpt>
      <trkpt lat="46.70275" lon="-1.93915">
        <ele>2</ele>
        <time>2018-03-08T01:00:36Z</time>
      </trkpt>
      <trkpt lat="46.70275" lon="-1.93916">
        <ele>2</ele>
        <time>2018-03-08T01:01:36Z</time>
      </trkpt>
      <trkpt lat="46.7028" lon="-1.93929">
        <ele>2</ele>
        <time>2018-03-08T01:02:36Z</time>
      </trkpt>
      <trkpt lat="46.70285" lon="-1.9394">
        <ele>3</ele>
        <time>2018-03-08T01:03:36Z</time>
      </trkpt>
      <trkpt lat="46.70289" lon="-1.93949">
        <ele>3</ele>
        <time>2018-03-08T01:04:36Z</time>
      </trkpt>
      <trkpt lat="46.70293" lon="-1.93957">
        <ele>3</ele>
        <time>2018-03-08T01:05:36Z</time>
      </trkpt>
      <trkpt lat="46.70299" lon="-1.93967">
        <ele>3</ele>
        <time>2018-03-08T01:06:36Z</time>
      </trkpt>
      <trkpt lat="46.70302" lon="-1.93973">
        <ele>3</ele>
        <time>2018-03-08T01:07:36Z</time>
      </trkpt>
      <trkpt lat="46.70307" lon="-1.93981">
        <ele>3</ele>
        <time>2018-03-08T01:08:36Z</time>
      </trkpt>
      <trkpt lat="46.70313" lon="-1.93991">
        <ele>3</ele>
        <time>2018-03-08T01:09:36Z</time>
      </trkpt>
      <trkpt lat="46.70321" lon="-1.94004">
        <ele>3</ele>
        <time>2018-03-08T01:10:36Z</time>
      </trkpt>
      <trkpt lat="46.70327" lon="-1.94013">
        <ele>3</ele>
        <time>2018-03-08T01:11:36Z</time>
      </trkpt>
      <trkpt lat="46.70331" lon="-1.9402">
        <ele>3</ele>
        <time>2018-03-08T01:12:36Z</time>
      </trkpt>
      <trkpt lat="46.70338" lon="-1.94029">
        <ele>3</ele>
        <time>2018-03-08T01:13:36Z</time>
      </trkpt>
      <trkpt lat="46.70345" lon="-1.94039">
        <ele>3</ele>
        <time>2018-03-08T01:14:36Z</time>
      </trkpt>
      <trkpt lat="46.70349" lon="-1.94044">
        <ele>4</ele>
        <time>2018-03-08T01:15:36Z</time>
      </trkpt>
      <trkpt lat="46.70353" lon="-1.9405">
        <ele>4</ele>
        <time>2018-03-08T01:16:36Z</time>
      </trkpt>
      <trkpt lat="46.70357" lon="-1.94055">
        <ele>4</ele>
        <time>2018-03-08T01:17:36Z</time>
      </trkpt>
      <trkpt lat="46.70361" lon="-1.9406">
        <ele>4</ele>
        <time>2018-03-08T01:18:36Z</time>
      </trkpt>
      <trkpt lat="46.70369" lon="-1.9407">
        <ele>4</ele>
        <time>2018-03-08T01:19:36Z</time>
      </trkpt>
      <trkpt lat="46.70374" lon="-1.94079">
        <ele>4</ele>
        <time>2018-03-08T01:20:36Z</time>
      </trkpt>
      <trkpt lat="46.7038" lon="-1.94085">
        <ele>4</ele>
        <time>2018-03-08T01:21:36Z</time>
      </trkpt>
      <trkpt lat="46.70382" lon="-1.94087">
        <ele>4</ele>
        <time>2018-03-08T01:22:36Z</time>
      </trkpt>
      <trkpt lat="46.70384" lon="-1.9409">
        <ele>4</ele>
        <time>2018-03-08T01:23:36Z</time>
      </trkpt>
      <trkpt lat="46.70387" lon="-1.94093">
        <ele>4</ele>
        <time>2018-03-08T01:24:36Z</time>
      </trkpt>
      <trkpt lat="46.7039" lon="-1.94095">
        <ele>4</ele>
        <time>2018-03-08T01:25:36Z</time>
      </trkpt>
      <trkpt lat="46.70393" lon="-1.94098">
        <ele>4</ele>
        <time>2018-03-08T01:26:36Z</time>
      </trkpt>
      <trkpt lat="46.70396" lon="-1.94101">
        <ele>4</ele>
        <time>2018-03-08T01:27:36Z</time>
      </trkpt>
      <trkpt lat="46.70405" lon="-1.94109">
        <ele>4</ele>
        <time>2018-03-08T01:28:36Z</time>
      </trkpt>
      <trkpt lat="46.70411" lon="-1.94114">
        <ele>5</ele>
        <time>2018-03-08T01:29:36Z</time>
      </trkpt>
      <trkpt lat="46.70416" lon="-1.94119">
        <ele>5</ele>
        <time>2018-03-08T01:30:36Z</time>
      </trkpt>
      <trkpt lat="46.70423" lon="-1.94124">
        <ele>5</ele>
        <time>2018-03-08T01:31:36Z</time>
      </trkpt>
      <trkpt lat="46.70428" lon="-1.94128">
        <ele>5</ele>
        <time>2018-03-08T01:32:36Z</time>
      </trkpt>
      <trkpt lat="46.70434" lon="-1.94132">
        <ele>5</ele>
        <time>2018-03-08T01:33:36Z</time>
      </trkpt>
      <trkpt lat="46.7044" lon="-1.94137">
        <ele>5</ele>
        <time>2018-03-08T01:34:36Z</time>
      </trkpt>
      <trkpt lat="46.70447" lon="-1.94142">
        <ele>5</ele>
        <time>2018-03-08T01:35:36Z</time>
      </trkpt>
      <trkpt lat="46.70452" lon="-1.94145">
        <ele>5</ele>
        <time>2018-03-08T01:36:36Z</time>
      </trkpt>
      <trkpt lat="46.70458" lon="-1.94149">
        <ele>5</ele>
        <time>2018-03-08T01:37:36Z</time>
      </trkpt>
      <trkpt lat="46.70467" lon="-1.94154">
        <ele>5</ele>
        <time>2018-03-08T01:38:36Z</time>
      </trkpt>
      <trkpt lat="46.70476" lon="-1.94159">
        <ele>4</ele>
        <time>2018-03-08T01:39:36Z</time>
      </trkpt>
      <trkpt lat="46.70481" lon="-1.94162">
        <ele>4</ele>
        <time>2018-03-08T01:40:36Z</time>
      </trkpt>
      <trkpt lat="46.70485" lon="-1.94164">
        <ele>4</ele>
        <time>2018-03-08T01:41:36Z</time>
      </trkpt>
      <trkpt lat="46.70489" lon="-1.94166">
        <ele>4</ele>
        <time>2018-03-08T01:42:36Z</time>
      </trkpt>
      <trkpt lat="46.70494" lon="-1.94169">
        <ele>4</ele>
        <time>2018-03-08T01:43:36Z</time>
      </trkpt>
      <trkpt lat="46.705" lon="-1.94171">
        <ele>4</ele>
        <time>2018-03-08T01:44:36Z</time>
      </trkpt>
      <trkpt lat="46.70506" lon="-1.94174">
        <ele>4</ele>
        <time>2018-03-08T01:45:36Z</time>
      </trkpt>
      <trkpt lat="46.70515" lon="-1.94178">
        <ele>4</ele>
        <time>2018-03-08T01:46:36Z</time>
      </trkpt>
      <trkpt lat="46.70522" lon="-1.94181">
        <ele>4</ele>
        <time>2018-03-08T01:47:36Z</time>
      </trkpt>
      <trkpt lat="46.70528" lon="-1.94183">
        <ele>4</ele>
        <time>2018-03-08T01:48:36Z</time>
      </trkpt>
      <trkpt lat="46.70534" lon="-1.94185">
        <ele>4</ele>
        <time>2018-03-08T01:49:36Z</time>
      </trkpt>
      <trkpt lat="46.70539" lon="-1.94187">
        <ele>4</ele>
        <time>2018-03-08T01:50:36Z</time>
      </trkpt>
      <trkpt lat="46.70544" lon="-1.94189">
        <ele>4</ele>
        <time>2018-03-08T01:51:36Z</time>
      </trkpt>
      <trkpt lat="46.70549" lon="-1.9419">
        <ele>4</ele>
        <time>2018-03-08T01:52:36Z</time>
      </trkpt>
      <trkpt lat="46.70555" lon="-1.94192">
        <ele>4</ele>
        <time>2018-03-08T01:53:36Z</time>
      </trkpt>
      <trkpt lat="46.70562" lon="-1.94194">
        <ele>4</ele>
        <time>2018-03-08T01:54:36Z</time>
      </trkpt>
      <trkpt lat="46.70568" lon="-1.94196">
        <ele>5</ele>
        <time>2018-03-08T01:55:36Z</time>
      </trkpt>
      <trkpt lat="46.70577" lon="-1.94199">
        <ele>5</ele>
        <time>2018-03-08T01:56:36Z</time>
      </trkpt>
      <trkpt lat="46.70588" lon="-1.94201">
        <ele>5</ele>
        <time>2018-03-08T01:57:36Z</time>
      </trkpt>
      <trkpt lat="46.70598" lon="-1.94204">
        <ele>5</ele>
        <time>2018-03-08T01:58:36Z</time>
      </trkpt>
      <trkpt lat="46.70607" lon="-1.94205">
        <ele>5</ele>
        <time>2018-03-08T01:59:36Z</time>
      </trkpt>
      <trkpt lat="46.70617" lon="-1.94208">
        <ele>5</ele>
        <time>2018-03-08T02:00:36Z</time>
      </trkpt>
      <trkpt lat="46.70624" lon="-1.94209">
        <ele>5</ele>
        <time>2018-03-08T02:01:36Z</time>
      </trkpt>
      <trkpt lat="46.70629" lon="-1.9421">
        <ele>5</ele>
        <time>2018-03-08T02:02:36Z</time>
      </trkpt>
      <trkpt lat="46.70635" lon="-1.94211">
        <ele>5</ele>
        <time>2018-03-08T02:03:36Z</time>
      </trkpt>
      <trkpt lat="46.70641" lon="-1.94212">
        <ele>5</ele>
        <time>2018-03-08T02:04:36Z</time>
      </trkpt>
      <trkpt lat="46.70649" lon="-1.94213">
        <ele>6</ele>
        <time>2018-03-08T02:05:36Z</time>
      </trkpt>
      <trkpt lat="46.7066" lon="-1.94214">
        <ele>6</ele>
        <time>2018-03-08T02:06:36Z</time>
      </trkpt>
      <trkpt lat="46.70677" lon="-1.94212">
        <ele>6</ele>
        <time>2018-03-08T02:07:36Z</time>
      </trkpt>
      <trkpt lat="46.7069" lon="-1.94211">
        <ele>6</ele>
        <time>2018-03-08T02:08:36Z</time>
      </trkpt>
      <trkpt lat="46.70691" lon="-1.94211">
        <ele>6</ele>
        <time>2018-03-08T02:09:36Z</time>
      </trkpt>
      <trkpt lat="46.70691" lon="-1.9421">
        <ele>6</ele>
        <time>2018-03-08T02:10:36Z</time>
      </trkpt>
      <trkpt lat="46.70692" lon="-1.9421">
        <ele>6</ele>
        <time>2018-03-08T02:11:36Z</time>
      </trkpt>
      <trkpt lat="46.70692" lon="-1.94209">
        <ele>6</ele>
        <time>2018-03-08T02:12:36Z</time>
      </trkpt>
      <trkpt lat="46.70693" lon="-1.94209">
        <ele>6</ele>
        <time>2018-03-08T02:13:36Z</time>
      </trkpt>
      <trkpt lat="46.70693" lon="-1.94208">
        <ele>6</ele>
        <time>2018-03-08T02:14:36Z</time>
      </trkpt>
      <trkpt lat="46.70694" lon="-1.94208">
        <ele>6</ele>
        <time>2018-03-08T02:15:36Z</time>
      </trkpt>
      <trkpt lat="46.70695" lon="-1.94208">
        <ele>6</ele>
        <time>2018-03-08T02:16:36Z</time>
      </trkpt>
      <trkpt lat="46.70696" lon="-1.94208">
        <ele>6</ele>
        <time>2018-03-08T02:17:36Z</time>
      </trkpt>
      <trkpt lat="46.70696" lon="-1.94207">
        <ele>6</ele>
        <time>2018-03-08T02:18:36Z</time>
      </trkpt>
      <trkpt lat="46.70697" lon="-1.94207">
        <ele>6</ele>
        <time>2018-03-08T02:19:36Z</time>
      </trkpt>
      <trkpt lat="46.70698" lon="-1.94208">
        <ele>6</ele>
        <time>2018-03-08T02:20:36Z</time>
      </trkpt>
      <trkpt lat="46.70699" lon="-1.94208">
        <ele>6</ele>
        <time>2018-03-08T02:21:36Z</time>
      </trkpt>
      <trkpt lat="46.707" lon="-1.94208">
        <ele>6</ele>
        <time>2018-03-08T02:22:36Z</time>
      </trkpt>
      <trkpt lat="46.70701" lon="-1.94209">
        <ele>6</ele>
        <time>2018-03-08T02:23:36Z</time>
      </trkpt>
      <trkpt lat="46.70702" lon="-1.94209">
        <ele>6</ele>
        <time>2018-03-08T02:24:36Z</time>
      </trkpt>
      <trkpt lat="46.70702" lon="-1.9421">
        <ele>6</ele>
        <time>2018-03-08T02:25:36Z</time>
      </trkpt>
      <trkpt lat="46.70703" lon="-1.9421">
        <ele>6</ele>
        <time>2018-03-08T02:26:36Z</time>
      </trkpt>
      <trkpt lat="46.70703" lon="-1.94211">
        <ele>6</ele>
        <time>2018-03-08T02:27:36Z</time>
      </trkpt>
      <trkpt lat="46.70704" lon="-1.94211">
        <ele>6</ele>
        <time>2018-03-08T02:28:36Z</time>
      </trkpt>
      <trkpt lat="46.70704" lon="-1.94212">
        <ele>6</ele>
        <time>2018-03-08T02:29:36Z</time>
      </trkpt>
      <trkpt lat="46.70717" lon="-1.94216">
        <ele>6</ele>
        <time>2018-03-08T02:30:36Z</time>
      </trkpt>
      <trkpt lat="46.70726" lon="-1.94219">
        <ele>6</ele>
        <time>2018-03-08T02:31:36Z</time>
      </trkpt>
      <trkpt lat="46.70732" lon="-1.94219">
        <ele>6</ele>
        <time>2018-03-08T02:32:36Z</time>
      </trkpt>
      <trkpt lat="46.70737" lon="-1.94219">
        <ele>6</ele>
        <time>2018-03-08T02:33:36Z</time>
      </trkpt>
      <trkpt lat="46.70742" lon="-1.94219">
        <ele>6</ele>
        <time>2018-03-08T02:34:36Z</time>
      </trkpt>
      <trkpt lat="46.70747" lon="-1.94219">
        <ele>6</ele>
        <time>2018-03-08T02:35:36Z</time>
      </trkpt>
      <trkpt lat="46.70753" lon="-1.94219">
        <ele>6</ele>
        <time>2018-03-08T02:36:36Z</time>
      </trkpt>
      <trkpt lat="46.70758" lon="-1.94219">
        <ele>6</ele>
        <time>2018-03-08T02:37:36Z</time>
      </trkpt>
      <trkpt lat="46.70763" lon="-1.94218">
        <ele>6</ele>
        <time>2018-03-08T02:38:36Z</time>
      </trkpt>
      <trkpt lat="46.70767" lon="-1.94218">
        <ele>6</ele>
        <time>2018-03-08T02:39:36Z</time>
      </trkpt>
      <trkpt lat="46.70775" lon="-1.94218">
        <ele>6</ele>
        <time>2018-03-08T02:40:36Z</time>
      </trkpt>
      <trkpt lat="46.70783" lon="-1.94217">
        <ele>6</ele>
        <time>2018-03-08T02:41:36Z</time>
      </trkpt>
      <trkpt lat="46.70799" lon="-1.94216">
        <ele>5</ele>
        <time>2018-03-08T02:42:36Z</time>
      </trkpt>
      <trkpt lat="46.70812" lon="-1.94214">
        <ele>5</ele>
        <time>2018-03-08T02:43:36Z</time>
      </trkpt>
      <trkpt lat="46.70823" lon="-1.94213">
        <ele>5</ele>
        <time>2018-03-08T02:44:36Z</time>
      </trkpt>
      <trkpt lat="46.70834" lon="-1.94212">
        <ele>5</ele>
        <time>2018-03-08T02:45:36Z</time>
      </trkpt>
      <trkpt lat="46.70847" lon="-1.94211">
        <ele>5</ele>
        <time>2018-03-08T02:46:36Z</time>
      </trkpt>
      <trkpt lat="46.70857" lon="-1.94209">
        <ele>5</ele>
        <time>2018-03-08T02:47:36Z</time>
      </trkpt>
      <trkpt lat="46.70869" lon="-1.94208">
        <ele>5</ele>
        <time>2018-03-08T02:48:36Z</time>
      </trkpt>
      <trkpt lat="46.70887" lon="-1.94205">
        <ele>4</ele>
        <time>2018-03-08T02:49:36Z</time>
      </trkpt>
      <trkpt lat="46.7093" lon="-1.94197">
        <ele>4</ele>
        <time>2018-03-08T02:50:36Z</time>
      </trkpt>
      <trkpt lat="46.7097" lon="-1.94189">
        <ele>3</ele>
        <time>2018-03-08T02:51:36Z</time>
      </trkpt>
      <trkpt lat="46.70987" lon="-1.94186">
        <ele>2</ele>
        <time>2018-03-08T02:52:36Z</time>
      </trkpt>
      <trkpt lat="46.71004" lon="-1.94182">
        <ele>2</ele>
        <time>2018-03-08T02:53:36Z</time>
      </trkpt>
      <trkpt lat="46.71093" lon="-1.94162">
        <ele>1</ele>
        <time>2018-03-08T02:54:36Z</time>
      </trkpt>
      <trkpt lat="46.71263" lon="-1.94122">
        <ele>2</ele>
        <time>2018-03-08T02:55:36Z</time>
      </trkpt>
      <trkpt lat="46.71344" lon="-1.94103">
        <ele>4</ele>
        <time>2018-03-08T02:56:36Z</time>
      </trkpt>
      <trkpt lat="46.71362" lon="-1.94099">
        <ele>4</ele>
        <time>2018-03-08T02:57:36Z</time>
      </trkpt>
      <trkpt lat="46.71736" lon="-1.94013">
        <ele>2</ele>
        <time>2018-03-08T02:58:36Z</time>
      </trkpt>
      <trkpt lat="46.71743" lon="-1.94011">
        <ele>2</ele>
        <time>2018-03-08T02:59:36Z</time>
      </trkpt>
      <trkpt lat="46.71775" lon="-1.94">
        <ele>1</ele>
        <time>2018-03-08T03:00:36Z</time>
      </trkpt>
      <trkpt lat="46.71778" lon="-1.93999">
        <ele>1</ele>
        <time>2018-03-08T03:01:36Z</time>
      </trkpt>
      <trkpt lat="46.71781" lon="-1.93998">
        <ele>1</ele>
        <time>2018-03-08T03:02:36Z</time>
      </trkpt>
      <trkpt lat="46.71783" lon="-1.93997">
        <ele>1</ele>
        <time>2018-03-08T03:03:36Z</time>
      </trkpt>
      <trkpt lat="46.71785" lon="-1.93995">
        <ele>1</ele>
        <time>2018-03-08T03:04:36Z</time>
      </trkpt>
      <trkpt lat="46.71788" lon="-1.93994">
        <ele>1</ele>
        <time>2018-03-08T03:05:36Z</time>
      </trkpt>
      <trkpt lat="46.7179" lon="-1.93993">
        <ele>1</ele>
        <time>2018-03-08T03:06:36Z</time>
      </trkpt>
      <trkpt lat="46.71792" lon="-1.93991">
        <ele>1</ele>
        <time>2018-03-08T03:07:36Z</time>
      </trkpt>
      <trkpt lat="46.71794" lon="-1.93989">
        <ele>1</ele>
        <time>2018-03-08T03:08:36Z</time>
      </trkpt>
      <trkpt lat="46.71799" lon="-1.93985">
        <ele>1</ele>
        <time>2018-03-08T03:09:36Z</time>
      </trkpt>
      <trkpt lat="46.71799" lon="-1.93984">
        <ele>1</ele>
        <time>2018-03-08T03:10:36Z</time>
      </trkpt>
      <trkpt lat="46.718" lon="-1.93983">
        <ele>1</ele>
        <time>2018-03-08T03:11:36Z</time>
      </trkpt>
      <trkpt lat="46.718" lon="-1.93982">
        <ele>1</ele>
        <time>2018-03-08T03:12:36Z</time>
      </trkpt>
      <trkpt lat="46.718" lon="-1.93981">
        <ele>1</ele>
        <time>2018-03-08T03:13:36Z</time>
      </trkpt>
      <trkpt lat="46.71801" lon="-1.93981">
        <ele>1</ele>
        <time>2018-03-08T03:14:36Z</time>
      </trkpt>
      <trkpt lat="46.71801" lon="-1.9398">
        <ele>1</ele>
        <time>2018-03-08T03:15:36Z</time>
      </trkpt>
      <trkpt lat="46.71802" lon="-1.93979">
        <ele>1</ele>
        <time>2018-03-08T03:16:36Z</time>
      </trkpt>
      <trkpt lat="46.71802" lon="-1.93978">
        <ele>1</ele>
        <time>2018-03-08T03:17:36Z</time>
      </trkpt>
      <trkpt lat="46.71804" lon="-1.93977">
        <ele>1</ele>
        <time>2018-03-08T03:18:36Z</time>
      </trkpt>
      <trkpt lat="46.71805" lon="-1.93977">
        <ele>1</ele>
        <time>2018-03-08T03:19:36Z</time>
      </trkpt>
      <trkpt lat="46.71806" lon="-1.93976">
        <ele>1</ele>
        <time>2018-03-08T03:20:36Z</time>
      </trkpt>
      <trkpt lat="46.71807" lon="-1.93976">
        <ele>1</ele>
        <time>2018-03-08T03:21:36Z</time>
      </trkpt>
      <trkpt lat="46.71808" lon="-1.93975">
        <ele>1</ele>
        <time>2018-03-08T03:22:36Z</time>
      </trkpt>
      <trkpt lat="46.71809" lon="-1.93975">
        <ele>1</ele>
        <time>2018-03-08T03:23:36Z</time>
      </trkpt>
      <trkpt lat="46.7181" lon="-1.93975">
        <ele>1</ele>
        <time>2018-03-08T03:24:36Z</time>
      </trkpt>
      <trkpt lat="46.71812" lon="-1.93975">
        <ele>1</ele>
        <time>2018-03-08T03:25:36Z</time>
      </trkpt>
      <trkpt lat="46.71813" lon="-1.93975">
        <ele>1</ele>
        <time>2018-03-08T03:26:36Z</time>
      </trkpt>
      <trkpt lat="46.71814" lon="-1.93975">
        <ele>1</ele>
        <time>2018-03-08T03:27:36Z</time>
      </trkpt>
      <trkpt lat="46.71815" lon="-1.93975">
        <ele>1</ele>
        <time>2018-03-08T03:28:36Z</time>
      </trkpt>
      <trkpt lat="46.71815" lon="-1.93976">
        <ele>1</ele>
        <time>2018-03-08T03:29:36Z</time>
      </trkpt>
      <trkpt lat="46.71816" lon="-1.93976">
        <ele>1</ele>
        <time>2018-03-08T03:30:36Z</time>
      </trkpt>
      <trkpt lat="46.71817" lon="-1.93976">
        <ele>1</ele>
        <time>2018-03-08T03:31:36Z</time>
      </trkpt>
      <trkpt lat="46.71818" lon="-1.93977">
        <ele>1</ele>
        <time>2018-03-08T03:32:36Z</time>
      </trkpt>
      <trkpt lat="46.71819" lon="-1.93978">
        <ele>1</ele>
        <time>2018-03-08T03:33:36Z</time>
      </trkpt>
      <trkpt lat="46.71819" lon="-1.93979">
        <ele>1</ele>
        <time>2018-03-08T03:34:36Z</time>
      </trkpt>
      <trkpt lat="46.7182" lon="-1.9398">
        <ele>1</ele>
        <time>2018-03-08T03:35:36Z</time>
      </trkpt>
      <trkpt lat="46.71821" lon="-1.93981">
        <ele>1</ele>
        <time>2018-03-08T03:36:36Z</time>
      </trkpt>
      <trkpt lat="46.71821" lon="-1.93982">
        <ele>1</ele>
        <time>2018-03-08T03:37:36Z</time>
      </trkpt>
      <trkpt lat="46.71822" lon="-1.93983">
        <ele>1</ele>
        <time>2018-03-08T03:38:36Z</time>
      </trkpt>
      <trkpt lat="46.71829" lon="-1.93984">
        <ele>1</ele>
        <time>2018-03-08T03:39:36Z</time>
      </trkpt>
      <trkpt lat="46.71832" lon="-1.93984">
        <ele>1</ele>
        <time>2018-03-08T03:40:36Z</time>
      </trkpt>
      <trkpt lat="46.71835" lon="-1.93984">
        <ele>1</ele>
        <time>2018-03-08T03:41:36Z</time>
      </trkpt>
      <trkpt lat="46.71838" lon="-1.93984">
        <ele>1</ele>
        <time>2018-03-08T03:42:36Z</time>
      </trkpt>
      <trkpt lat="46.7184" lon="-1.93984">
        <ele>1</ele>
        <time>2018-03-08T03:43:36Z</time>
      </trkpt>
      <trkpt lat="46.71843" lon="-1.93984">
        <ele>1</ele>
        <time>2018-03-08T03:44:36Z</time>
      </trkpt>
      <trkpt lat="46.71845" lon="-1.93984">
        <ele>1</ele>
        <time>2018-03-08T03:45:36Z</time>
      </trkpt>
      <trkpt lat="46.71876" lon="-1.9398">
        <ele>1</ele>
        <time>2018-03-08T03:46:36Z</time>
      </trkpt>
      <trkpt lat="46.71884" lon="-1.93978">
        <ele>1</ele>
        <time>2018-03-08T03:47:36Z</time>
      </trkpt>
      <trkpt lat="46.71946" lon="-1.93964">
        <ele>1</ele>
        <time>2018-03-08T03:48:36Z</time>
      </trkpt>
      <trkpt lat="46.71967" lon="-1.93959">
        <ele>2</ele>
        <time>2018-03-08T03:49:36Z</time>
      </trkpt>
      <trkpt lat="46.71981" lon="-1.93957">
        <ele>2</ele>
        <time>2018-03-08T03:50:36Z</time>
      </trkpt>
      <trkpt lat="46.71994" lon="-1.93954">
        <ele>2</ele>
        <time>2018-03-08T03:51:36Z</time>
      </trkpt>
      <trkpt lat="46.72012" lon="-1.93952">
        <ele>2</ele>
        <time>2018-03-08T03:52:36Z</time>
      </trkpt>
      <trkpt lat="46.72021" lon="-1.93951">
        <ele>2</ele>
        <time>2018-03-08T03:53:36Z</time>
      </trkpt>
      <trkpt lat="46.72029" lon="-1.93951">
        <ele>2</ele>
        <time>2018-03-08T03:54:36Z</time>
      </trkpt>
      <trkpt lat="46.72036" lon="-1.9395">
        <ele>2</ele>
        <time>2018-03-08T03:55:36Z</time>
      </trkpt>
      <trkpt lat="46.72043" lon="-1.9395">
        <ele>2</ele>
        <time>2018-03-08T03:56:36Z</time>
      </trkpt>
      <trkpt lat="46.72049" lon="-1.93951">
        <ele>2</ele>
        <time>2018-03-08T03:57:36Z</time>
      </trkpt>
      <trkpt lat="46.72054" lon="-1.93951">
        <ele>2</ele>
        <time>2018-03-08T03:58:36Z</time>
      </trkpt>
      <trkpt lat="46.72062" lon="-1.93951">
        <ele>2</ele>
        <time>2018-03-08T03:59:36Z</time>
      </trkpt>
      <trkpt lat="46.7207" lon="-1.93952">
        <ele>2</ele>
        <time>2018-03-08T04:00:36Z</time>
      </trkpt>
      <trkpt lat="46.7208" lon="-1.93953">
        <ele>2</ele>
        <time>2018-03-08T04:01:36Z</time>
      </trkpt>
      <trkpt lat="46.72086" lon="-1.93954">
        <ele>2</ele>
        <time>2018-03-08T04:02:36Z</time>
      </trkpt>
      <trkpt lat="46.72094" lon="-1.93955">
        <ele>2</ele>
        <time>2018-03-08T04:03:36Z</time>
      </trkpt>
      <trkpt lat="46.72106" lon="-1.93957">
        <ele>2</ele>
        <time>2018-03-08T04:04:36Z</time>
      </trkpt>
      <trkpt lat="46.72117" lon="-1.93959">
        <ele>2</ele>
        <time>2018-03-08T04:05:36Z</time>
      </trkpt>
      <trkpt lat="46.72129" lon="-1.93963">
        <ele>2</ele>
        <time>2018-03-08T04:06:36Z</time>
      </trkpt>
      <trkpt lat="46.72139" lon="-1.93966">
        <ele>2</ele>
        <time>2018-03-08T04:07:36Z</time>
      </trkpt>
      <trkpt lat="46.72149" lon="-1.93969">
        <ele>2</ele>
        <time>2018-03-08T04:08:36Z</time>
      </trkpt>
      <trkpt lat="46.72158" lon="-1.93972">
        <ele>2</ele>
        <time>2018-03-08T04:09:36Z</time>
      </trkpt>
      <trkpt lat="46.72167" lon="-1.93976">
        <ele>2</ele>
        <time>2018-03-08T04:10:36Z</time>
      </trkpt>
      <trkpt lat="46.72174" lon="-1.93979">
        <ele>2</ele>
        <time>2018-03-08T04:11:36Z</time>
      </trkpt>
      <trkpt lat="46.72178" lon="-1.93981">
        <ele>2</ele>
        <time>2018-03-08T04:12:36Z</time>
      </trkpt>
      <trkpt lat="46.72183" lon="-1.93983">
        <ele>2</ele>
        <time>2018-03-08T04:13:36Z</time>
      </trkpt>
      <trkpt lat="46.72187" lon="-1.93985">
        <ele>2</ele>
        <time>2018-03-08T04:14:36Z</time>
      </trkpt>
      <trkpt lat="46.72191" lon="-1.93987">
        <ele>2</ele>
        <time>2018-03-08T04:15:36Z</time>
      </trkpt>
      <trkpt lat="46.72195" lon="-1.9399">
        <ele>2</ele>
        <time>2018-03-08T04:16:36Z</time>
      </trkpt>
      <trkpt lat="46.72201" lon="-1.93993">
        <ele>2</ele>
        <time>2018-03-08T04:17:36Z</time>
      </trkpt>
      <trkpt lat="46.72208" lon="-1.93997">
        <ele>2</ele>
        <time>2018-03-08T04:18:36Z</time>
      </trkpt>
      <trkpt lat="46.72214" lon="-1.94">
        <ele>1</ele>
        <time>2018-03-08T04:19:36Z</time>
      </trkpt>
      <trkpt lat="46.72222" lon="-1.94005">
        <ele>1</ele>
        <time>2018-03-08T04:20:36Z</time>
      </trkpt>
      <trkpt lat="46.72228" lon="-1.94009">
        <ele>1</ele>
        <time>2018-03-08T04:21:36Z</time>
      </trkpt>
      <trkpt lat="46.72235" lon="-1.94014">
        <ele>1</ele>
        <time>2018-03-08T04:22:36Z</time>
      </trkpt>
      <trkpt lat="46.72241" lon="-1.94019">
        <ele>2</ele>
        <time>2018-03-08T04:23:36Z</time>
      </trkpt>
      <trkpt lat="46.72248" lon="-1.94024">
        <ele>2</ele>
        <time>2018-03-08T04:24:36Z</time>
      </trkpt>
      <trkpt lat="46.72254" lon="-1.94029">
        <ele>2</ele>
        <time>2018-03-08T04:25:36Z</time>
      </trkpt>
      <trkpt lat="46.72262" lon="-1.94035">
        <ele>2</ele>
        <time>2018-03-08T04:26:36Z</time>
      </trkpt>
      <trkpt lat="46.72271" lon="-1.94043">
        <ele>2</ele>
        <time>2018-03-08T04:27:36Z</time>
      </trkpt>
      <trkpt lat="46.72278" lon="-1.94048">
        <ele>2</ele>
        <time>2018-03-08T04:28:36Z</time>
      </trkpt>
      <trkpt lat="46.72291" lon="-1.94061">
        <ele>3</ele>
        <time>2018-03-08T04:29:36Z</time>
      </trkpt>
      <trkpt lat="46.723" lon="-1.94069">
        <ele>3</ele>
        <time>2018-03-08T04:30:36Z</time>
      </trkpt>
      <trkpt lat="46.72306" lon="-1.94075">
        <ele>3</ele>
        <time>2018-03-08T04:31:36Z</time>
      </trkpt>
      <trkpt lat="46.72313" lon="-1.94083">
        <ele>4</ele>
        <time>2018-03-08T04:32:36Z</time>
      </trkpt>
      <trkpt lat="46.72321" lon="-1.94092">
        <ele>4</ele>
        <time>2018-03-08T04:33:36Z</time>
      </trkpt>
      <trkpt lat="46.72327" lon="-1.94099">
        <ele>4</ele>
        <time>2018-03-08T04:34:36Z</time>
      </trkpt>
      <trkpt lat="46.72334" lon="-1.94107">
        <ele>4</ele>
        <time>2018-03-08T04:35:36Z</time>
      </trkpt>
      <trkpt lat="46.72342" lon="-1.94117">
        <ele>4</ele>
        <time>2018-03-08T04:36:36Z</time>
      </trkpt>
      <trkpt lat="46.72346" lon="-1.94123">
        <ele>4</ele>
        <time>2018-03-08T04:37:36Z</time>
      </trkpt>
      <trkpt lat="46.7235" lon="-1.94128">
        <ele>4</ele>
        <time>2018-03-08T04:38:36Z</time>
      </trkpt>
      <trkpt lat="46.72354" lon="-1.94133">
        <ele>4</ele>
        <time>2018-03-08T04:39:36Z</time>
      </trkpt>
      <trkpt lat="46.72357" lon="-1.94138">
        <ele>4</ele>
        <time>2018-03-08T04:40:36Z</time>
      </trkpt>
      <trkpt lat="46.72362" lon="-1.94142">
        <ele>4</ele>
        <time>2018-03-08T04:41:36Z</time>
      </trkpt>
      <trkpt lat="46.72368" lon="-1.94152">
        <ele>4</ele>
        <time>2018-03-08T04:42:36Z</time>
      </trkpt>
      <trkpt lat="46.72373" lon="-1.94159">
        <ele>3</ele>
        <time>2018-03-08T04:43:36Z</time>
      </trkpt>
      <trkpt lat="46.72379" lon="-1.94169">
        <ele>3</ele>
        <time>2018-03-08T04:44:36Z</time>
      </trkpt>
      <trkpt lat="46.72386" lon="-1.9418">
        <ele>3</ele>
        <time>2018-03-08T04:45:36Z</time>
      </trkpt>
      <trkpt lat="46.72393" lon="-1.9419">
        <ele>3</ele>
        <time>2018-03-08T04:46:36Z</time>
      </trkpt>
      <trkpt lat="46.72401" lon="-1.94205">
        <ele>3</ele>
        <time>2018-03-08T04:47:36Z</time>
      </trkpt>
      <trkpt lat="46.7241" lon="-1.9422">
        <ele>3</ele>
        <time>2018-03-08T04:48:36Z</time>
      </trkpt>
      <trkpt lat="46.72424" lon="-1.94243">
        <ele>4</ele>
        <time>2018-03-08T04:49:36Z</time>
      </trkpt>
      <trkpt lat="46.72442" lon="-1.94276">
        <ele>4</ele>
        <time>2018-03-08T04:50:36Z</time>
      </trkpt>
      <trkpt lat="46.72468" lon="-1.94322">
        <ele>4</ele>
        <time>2018-03-08T04:51:36Z</time>
      </trkpt>
      <trkpt lat="46.72468" lon="-1.94322">
        <ele>4</ele>
        <time>2018-03-08T04:52:36Z</time>
      </trkpt>
      <trkpt lat="46.72487" lon="-1.94312">
        <ele>4</ele>
        <time>2018-03-08T04:53:36Z</time>
      </trkpt>
      <trkpt lat="46.72489" lon="-1.94311">
        <ele>4</ele>
        <time>2018-03-08T04:54:36Z</time>
      </trkpt>
      <trkpt lat="46.72493" lon="-1.94311">
        <ele>4</ele>
        <time>2018-03-08T04:55:36Z</time>
      </trkpt>
      <trkpt lat="46.72496" lon="-1.94311">
        <ele>4</ele>
        <time>2018-03-08T04:56:36Z</time>
      </trkpt>
      <trkpt lat="46.72501" lon="-1.94308">
        <ele>4</ele>
        <time>2018-03-08T04:57:36Z</time>
      </trkpt>
      <trkpt lat="46.72505" lon="-1.94305">
        <ele>4</ele>
        <time>2018-03-08T04:58:36Z</time>
      </trkpt>
      <trkpt lat="46.72508" lon="-1.94302">
        <ele>4</ele>
        <time>2018-03-08T04:59:36Z</time>
      </trkpt>
      <trkpt lat="46.72511" lon="-1.943">
        <ele>4</ele>
        <time>2018-03-08T05:00:36Z</time>
      </trkpt>
      <trkpt lat="46.72516" lon="-1.94294">
        <ele>4</ele>
        <time>2018-03-08T05:01:36Z</time>
      </trkpt>
      <trkpt lat="46.7252" lon="-1.94289">
        <ele>4</ele>
        <time>2018-03-08T05:02:36Z</time>
      </trkpt>
      <trkpt lat="46.72523" lon="-1.94283">
        <ele>4</ele>
        <time>2018-03-08T05:03:36Z</time>
      </trkpt>
      <trkpt lat="46.72526" lon="-1.94279">
        <ele>4</ele>
        <time>2018-03-08T05:04:36Z</time>
      </trkpt>
      <trkpt lat="46.72535" lon="-1.94259">
        <ele>4</ele>
        <time>2018-03-08T05:05:36Z</time>
      </trkpt>
      <trkpt lat="46.72558" lon="-1.942">
        <ele>3</ele>
        <time>2018-03-08T05:06:36Z</time>
      </trkpt>
      <trkpt lat="46.72576" lon="-1.94156">
        <ele>3</ele>
        <time>2018-03-08T05:07:36Z</time>
      </trkpt>
      <trkpt lat="46.72592" lon="-1.94115">
        <ele>3</ele>
        <time>2018-03-08T05:08:36Z</time>
      </trkpt>
      <trkpt lat="46.72604" lon="-1.94088">
        <ele>3</ele>
        <time>2018-03-08T05:09:36Z</time>
      </trkpt>
      <trkpt lat="46.72614" lon="-1.94064">
        <ele>3</ele>
        <time>2018-03-08T05:10:36Z</time>
      </trkpt>
      <trkpt lat="46.7263" lon="-1.94032">
        <ele>4</ele>
        <time>2018-03-08T05:11:36Z</time>
      </trkpt>
      <trkpt lat="46.72638" lon="-1.94014">
        <ele>4</ele>
        <time>2018-03-08T05:12:36Z</time>
      </trkpt>
      <trkpt lat="46.72646" lon="-1.93999">
        <ele>4</ele>
        <time>2018-03-08T05:13:36Z</time>
      </trkpt>
      <trkpt lat="46.72659" lon="-1.93978">
        <ele>4</ele>
        <time>2018-03-08T05:14:36Z</time>
      </trkpt>
      <trkpt lat="46.72665" lon="-1.9397">
        <ele>4</ele>
        <time>2018-03-08T05:15:36Z</time>
      </trkpt>
      <trkpt lat="46.72675" lon="-1.9396">
        <ele>4</ele>
        <time>2018-03-08T05:16:36Z</time>
      </trkpt>
      <trkpt lat="46.72693" lon="-1.93944">
        <ele>4</ele>
        <time>2018-03-08T05:17:36Z</time>
      </trkpt>
      <trkpt lat="46.72728" lon="-1.93918">
        <ele>4</ele>
        <time>2018-03-08T05:18:36Z</time>
      </trkpt>
      <trkpt lat="46.72764" lon="-1.93888">
        <ele>3</ele>
        <time>2018-03-08T05:19:36Z</time>
      </trkpt>
      <trkpt lat="46.72788" lon="-1.93868">
        <ele>3</ele>
        <time>2018-03-08T05:20:36Z</time>
      </trkpt>
      <trkpt lat="46.72813" lon="-1.93847">
        <ele>3</ele>
        <time>2018-03-08T05:21:36Z</time>
      </trkpt>
      <trkpt lat="46.72837" lon="-1.93824">
        <ele>3</ele>
        <time>2018-03-08T05:22:36Z</time>
      </trkpt>
      <trkpt lat="46.72848" lon="-1.93812">
        <ele>2</ele>
        <time>2018-03-08T05:23:36Z</time>
      </trkpt>
      <trkpt lat="46.72861" lon="-1.93798">
        <ele>2</ele>
        <time>2018-03-08T05:24:36Z</time>
      </trkpt>
      <trkpt lat="46.72875" lon="-1.93779">
        <ele>2</ele>
        <time>2018-03-08T05:25:36Z</time>
      </trkpt>
      <trkpt lat="46.72905" lon="-1.93732">
        <ele>1</ele>
        <time>2018-03-08T05:26:36Z</time>
      </trkpt>
      <trkpt lat="46.7291" lon="-1.93724">
        <ele>1</ele>
        <time>2018-03-08T05:27:36Z</time>
      </trkpt>
      <trkpt lat="46.72928" lon="-1.93697">
        <ele>1</ele>
        <time>2018-03-08T05:28:36Z</time>
      </trkpt>
      <trkpt lat="46.72932" lon="-1.93689">
        <ele>1</ele>
        <time>2018-03-08T05:29:36Z</time>
      </trkpt>
      <trkpt lat="46.72951" lon="-1.9366">
        <ele>1</ele>
        <time>2018-03-08T05:30:36Z</time>
      </trkpt>
      <trkpt lat="46.72961" lon="-1.93643">
        <ele>1</ele>
        <time>2018-03-08T05:31:36Z</time>
      </trkpt>
      <trkpt lat="46.72967" lon="-1.93631">
        <ele>1</ele>
        <time>2018-03-08T05:32:36Z</time>
      </trkpt>
      <trkpt lat="46.72973" lon="-1.9362">
        <ele>1</ele>
        <time>2018-03-08T05:33:36Z</time>
      </trkpt>
      <trkpt lat="46.72976" lon="-1.93612">
        <ele>1</ele>
        <time>2018-03-08T05:34:36Z</time>
      </trkpt>
      <trkpt lat="46.72981" lon="-1.93597">
        <ele>2</ele>
        <time>2018-03-08T05:35:36Z</time>
      </trkpt>
      <trkpt lat="46.72986" lon="-1.93582">
        <ele>2</ele>
        <time>2018-03-08T05:36:36Z</time>
      </trkpt>
      <trkpt lat="46.72987" lon="-1.93576">
        <ele>2</ele>
        <time>2018-03-08T05:37:36Z</time>
      </trkpt>
      <trkpt lat="46.72991" lon="-1.9356">
        <ele>1</ele>
        <time>2018-03-08T05:38:36Z</time>
      </trkpt>
      <trkpt lat="46.72997" lon="-1.93533">
        <ele>1</ele>
        <time>2018-03-08T05:39:36Z</time>
      </trkpt>
      <trkpt lat="46.73002" lon="-1.93484">
        <ele>2.5</ele>
        <time>2018-03-08T05:40:36Z</time>
      </trkpt>
      <trkpt lat="46.73007" lon="-1.93413">
        <ele>1</ele>
        <time>2018-03-08T05:41:36Z</time>
      </trkpt>
      <trkpt lat="46.73012" lon="-1.93352">
        <ele>2</ele>
        <time>2018-03-08T05:42:36Z</time>
      </trkpt>
      <trkpt lat="46.73013" lon="-1.93326">
        <ele>3</ele>
        <time>2018-03-08T05:43:36Z</time>
      </trkpt>
      <trkpt lat="46.73013" lon="-1.93306">
        <ele>3</ele>
        <time>2018-03-08T05:44:36Z</time>
      </trkpt>
      <trkpt lat="46.73012" lon="-1.9329">
        <ele>3</ele>
        <time>2018-03-08T05:45:36Z</time>
      </trkpt>
      <trkpt lat="46.73011" lon="-1.93282">
        <ele>4</ele>
        <time>2018-03-08T05:46:36Z</time>
      </trkpt>
      <trkpt lat="46.73009" lon="-1.93253">
        <ele>4</ele>
        <time>2018-03-08T05:47:36Z</time>
      </trkpt>
      <trkpt lat="46.73009" lon="-1.93242">
        <ele>4</ele>
        <time>2018-03-08T05:48:36Z</time>
      </trkpt>
      <trkpt lat="46.73008" lon="-1.93236">
        <ele>4</ele>
        <time>2018-03-08T05:49:36Z</time>
      </trkpt>
      <trkpt lat="46.73005" lon="-1.93202">
        <ele>3</ele>
        <time>2018-03-08T05:50:36Z</time>
      </trkpt>
      <trkpt lat="46.72999" lon="-1.93142">
        <ele>2</ele>
        <time>2018-03-08T05:51:36Z</time>
      </trkpt>
      <trkpt lat="46.72992" lon="-1.93073">
        <ele>2</ele>
        <time>2018-03-08T05:52:36Z</time>
      </trkpt>
      <trkpt lat="46.72991" lon="-1.93061">
        <ele>2</ele>
        <time>2018-03-08T05:53:36Z</time>
      </trkpt>
      <trkpt lat="46.72988" lon="-1.93017">
        <ele>3</ele>
        <time>2018-03-08T05:54:36Z</time>
      </trkpt>
      <trkpt lat="46.72986" lon="-1.92984">
        <ele>4</ele>
        <time>2018-03-08T05:55:36Z</time>
      </trkpt>
      <trkpt lat="46.72987" lon="-1.92966">
        <ele>4</ele>
        <time>2018-03-08T05:56:36Z</time>
      </trkpt>
      <trkpt lat="46.72988" lon="-1.9295">
        <ele>3</ele>
        <time>2018-03-08T05:57:36Z</time>
      </trkpt>
      <trkpt lat="46.72991" lon="-1.92935">
        <ele>3</ele>
        <time>2018-03-08T05:58:36Z</time>
      </trkpt>
      <trkpt lat="46.72995" lon="-1.92922">
        <ele>3</ele>
        <time>2018-03-08T05:59:36Z</time>
      </trkpt>
      <trkpt lat="46.73003" lon="-1.92906">
        <ele>3</ele>
        <time>2018-03-08T06:00:36Z</time>
      </trkpt>
      <trkpt lat="46.73013" lon="-1.92891">
        <ele>4</ele>
        <time>2018-03-08T06:01:36Z</time>
      </trkpt>
      <trkpt lat="46.7302" lon="-1.92882">
        <ele>4</ele>
        <time>2018-03-08T06:02:36Z</time>
      </trkpt>
      <trkpt lat="46.7303" lon="-1.92875">
        <ele>5</ele>
        <time>2018-03-08T06:03:36Z</time>
      </trkpt>
      <trkpt lat="46.73039" lon="-1.92872">
        <ele>5</ele>
        <time>2018-03-08T06:04:36Z</time>
      </trkpt>
      <trkpt lat="46.73048" lon="-1.92868">
        <ele>5</ele>
        <time>2018-03-08T06:05:36Z</time>
      </trkpt>
      <trkpt lat="46.73062" lon="-1.92865">
        <ele>5</ele>
        <time>2018-03-08T06:06:36Z</time>
      </trkpt>
      <trkpt lat="46.73087" lon="-1.92863">
        <ele>6</ele>
        <time>2018-03-08T06:07:36Z</time>
      </trkpt>
      <trkpt lat="46.73108" lon="-1.92861">
        <ele>6</ele>
        <time>2018-03-08T06:08:36Z</time>
      </trkpt>
      <trkpt lat="46.73108" lon="-1.92861">
        <ele>6</ele>
        <time>2018-03-08T06:09:36Z</time>
      </trkpt>
      <trkpt lat="46.73113" lon="-1.92851">
        <ele>6</ele>
        <time>2018-03-08T06:10:36Z</time>
      </trkpt>
      <trkpt lat="46.7312" lon="-1.9284">
        <ele>7</ele>
        <time>2018-03-08T06:11:36Z</time>
      </trkpt>
      <trkpt lat="46.73138" lon="-1.92824">
        <ele>7</ele>
        <time>2018-03-08T06:12:36Z</time>
      </trkpt>
      <trkpt lat="46.73156" lon="-1.92807">
        <ele>7</ele>
        <time>2018-03-08T06:13:36Z</time>
      </trkpt>
      <trkpt lat="46.73191" lon="-1.92776">
        <ele>8</ele>
        <time>2018-03-08T06:14:36Z</time>
      </trkpt>
      <trkpt lat="46.73214" lon="-1.92753">
        <ele>8</ele>
        <time>2018-03-08T06:15:36Z</time>
      </trkpt>
      <trkpt lat="46.73238" lon="-1.92725">
        <ele>8</ele>
        <time>2018-03-08T06:16:36Z</time>
      </trkpt>
      <trkpt lat="46.73277" lon="-1.92674">
        <ele>9</ele>
        <time>2018-03-08T06:17:36Z</time>
      </trkpt>
      <trkpt lat="46.73317" lon="-1.9262">
        <ele>9</ele>
        <time>2018-03-08T06:18:36Z</time>
      </trkpt>
      <trkpt lat="46.73362" lon="-1.92559">
        <ele>9</ele>
        <time>2018-03-08T06:19:36Z</time>
      </trkpt>
      <trkpt lat="46.73384" lon="-1.92531">
        <ele>9</ele>
        <time>2018-03-08T06:20:36Z</time>
      </trkpt>
      <trkpt lat="46.734" lon="-1.92511">
        <ele>9</ele>
        <time>2018-03-08T06:21:36Z</time>
      </trkpt>
      <trkpt lat="46.73407" lon="-1.92503">
        <ele>9</ele>
        <time>2018-03-08T06:22:36Z</time>
      </trkpt>
      <trkpt lat="46.73416" lon="-1.92492">
        <ele>9</ele>
        <time>2018-03-08T06:23:36Z</time>
      </trkpt>
      <trkpt lat="46.73425" lon="-1.92479">
        <ele>9</ele>
        <time>2018-03-08T06:24:36Z</time>
      </trkpt>
      <trkpt lat="46.73441" lon="-1.92457">
        <ele>10</ele>
        <time>2018-03-08T06:25:36Z</time>
      </trkpt>
      <trkpt lat="46.73469" lon="-1.92417">
        <ele>10</ele>
        <time>2018-03-08T06:26:36Z</time>
      </trkpt>
      <trkpt lat="46.73473" lon="-1.92412">
        <ele>10</ele>
        <time>2018-03-08T06:27:36Z</time>
      </trkpt>
      <trkpt lat="46.73494" lon="-1.92381">
        <ele>10</ele>
        <time>2018-03-08T06:28:36Z</time>
      </trkpt>
      <trkpt lat="46.73535" lon="-1.92326">
        <ele>10</ele>
        <time>2018-03-08T06:29:36Z</time>
      </trkpt>
      <trkpt lat="46.73545" lon="-1.92313">
        <ele>9</ele>
        <time>2018-03-08T06:30:36Z</time>
      </trkpt>
      <trkpt lat="46.73578" lon="-1.92269">
        <ele>9</ele>
        <time>2018-03-08T06:31:36Z</time>
      </trkpt>
      <trkpt lat="46.73602" lon="-1.92237">
        <ele>9</ele>
        <time>2018-03-08T06:32:36Z</time>
      </trkpt>
      <trkpt lat="46.73621" lon="-1.92211">
        <ele>9</ele>
        <time>2018-03-08T06:33:36Z</time>
      </trkpt>
      <trkpt lat="46.73635" lon="-1.92191">
        <ele>9</ele>
        <time>2018-03-08T06:34:36Z</time>
      </trkpt>
      <trkpt lat="46.73646" lon="-1.92175">
        <ele>9</ele>
        <time>2018-03-08T06:35:36Z</time>
      </trkpt>
      <trkpt lat="46.73659" lon="-1.92154">
        <ele>9</ele>
        <time>2018-03-08T06:36:36Z</time>
      </trkpt>
      <trkpt lat="46.73671" lon="-1.92133">
        <ele>8</ele>
        <time>2018-03-08T06:37:36Z</time>
      </trkpt>
      <trkpt lat="46.7369" lon="-1.92099">
        <ele>7</ele>
        <time>2018-03-08T06:38:36Z</time>
      </trkpt>
      <trkpt lat="46.73727" lon="-1.92027">
        <ele>6</ele>
        <time>2018-03-08T06:39:36Z</time>
      </trkpt>
      <trkpt lat="46.73756" lon="-1.91966">
        <ele>6</ele>
        <time>2018-03-08T06:40:36Z</time>
      </trkpt>
      <trkpt lat="46.73777" lon="-1.91924">
        <ele>5</ele>
        <time>2018-03-08T06:41:36Z</time>
      </trkpt>
      <trkpt lat="46.73782" lon="-1.91913">
        <ele>5</ele>
        <time>2018-03-08T06:42:36Z</time>
      </trkpt>
      <trkpt lat="46.73787" lon="-1.91904">
        <ele>5</ele>
        <time>2018-03-08T06:43:36Z</time>
      </trkpt>
      <trkpt lat="46.73793" lon="-1.91895">
        <ele>5</ele>
        <time>2018-03-08T06:44:36Z</time>
      </trkpt>
      <trkpt lat="46.738" lon="-1.91886">
        <ele>5</ele>
        <time>2018-03-08T06:45:36Z</time>
      </trkpt>
      <trkpt lat="46.73813" lon="-1.91873">
        <ele>5</ele>
        <time>2018-03-08T06:46:36Z</time>
      </trkpt>
      <trkpt lat="46.73863" lon="-1.91828">
        <ele>4</ele>
        <time>2018-03-08T06:47:36Z</time>
      </trkpt>
      <trkpt lat="46.73918" lon="-1.91773">
        <ele>4</ele>
        <time>2018-03-08T06:48:36Z</time>
      </trkpt>
      <trkpt lat="46.73929" lon="-1.91762">
        <ele>4</ele>
        <time>2018-03-08T06:49:36Z</time>
      </trkpt>
      <trkpt lat="46.73946" lon="-1.91744">
        <ele>4</ele>
        <time>2018-03-08T06:50:36Z</time>
      </trkpt>
      <trkpt lat="46.73954" lon="-1.91736">
        <ele>5</ele>
        <time>2018-03-08T06:51:36Z</time>
      </trkpt>
      <trkpt lat="46.73966" lon="-1.91725">
        <ele>5</ele>
        <time>2018-03-08T06:52:36Z</time>
      </trkpt>
      <trkpt lat="46.73966" lon="-1.91725">
        <ele>5</ele>
        <time>2018-03-08T06:53:36Z</time>
      </trkpt>
      <trkpt lat="46.73994" lon="-1.91701">
        <ele>5</ele>
        <time>2018-03-08T06:54:36Z</time>
      </trkpt>
      <trkpt lat="46.74036" lon="-1.91667">
        <ele>6</ele>
        <time>2018-03-08T06:55:36Z</time>
      </trkpt>
      <trkpt lat="46.74089" lon="-1.91626">
        <ele>5</ele>
        <time>2018-03-08T06:56:36Z</time>
      </trkpt>
      <trkpt lat="46.74117" lon="-1.91604">
        <ele>5</ele>
        <time>2018-03-08T06:57:36Z</time>
      </trkpt>
      <trkpt lat="46.74143" lon="-1.91582">
        <ele>5</ele>
        <time>2018-03-08T06:58:36Z</time>
      </trkpt>
      <trkpt lat="46.74156" lon="-1.9157">
        <ele>5</ele>
        <time>2018-03-08T06:59:36Z</time>
      </trkpt>
      <trkpt lat="46.74172" lon="-1.91555">
        <ele>5</ele>
        <time>2018-03-08T07:00:36Z</time>
      </trkpt>
      <trkpt lat="46.74174" lon="-1.91553">
        <ele>5</ele>
        <time>2018-03-08T07:01:36Z</time>
      </trkpt>
      <trkpt lat="46.74192" lon="-1.91535">
        <ele>5</ele>
        <time>2018-03-08T07:02:36Z</time>
      </trkpt>
      <trkpt lat="46.74235" lon="-1.91492">
        <ele>5</ele>
        <time>2018-03-08T07:03:36Z</time>
      </trkpt>
      <trkpt lat="46.74245" lon="-1.91482">
        <ele>5</ele>
        <time>2018-03-08T07:04:36Z</time>
      </trkpt>
      <trkpt lat="46.74283" lon="-1.91443">
        <ele>4</ele>
        <time>2018-03-08T07:05:36Z</time>
      </trkpt>
      <trkpt lat="46.74292" lon="-1.91432">
        <ele>4</ele>
        <time>2018-03-08T07:06:36Z</time>
      </trkpt>
      <trkpt lat="46.74294" lon="-1.91432">
        <ele>4</ele>
        <time>2018-03-08T07:07:36Z</time>
      </trkpt>
      <trkpt lat="46.74297" lon="-1.91431">
        <ele>4</ele>
        <time>2018-03-08T07:08:36Z</time>
      </trkpt>
      <trkpt lat="46.74311" lon="-1.91431">
        <ele>4</ele>
        <time>2018-03-08T07:09:36Z</time>
      </trkpt>
      <trkpt lat="46.74311" lon="-1.91431">
        <ele>4</ele>
        <time>2018-03-08T07:10:36Z</time>
      </trkpt>
      <trkpt lat="46.74317" lon="-1.91418">
        <ele>4</ele>
        <time>2018-03-08T07:11:36Z</time>
      </trkpt>
      <trkpt lat="46.74324" lon="-1.91402">
        <ele>4</ele>
        <time>2018-03-08T07:12:36Z</time>
      </trkpt>
      <trkpt lat="46.74333" lon="-1.91384">
        <ele>4</ele>
        <time>2018-03-08T07:13:36Z</time>
      </trkpt>
      <trkpt lat="46.74344" lon="-1.9136">
        <ele>4</ele>
        <time>2018-03-08T07:14:36Z</time>
      </trkpt>
      <trkpt lat="46.74351" lon="-1.91346">
        <ele>4</ele>
        <time>2018-03-08T07:15:36Z</time>
      </trkpt>
      <trkpt lat="46.74358" lon="-1.91334">
        <ele>4</ele>
        <time>2018-03-08T07:16:36Z</time>
      </trkpt>
      <trkpt lat="46.74367" lon="-1.91321">
        <ele>4</ele>
        <time>2018-03-08T07:17:36Z</time>
      </trkpt>
      <trkpt lat="46.74375" lon="-1.91309">
        <ele>3</ele>
        <time>2018-03-08T07:18:36Z</time>
      </trkpt>
      <trkpt lat="46.74385" lon="-1.91297">
        <ele>3</ele>
        <time>2018-03-08T07:19:36Z</time>
      </trkpt>
      <trkpt lat="46.74388" lon="-1.91293">
        <ele>3</ele>
        <time>2018-03-08T07:20:36Z</time>
      </trkpt>
      <trkpt lat="46.74418" lon="-1.91257">
        <ele>3</ele>
        <time>2018-03-08T07:21:36Z</time>
      </trkpt>
      <trkpt lat="46.74469" lon="-1.91194">
        <ele>4</ele>
        <time>2018-03-08T07:22:36Z</time>
      </trkpt>
      <trkpt lat="46.74477" lon="-1.91184">
        <ele>4</ele>
        <time>2018-03-08T07:23:36Z</time>
      </trkpt>
      <trkpt lat="46.74534" lon="-1.91117">
        <ele>3</ele>
        <time>2018-03-08T07:24:36Z</time>
      </trkpt>
      <trkpt lat="46.74563" lon="-1.91079">
        <ele>3</ele>
        <time>2018-03-08T07:25:36Z</time>
      </trkpt>
      <trkpt lat="46.74569" lon="-1.91072">
        <ele>2</ele>
        <time>2018-03-08T07:26:36Z</time>
      </trkpt>
      <trkpt lat="46.74573" lon="-1.91066">
        <ele>2</ele>
        <time>2018-03-08T07:27:36Z</time>
      </trkpt>
      <trkpt lat="46.74576" lon="-1.9106">
        <ele>2</ele>
        <time>2018-03-08T07:28:36Z</time>
      </trkpt>
      <trkpt lat="46.74584" lon="-1.91045">
        <ele>2</ele>
        <time>2018-03-08T07:29:36Z</time>
      </trkpt>
      <trkpt lat="46.74581" lon="-1.91042">
        <ele>3</ele>
        <time>2018-03-08T07:30:36Z</time>
      </trkpt>
      <trkpt lat="46.7458" lon="-1.91039">
        <ele>3</ele>
        <time>2018-03-08T07:31:36Z</time>
      </trkpt>
      <trkpt lat="46.74579" lon="-1.91036">
        <ele>3</ele>
        <time>2018-03-08T07:32:36Z</time>
      </trkpt>
      <trkpt lat="46.74579" lon="-1.91033">
        <ele>3</ele>
        <time>2018-03-08T07:33:36Z</time>
      </trkpt>
      <trkpt lat="46.7458" lon="-1.9103">
        <ele>3</ele>
        <time>2018-03-08T07:34:36Z</time>
      </trkpt>
      <trkpt lat="46.74583" lon="-1.91026">
        <ele>3</ele>
        <time>2018-03-08T07:35:36Z</time>
      </trkpt>
      <trkpt lat="46.74586" lon="-1.91024">
        <ele>3</ele>
        <time>2018-03-08T07:36:36Z</time>
      </trkpt>
      <trkpt lat="46.74589" lon="-1.91025">
        <ele>3</ele>
        <time>2018-03-08T07:37:36Z</time>
      </trkpt>
      <trkpt lat="46.74591" lon="-1.91026">
        <ele>3</ele>
        <time>2018-03-08T07:38:36Z</time>
      </trkpt>
      <trkpt lat="46.74596" lon="-1.91019">
        <ele>3</ele>
        <time>2018-03-08T07:39:36Z</time>
      </trkpt>
      <trkpt lat="46.74597" lon="-1.91017">
        <ele>3</ele>
        <time>2018-03-08T07:40:36Z</time>
      </trkpt>
      <trkpt lat="46.74598" lon="-1.91015">
        <ele>3</ele>
        <time>2018-03-08T07:41:36Z</time>
      </trkpt>
      <trkpt lat="46.746" lon="-1.91009">
        <ele>3</ele>
        <time>2018-03-08T07:42:36Z</time>
      </trkpt>
      <trkpt lat="46.74602" lon="-1.91001">
        <ele>3</ele>
        <time>2018-03-08T07:43:36Z</time>
      </trkpt>
      <trkpt lat="46.74603" lon="-1.9099">
        <ele>3</ele>
        <time>2018-03-08T07:44:36Z</time>
      </trkpt>
      <trkpt lat="46.74603" lon="-1.9098">
        <ele>3</ele>
        <time>2018-03-08T07:45:36Z</time>
      </trkpt>
      <trkpt lat="46.74602" lon="-1.9097">
        <ele>3</ele>
        <time>2018-03-08T07:46:36Z</time>
      </trkpt>
      <trkpt lat="46.74599" lon="-1.9096">
        <ele>3</ele>
        <time>2018-03-08T07:47:36Z</time>
      </trkpt>
      <trkpt lat="46.74594" lon="-1.90947">
        <ele>3</ele>
        <time>2018-03-08T07:48:36Z</time>
      </trkpt>
      <trkpt lat="46.74591" lon="-1.9094">
        <ele>3</ele>
        <time>2018-03-08T07:49:36Z</time>
      </trkpt>
      <trkpt lat="46.74581" lon="-1.90912">
        <ele>3</ele>
        <time>2018-03-08T07:50:36Z</time>
      </trkpt>
      <trkpt lat="46.7458" lon="-1.90911">
        <ele>3</ele>
        <time>2018-03-08T07:51:36Z</time>
      </trkpt>
      <trkpt lat="46.74576" lon="-1.90901">
        <ele>3</ele>
        <time>2018-03-08T07:52:36Z</time>
      </trkpt>
      <trkpt lat="46.74572" lon="-1.90893">
        <ele>4</ele>
        <time>2018-03-08T07:53:36Z</time>
      </trkpt>
      <trkpt lat="46.74566" lon="-1.9088">
        <ele>4</ele>
        <time>2018-03-08T07:54:36Z</time>
      </trkpt>
      <trkpt lat="46.74566" lon="-1.9088">
        <ele>4</ele>
        <time>2018-03-08T07:55:36Z</time>
      </trkpt>
      <trkpt lat="46.74564" lon="-1.90876">
        <ele>4</ele>
        <time>2018-03-08T07:56:36Z</time>
      </trkpt>
      <trkpt lat="46.74554" lon="-1.90862">
        <ele>4</ele>
        <time>2018-03-08T07:57:36Z</time>
      </trkpt>
      <trkpt lat="46.74534" lon="-1.90836">
        <ele>5</ele>
        <time>2018-03-08T07:58:36Z</time>
      </trkpt>
      <trkpt lat="46.74528" lon="-1.90828">
        <ele>5</ele>
        <time>2018-03-08T07:59:36Z</time>
      </trkpt>
      <trkpt lat="46.74523" lon="-1.90822">
        <ele>5</ele>
        <time>2018-03-08T08:00:36Z</time>
      </trkpt>
      <trkpt lat="46.74511" lon="-1.90805">
        <ele>5</ele>
        <time>2018-03-08T08:01:36Z</time>
      </trkpt>
      <trkpt lat="46.74508" lon="-1.90798">
        <ele>5</ele>
        <time>2018-03-08T08:02:36Z</time>
      </trkpt>
      <trkpt lat="46.74503" lon="-1.90787">
        <ele>5</ele>
        <time>2018-03-08T08:03:36Z</time>
      </trkpt>
      <trkpt lat="46.74496" lon="-1.90771">
        <ele>5</ele>
        <time>2018-03-08T08:04:36Z</time>
      </trkpt>
      <trkpt lat="46.74491" lon="-1.90757">
        <ele>5</ele>
        <time>2018-03-08T08:05:36Z</time>
      </trkpt>
      <trkpt lat="46.74487" lon="-1.90744">
        <ele>5</ele>
        <time>2018-03-08T08:06:36Z</time>
      </trkpt>
      <trkpt lat="46.74486" lon="-1.90734">
        <ele>5</ele>
        <time>2018-03-08T08:07:36Z</time>
      </trkpt>
      <trkpt lat="46.74485" lon="-1.90722">
        <ele>5</ele>
        <time>2018-03-08T08:08:36Z</time>
      </trkpt>
      <trkpt lat="46.74486" lon="-1.90716">
        <ele>5</ele>
        <time>2018-03-08T08:09:36Z</time>
      </trkpt>
      <trkpt lat="46.74487" lon="-1.90711">
        <ele>5</ele>
        <time>2018-03-08T08:10:36Z</time>
      </trkpt>
      <trkpt lat="46.74489" lon="-1.90704">
        <ele>5</ele>
        <time>2018-03-08T08:11:36Z</time>
      </trkpt>
      <trkpt lat="46.74493" lon="-1.90698">
        <ele>4</ele>
        <time>2018-03-08T08:12:36Z</time>
      </trkpt>
      <trkpt lat="46.74497" lon="-1.9069">
        <ele>4</ele>
        <time>2018-03-08T08:13:36Z</time>
      </trkpt>
      <trkpt lat="46.74502" lon="-1.90684">
        <ele>4</ele>
        <time>2018-03-08T08:14:36Z</time>
      </trkpt>
      <trkpt lat="46.74506" lon="-1.90678">
        <ele>4</ele>
        <time>2018-03-08T08:15:36Z</time>
      </trkpt>
      <trkpt lat="46.74512" lon="-1.90668">
        <ele>4</ele>
        <time>2018-03-08T08:16:36Z</time>
      </trkpt>
      <trkpt lat="46.74519" lon="-1.90656">
        <ele>4</ele>
        <time>2018-03-08T08:17:36Z</time>
      </trkpt>
      <trkpt lat="46.74519" lon="-1.90656">
        <ele>4</ele>
        <time>2018-03-08T08:18:36Z</time>
      </trkpt>
      <trkpt lat="46.74523" lon="-1.90646">
        <ele>4</ele>
        <time>2018-03-08T08:19:36Z</time>
      </trkpt>
      <trkpt lat="46.74529" lon="-1.90639">
        <ele>4</ele>
        <time>2018-03-08T08:20:36Z</time>
      </trkpt>
      <trkpt lat="46.74538" lon="-1.90629">
        <ele>4</ele>
        <time>2018-03-08T08:21:36Z</time>
      </trkpt>
      <trkpt lat="46.74549" lon="-1.90627">
        <ele>3</ele>
        <time>2018-03-08T08:22:36Z</time>
      </trkpt>
      <trkpt lat="46.74552" lon="-1.90625">
        <ele>3</ele>
        <time>2018-03-08T08:23:36Z</time>
      </trkpt>
      <trkpt lat="46.74567" lon="-1.90615">
        <ele>3</ele>
        <time>2018-03-08T08:24:36Z</time>
      </trkpt>
      <trkpt lat="46.74573" lon="-1.9061">
        <ele>3</ele>
        <time>2018-03-08T08:25:36Z</time>
      </trkpt>
      <trkpt lat="46.74591" lon="-1.90595">
        <ele>2</ele>
        <time>2018-03-08T08:26:36Z</time>
      </trkpt>
      <trkpt lat="46.74603" lon="-1.90586">
        <ele>2</ele>
        <time>2018-03-08T08:27:36Z</time>
      </trkpt>
      <trkpt lat="46.74612" lon="-1.90578">
        <ele>2</ele>
        <time>2018-03-08T08:28:36Z</time>
      </trkpt>
      <trkpt lat="46.74618" lon="-1.90573">
        <ele>2</ele>
        <time>2018-03-08T08:29:36Z</time>
      </trkpt>
      <trkpt lat="46.74672" lon="-1.90525">
        <ele>3</ele>
        <time>2018-03-08T08:30:36Z</time>
      </trkpt>
      <trkpt lat="46.74727" lon="-1.90479">
        <ele>4</ele>
        <time>2018-03-08T08:31:36Z</time>
      </trkpt>
      <trkpt lat="46.7473" lon="-1.90477">
        <ele>4</ele>
        <time>2018-03-08T08:32:36Z</time>
      </trkpt>
      <trkpt lat="46.74758" lon="-1.90455">
        <ele>4</ele>
        <time>2018-03-08T08:33:36Z</time>
      </trkpt>
      <trkpt lat="46.74812" lon="-1.90415">
        <ele>4</ele>
        <time>2018-03-08T08:34:36Z</time>
      </trkpt>
      <trkpt lat="46.74824" lon="-1.90396">
        <ele>4</ele>
        <time>2018-03-08T08:35:36Z</time>
      </trkpt>
      <trkpt lat="46.74826" lon="-1.90393">
        <ele>4</ele>
        <time>2018-03-08T08:36:36Z</time>
      </trkpt>
      <trkpt lat="46.74827" lon="-1.9039">
        <ele>4</ele>
        <time>2018-03-08T08:37:36Z</time>
      </trkpt>
      <trkpt lat="46.74828" lon="-1.90387">
        <ele>4</ele>
        <time>2018-03-08T08:38:36Z</time>
      </trkpt>
      <trkpt lat="46.74833" lon="-1.90376">
        <ele>4</ele>
        <time>2018-03-08T08:39:36Z</time>
      </trkpt>
      <trkpt lat="46.74837" lon="-1.90359">
        <ele>5</ele>
        <time>2018-03-08T08:40:36Z</time>
      </trkpt>
      <trkpt lat="46.74841" lon="-1.9034">
        <ele>5</ele>
        <time>2018-03-08T08:41:36Z</time>
      </trkpt>
      <trkpt lat="46.74845" lon="-1.90331">
        <ele>5</ele>
        <time>2018-03-08T08:42:36Z</time>
      </trkpt>
      <trkpt lat="46.74846" lon="-1.90329">
        <ele>5</ele>
        <time>2018-03-08T08:43:36Z</time>
      </trkpt>
      <trkpt lat="46.74849" lon="-1.90315">
        <ele>5</ele>
        <time>2018-03-08T08:44:36Z</time>
      </trkpt>
      <trkpt lat="46.74851" lon="-1.90299">
        <ele>5</ele>
        <time>2018-03-08T08:45:36Z</time>
      </trkpt>
      <trkpt lat="46.74852" lon="-1.90282">
        <ele>5</ele>
        <time>2018-03-08T08:46:36Z</time>
      </trkpt>
      <trkpt lat="46.74853" lon="-1.90275">
        <ele>6</ele>
        <time>2018-03-08T08:47:36Z</time>
      </trkpt>
      <trkpt lat="46.74853" lon="-1.90266">
        <ele>6</ele>
        <time>2018-03-08T08:48:36Z</time>
      </trkpt>
      <trkpt lat="46.74855" lon="-1.90247">
        <ele>6</ele>
        <time>2018-03-08T08:49:36Z</time>
      </trkpt>
      <trkpt lat="46.74855" lon="-1.90226">
        <ele>6</ele>
        <time>2018-03-08T08:50:36Z</time>
      </trkpt>
      <trkpt lat="46.74856" lon="-1.90215">
        <ele>6</ele>
        <time>2018-03-08T08:51:36Z</time>
      </trkpt>
      <trkpt lat="46.74857" lon="-1.90195">
        <ele>6</ele>
        <time>2018-03-08T08:52:36Z</time>
      </trkpt>
      <trkpt lat="46.74857" lon="-1.90183">
        <ele>6</ele>
        <time>2018-03-08T08:53:36Z</time>
      </trkpt>
      <trkpt lat="46.74857" lon="-1.9018">
        <ele>6</ele>
        <time>2018-03-08T08:54:36Z</time>
      </trkpt>
      <trkpt lat="46.74857" lon="-1.90159">
        <ele>6</ele>
        <time>2018-03-08T08:55:36Z</time>
      </trkpt>
      <trkpt lat="46.74856" lon="-1.90129">
        <ele>6</ele>
        <time>2018-03-08T08:56:36Z</time>
      </trkpt>
      <trkpt lat="46.74852" lon="-1.90014">
        <ele>6</ele>
        <time>2018-03-08T08:57:36Z</time>
      </trkpt>
      <trkpt lat="46.7485" lon="-1.89954">
        <ele>6</ele>
        <time>2018-03-08T08:58:36Z</time>
      </trkpt>
      <trkpt lat="46.74849" lon="-1.89943">
        <ele>6</ele>
        <time>2018-03-08T08:59:36Z</time>
      </trkpt>
      <trkpt lat="46.7485" lon="-1.89908">
        <ele>6</ele>
        <time>2018-03-08T09:00:36Z</time>
      </trkpt>
      <trkpt lat="46.7485" lon="-1.8988">
        <ele>6</ele>
        <time>2018-03-08T09:01:36Z</time>
      </trkpt>
      <trkpt lat="46.74849" lon="-1.89871">
        <ele>6</ele>
        <time>2018-03-08T09:02:36Z</time>
      </trkpt>
      <trkpt lat="46.74848" lon="-1.89861">
        <ele>6</ele>
        <time>2018-03-08T09:03:36Z</time>
      </trkpt>
      <trkpt lat="46.74848" lon="-1.89855">
        <ele>7</ele>
        <time>2018-03-08T09:04:36Z</time>
      </trkpt>
      <trkpt lat="46.74845" lon="-1.89818">
        <ele>7</ele>
        <time>2018-03-08T09:05:36Z</time>
      </trkpt>
      <trkpt lat="46.74844" lon="-1.89797">
        <ele>7</ele>
        <time>2018-03-08T09:06:36Z</time>
      </trkpt>
      <trkpt lat="46.74844" lon="-1.89793">
        <ele>7</ele>
        <time>2018-03-08T09:07:36Z</time>
      </trkpt>
      <trkpt lat="46.74844" lon="-1.89789">
        <ele>7</ele>
        <time>2018-03-08T09:08:36Z</time>
      </trkpt>
      <trkpt lat="46.74845" lon="-1.89778">
        <ele>7</ele>
        <time>2018-03-08T09:09:36Z</time>
      </trkpt>
      <trkpt lat="46.74844" lon="-1.89745">
        <ele>7</ele>
        <time>2018-03-08T09:10:36Z</time>
      </trkpt>
      <trkpt lat="46.74843" lon="-1.89721">
        <ele>8</ele>
        <time>2018-03-08T09:11:36Z</time>
      </trkpt>
      <trkpt lat="46.74843" lon="-1.89717">
        <ele>8</ele>
        <time>2018-03-08T09:12:36Z</time>
      </trkpt>
      <trkpt lat="46.74843" lon="-1.8971">
        <ele>8</ele>
        <time>2018-03-08T09:13:36Z</time>
      </trkpt>
      <trkpt lat="46.74843" lon="-1.89689">
        <ele>8</ele>
        <time>2018-03-08T09:14:36Z</time>
      </trkpt>
      <trkpt lat="46.74843" lon="-1.89675">
        <ele>9</ele>
        <time>2018-03-08T09:15:36Z</time>
      </trkpt>
      <trkpt lat="46.74843" lon="-1.89647">
        <ele>9</ele>
        <time>2018-03-08T09:16:36Z</time>
      </trkpt>
      <trkpt lat="46.74842" lon="-1.89634">
        <ele>9</ele>
        <time>2018-03-08T09:17:36Z</time>
      </trkpt>
      <trkpt lat="46.74842" lon="-1.89606">
        <ele>8</ele>
        <time>2018-03-08T09:18:36Z</time>
      </trkpt>
      <trkpt lat="46.74842" lon="-1.89571">
        <ele>8</ele>
        <time>2018-03-08T09:19:36Z</time>
      </trkpt>
      <trkpt lat="46.74842" lon="-1.8955">
        <ele>8</ele>
        <time>2018-03-08T09:20:36Z</time>
      </trkpt>
      <trkpt lat="46.74843" lon="-1.89509">
        <ele>8</ele>
        <time>2018-03-08T09:21:36Z</time>
      </trkpt>
      <trkpt lat="46.74843" lon="-1.895">
        <ele>8</ele>
        <time>2018-03-08T09:22:36Z</time>
      </trkpt>
      <trkpt lat="46.74843" lon="-1.89466">
        <ele>8</ele>
        <time>2018-03-08T09:23:36Z</time>
      </trkpt>
      <trkpt lat="46.74843" lon="-1.89447">
        <ele>8</ele>
        <time>2018-03-08T09:24:36Z</time>
      </trkpt>
      <trkpt lat="46.74843" lon="-1.89423">
        <ele>8</ele>
        <time>2018-03-08T09:25:36Z</time>
      </trkpt>
      <trkpt lat="46.74843" lon="-1.89411">
        <ele>8</ele>
        <time>2018-03-08T09:26:36Z</time>
      </trkpt>
      <trkpt lat="46.74842" lon="-1.89383">
        <ele>8</ele>
        <time>2018-03-08T09:27:36Z</time>
      </trkpt>
      <trkpt lat="46.74842" lon="-1.89372">
        <ele>8</ele>
        <time>2018-03-08T09:28:36Z</time>
      </trkpt>
      <trkpt lat="46.74842" lon="-1.89365">
        <ele>8</ele>
        <time>2018-03-08T09:29:36Z</time>
      </trkpt>
      <trkpt lat="46.74842" lon="-1.89349">
        <ele>8</ele>
        <time>2018-03-08T09:30:36Z</time>
      </trkpt>
      <trkpt lat="46.74841" lon="-1.89332">
        <ele>8</ele>
        <time>2018-03-08T09:31:36Z</time>
      </trkpt>
      <trkpt lat="46.7484" lon="-1.89315">
        <ele>8</ele>
        <time>2018-03-08T09:32:36Z</time>
      </trkpt>
      <trkpt lat="46.74838" lon="-1.89279">
        <ele>9</ele>
        <time>2018-03-08T09:33:36Z</time>
      </trkpt>
      <trkpt lat="46.74834" lon="-1.89221">
        <ele>10</ele>
        <time>2018-03-08T09:34:36Z</time>
      </trkpt>
      <trkpt lat="46.74831" lon="-1.89174">
        <ele>11</ele>
        <time>2018-03-08T09:35:36Z</time>
      </trkpt>
      <trkpt lat="46.74828" lon="-1.8912">
        <ele>11</ele>
        <time>2018-03-08T09:36:36Z</time>
      </trkpt>
      <trkpt lat="46.74826" lon="-1.89092">
        <ele>11</ele>
        <time>2018-03-08T09:37:36Z</time>
      </trkpt>
      <trkpt lat="46.74825" lon="-1.89073">
        <ele>11</ele>
        <time>2018-03-08T09:38:36Z</time>
      </trkpt>
      <trkpt lat="46.74825" lon="-1.89055">
        <ele>11</ele>
        <time>2018-03-08T09:39:36Z</time>
      </trkpt>
      <trkpt lat="46.74824" lon="-1.8904">
        <ele>11</ele>
        <time>2018-03-08T09:40:36Z</time>
      </trkpt>
      <trkpt lat="46.74824" lon="-1.89025">
        <ele>11</ele>
        <time>2018-03-08T09:41:36Z</time>
      </trkpt>
      <trkpt lat="46.74824" lon="-1.89008">
        <ele>11</ele>
        <time>2018-03-08T09:42:36Z</time>
      </trkpt>
      <trkpt lat="46.74825" lon="-1.88973">
        <ele>11</ele>
        <time>2018-03-08T09:43:36Z</time>
      </trkpt>
      <trkpt lat="46.74826" lon="-1.88934">
        <ele>12</ele>
        <time>2018-03-08T09:44:36Z</time>
      </trkpt>
      <trkpt lat="46.74826" lon="-1.88892">
        <ele>12</ele>
        <time>2018-03-08T09:45:36Z</time>
      </trkpt>
      <trkpt lat="46.74827" lon="-1.88854">
        <ele>12</ele>
        <time>2018-03-08T09:46:36Z</time>
      </trkpt>
      <trkpt lat="46.74829" lon="-1.88817">
        <ele>12</ele>
        <time>2018-03-08T09:47:36Z</time>
      </trkpt>
      <trkpt lat="46.7483" lon="-1.8879">
        <ele>12</ele>
        <time>2018-03-08T09:48:36Z</time>
      </trkpt>
      <trkpt lat="46.74832" lon="-1.8877">
        <ele>12</ele>
        <time>2018-03-08T09:49:36Z</time>
      </trkpt>
      <trkpt lat="46.74834" lon="-1.88748">
        <ele>12</ele>
        <time>2018-03-08T09:50:36Z</time>
      </trkpt>
      <trkpt lat="46.74839" lon="-1.88686">
        <ele>12</ele>
        <time>2018-03-08T09:51:36Z</time>
      </trkpt>
      <trkpt lat="46.74846" lon="-1.88622">
        <ele>12</ele>
        <time>2018-03-08T09:52:36Z</time>
      </trkpt>
      <trkpt lat="46.7485" lon="-1.88595">
        <ele>11</ele>
        <time>2018-03-08T09:53:36Z</time>
      </trkpt>
      <trkpt lat="46.74853" lon="-1.88575">
        <ele>11</ele>
        <time>2018-03-08T09:54:36Z</time>
      </trkpt>
      <trkpt lat="46.74856" lon="-1.88561">
        <ele>12</ele>
        <time>2018-03-08T09:55:36Z</time>
      </trkpt>
      <trkpt lat="46.7486" lon="-1.88545">
        <ele>12</ele>
        <time>2018-03-08T09:56:36Z</time>
      </trkpt>
      <trkpt lat="46.74881" lon="-1.88465">
        <ele>12</ele>
        <time>2018-03-08T09:57:36Z</time>
      </trkpt>
      <trkpt lat="46.74883" lon="-1.88454">
        <ele>11</ele>
        <time>2018-03-08T09:58:36Z</time>
      </trkpt>
      <trkpt lat="46.74896" lon="-1.88406">
        <ele>11</ele>
        <time>2018-03-08T09:59:36Z</time>
      </trkpt>
      <trkpt lat="46.74914" lon="-1.88342">
        <ele>13</ele>
        <time>2018-03-08T10:00:36Z</time>
      </trkpt>
      <trkpt lat="46.74925" lon="-1.883">
        <ele>13</ele>
        <time>2018-03-08T10:01:36Z</time>
      </trkpt>
      <trkpt lat="46.74934" lon="-1.88272">
        <ele>13</ele>
        <time>2018-03-08T10:02:36Z</time>
      </trkpt>
      <trkpt lat="46.74938" lon="-1.88258">
        <ele>13</ele>
        <time>2018-03-08T10:03:36Z</time>
      </trkpt>
      <trkpt lat="46.74943" lon="-1.88246">
        <ele>12</ele>
        <time>2018-03-08T10:04:36Z</time>
      </trkpt>
      <trkpt lat="46.74948" lon="-1.88233">
        <ele>12</ele>
        <time>2018-03-08T10:05:36Z</time>
      </trkpt>
      <trkpt lat="46.74954" lon="-1.88221">
        <ele>11</ele>
        <time>2018-03-08T10:06:36Z</time>
      </trkpt>
      <trkpt lat="46.7496" lon="-1.88208">
        <ele>11</ele>
        <time>2018-03-08T10:07:36Z</time>
      </trkpt>
      <trkpt lat="46.74967" lon="-1.88193">
        <ele>10</ele>
        <time>2018-03-08T10:08:36Z</time>
      </trkpt>
      <trkpt lat="46.74976" lon="-1.88179">
        <ele>10</ele>
        <time>2018-03-08T10:09:36Z</time>
      </trkpt>
      <trkpt lat="46.7499" lon="-1.88159">
        <ele>9</ele>
        <time>2018-03-08T10:10:36Z</time>
      </trkpt>
      <trkpt lat="46.75019" lon="-1.88119">
        <ele>9</ele>
        <time>2018-03-08T10:11:36Z</time>
      </trkpt>
      <trkpt lat="46.75026" lon="-1.8811">
        <ele>9</ele>
        <time>2018-03-08T10:12:36Z</time>
      </trkpt>
      <trkpt lat="46.75039" lon="-1.88095">
        <ele>9</ele>
        <time>2018-03-08T10:13:36Z</time>
      </trkpt>
      <trkpt lat="46.75058" lon="-1.8807">
        <ele>9</ele>
        <time>2018-03-08T10:14:36Z</time>
      </trkpt>
      <trkpt lat="46.75083" lon="-1.88037">
        <ele>9</ele>
        <time>2018-03-08T10:15:36Z</time>
      </trkpt>
      <trkpt lat="46.75098" lon="-1.88016">
        <ele>10</ele>
        <time>2018-03-08T10:16:36Z</time>
      </trkpt>
      <trkpt lat="46.75106" lon="-1.88003">
        <ele>10</ele>
        <time>2018-03-08T10:17:36Z</time>
      </trkpt>
      <trkpt lat="46.75111" lon="-1.87992">
        <ele>10</ele>
        <time>2018-03-08T10:18:36Z</time>
      </trkpt>
      <trkpt lat="46.75114" lon="-1.87984">
        <ele>11</ele>
        <time>2018-03-08T10:19:36Z</time>
      </trkpt>
      <trkpt lat="46.75118" lon="-1.87973">
        <ele>11</ele>
        <time>2018-03-08T10:20:36Z</time>
      </trkpt>
      <trkpt lat="46.75123" lon="-1.87957">
        <ele>11</ele>
        <time>2018-03-08T10:21:36Z</time>
      </trkpt>
      <trkpt lat="46.75126" lon="-1.87941">
        <ele>12</ele>
        <time>2018-03-08T10:22:36Z</time>
      </trkpt>
      <trkpt lat="46.75129" lon="-1.87925">
        <ele>12</ele>
        <time>2018-03-08T10:23:36Z</time>
      </trkpt>
      <trkpt lat="46.75131" lon="-1.87908">
        <ele>12</ele>
        <time>2018-03-08T10:24:36Z</time>
      </trkpt>
      <trkpt lat="46.75134" lon="-1.87889">
        <ele>12</ele>
        <time>2018-03-08T10:25:36Z</time>
      </trkpt>
      <trkpt lat="46.75136" lon="-1.87871">
        <ele>11</ele>
        <time>2018-03-08T10:26:36Z</time>
      </trkpt>
      <trkpt lat="46.75138" lon="-1.87851">
        <ele>11</ele>
        <time>2018-03-08T10:27:36Z</time>
      </trkpt>
      <trkpt lat="46.7514" lon="-1.87824">
        <ele>11</ele>
        <time>2018-03-08T10:28:36Z</time>
      </trkpt>
      <trkpt lat="46.75142" lon="-1.87797">
        <ele>11</ele>
        <time>2018-03-08T10:29:36Z</time>
      </trkpt>
      <trkpt lat="46.75144" lon="-1.87765">
        <ele>11</ele>
        <time>2018-03-08T10:30:36Z</time>
      </trkpt>
      <trkpt lat="46.75145" lon="-1.87742">
        <ele>11</ele>
        <time>2018-03-08T10:31:36Z</time>
      </trkpt>
      <trkpt lat="46.75147" lon="-1.87715">
        <ele>11</ele>
        <time>2018-03-08T10:32:36Z</time>
      </trkpt>
      <trkpt lat="46.75149" lon="-1.8768">
        <ele>11</ele>
        <time>2018-03-08T10:33:36Z</time>
      </trkpt>
      <trkpt lat="46.75149" lon="-1.87652">
        <ele>12</ele>
        <time>2018-03-08T10:34:36Z</time>
      </trkpt>
      <trkpt lat="46.7515" lon="-1.87634">
        <ele>12</ele>
        <time>2018-03-08T10:35:36Z</time>
      </trkpt>
      <trkpt lat="46.7515" lon="-1.87615">
        <ele>12</ele>
        <time>2018-03-08T10:36:36Z</time>
      </trkpt>
      <trkpt lat="46.75149" lon="-1.87581">
        <ele>12</ele>
        <time>2018-03-08T10:37:36Z</time>
      </trkpt>
      <trkpt lat="46.75149" lon="-1.87548">
        <ele>13</ele>
        <time>2018-03-08T10:38:36Z</time>
      </trkpt>
      <trkpt lat="46.75148" lon="-1.87517">
        <ele>13</ele>
        <time>2018-03-08T10:39:36Z</time>
      </trkpt>
      <trkpt lat="46.75146" lon="-1.8748">
        <ele>13</ele>
        <time>2018-03-08T10:40:36Z</time>
      </trkpt>
      <trkpt lat="46.75144" lon="-1.8744">
        <ele>13</ele>
        <time>2018-03-08T10:41:36Z</time>
      </trkpt>
      <trkpt lat="46.7514" lon="-1.87388">
        <ele>13</ele>
        <time>2018-03-08T10:42:36Z</time>
      </trkpt>
      <trkpt lat="46.75135" lon="-1.87327">
        <ele>13</ele>
        <time>2018-03-08T10:43:36Z</time>
      </trkpt>
      <trkpt lat="46.75132" lon="-1.87295">
        <ele>14</ele>
        <time>2018-03-08T10:44:36Z</time>
      </trkpt>
      <trkpt lat="46.75132" lon="-1.87281">
        <ele>14</ele>
        <time>2018-03-08T10:45:36Z</time>
      </trkpt>
      <trkpt lat="46.75131" lon="-1.87259">
        <ele>15</ele>
        <time>2018-03-08T10:46:36Z</time>
      </trkpt>
      <trkpt lat="46.75132" lon="-1.87241">
        <ele>15</ele>
        <time>2018-03-08T10:47:36Z</time>
      </trkpt>
      <trkpt lat="46.75133" lon="-1.87222">
        <ele>15</ele>
        <time>2018-03-08T10:48:36Z</time>
      </trkpt>
      <trkpt lat="46.75134" lon="-1.87212">
        <ele>16</ele>
        <time>2018-03-08T10:49:36Z</time>
      </trkpt>
      <trkpt lat="46.75136" lon="-1.87195">
        <ele>16</ele>
        <time>2018-03-08T10:50:36Z</time>
      </trkpt>
      <trkpt lat="46.75138" lon="-1.8718">
        <ele>16</ele>
        <time>2018-03-08T10:51:36Z</time>
      </trkpt>
      <trkpt lat="46.75142" lon="-1.87159">
        <ele>17</ele>
        <time>2018-03-08T10:52:36Z</time>
      </trkpt>
      <trkpt lat="46.75142" lon="-1.87151">
        <ele>17</ele>
        <time>2018-03-08T10:53:36Z</time>
      </trkpt>
      <trkpt lat="46.75143" lon="-1.87144">
        <ele>17</ele>
        <time>2018-03-08T10:54:36Z</time>
      </trkpt>
      <trkpt lat="46.75145" lon="-1.87131">
        <ele>17</ele>
        <time>2018-03-08T10:55:36Z</time>
      </trkpt>
      <trkpt lat="46.75147" lon="-1.87119">
        <ele>17</ele>
        <time>2018-03-08T10:56:36Z</time>
      </trkpt>
      <trkpt lat="46.75148" lon="-1.87108">
        <ele>17</ele>
        <time>2018-03-08T10:57:36Z</time>
      </trkpt>
      <trkpt lat="46.75148" lon="-1.87097">
        <ele>16</ele>
        <time>2018-03-08T10:58:36Z</time>
      </trkpt>
      <trkpt lat="46.75149" lon="-1.87086">
        <ele>16</ele>
        <time>2018-03-08T10:59:36Z</time>
      </trkpt>
      <trkpt lat="46.75148" lon="-1.87078">
        <ele>16</ele>
        <time>2018-03-08T11:00:36Z</time>
      </trkpt>
      <trkpt lat="46.75148" lon="-1.87072">
        <ele>16</ele>
        <time>2018-03-08T11:01:36Z</time>
      </trkpt>
      <trkpt lat="46.75147" lon="-1.87059">
        <ele>16</ele>
        <time>2018-03-08T11:02:36Z</time>
      </trkpt>
      <trkpt lat="46.75147" lon="-1.87059">
        <ele>16</ele>
        <time>2018-03-08T11:03:36Z</time>
      </trkpt>
      <trkpt lat="46.75144" lon="-1.87055">
        <ele>16</ele>
        <time>2018-03-08T11:04:36Z</time>
      </trkpt>
      <trkpt lat="46.75142" lon="-1.8705">
        <ele>16</ele>
        <time>2018-03-08T11:05:36Z</time>
      </trkpt>
      <trkpt lat="46.7514" lon="-1.87045">
        <ele>16</ele>
        <time>2018-03-08T11:06:36Z</time>
      </trkpt>
      <trkpt lat="46.75139" lon="-1.8704">
        <ele>16</ele>
        <time>2018-03-08T11:07:36Z</time>
      </trkpt>
      <trkpt lat="46.75139" lon="-1.87036">
        <ele>16</ele>
        <time>2018-03-08T11:08:36Z</time>
      </trkpt>
      <trkpt lat="46.7514" lon="-1.87028">
        <ele>16</ele>
        <time>2018-03-08T11:09:36Z</time>
      </trkpt>
      <trkpt lat="46.75143" lon="-1.87019">
        <ele>16</ele>
        <time>2018-03-08T11:10:36Z</time>
      </trkpt>
      <trkpt lat="46.75147" lon="-1.87011">
        <ele>16</ele>
        <time>2018-03-08T11:11:36Z</time>
      </trkpt>
      <trkpt lat="46.75149" lon="-1.8701">
        <ele>16</ele>
        <time>2018-03-08T11:12:36Z</time>
      </trkpt>
      <trkpt lat="46.75151" lon="-1.87007">
        <ele>16</ele>
        <time>2018-03-08T11:13:36Z</time>
      </trkpt>
      <trkpt lat="46.75153" lon="-1.87006">
        <ele>16</ele>
        <time>2018-03-08T11:14:36Z</time>
      </trkpt>
      <trkpt lat="46.75156" lon="-1.87005">
        <ele>16</ele>
        <time>2018-03-08T11:15:36Z</time>
      </trkpt>
      <trkpt lat="46.75159" lon="-1.87005">
        <ele>17</ele>
        <time>2018-03-08T11:16:36Z</time>
      </trkpt>
      <trkpt lat="46.75161" lon="-1.87006">
        <ele>17</ele>
        <time>2018-03-08T11:17:36Z</time>
      </trkpt>
      <trkpt lat="46.75164" lon="-1.87007">
        <ele>17</ele>
        <time>2018-03-08T11:18:36Z</time>
      </trkpt>
      <trkpt lat="46.75173" lon="-1.86993">
        <ele>17</ele>
        <time>2018-03-08T11:19:36Z</time>
      </trkpt>
      <trkpt lat="46.75179" lon="-1.86983">
        <ele>17</ele>
        <time>2018-03-08T11:20:36Z</time>
      </trkpt>
      <trkpt lat="46.75185" lon="-1.8697">
        <ele>17</ele>
        <time>2018-03-08T11:21:36Z</time>
      </trkpt>
      <trkpt lat="46.75193" lon="-1.86941">
        <ele>17</ele>
        <time>2018-03-08T11:22:36Z</time>
      </trkpt>
      <trkpt lat="46.75204" lon="-1.86904">
        <ele>18</ele>
        <time>2018-03-08T11:23:36Z</time>
      </trkpt>
      <trkpt lat="46.75217" lon="-1.86859">
        <ele>18</ele>
        <time>2018-03-08T11:24:36Z</time>
      </trkpt>
      <trkpt lat="46.75225" lon="-1.86832">
        <ele>18</ele>
        <time>2018-03-08T11:25:36Z</time>
      </trkpt>
      <trkpt lat="46.75233" lon="-1.86808">
        <ele>18</ele>
        <time>2018-03-08T11:26:36Z</time>
      </trkpt>
      <trkpt lat="46.75236" lon="-1.868">
        <ele>17</ele>
        <time>2018-03-08T11:27:36Z</time>
      </trkpt>
      <trkpt lat="46.75246" lon="-1.86771">
        <ele>17</ele>
        <time>2018-03-08T11:28:36Z</time>
      </trkpt>
      <trkpt lat="46.75252" lon="-1.86754">
        <ele>17</ele>
        <time>2018-03-08T11:29:36Z</time>
      </trkpt>
      <trkpt lat="46.75264" lon="-1.86722">
        <ele>17</ele>
        <time>2018-03-08T11:30:36Z</time>
      </trkpt>
      <trkpt lat="46.7528" lon="-1.86682">
        <ele>18</ele>
        <time>2018-03-08T11:31:36Z</time>
      </trkpt>
      <trkpt lat="46.75292" lon="-1.8665">
        <ele>18</ele>
        <time>2018-03-08T11:32:36Z</time>
      </trkpt>
      <trkpt lat="46.753" lon="-1.86632">
        <ele>18</ele>
        <time>2018-03-08T11:33:36Z</time>
      </trkpt>
      <trkpt lat="46.75308" lon="-1.86612">
        <ele>18</ele>
        <time>2018-03-08T11:34:36Z</time>
      </trkpt>
      <trkpt lat="46.7531" lon="-1.86608">
        <ele>18</ele>
        <time>2018-03-08T11:35:36Z</time>
      </trkpt>
      <trkpt lat="46.75316" lon="-1.86596">
        <ele>18</ele>
        <time>2018-03-08T11:36:36Z</time>
      </trkpt>
      <trkpt lat="46.75321" lon="-1.86586">
        <ele>18</ele>
        <time>2018-03-08T11:37:36Z</time>
      </trkpt>
      <trkpt lat="46.75327" lon="-1.86575">
        <ele>18</ele>
        <time>2018-03-08T11:38:36Z</time>
      </trkpt>
      <trkpt lat="46.75333" lon="-1.86564">
        <ele>18</ele>
        <time>2018-03-08T11:39:36Z</time>
      </trkpt>
      <trkpt lat="46.75335" lon="-1.8656">
        <ele>18</ele>
        <time>2018-03-08T11:40:36Z</time>
      </trkpt>
      <trkpt lat="46.75345" lon="-1.86543">
        <ele>18</ele>
        <time>2018-03-08T11:41:36Z</time>
      </trkpt>
      <trkpt lat="46.7536" lon="-1.86518">
        <ele>18</ele>
        <time>2018-03-08T11:42:36Z</time>
      </trkpt>
      <trkpt lat="46.75372" lon="-1.86496">
        <ele>18</ele>
        <time>2018-03-08T11:43:36Z</time>
      </trkpt>
      <trkpt lat="46.75386" lon="-1.86469">
        <ele>18</ele>
        <time>2018-03-08T11:44:36Z</time>
      </trkpt>
      <trkpt lat="46.75396" lon="-1.86449">
        <ele>17</ele>
        <time>2018-03-08T11:45:36Z</time>
      </trkpt>
      <trkpt lat="46.75407" lon="-1.86422">
        <ele>16</ele>
        <time>2018-03-08T11:46:36Z</time>
      </trkpt>
      <trkpt lat="46.75417" lon="-1.86395">
        <ele>16</ele>
        <time>2018-03-08T11:47:36Z</time>
      </trkpt>
      <trkpt lat="46.75424" lon="-1.86374">
        <ele>17</ele>
        <time>2018-03-08T11:48:36Z</time>
      </trkpt>
      <trkpt lat="46.75429" lon="-1.8636">
        <ele>17</ele>
        <time>2018-03-08T11:49:36Z</time>
      </trkpt>
      <trkpt lat="46.75432" lon="-1.86348">
        <ele>17</ele>
        <time>2018-03-08T11:50:36Z</time>
      </trkpt>
      <trkpt lat="46.75436" lon="-1.86334">
        <ele>17</ele>
        <time>2018-03-08T11:51:36Z</time>
      </trkpt>
      <trkpt lat="46.75438" lon="-1.86321">
        <ele>17</ele>
        <time>2018-03-08T11:52:36Z</time>
      </trkpt>
      <trkpt lat="46.75441" lon="-1.86306">
        <ele>17</ele>
        <time>2018-03-08T11:53:36Z</time>
      </trkpt>
      <trkpt lat="46.75443" lon="-1.8629">
        <ele>17</ele>
        <time>2018-03-08T11:54:36Z</time>
      </trkpt>
      <trkpt lat="46.75446" lon="-1.86272">
        <ele>17</ele>
        <time>2018-03-08T11:55:36Z</time>
      </trkpt>
      <trkpt lat="46.75452" lon="-1.8623">
        <ele>17</ele>
        <time>2018-03-08T11:56:36Z</time>
      </trkpt>
      <trkpt lat="46.75452" lon="-1.86222">
        <ele>17</ele>
        <time>2018-03-08T11:57:36Z</time>
      </trkpt>
      <trkpt lat="46.75452" lon="-1.86221">
        <ele>17</ele>
        <time>2018-03-08T11:58:36Z</time>
      </trkpt>
      <trkpt lat="46.75456" lon="-1.86188">
        <ele>17</ele>
        <time>2018-03-08T11:59:36Z</time>
      </trkpt>
      <trkpt lat="46.75464" lon="-1.8613">
        <ele>17</ele>
        <time>2018-03-08T12:00:36Z</time>
      </trkpt>
      <trkpt lat="46.75474" lon="-1.86059">
        <ele>17</ele>
        <time>2018-03-08T12:01:36Z</time>
      </trkpt>
      <trkpt lat="46.75482" lon="-1.86004">
        <ele>17</ele>
        <time>2018-03-08T12:02:36Z</time>
      </trkpt>
      <trkpt lat="46.75486" lon="-1.85986">
        <ele>18</ele>
        <time>2018-03-08T12:03:36Z</time>
      </trkpt>
      <trkpt lat="46.7549" lon="-1.85969">
        <ele>18</ele>
        <time>2018-03-08T12:04:36Z</time>
      </trkpt>
      <trkpt lat="46.75493" lon="-1.85957">
        <ele>18</ele>
        <time>2018-03-08T12:05:36Z</time>
      </trkpt>
      <trkpt lat="46.75495" lon="-1.8595">
        <ele>18</ele>
        <time>2018-03-08T12:06:36Z</time>
      </trkpt>
      <trkpt lat="46.75499" lon="-1.8593">
        <ele>18</ele>
        <time>2018-03-08T12:07:36Z</time>
      </trkpt>
      <trkpt lat="46.75506" lon="-1.85905">
        <ele>18</ele>
        <time>2018-03-08T12:08:36Z</time>
      </trkpt>
      <trkpt lat="46.75512" lon="-1.85881">
        <ele>19</ele>
        <time>2018-03-08T12:09:36Z</time>
      </trkpt>
      <trkpt lat="46.7552" lon="-1.85851">
        <ele>20</ele>
        <time>2018-03-08T12:10:36Z</time>
      </trkpt>
      <trkpt lat="46.75523" lon="-1.85839">
        <ele>20</ele>
        <time>2018-03-08T12:11:36Z</time>
      </trkpt>
      <trkpt lat="46.75531" lon="-1.85811">
        <ele>20</ele>
        <time>2018-03-08T12:12:36Z</time>
      </trkpt>
      <trkpt lat="46.75534" lon="-1.858">
        <ele>20</ele>
        <time>2018-03-08T12:13:36Z</time>
      </trkpt>
      <trkpt lat="46.75537" lon="-1.85788">
        <ele>19</ele>
        <time>2018-03-08T12:14:36Z</time>
      </trkpt>
      <trkpt lat="46.75545" lon="-1.85759">
        <ele>19</ele>
        <time>2018-03-08T12:15:36Z</time>
      </trkpt>
      <trkpt lat="46.75558" lon="-1.85712">
        <ele>19</ele>
        <time>2018-03-08T12:16:36Z</time>
      </trkpt>
      <trkpt lat="46.75568" lon="-1.85675">
        <ele>20</ele>
        <time>2018-03-08T12:17:36Z</time>
      </trkpt>
      <trkpt lat="46.75574" lon="-1.85653">
        <ele>20</ele>
        <time>2018-03-08T12:18:36Z</time>
      </trkpt>
      <trkpt lat="46.75581" lon="-1.85631">
        <ele>20</ele>
        <time>2018-03-08T12:19:36Z</time>
      </trkpt>
      <trkpt lat="46.75588" lon="-1.8561">
        <ele>21</ele>
        <time>2018-03-08T12:20:36Z</time>
      </trkpt>
      <trkpt lat="46.75594" lon="-1.85592">
        <ele>21</ele>
        <time>2018-03-08T12:21:36Z</time>
      </trkpt>
      <trkpt lat="46.756" lon="-1.85575">
        <ele>21</ele>
        <time>2018-03-08T12:22:36Z</time>
      </trkpt>
      <trkpt lat="46.75606" lon="-1.85556">
        <ele>21</ele>
        <time>2018-03-08T12:23:36Z</time>
      </trkpt>
      <trkpt lat="46.75615" lon="-1.85532">
        <ele>20</ele>
        <time>2018-03-08T12:24:36Z</time>
      </trkpt>
      <trkpt lat="46.75616" lon="-1.85529">
        <ele>20</ele>
        <time>2018-03-08T12:25:36Z</time>
      </trkpt>
      <trkpt lat="46.75624" lon="-1.85508">
        <ele>20</ele>
        <time>2018-03-08T12:26:36Z</time>
      </trkpt>
      <trkpt lat="46.75636" lon="-1.85478">
        <ele>20</ele>
        <time>2018-03-08T12:27:36Z</time>
      </trkpt>
      <trkpt lat="46.75654" lon="-1.85434">
        <ele>19</ele>
        <time>2018-03-08T12:28:36Z</time>
      </trkpt>
      <trkpt lat="46.75691" lon="-1.85347">
        <ele>21</ele>
        <time>2018-03-08T12:29:36Z</time>
      </trkpt>
      <trkpt lat="46.75711" lon="-1.85301">
        <ele>22</ele>
        <time>2018-03-08T12:30:36Z</time>
      </trkpt>
      <trkpt lat="46.75722" lon="-1.85275">
        <ele>21</ele>
        <time>2018-03-08T12:31:36Z</time>
      </trkpt>
      <trkpt lat="46.75734" lon="-1.85247">
        <ele>21</ele>
        <time>2018-03-08T12:32:36Z</time>
      </trkpt>
      <trkpt lat="46.7575" lon="-1.85209">
        <ele>21</ele>
        <time>2018-03-08T12:33:36Z</time>
      </trkpt>
      <trkpt lat="46.75767" lon="-1.8517">
        <ele>21</ele>
        <time>2018-03-08T12:34:36Z</time>
      </trkpt>
      <trkpt lat="46.75796" lon="-1.85103">
        <ele>21</ele>
        <time>2018-03-08T12:35:36Z</time>
      </trkpt>
      <trkpt lat="46.75811" lon="-1.85067">
        <ele>22</ele>
        <time>2018-03-08T12:36:36Z</time>
      </trkpt>
      <trkpt lat="46.75832" lon="-1.85019">
        <ele>21</ele>
        <time>2018-03-08T12:37:36Z</time>
      </trkpt>
      <trkpt lat="46.75832" lon="-1.85018">
        <ele>21</ele>
        <time>2018-03-08T12:38:36Z</time>
      </trkpt>
      <trkpt lat="46.75834" lon="-1.85013">
        <ele>21</ele>
        <time>2018-03-08T12:39:36Z</time>
      </trkpt>
      <trkpt lat="46.75851" lon="-1.84975">
        <ele>21</ele>
        <time>2018-03-08T12:40:36Z</time>
      </trkpt>
      <trkpt lat="46.75863" lon="-1.84948">
        <ele>20</ele>
        <time>2018-03-08T12:41:36Z</time>
      </trkpt>
      <trkpt lat="46.75872" lon="-1.84931">
        <ele>20</ele>
        <time>2018-03-08T12:42:36Z</time>
      </trkpt>
      <trkpt lat="46.75881" lon="-1.84913">
        <ele>21</ele>
        <time>2018-03-08T12:43:36Z</time>
      </trkpt>
      <trkpt lat="46.75891" lon="-1.84898">
        <ele>21</ele>
        <time>2018-03-08T12:44:36Z</time>
      </trkpt>
      <trkpt lat="46.75898" lon="-1.84887">
        <ele>21</ele>
        <time>2018-03-08T12:45:36Z</time>
      </trkpt>
      <trkpt lat="46.75899" lon="-1.84886">
        <ele>21</ele>
        <time>2018-03-08T12:46:36Z</time>
      </trkpt>
      <trkpt lat="46.75905" lon="-1.84877">
        <ele>21</ele>
        <time>2018-03-08T12:47:36Z</time>
      </trkpt>
      <trkpt lat="46.75914" lon="-1.84864">
        <ele>21</ele>
        <time>2018-03-08T12:48:36Z</time>
      </trkpt>
      <trkpt lat="46.75929" lon="-1.84845">
        <ele>21</ele>
        <time>2018-03-08T12:49:36Z</time>
      </trkpt>
      <trkpt lat="46.75935" lon="-1.84837">
        <ele>21</ele>
        <time>2018-03-08T12:50:36Z</time>
      </trkpt>
      <trkpt lat="46.75963" lon="-1.84797">
        <ele>20</ele>
        <time>2018-03-08T12:51:36Z</time>
      </trkpt>
      <trkpt lat="46.75982" lon="-1.84772">
        <ele>20</ele>
        <time>2018-03-08T12:52:36Z</time>
      </trkpt>
      <trkpt lat="46.75993" lon="-1.84756">
        <ele>20</ele>
        <time>2018-03-08T12:53:36Z</time>
      </trkpt>
      <trkpt lat="46.76011" lon="-1.8473">
        <ele>20</ele>
        <time>2018-03-08T12:54:36Z</time>
      </trkpt>
      <trkpt lat="46.76013" lon="-1.84726">
        <ele>20</ele>
        <time>2018-03-08T12:55:36Z</time>
      </trkpt>
      <trkpt lat="46.76021" lon="-1.84714">
        <ele>20</ele>
        <time>2018-03-08T12:56:36Z</time>
      </trkpt>
      <trkpt lat="46.76022" lon="-1.84712">
        <ele>20</ele>
        <time>2018-03-08T12:57:36Z</time>
      </trkpt>
      <trkpt lat="46.76029" lon="-1.847">
        <ele>20</ele>
        <time>2018-03-08T12:58:36Z</time>
      </trkpt>
      <trkpt lat="46.76031" lon="-1.84695">
        <ele>20</ele>
        <time>2018-03-08T12:59:36Z</time>
      </trkpt>
      <trkpt lat="46.76032" lon="-1.84693">
        <ele>20</ele>
        <time>2018-03-08T13:00:36Z</time>
      </trkpt>
      <trkpt lat="46.76033" lon="-1.8469">
        <ele>20</ele>
        <time>2018-03-08T13:01:36Z</time>
      </trkpt>
      <trkpt lat="46.76036" lon="-1.84683">
        <ele>20</ele>
        <time>2018-03-08T13:02:36Z</time>
      </trkpt>
      <trkpt lat="46.76038" lon="-1.84676">
        <ele>20</ele>
        <time>2018-03-08T13:03:36Z</time>
      </trkpt>
      <trkpt lat="46.7604" lon="-1.84672">
        <ele>20</ele>
        <time>2018-03-08T13:04:36Z</time>
      </trkpt>
      <trkpt lat="46.76044" lon="-1.84658">
        <ele>21</ele>
        <time>2018-03-08T13:05:36Z</time>
      </trkpt>
      <trkpt lat="46.76047" lon="-1.84646">
        <ele>21</ele>
        <time>2018-03-08T13:06:36Z</time>
      </trkpt>
      <trkpt lat="46.76049" lon="-1.84639">
        <ele>21</ele>
        <time>2018-03-08T13:07:36Z</time>
      </trkpt>
      <trkpt lat="46.7605" lon="-1.84633">
        <ele>21</ele>
        <time>2018-03-08T13:08:36Z</time>
      </trkpt>
      <trkpt lat="46.76052" lon="-1.84626">
        <ele>21</ele>
        <time>2018-03-08T13:09:36Z</time>
      </trkpt>
      <trkpt lat="46.76054" lon="-1.84612">
        <ele>21</ele>
        <time>2018-03-08T13:10:36Z</time>
      </trkpt>
      <trkpt lat="46.76061" lon="-1.84565">
        <ele>21</ele>
        <time>2018-03-08T13:11:36Z</time>
      </trkpt>
      <trkpt lat="46.76067" lon="-1.84521">
        <ele>20</ele>
        <time>2018-03-08T13:12:36Z</time>
      </trkpt>
      <trkpt lat="46.76068" lon="-1.84511">
        <ele>20</ele>
        <time>2018-03-08T13:13:36Z</time>
      </trkpt>
      <trkpt lat="46.7607" lon="-1.84493">
        <ele>20</ele>
        <time>2018-03-08T13:14:36Z</time>
      </trkpt>
      <trkpt lat="46.76072" lon="-1.84459">
        <ele>21</ele>
        <time>2018-03-08T13:15:36Z</time>
      </trkpt>
      <trkpt lat="46.76074" lon="-1.84436">
        <ele>21</ele>
        <time>2018-03-08T13:16:36Z</time>
      </trkpt>
      <trkpt lat="46.76075" lon="-1.84426">
        <ele>21</ele>
        <time>2018-03-08T13:17:36Z</time>
      </trkpt>
      <trkpt lat="46.76075" lon="-1.8442">
        <ele>21</ele>
        <time>2018-03-08T13:18:36Z</time>
      </trkpt>
      <trkpt lat="46.76075" lon="-1.84402">
        <ele>21</ele>
        <time>2018-03-08T13:19:36Z</time>
      </trkpt>
      <trkpt lat="46.76075" lon="-1.84382">
        <ele>21</ele>
        <time>2018-03-08T13:20:36Z</time>
      </trkpt>
      <trkpt lat="46.76075" lon="-1.84368">
        <ele>21</ele>
        <time>2018-03-08T13:21:36Z</time>
      </trkpt>
      <trkpt lat="46.76073" lon="-1.84343">
        <ele>21</ele>
        <time>2018-03-08T13:22:36Z</time>
      </trkpt>
      <trkpt lat="46.7607" lon="-1.84322">
        <ele>21</ele>
        <time>2018-03-08T13:23:36Z</time>
      </trkpt>
      <trkpt lat="46.76069" lon="-1.84301">
        <ele>21</ele>
        <time>2018-03-08T13:24:36Z</time>
      </trkpt>
      <trkpt lat="46.76068" lon="-1.84286">
        <ele>21</ele>
        <time>2018-03-08T13:25:36Z</time>
      </trkpt>
      <trkpt lat="46.76067" lon="-1.84269">
        <ele>21</ele>
        <time>2018-03-08T13:26:36Z</time>
      </trkpt>
      <trkpt lat="46.76066" lon="-1.84253">
        <ele>22</ele>
        <time>2018-03-08T13:27:36Z</time>
      </trkpt>
      <trkpt lat="46.76065" lon="-1.84236">
        <ele>22</ele>
        <time>2018-03-08T13:28:36Z</time>
      </trkpt>
      <trkpt lat="46.76064" lon="-1.84217">
        <ele>22</ele>
        <time>2018-03-08T13:29:36Z</time>
      </trkpt>
      <trkpt lat="46.76061" lon="-1.84195">
        <ele>22</ele>
        <time>2018-03-08T13:30:36Z</time>
      </trkpt>
      <trkpt lat="46.76058" lon="-1.84162">
        <ele>22</ele>
        <time>2018-03-08T13:31:36Z</time>
      </trkpt>
      <trkpt lat="46.76052" lon="-1.84108">
        <ele>21</ele>
        <time>2018-03-08T13:32:36Z</time>
      </trkpt>
      <trkpt lat="46.76049" lon="-1.84081">
        <ele>21</ele>
        <time>2018-03-08T13:33:36Z</time>
      </trkpt>
      <trkpt lat="46.76049" lon="-1.84068">
        <ele>21</ele>
        <time>2018-03-08T13:34:36Z</time>
      </trkpt>
      <trkpt lat="46.76048" lon="-1.84041">
        <ele>21</ele>
        <time>2018-03-08T13:35:36Z</time>
      </trkpt>
      <trkpt lat="46.76047" lon="-1.84017">
        <ele>21</ele>
        <time>2018-03-08T13:36:36Z</time>
      </trkpt>
      <trkpt lat="46.76046" lon="-1.83993">
        <ele>21</ele>
        <time>2018-03-08T13:37:36Z</time>
      </trkpt>
      <trkpt lat="46.76046" lon="-1.83973">
        <ele>21</ele>
        <time>2018-03-08T13:38:36Z</time>
      </trkpt>
      <trkpt lat="46.76047" lon="-1.83948">
        <ele>21</ele>
        <time>2018-03-08T13:39:36Z</time>
      </trkpt>
      <trkpt lat="46.76049" lon="-1.83928">
        <ele>21</ele>
        <time>2018-03-08T13:40:36Z</time>
      </trkpt>
      <trkpt lat="46.76049" lon="-1.83922">
        <ele>21</ele>
        <time>2018-03-08T13:41:36Z</time>
      </trkpt>
      <trkpt lat="46.76052" lon="-1.83903">
        <ele>21</ele>
        <time>2018-03-08T13:42:36Z</time>
      </trkpt>
      <trkpt lat="46.76054" lon="-1.83896">
        <ele>21</ele>
        <time>2018-03-08T13:43:36Z</time>
      </trkpt>
      <trkpt lat="46.76056" lon="-1.83892">
        <ele>21</ele>
        <time>2018-03-08T13:44:36Z</time>
      </trkpt>
      <trkpt lat="46.76075" lon="-1.8386">
        <ele>21</ele>
        <time>2018-03-08T13:45:36Z</time>
      </trkpt>
      <trkpt lat="46.76084" lon="-1.83843">
        <ele>21</ele>
        <time>2018-03-08T13:46:36Z</time>
      </trkpt>
      <trkpt lat="46.761" lon="-1.83814">
        <ele>21</ele>
        <time>2018-03-08T13:47:36Z</time>
      </trkpt>
      <trkpt lat="46.76119" lon="-1.8378">
        <ele>20</ele>
        <time>2018-03-08T13:48:36Z</time>
      </trkpt>
      <trkpt lat="46.76125" lon="-1.8377">
        <ele>20</ele>
        <time>2018-03-08T13:49:36Z</time>
      </trkpt>
      <trkpt lat="46.76129" lon="-1.83765">
        <ele>20</ele>
        <time>2018-03-08T13:50:36Z</time>
      </trkpt>
      <trkpt lat="46.76134" lon="-1.8376">
        <ele>20</ele>
        <time>2018-03-08T13:51:36Z</time>
      </trkpt>
      <trkpt lat="46.76139" lon="-1.83755">
        <ele>20</ele>
        <time>2018-03-08T13:52:36Z</time>
      </trkpt>
      <trkpt lat="46.76147" lon="-1.8375">
        <ele>20</ele>
        <time>2018-03-08T13:53:36Z</time>
      </trkpt>
      <trkpt lat="46.76168" lon="-1.83736">
        <ele>20</ele>
        <time>2018-03-08T13:54:36Z</time>
      </trkpt>
      <trkpt lat="46.76176" lon="-1.8373">
        <ele>20</ele>
        <time>2018-03-08T13:55:36Z</time>
      </trkpt>
      <trkpt lat="46.76182" lon="-1.83724">
        <ele>20</ele>
        <time>2018-03-08T13:56:36Z</time>
      </trkpt>
      <trkpt lat="46.76186" lon="-1.83718">
        <ele>19</ele>
        <time>2018-03-08T13:57:36Z</time>
      </trkpt>
      <trkpt lat="46.76191" lon="-1.8371">
        <ele>19</ele>
        <time>2018-03-08T13:58:36Z</time>
      </trkpt>
      <trkpt lat="46.76195" lon="-1.83703">
        <ele>19</ele>
        <time>2018-03-08T13:59:36Z</time>
      </trkpt>
      <trkpt lat="46.762" lon="-1.83696">
        <ele>19</ele>
        <time>2018-03-08T14:00:36Z</time>
      </trkpt>
      <trkpt lat="46.76207" lon="-1.83687">
        <ele>19</ele>
        <time>2018-03-08T14:01:36Z</time>
      </trkpt>
      <trkpt lat="46.7621" lon="-1.83684">
        <ele>19</ele>
        <time>2018-03-08T14:02:36Z</time>
      </trkpt>
      <trkpt lat="46.76212" lon="-1.83682">
        <ele>19</ele>
        <time>2018-03-08T14:03:36Z</time>
      </trkpt>
      <trkpt lat="46.76218" lon="-1.83677">
        <ele>19</ele>
        <time>2018-03-08T14:04:36Z</time>
      </trkpt>
      <trkpt lat="46.76226" lon="-1.83672">
        <ele>19</ele>
        <time>2018-03-08T14:05:36Z</time>
      </trkpt>
      <trkpt lat="46.76234" lon="-1.83668">
        <ele>19</ele>
        <time>2018-03-08T14:06:36Z</time>
      </trkpt>
      <trkpt lat="46.7624" lon="-1.83666">
        <ele>19</ele>
        <time>2018-03-08T14:07:36Z</time>
      </trkpt>
      <trkpt lat="46.76247" lon="-1.83667">
        <ele>19</ele>
        <time>2018-03-08T14:08:36Z</time>
      </trkpt>
      <trkpt lat="46.76251" lon="-1.83668">
        <ele>19</ele>
        <time>2018-03-08T14:09:36Z</time>
      </trkpt>
      <trkpt lat="46.7626" lon="-1.83671">
        <ele>19</ele>
        <time>2018-03-08T14:10:36Z</time>
      </trkpt>
      <trkpt lat="46.76263" lon="-1.83671">
        <ele>19</ele>
        <time>2018-03-08T14:11:36Z</time>
      </trkpt>
      <trkpt lat="46.7627" lon="-1.83671">
        <ele>19</ele>
        <time>2018-03-08T14:12:36Z</time>
      </trkpt>
      <trkpt lat="46.76279" lon="-1.8367">
        <ele>19</ele>
        <time>2018-03-08T14:13:36Z</time>
      </trkpt>
      <trkpt lat="46.76292" lon="-1.83667">
        <ele>19</ele>
        <time>2018-03-08T14:14:36Z</time>
      </trkpt>
      <trkpt lat="46.76305" lon="-1.83662">
        <ele>19</ele>
        <time>2018-03-08T14:15:36Z</time>
      </trkpt>
      <trkpt lat="46.76316" lon="-1.83658">
        <ele>19</ele>
        <time>2018-03-08T14:16:36Z</time>
      </trkpt>
      <trkpt lat="46.76327" lon="-1.83652">
        <ele>19</ele>
        <time>2018-03-08T14:17:36Z</time>
      </trkpt>
      <trkpt lat="46.76338" lon="-1.83644">
        <ele>19</ele>
        <time>2018-03-08T14:18:36Z</time>
      </trkpt>
      <trkpt lat="46.76348" lon="-1.83636">
        <ele>19</ele>
        <time>2018-03-08T14:19:36Z</time>
      </trkpt>
      <trkpt lat="46.76356" lon="-1.8363">
        <ele>18</ele>
        <time>2018-03-08T14:20:36Z</time>
      </trkpt>
      <trkpt lat="46.76366" lon="-1.83622">
        <ele>18</ele>
        <time>2018-03-08T14:21:36Z</time>
      </trkpt>
      <trkpt lat="46.7638" lon="-1.83613">
        <ele>18</ele>
        <time>2018-03-08T14:22:36Z</time>
      </trkpt>
      <trkpt lat="46.76395" lon="-1.83603">
        <ele>18</ele>
        <time>2018-03-08T14:23:36Z</time>
      </trkpt>
      <trkpt lat="46.7642" lon="-1.83588">
        <ele>18</ele>
        <time>2018-03-08T14:24:36Z</time>
      </trkpt>
      <trkpt lat="46.76438" lon="-1.83577">
        <ele>18</ele>
        <time>2018-03-08T14:25:36Z</time>
      </trkpt>
      <trkpt lat="46.7645" lon="-1.8357">
        <ele>17</ele>
        <time>2018-03-08T14:26:36Z</time>
      </trkpt>
      <trkpt lat="46.76458" lon="-1.83565">
        <ele>17</ele>
        <time>2018-03-08T14:27:36Z</time>
      </trkpt>
      <trkpt lat="46.76475" lon="-1.83556">
        <ele>17</ele>
        <time>2018-03-08T14:28:36Z</time>
      </trkpt>
      <trkpt lat="46.76482" lon="-1.83552">
        <ele>16</ele>
        <time>2018-03-08T14:29:36Z</time>
      </trkpt>
      <trkpt lat="46.76521" lon="-1.8353">
        <ele>16</ele>
        <time>2018-03-08T14:30:36Z</time>
      </trkpt>
      <trkpt lat="46.76564" lon="-1.83504">
        <ele>17</ele>
        <time>2018-03-08T14:31:36Z</time>
      </trkpt>
      <trkpt lat="46.76595" lon="-1.83484">
        <ele>17</ele>
        <time>2018-03-08T14:32:36Z</time>
      </trkpt>
      <trkpt lat="46.76611" lon="-1.83473">
        <ele>18</ele>
        <time>2018-03-08T14:33:36Z</time>
      </trkpt>
      <trkpt lat="46.76625" lon="-1.83462">
        <ele>18</ele>
        <time>2018-03-08T14:34:36Z</time>
      </trkpt>
      <trkpt lat="46.76636" lon="-1.83452">
        <ele>18</ele>
        <time>2018-03-08T14:35:36Z</time>
      </trkpt>
      <trkpt lat="46.76644" lon="-1.83445">
        <ele>19</ele>
        <time>2018-03-08T14:36:36Z</time>
      </trkpt>
      <trkpt lat="46.76653" lon="-1.83436">
        <ele>19</ele>
        <time>2018-03-08T14:37:36Z</time>
      </trkpt>
      <trkpt lat="46.76662" lon="-1.83427">
        <ele>19</ele>
        <time>2018-03-08T14:38:36Z</time>
      </trkpt>
      <trkpt lat="46.7667" lon="-1.83418">
        <ele>19</ele>
        <time>2018-03-08T14:39:36Z</time>
      </trkpt>
      <trkpt lat="46.76677" lon="-1.8341">
        <ele>19</ele>
        <time>2018-03-08T14:40:36Z</time>
      </trkpt>
      <trkpt lat="46.76689" lon="-1.83393">
        <ele>19</ele>
        <time>2018-03-08T14:41:36Z</time>
      </trkpt>
      <trkpt lat="46.76697" lon="-1.83383">
        <ele>19</ele>
        <time>2018-03-08T14:42:36Z</time>
      </trkpt>
      <trkpt lat="46.76704" lon="-1.83374">
        <ele>19</ele>
        <time>2018-03-08T14:43:36Z</time>
      </trkpt>
      <trkpt lat="46.76707" lon="-1.83368">
        <ele>19</ele>
        <time>2018-03-08T14:44:36Z</time>
      </trkpt>
      <trkpt lat="46.76715" lon="-1.83354">
        <ele>19</ele>
        <time>2018-03-08T14:45:36Z</time>
      </trkpt>
      <trkpt lat="46.76723" lon="-1.83342">
        <ele>19</ele>
        <time>2018-03-08T14:46:36Z</time>
      </trkpt>
      <trkpt lat="46.76738" lon="-1.83315">
        <ele>19</ele>
        <time>2018-03-08T14:47:36Z</time>
      </trkpt>
      <trkpt lat="46.76753" lon="-1.83287">
        <ele>19</ele>
        <time>2018-03-08T14:48:36Z</time>
      </trkpt>
      <trkpt lat="46.76761" lon="-1.83269">
        <ele>19</ele>
        <time>2018-03-08T14:49:36Z</time>
      </trkpt>
      <trkpt lat="46.76766" lon="-1.8326">
        <ele>19</ele>
        <time>2018-03-08T14:50:36Z</time>
      </trkpt>
      <trkpt lat="46.76777" lon="-1.83239">
        <ele>19</ele>
        <time>2018-03-08T14:51:36Z</time>
      </trkpt>
      <trkpt lat="46.76784" lon="-1.83221">
        <ele>19</ele>
        <time>2018-03-08T14:52:36Z</time>
      </trkpt>
      <trkpt lat="46.76787" lon="-1.83216">
        <ele>19</ele>
        <time>2018-03-08T14:53:36Z</time>
      </trkpt>
      <trkpt lat="46.76792" lon="-1.83201">
        <ele>19</ele>
        <time>2018-03-08T14:54:36Z</time>
      </trkpt>
      <trkpt lat="46.76797" lon="-1.83181">
        <ele>19</ele>
        <time>2018-03-08T14:55:36Z</time>
      </trkpt>
      <trkpt lat="46.76802" lon="-1.83166">
        <ele>19</ele>
        <time>2018-03-08T14:56:36Z</time>
      </trkpt>
      <trkpt lat="46.76813" lon="-1.83135">
        <ele>18</ele>
        <time>2018-03-08T14:57:36Z</time>
      </trkpt>
      <trkpt lat="46.76818" lon="-1.83118">
        <ele>18</ele>
        <time>2018-03-08T14:58:36Z</time>
      </trkpt>
      <trkpt lat="46.76824" lon="-1.83101">
        <ele>17</ele>
        <time>2018-03-08T14:59:36Z</time>
      </trkpt>
      <trkpt lat="46.76831" lon="-1.83082">
        <ele>17</ele>
        <time>2018-03-08T15:00:36Z</time>
      </trkpt>
      <trkpt lat="46.76838" lon="-1.83065">
        <ele>17</ele>
        <time>2018-03-08T15:01:36Z</time>
      </trkpt>
      <trkpt lat="46.76846" lon="-1.83047">
        <ele>18</ele>
        <time>2018-03-08T15:02:36Z</time>
      </trkpt>
      <trkpt lat="46.76857" lon="-1.83027">
        <ele>18</ele>
        <time>2018-03-08T15:03:36Z</time>
      </trkpt>
      <trkpt lat="46.76867" lon="-1.83007">
        <ele>19</ele>
        <time>2018-03-08T15:04:36Z</time>
      </trkpt>
      <trkpt lat="46.7688" lon="-1.82984">
        <ele>20</ele>
        <time>2018-03-08T15:05:36Z</time>
      </trkpt>
      <trkpt lat="46.7688" lon="-1.82984">
        <ele>20</ele>
        <time>2018-03-08T15:06:36Z</time>
      </trkpt>
      <trkpt lat="46.76856" lon="-1.82965">
        <ele>19</ele>
        <time>2018-03-08T15:07:36Z</time>
      </trkpt>
      <trkpt lat="46.76831" lon="-1.82946">
        <ele>18</ele>
        <time>2018-03-08T15:08:36Z</time>
      </trkpt>
      <trkpt lat="46.76824" lon="-1.8294">
        <ele>18</ele>
        <time>2018-03-08T15:09:36Z</time>
      </trkpt>
      <trkpt lat="46.76821" lon="-1.82937">
        <ele>18</ele>
        <time>2018-03-08T15:10:36Z</time>
      </trkpt>
      <trkpt lat="46.76814" lon="-1.82932">
        <ele>18</ele>
        <time>2018-03-08T15:11:36Z</time>
      </trkpt>
      <trkpt lat="46.76807" lon="-1.82924">
        <ele>18</ele>
        <time>2018-03-08T15:12:36Z</time>
      </trkpt>
      <trkpt lat="46.76799" lon="-1.82915">
        <ele>18</ele>
        <time>2018-03-08T15:13:36Z</time>
      </trkpt>
      <trkpt lat="46.76791" lon="-1.82906">
        <ele>18</ele>
        <time>2018-03-08T15:14:36Z</time>
      </trkpt>
      <trkpt lat="46.76784" lon="-1.82898">
        <ele>18</ele>
        <time>2018-03-08T15:15:36Z</time>
      </trkpt>
      <trkpt lat="46.76776" lon="-1.82887">
        <ele>18</ele>
        <time>2018-03-08T15:16:36Z</time>
      </trkpt>
      <trkpt lat="46.76769" lon="-1.82877">
        <ele>19</ele>
        <time>2018-03-08T15:17:36Z</time>
      </trkpt>
      <trkpt lat="46.76763" lon="-1.82868">
        <ele>19</ele>
        <time>2018-03-08T15:18:36Z</time>
      </trkpt>
      <trkpt lat="46.76758" lon="-1.82858">
        <ele>19</ele>
        <time>2018-03-08T15:19:36Z</time>
      </trkpt>
      <trkpt lat="46.76751" lon="-1.82845">
        <ele>19</ele>
        <time>2018-03-08T15:20:36Z</time>
      </trkpt>
      <trkpt lat="46.76741" lon="-1.82822">
        <ele>19</ele>
        <time>2018-03-08T15:21:36Z</time>
      </trkpt>
      <trkpt lat="46.76727" lon="-1.8279">
        <ele>18</ele>
        <time>2018-03-08T15:22:36Z</time>
      </trkpt>
      <trkpt lat="46.76714" lon="-1.8276">
        <ele>18</ele>
        <time>2018-03-08T15:23:36Z</time>
      </trkpt>
      <trkpt lat="46.76704" lon="-1.82738">
        <ele>17</ele>
        <time>2018-03-08T15:24:36Z</time>
      </trkpt>
      <trkpt lat="46.76699" lon="-1.82724">
        <ele>17</ele>
        <time>2018-03-08T15:25:36Z</time>
      </trkpt>
      <trkpt lat="46.76694" lon="-1.82713">
        <ele>17</ele>
        <time>2018-03-08T15:26:36Z</time>
      </trkpt>
      <trkpt lat="46.76692" lon="-1.82703">
        <ele>17</ele>
        <time>2018-03-08T15:27:36Z</time>
      </trkpt>
      <trkpt lat="46.76688" lon="-1.82689">
        <ele>17</ele>
        <time>2018-03-08T15:28:36Z</time>
      </trkpt>
      <trkpt lat="46.76683" lon="-1.82666">
        <ele>17</ele>
        <time>2018-03-08T15:29:36Z</time>
      </trkpt>
      <trkpt lat="46.76679" lon="-1.82648">
        <ele>17</ele>
        <time>2018-03-08T15:30:36Z</time>
      </trkpt>
      <trkpt lat="46.76673" lon="-1.82609">
        <ele>17</ele>
        <time>2018-03-08T15:31:36Z</time>
      </trkpt>
      <trkpt lat="46.76669" lon="-1.82585">
        <ele>17</ele>
        <time>2018-03-08T15:32:36Z</time>
      </trkpt>
      <trkpt lat="46.76666" lon="-1.82566">
        <ele>17</ele>
        <time>2018-03-08T15:33:36Z</time>
      </trkpt>
      <trkpt lat="46.76661" lon="-1.82545">
        <ele>17</ele>
        <time>2018-03-08T15:34:36Z</time>
      </trkpt>
      <trkpt lat="46.76656" lon="-1.8253">
        <ele>17</ele>
        <time>2018-03-08T15:35:36Z</time>
      </trkpt>
      <trkpt lat="46.76652" lon="-1.82516">
        <ele>17</ele>
        <time>2018-03-08T15:36:36Z</time>
      </trkpt>
      <trkpt lat="46.76645" lon="-1.82502">
        <ele>16</ele>
        <time>2018-03-08T15:37:36Z</time>
      </trkpt>
      <trkpt lat="46.76638" lon="-1.82487">
        <ele>17</ele>
        <time>2018-03-08T15:38:36Z</time>
      </trkpt>
      <trkpt lat="46.76621" lon="-1.82458">
        <ele>17</ele>
        <time>2018-03-08T15:39:36Z</time>
      </trkpt>
      <trkpt lat="46.76596" lon="-1.82418">
        <ele>17</ele>
        <time>2018-03-08T15:40:36Z</time>
      </trkpt>
      <trkpt lat="46.76579" lon="-1.82388">
        <ele>17</ele>
        <time>2018-03-08T15:41:36Z</time>
      </trkpt>
      <trkpt lat="46.7657" lon="-1.82369">
        <ele>17</ele>
        <time>2018-03-08T15:42:36Z</time>
      </trkpt>
      <trkpt lat="46.76565" lon="-1.82358">
        <ele>17</ele>
        <time>2018-03-08T15:43:36Z</time>
      </trkpt>
      <trkpt lat="46.76561" lon="-1.8235">
        <ele>17</ele>
        <time>2018-03-08T15:44:36Z</time>
      </trkpt>
      <trkpt lat="46.76561" lon="-1.82349">
        <ele>17</ele>
        <time>2018-03-08T15:45:36Z</time>
      </trkpt>
      <trkpt lat="46.76558" lon="-1.82338">
        <ele>17</ele>
        <time>2018-03-08T15:46:36Z</time>
      </trkpt>
      <trkpt lat="46.76556" lon="-1.82325">
        <ele>17</ele>
        <time>2018-03-08T15:47:36Z</time>
      </trkpt>
      <trkpt lat="46.76555" lon="-1.82311">
        <ele>17</ele>
        <time>2018-03-08T15:48:36Z</time>
      </trkpt>
      <trkpt lat="46.76553" lon="-1.82282">
        <ele>17</ele>
        <time>2018-03-08T15:49:36Z</time>
      </trkpt>
      <trkpt lat="46.76551" lon="-1.82255">
        <ele>17</ele>
        <time>2018-03-08T15:50:36Z</time>
      </trkpt>
      <trkpt lat="46.76546" lon="-1.82166">
        <ele>18</ele>
        <time>2018-03-08T15:51:36Z</time>
      </trkpt>
      <trkpt lat="46.76544" lon="-1.82133">
        <ele>18</ele>
        <time>2018-03-08T15:52:36Z</time>
      </trkpt>
      <trkpt lat="46.76541" lon="-1.82087">
        <ele>18</ele>
        <time>2018-03-08T15:53:36Z</time>
      </trkpt>
      <trkpt lat="46.76541" lon="-1.82067">
        <ele>18</ele>
        <time>2018-03-08T15:54:36Z</time>
      </trkpt>
      <trkpt lat="46.76543" lon="-1.82051">
        <ele>18</ele>
        <time>2018-03-08T15:55:36Z</time>
      </trkpt>
      <trkpt lat="46.76545" lon="-1.82037">
        <ele>17</ele>
        <time>2018-03-08T15:56:36Z</time>
      </trkpt>
      <trkpt lat="46.76549" lon="-1.82023">
        <ele>17</ele>
        <time>2018-03-08T15:57:36Z</time>
      </trkpt>
      <trkpt lat="46.76553" lon="-1.8201">
        <ele>17</ele>
        <time>2018-03-08T15:58:36Z</time>
      </trkpt>
      <trkpt lat="46.76557" lon="-1.81999">
        <ele>17</ele>
        <time>2018-03-08T15:59:36Z</time>
      </trkpt>
      <trkpt lat="46.76563" lon="-1.81987">
        <ele>17</ele>
        <time>2018-03-08T16:00:36Z</time>
      </trkpt>
      <trkpt lat="46.76572" lon="-1.81972">
        <ele>18</ele>
        <time>2018-03-08T16:01:36Z</time>
      </trkpt>
      <trkpt lat="46.76596" lon="-1.81943">
        <ele>19</ele>
        <time>2018-03-08T16:02:36Z</time>
      </trkpt>
      <trkpt lat="46.76638" lon="-1.8189">
        <ele>22</ele>
        <time>2018-03-08T16:03:36Z</time>
      </trkpt>
      <trkpt lat="46.76685" lon="-1.8183">
        <ele>25</ele>
        <time>2018-03-08T16:04:36Z</time>
      </trkpt>
      <trkpt lat="46.7673" lon="-1.81773">
        <ele>28</ele>
        <time>2018-03-08T16:05:36Z</time>
      </trkpt>
      <trkpt lat="46.76768" lon="-1.81726">
        <ele>30</ele>
        <time>2018-03-08T16:06:36Z</time>
      </trkpt>
      <trkpt lat="46.76805" lon="-1.81679">
        <ele>33</ele>
        <time>2018-03-08T16:07:36Z</time>
      </trkpt>
      <trkpt lat="46.76826" lon="-1.81652">
        <ele>34</ele>
        <time>2018-03-08T16:08:36Z</time>
      </trkpt>
      <trkpt lat="46.76837" lon="-1.81636">
        <ele>34</ele>
        <time>2018-03-08T16:09:36Z</time>
      </trkpt>
      <trkpt lat="46.76846" lon="-1.81617">
        <ele>35</ele>
        <time>2018-03-08T16:10:36Z</time>
      </trkpt>
      <trkpt lat="46.76854" lon="-1.816">
        <ele>35</ele>
        <time>2018-03-08T16:11:36Z</time>
      </trkpt>
      <trkpt lat="46.76864" lon="-1.81578">
        <ele>36</ele>
        <time>2018-03-08T16:12:36Z</time>
      </trkpt>
      <trkpt lat="46.76873" lon="-1.81549">
        <ele>37</ele>
        <time>2018-03-08T16:13:36Z</time>
      </trkpt>
      <trkpt lat="46.76881" lon="-1.81521">
        <ele>38</ele>
        <time>2018-03-08T16:14:36Z</time>
      </trkpt>
      <trkpt lat="46.76887" lon="-1.81484">
        <ele>38</ele>
        <time>2018-03-08T16:15:36Z</time>
      </trkpt>
      <trkpt lat="46.76894" lon="-1.81436">
        <ele>38</ele>
        <time>2018-03-08T16:16:36Z</time>
      </trkpt>
      <trkpt lat="46.76899" lon="-1.81398">
        <ele>39</ele>
        <time>2018-03-08T16:17:36Z</time>
      </trkpt>
      <trkpt lat="46.76908" lon="-1.8134">
        <ele>40</ele>
        <time>2018-03-08T16:18:36Z</time>
      </trkpt>
      <trkpt lat="46.76917" lon="-1.81283">
        <ele>41</ele>
        <time>2018-03-08T16:19:36Z</time>
      </trkpt>
      <trkpt lat="46.76924" lon="-1.81233">
        <ele>42</ele>
        <time>2018-03-08T16:20:36Z</time>
      </trkpt>
      <trkpt lat="46.76928" lon="-1.81204">
        <ele>43</ele>
        <time>2018-03-08T16:21:36Z</time>
      </trkpt>
      <trkpt lat="46.76932" lon="-1.81175">
        <ele>43</ele>
        <time>2018-03-08T16:22:36Z</time>
      </trkpt>
      <trkpt lat="46.76933" lon="-1.81162">
        <ele>43</ele>
        <time>2018-03-08T16:23:36Z</time>
      </trkpt>
      <trkpt lat="46.76936" lon="-1.81139">
        <ele>43</ele>
        <time>2018-03-08T16:24:36Z</time>
      </trkpt>
      <trkpt lat="46.76938" lon="-1.81121">
        <ele>43</ele>
        <time>2018-03-08T16:25:36Z</time>
      </trkpt>
      <trkpt lat="46.76939" lon="-1.81095">
        <ele>42</ele>
        <time>2018-03-08T16:26:36Z</time>
      </trkpt>
      <trkpt lat="46.76941" lon="-1.81066">
        <ele>42</ele>
        <time>2018-03-08T16:27:36Z</time>
      </trkpt>
      <trkpt lat="46.76944" lon="-1.81016">
        <ele>42</ele>
        <time>2018-03-08T16:28:36Z</time>
      </trkpt>
      <trkpt lat="46.76947" lon="-1.80957">
        <ele>41</ele>
        <time>2018-03-08T16:29:36Z</time>
      </trkpt>
      <trkpt lat="46.76949" lon="-1.80917">
        <ele>41</ele>
        <time>2018-03-08T16:30:36Z</time>
      </trkpt>
      <trkpt lat="46.7695" lon="-1.80898">
        <ele>41</ele>
        <time>2018-03-08T16:31:36Z</time>
      </trkpt>
      <trkpt lat="46.76952" lon="-1.80868">
        <ele>41</ele>
        <time>2018-03-08T16:32:36Z</time>
      </trkpt>
      <trkpt lat="46.76952" lon="-1.80838">
        <ele>42</ele>
        <time>2018-03-08T16:33:36Z</time>
      </trkpt>
      <trkpt lat="46.76952" lon="-1.80816">
        <ele>42</ele>
        <time>2018-03-08T16:34:36Z</time>
      </trkpt>
      <trkpt lat="46.76952" lon="-1.80797">
        <ele>42</ele>
        <time>2018-03-08T16:35:36Z</time>
      </trkpt>
      <trkpt lat="46.76951" lon="-1.8078">
        <ele>42</ele>
        <time>2018-03-08T16:36:36Z</time>
      </trkpt>
      <trkpt lat="46.7695" lon="-1.80771">
        <ele>42</ele>
        <time>2018-03-08T16:37:36Z</time>
      </trkpt>
      <trkpt lat="46.76948" lon="-1.80753">
        <ele>42</ele>
        <time>2018-03-08T16:38:36Z</time>
      </trkpt>
      <trkpt lat="46.76944" lon="-1.80723">
        <ele>42</ele>
        <time>2018-03-08T16:39:36Z</time>
      </trkpt>
      <trkpt lat="46.76939" lon="-1.80697">
        <ele>41</ele>
        <time>2018-03-08T16:40:36Z</time>
      </trkpt>
      <trkpt lat="46.76928" lon="-1.80639">
        <ele>41</ele>
        <time>2018-03-08T16:41:36Z</time>
      </trkpt>
      <trkpt lat="46.76925" lon="-1.80619">
        <ele>40</ele>
        <time>2018-03-08T16:42:36Z</time>
      </trkpt>
      <trkpt lat="46.7692" lon="-1.80593">
        <ele>40</ele>
        <time>2018-03-08T16:43:36Z</time>
      </trkpt>
      <trkpt lat="46.76915" lon="-1.80568">
        <ele>40</ele>
        <time>2018-03-08T16:44:36Z</time>
      </trkpt>
      <trkpt lat="46.76912" lon="-1.80556">
        <ele>41</ele>
        <time>2018-03-08T16:45:36Z</time>
      </trkpt>
      <trkpt lat="46.76908" lon="-1.8054">
        <ele>41</ele>
        <time>2018-03-08T16:46:36Z</time>
      </trkpt>
      <trkpt lat="46.76903" lon="-1.80527">
        <ele>42</ele>
        <time>2018-03-08T16:47:36Z</time>
      </trkpt>
      <trkpt lat="46.76899" lon="-1.80517">
        <ele>42</ele>
        <time>2018-03-08T16:48:36Z</time>
      </trkpt>
      <trkpt lat="46.76895" lon="-1.80508">
        <ele>42</ele>
        <time>2018-03-08T16:49:36Z</time>
      </trkpt>
      <trkpt lat="46.76876" lon="-1.80476">
        <ele>43</ele>
        <time>2018-03-08T16:50:36Z</time>
      </trkpt>
      <trkpt lat="46.76846" lon="-1.80429">
        <ele>44</ele>
        <time>2018-03-08T16:51:36Z</time>
      </trkpt>
      <trkpt lat="46.76836" lon="-1.80414">
        <ele>45</ele>
        <time>2018-03-08T16:52:36Z</time>
      </trkpt>
      <trkpt lat="46.76809" lon="-1.80371">
        <ele>44</ele>
        <time>2018-03-08T16:53:36Z</time>
      </trkpt>
      <trkpt lat="46.76791" lon="-1.8034">
        <ele>44</ele>
        <time>2018-03-08T16:54:36Z</time>
      </trkpt>
      <trkpt lat="46.7678" lon="-1.80318">
        <ele>44</ele>
        <time>2018-03-08T16:55:36Z</time>
      </trkpt>
      <trkpt lat="46.76775" lon="-1.80307">
        <ele>44</ele>
        <time>2018-03-08T16:56:36Z</time>
      </trkpt>
      <trkpt lat="46.76769" lon="-1.80289">
        <ele>45</ele>
        <time>2018-03-08T16:57:36Z</time>
      </trkpt>
      <trkpt lat="46.76765" lon="-1.80274">
        <ele>45</ele>
        <time>2018-03-08T16:58:36Z</time>
      </trkpt>
      <trkpt lat="46.76763" lon="-1.80264">
        <ele>45</ele>
        <time>2018-03-08T16:59:36Z</time>
      </trkpt>
      <trkpt lat="46.76762" lon="-1.80251">
        <ele>46</ele>
        <time>2018-03-08T17:00:36Z</time>
      </trkpt>
      <trkpt lat="46.7676" lon="-1.80236">
        <ele>46</ele>
        <time>2018-03-08T17:01:36Z</time>
      </trkpt>
      <trkpt lat="46.7676" lon="-1.80199">
        <ele>46</ele>
        <time>2018-03-08T17:02:36Z</time>
      </trkpt>
      <trkpt lat="46.76762" lon="-1.80113">
        <ele>46</ele>
        <time>2018-03-08T17:03:36Z</time>
      </trkpt>
      <trkpt lat="46.76762" lon="-1.80082">
        <ele>46</ele>
        <time>2018-03-08T17:04:36Z</time>
      </trkpt>
      <trkpt lat="46.76763" lon="-1.80004">
        <ele>45</ele>
        <time>2018-03-08T17:05:36Z</time>
      </trkpt>
      <trkpt lat="46.76763" lon="-1.79983">
        <ele>45</ele>
        <time>2018-03-08T17:06:36Z</time>
      </trkpt>
      <trkpt lat="46.76764" lon="-1.79968">
        <ele>45</ele>
        <time>2018-03-08T17:07:36Z</time>
      </trkpt>
      <trkpt lat="46.76765" lon="-1.79951">
        <ele>45</ele>
        <time>2018-03-08T17:08:36Z</time>
      </trkpt>
      <trkpt lat="46.76766" lon="-1.79937">
        <ele>44</ele>
        <time>2018-03-08T17:09:36Z</time>
      </trkpt>
      <trkpt lat="46.76767" lon="-1.7992">
        <ele>44</ele>
        <time>2018-03-08T17:10:36Z</time>
      </trkpt>
      <trkpt lat="46.76772" lon="-1.79876">
        <ele>45</ele>
        <time>2018-03-08T17:11:36Z</time>
      </trkpt>
      <trkpt lat="46.76782" lon="-1.79789">
        <ele>46</ele>
        <time>2018-03-08T17:12:36Z</time>
      </trkpt>
      <trkpt lat="46.76784" lon="-1.79768">
        <ele>46</ele>
        <time>2018-03-08T17:13:36Z</time>
      </trkpt>
      <trkpt lat="46.7679" lon="-1.79712">
        <ele>47</ele>
        <time>2018-03-08T17:14:36Z</time>
      </trkpt>
      <trkpt lat="46.76796" lon="-1.79658">
        <ele>47</ele>
        <time>2018-03-08T17:15:36Z</time>
      </trkpt>
      <trkpt lat="46.76801" lon="-1.79619">
        <ele>48</ele>
        <time>2018-03-08T17:16:36Z</time>
      </trkpt>
      <trkpt lat="46.76803" lon="-1.79599">
        <ele>48</ele>
        <time>2018-03-08T17:17:36Z</time>
      </trkpt>
      <trkpt lat="46.76806" lon="-1.79583">
        <ele>48</ele>
        <time>2018-03-08T17:18:36Z</time>
      </trkpt>
      <trkpt lat="46.76809" lon="-1.79569">
        <ele>48</ele>
        <time>2018-03-08T17:19:36Z</time>
      </trkpt>
      <trkpt lat="46.76813" lon="-1.79556">
        <ele>48</ele>
        <time>2018-03-08T17:20:36Z</time>
      </trkpt>
      <trkpt lat="46.76818" lon="-1.79542">
        <ele>49</ele>
        <time>2018-03-08T17:21:36Z</time>
      </trkpt>
      <trkpt lat="46.76823" lon="-1.79529">
        <ele>49</ele>
        <time>2018-03-08T17:22:36Z</time>
      </trkpt>
      <trkpt lat="46.76857" lon="-1.79454">
        <ele>49</ele>
        <time>2018-03-08T17:23:36Z</time>
      </trkpt>
      <trkpt lat="46.76868" lon="-1.79427">
        <ele>49</ele>
        <time>2018-03-08T17:24:36Z</time>
      </trkpt>
      <trkpt lat="46.7688" lon="-1.794">
        <ele>50</ele>
        <time>2018-03-08T17:25:36Z</time>
      </trkpt>
      <trkpt lat="46.76896" lon="-1.79363">
        <ele>50</ele>
        <time>2018-03-08T17:26:36Z</time>
      </trkpt>
      <trkpt lat="46.7692" lon="-1.79305">
        <ele>52</ele>
        <time>2018-03-08T17:27:36Z</time>
      </trkpt>
      <trkpt lat="46.76946" lon="-1.79245">
        <ele>53</ele>
        <time>2018-03-08T17:28:36Z</time>
      </trkpt>
      <trkpt lat="46.76962" lon="-1.79204">
        <ele>52</ele>
        <time>2018-03-08T17:29:36Z</time>
      </trkpt>
      <trkpt lat="46.76965" lon="-1.79196">
        <ele>52</ele>
        <time>2018-03-08T17:30:36Z</time>
      </trkpt>
      <trkpt lat="46.76968" lon="-1.79183">
        <ele>52</ele>
        <time>2018-03-08T17:31:36Z</time>
      </trkpt>
      <trkpt lat="46.76972" lon="-1.79166">
        <ele>52</ele>
        <time>2018-03-08T17:32:36Z</time>
      </trkpt>
      <trkpt lat="46.76978" lon="-1.79146">
        <ele>52</ele>
        <time>2018-03-08T17:33:36Z</time>
      </trkpt>
      <trkpt lat="46.76981" lon="-1.79129">
        <ele>52</ele>
        <time>2018-03-08T17:34:36Z</time>
      </trkpt>
      <trkpt lat="46.76986" lon="-1.79106">
        <ele>52</ele>
        <time>2018-03-08T17:35:36Z</time>
      </trkpt>
      <trkpt lat="46.7699" lon="-1.79087">
        <ele>52</ele>
        <time>2018-03-08T17:36:36Z</time>
      </trkpt>
      <trkpt lat="46.76996" lon="-1.79055">
        <ele>52</ele>
        <time>2018-03-08T17:37:36Z</time>
      </trkpt>
      <trkpt lat="46.77002" lon="-1.79024">
        <ele>53</ele>
        <time>2018-03-08T17:38:36Z</time>
      </trkpt>
      <trkpt lat="46.77009" lon="-1.78991">
        <ele>53</ele>
        <time>2018-03-08T17:39:36Z</time>
      </trkpt>
      <trkpt lat="46.77009" lon="-1.78988">
        <ele>53</ele>
        <time>2018-03-08T17:40:36Z</time>
      </trkpt>
      <trkpt lat="46.77019" lon="-1.78939">
        <ele>52</ele>
        <time>2018-03-08T17:41:36Z</time>
      </trkpt>
      <trkpt lat="46.77026" lon="-1.78906">
        <ele>52</ele>
        <time>2018-03-08T17:42:36Z</time>
      </trkpt>
      <trkpt lat="46.77033" lon="-1.78869">
        <ele>51</ele>
        <time>2018-03-08T17:43:36Z</time>
      </trkpt>
      <trkpt lat="46.77043" lon="-1.7882">
        <ele>51</ele>
        <time>2018-03-08T17:44:36Z</time>
      </trkpt>
      <trkpt lat="46.77059" lon="-1.78738">
        <ele>52</ele>
        <time>2018-03-08T17:45:36Z</time>
      </trkpt>
      <trkpt lat="46.7707" lon="-1.78684">
        <ele>52</ele>
        <time>2018-03-08T17:46:36Z</time>
      </trkpt>
      <trkpt lat="46.77081" lon="-1.78624">
        <ele>52</ele>
        <time>2018-03-08T17:47:36Z</time>
      </trkpt>
      <trkpt lat="46.77093" lon="-1.78567">
        <ele>52</ele>
        <time>2018-03-08T17:48:36Z</time>
      </trkpt>
      <trkpt lat="46.771" lon="-1.78527">
        <ele>53</ele>
        <time>2018-03-08T17:49:36Z</time>
      </trkpt>
      <trkpt lat="46.77106" lon="-1.785">
        <ele>53</ele>
        <time>2018-03-08T17:50:36Z</time>
      </trkpt>
      <trkpt lat="46.77109" lon="-1.78483">
        <ele>53</ele>
        <time>2018-03-08T17:51:36Z</time>
      </trkpt>
      <trkpt lat="46.77111" lon="-1.78462">
        <ele>53</ele>
        <time>2018-03-08T17:52:36Z</time>
      </trkpt>
      <trkpt lat="46.77114" lon="-1.78433">
        <ele>54</ele>
        <time>2018-03-08T17:53:36Z</time>
      </trkpt>
      <trkpt lat="46.77115" lon="-1.7842">
        <ele>54</ele>
        <time>2018-03-08T17:54:36Z</time>
      </trkpt>
      <trkpt lat="46.77117" lon="-1.78396">
        <ele>53</ele>
        <time>2018-03-08T17:55:36Z</time>
      </trkpt>
      <trkpt lat="46.77121" lon="-1.78352">
        <ele>52</ele>
        <time>2018-03-08T17:56:36Z</time>
      </trkpt>
      <trkpt lat="46.77127" lon="-1.78292">
        <ele>52</ele>
        <time>2018-03-08T17:57:36Z</time>
      </trkpt>
      <trkpt lat="46.77132" lon="-1.78246">
        <ele>51</ele>
        <time>2018-03-08T17:58:36Z</time>
      </trkpt>
      <trkpt lat="46.77136" lon="-1.78202">
        <ele>52</ele>
        <time>2018-03-08T17:59:36Z</time>
      </trkpt>
      <trkpt lat="46.77139" lon="-1.7818">
        <ele>52</ele>
        <time>2018-03-08T18:00:36Z</time>
      </trkpt>
      <trkpt lat="46.77145" lon="-1.78146">
        <ele>52</ele>
        <time>2018-03-08T18:01:36Z</time>
      </trkpt>
      <trkpt lat="46.77153" lon="-1.781">
        <ele>53</ele>
        <time>2018-03-08T18:02:36Z</time>
      </trkpt>
      <trkpt lat="46.77163" lon="-1.78044">
        <ele>52</ele>
        <time>2018-03-08T18:03:36Z</time>
      </trkpt>
      <trkpt lat="46.77175" lon="-1.77979">
        <ele>52</ele>
        <time>2018-03-08T18:04:36Z</time>
      </trkpt>
      <trkpt lat="46.77184" lon="-1.77931">
        <ele>52</ele>
        <time>2018-03-08T18:05:36Z</time>
      </trkpt>
      <trkpt lat="46.77189" lon="-1.779">
        <ele>52</ele>
        <time>2018-03-08T18:06:36Z</time>
      </trkpt>
      <trkpt lat="46.77195" lon="-1.77866">
        <ele>52</ele>
        <time>2018-03-08T18:07:36Z</time>
      </trkpt>
      <trkpt lat="46.772" lon="-1.77827">
        <ele>52</ele>
        <time>2018-03-08T18:08:36Z</time>
      </trkpt>
      <trkpt lat="46.77204" lon="-1.77804">
        <ele>52</ele>
        <time>2018-03-08T18:09:36Z</time>
      </trkpt>
      <trkpt lat="46.77207" lon="-1.77775">
        <ele>51</ele>
        <time>2018-03-08T18:10:36Z</time>
      </trkpt>
      <trkpt lat="46.77213" lon="-1.7772">
        <ele>51</ele>
        <time>2018-03-08T18:11:36Z</time>
      </trkpt>
      <trkpt lat="46.77213" lon="-1.77717">
        <ele>51</ele>
        <time>2018-03-08T18:12:36Z</time>
      </trkpt>
      <trkpt lat="46.77218" lon="-1.77677">
        <ele>50</ele>
        <time>2018-03-08T18:13:36Z</time>
      </trkpt>
      <trkpt lat="46.77219" lon="-1.77662">
        <ele>50</ele>
        <time>2018-03-08T18:14:36Z</time>
      </trkpt>
      <trkpt lat="46.77225" lon="-1.77615">
        <ele>51</ele>
        <time>2018-03-08T18:15:36Z</time>
      </trkpt>
      <trkpt lat="46.77229" lon="-1.7758">
        <ele>52</ele>
        <time>2018-03-08T18:16:36Z</time>
      </trkpt>
      <trkpt lat="46.77233" lon="-1.77556">
        <ele>52</ele>
        <time>2018-03-08T18:17:36Z</time>
      </trkpt>
      <trkpt lat="46.77237" lon="-1.77534">
        <ele>52</ele>
        <time>2018-03-08T18:18:36Z</time>
      </trkpt>
      <trkpt lat="46.7724" lon="-1.77522">
        <ele>51</ele>
        <time>2018-03-08T18:19:36Z</time>
      </trkpt>
      <trkpt lat="46.77243" lon="-1.77511">
        <ele>51</ele>
        <time>2018-03-08T18:20:36Z</time>
      </trkpt>
      <trkpt lat="46.77246" lon="-1.77501">
        <ele>51</ele>
        <time>2018-03-08T18:21:36Z</time>
      </trkpt>
      <trkpt lat="46.7725" lon="-1.77491">
        <ele>51</ele>
        <time>2018-03-08T18:22:36Z</time>
      </trkpt>
      <trkpt lat="46.77255" lon="-1.7748">
        <ele>51</ele>
        <time>2018-03-08T18:23:36Z</time>
      </trkpt>
      <trkpt lat="46.77259" lon="-1.77471">
        <ele>51</ele>
        <time>2018-03-08T18:24:36Z</time>
      </trkpt>
      <trkpt lat="46.77263" lon="-1.77462">
        <ele>51</ele>
        <time>2018-03-08T18:25:36Z</time>
      </trkpt>
      <trkpt lat="46.77282" lon="-1.77428">
        <ele>50</ele>
        <time>2018-03-08T18:26:36Z</time>
      </trkpt>
      <trkpt lat="46.77301" lon="-1.77393">
        <ele>50</ele>
        <time>2018-03-08T18:27:36Z</time>
      </trkpt>
      <trkpt lat="46.77331" lon="-1.77337">
        <ele>50</ele>
        <time>2018-03-08T18:28:36Z</time>
      </trkpt>
      <trkpt lat="46.7736" lon="-1.77283">
        <ele>51</ele>
        <time>2018-03-08T18:29:36Z</time>
      </trkpt>
      <trkpt lat="46.77389" lon="-1.77229">
        <ele>51</ele>
        <time>2018-03-08T18:30:36Z</time>
      </trkpt>
      <trkpt lat="46.77427" lon="-1.77158">
        <ele>51</ele>
        <time>2018-03-08T18:31:36Z</time>
      </trkpt>
      <trkpt lat="46.77469" lon="-1.77081">
        <ele>52</ele>
        <time>2018-03-08T18:32:36Z</time>
      </trkpt>
      <trkpt lat="46.77511" lon="-1.77001">
        <ele>53</ele>
        <time>2018-03-08T18:33:36Z</time>
      </trkpt>
      <trkpt lat="46.77554" lon="-1.76921">
        <ele>53</ele>
        <time>2018-03-08T18:34:36Z</time>
      </trkpt>
      <trkpt lat="46.77592" lon="-1.76851">
        <ele>53</ele>
        <time>2018-03-08T18:35:36Z</time>
      </trkpt>
      <trkpt lat="46.77597" lon="-1.76842">
        <ele>53</ele>
        <time>2018-03-08T18:36:36Z</time>
      </trkpt>
      <trkpt lat="46.77617" lon="-1.76807">
        <ele>53</ele>
        <time>2018-03-08T18:37:36Z</time>
      </trkpt>
      <trkpt lat="46.77642" lon="-1.7676">
        <ele>53</ele>
        <time>2018-03-08T18:38:36Z</time>
      </trkpt>
      <trkpt lat="46.77646" lon="-1.76753">
        <ele>53</ele>
        <time>2018-03-08T18:39:36Z</time>
      </trkpt>
      <trkpt lat="46.77646" lon="-1.76744">
        <ele>53</ele>
        <time>2018-03-08T18:40:36Z</time>
      </trkpt>
      <trkpt lat="46.77649" lon="-1.76732">
        <ele>53</ele>
        <time>2018-03-08T18:41:36Z</time>
      </trkpt>
      <trkpt lat="46.77653" lon="-1.76716">
        <ele>53</ele>
        <time>2018-03-08T18:42:36Z</time>
      </trkpt>
      <trkpt lat="46.77653" lon="-1.76716">
        <ele>53</ele>
        <time>2018-03-08T18:43:36Z</time>
      </trkpt>
      <trkpt lat="46.77665" lon="-1.76719">
        <ele>53</ele>
        <time>2018-03-08T18:44:36Z</time>
      </trkpt>
      <trkpt lat="46.77712" lon="-1.7673">
        <ele>52</ele>
        <time>2018-03-08T18:45:36Z</time>
      </trkpt>
      <trkpt lat="46.77748" lon="-1.76739">
        <ele>51</ele>
        <time>2018-03-08T18:46:36Z</time>
      </trkpt>
      <trkpt lat="46.77777" lon="-1.76746">
        <ele>51</ele>
        <time>2018-03-08T18:47:36Z</time>
      </trkpt>
      <trkpt lat="46.7789" lon="-1.76771">
        <ele>51</ele>
        <time>2018-03-08T18:48:36Z</time>
      </trkpt>
      <trkpt lat="46.77903" lon="-1.76774">
        <ele>51</ele>
        <time>2018-03-08T18:49:36Z</time>
      </trkpt>
      <trkpt lat="46.7792" lon="-1.7678">
        <ele>51</ele>
        <time>2018-03-08T18:50:36Z</time>
      </trkpt>
      <trkpt lat="46.77935" lon="-1.76785">
        <ele>50</ele>
        <time>2018-03-08T18:51:36Z</time>
      </trkpt>
      <trkpt lat="46.77941" lon="-1.76788">
        <ele>50</ele>
        <time>2018-03-08T18:52:36Z</time>
      </trkpt>
      <trkpt lat="46.77954" lon="-1.76794">
        <ele>50</ele>
        <time>2018-03-08T18:53:36Z</time>
      </trkpt>
      <trkpt lat="46.77967" lon="-1.76801">
        <ele>50</ele>
        <time>2018-03-08T18:54:36Z</time>
      </trkpt>
      <trkpt lat="46.77985" lon="-1.76813">
        <ele>49</ele>
        <time>2018-03-08T18:55:36Z</time>
      </trkpt>
      <trkpt lat="46.77994" lon="-1.76818">
        <ele>49</ele>
        <time>2018-03-08T18:56:36Z</time>
      </trkpt>
      <trkpt lat="46.78013" lon="-1.76831">
        <ele>49</ele>
        <time>2018-03-08T18:57:36Z</time>
      </trkpt>
      <trkpt lat="46.7804" lon="-1.76853">
        <ele>49</ele>
        <time>2018-03-08T18:58:36Z</time>
      </trkpt>
      <trkpt lat="46.78062" lon="-1.76873">
        <ele>49</ele>
        <time>2018-03-08T18:59:36Z</time>
      </trkpt>
      <trkpt lat="46.78063" lon="-1.76874">
        <ele>49</ele>
        <time>2018-03-08T19:00:36Z</time>
      </trkpt>
      <trkpt lat="46.78093" lon="-1.76905">
        <ele>48</ele>
        <time>2018-03-08T19:01:36Z</time>
      </trkpt>
      <trkpt lat="46.78114" lon="-1.76927">
        <ele>47</ele>
        <time>2018-03-08T19:02:36Z</time>
      </trkpt>
      <trkpt lat="46.78136" lon="-1.76951">
        <ele>47</ele>
        <time>2018-03-08T19:03:36Z</time>
      </trkpt>
      <trkpt lat="46.7814" lon="-1.76955">
        <ele>46</ele>
        <time>2018-03-08T19:04:36Z</time>
      </trkpt>
      <trkpt lat="46.78183" lon="-1.77">
        <ele>46</ele>
        <time>2018-03-08T19:05:36Z</time>
      </trkpt>
      <trkpt lat="46.78197" lon="-1.77015">
        <ele>47</ele>
        <time>2018-03-08T19:06:36Z</time>
      </trkpt>
      <trkpt lat="46.78201" lon="-1.77019">
        <ele>47</ele>
        <time>2018-03-08T19:07:36Z</time>
      </trkpt>
      <trkpt lat="46.78245" lon="-1.77068">
        <ele>48</ele>
        <time>2018-03-08T19:08:36Z</time>
      </trkpt>
      <trkpt lat="46.78285" lon="-1.7711">
        <ele>47</ele>
        <time>2018-03-08T19:09:36Z</time>
      </trkpt>
      <trkpt lat="46.78318" lon="-1.77147">
        <ele>47</ele>
        <time>2018-03-08T19:10:36Z</time>
      </trkpt>
      <trkpt lat="46.78349" lon="-1.7718">
        <ele>47</ele>
        <time>2018-03-08T19:11:36Z</time>
      </trkpt>
      <trkpt lat="46.78394" lon="-1.77229">
        <ele>47</ele>
        <time>2018-03-08T19:12:36Z</time>
      </trkpt>
      <trkpt lat="46.78426" lon="-1.77263">
        <ele>47</ele>
        <time>2018-03-08T19:13:36Z</time>
      </trkpt>
      <trkpt lat="46.78455" lon="-1.77293">
        <ele>47</ele>
        <time>2018-03-08T19:14:36Z</time>
      </trkpt>
      <trkpt lat="46.78502" lon="-1.77343">
        <ele>47</ele>
        <time>2018-03-08T19:15:36Z</time>
      </trkpt>
      <trkpt lat="46.78544" lon="-1.77388">
        <ele>46</ele>
        <time>2018-03-08T19:16:36Z</time>
      </trkpt>
      <trkpt lat="46.78587" lon="-1.77433">
        <ele>46</ele>
        <time>2018-03-08T19:17:36Z</time>
      </trkpt>
      <trkpt lat="46.78624" lon="-1.77475">
        <ele>45</ele>
        <time>2018-03-08T19:18:36Z</time>
      </trkpt>
      <trkpt lat="46.78672" lon="-1.77529">
        <ele>45</ele>
        <time>2018-03-08T19:19:36Z</time>
      </trkpt>
      <trkpt lat="46.78756" lon="-1.77629">
        <ele>44</ele>
        <time>2018-03-08T19:20:36Z</time>
      </trkpt>
      <trkpt lat="46.78793" lon="-1.77674">
        <ele>43</ele>
        <time>2018-03-08T19:21:36Z</time>
      </trkpt>
      <trkpt lat="46.78932" lon="-1.77853">
        <ele>40</ele>
        <time>2018-03-08T19:22:36Z</time>
      </trkpt>
      <trkpt lat="46.78986" lon="-1.77922">
        <ele>39</ele>
        <time>2018-03-08T19:23:36Z</time>
      </trkpt>
      <trkpt lat="46.79057" lon="-1.78013">
        <ele>37</ele>
        <time>2018-03-08T19:24:36Z</time>
      </trkpt>
      <trkpt lat="46.7913" lon="-1.78108">
        <ele>35</ele>
        <time>2018-03-08T19:25:36Z</time>
      </trkpt>
      <trkpt lat="46.7916" lon="-1.78145">
        <ele>35</ele>
        <time>2018-03-08T19:26:36Z</time>
      </trkpt>
      <trkpt lat="46.7917" lon="-1.78159">
        <ele>35</ele>
        <time>2018-03-08T19:27:36Z</time>
      </trkpt>
      <trkpt lat="46.79189" lon="-1.78184">
        <ele>35</ele>
        <time>2018-03-08T19:28:36Z</time>
      </trkpt>
      <trkpt lat="46.79212" lon="-1.78213">
        <ele>35</ele>
        <time>2018-03-08T19:29:36Z</time>
      </trkpt>
      <trkpt lat="46.79234" lon="-1.78241">
        <ele>35</ele>
        <time>2018-03-08T19:30:36Z</time>
      </trkpt>
      <trkpt lat="46.79264" lon="-1.7828">
        <ele>35</ele>
        <time>2018-03-08T19:31:36Z</time>
      </trkpt>
      <trkpt lat="46.79317" lon="-1.78348">
        <ele>35</ele>
        <time>2018-03-08T19:32:36Z</time>
      </trkpt>
      <trkpt lat="46.79375" lon="-1.78424">
        <ele>32</ele>
        <time>2018-03-08T19:33:36Z</time>
      </trkpt>
      <trkpt lat="46.79418" lon="-1.7848">
        <ele>32</ele>
        <time>2018-03-08T19:34:36Z</time>
      </trkpt>
      <trkpt lat="46.79454" lon="-1.78527">
        <ele>32</ele>
        <time>2018-03-08T19:35:36Z</time>
      </trkpt>
      <trkpt lat="46.79491" lon="-1.78575">
        <ele>31</ele>
        <time>2018-03-08T19:36:36Z</time>
      </trkpt>
      <trkpt lat="46.79524" lon="-1.78618">
        <ele>31</ele>
        <time>2018-03-08T19:37:36Z</time>
      </trkpt>
      <trkpt lat="46.79561" lon="-1.78666">
        <ele>30</ele>
        <time>2018-03-08T19:38:36Z</time>
      </trkpt>
      <trkpt lat="46.79613" lon="-1.78734">
        <ele>29</ele>
        <time>2018-03-08T19:39:36Z</time>
      </trkpt>
      <trkpt lat="46.79691" lon="-1.78837">
        <ele>29</ele>
        <time>2018-03-08T19:40:36Z</time>
      </trkpt>
      <trkpt lat="46.79692" lon="-1.78838">
        <ele>29</ele>
        <time>2018-03-08T19:41:36Z</time>
      </trkpt>
      <trkpt lat="46.79772" lon="-1.7894">
        <ele>30</ele>
        <time>2018-03-08T19:42:36Z</time>
      </trkpt>
      <trkpt lat="46.79804" lon="-1.78983">
        <ele>29</ele>
        <time>2018-03-08T19:43:36Z</time>
      </trkpt>
      <trkpt lat="46.7981" lon="-1.78991">
        <ele>29</ele>
        <time>2018-03-08T19:44:36Z</time>
      </trkpt>
      <trkpt lat="46.79864" lon="-1.79063">
        <ele>28</ele>
        <time>2018-03-08T19:45:36Z</time>
      </trkpt>
      <trkpt lat="46.79919" lon="-1.79138">
        <ele>28</ele>
        <time>2018-03-08T19:46:36Z</time>
      </trkpt>
      <trkpt lat="46.7994" lon="-1.79166">
        <ele>27</ele>
        <time>2018-03-08T19:47:36Z</time>
      </trkpt>
      <trkpt lat="46.79955" lon="-1.79184">
        <ele>27</ele>
        <time>2018-03-08T19:48:36Z</time>
      </trkpt>
      <trkpt lat="46.79955" lon="-1.79184">
        <ele>27</ele>
        <time>2018-03-08T19:49:36Z</time>
      </trkpt>
      <trkpt lat="46.79962" lon="-1.7919">
        <ele>27</ele>
        <time>2018-03-08T19:50:36Z</time>
      </trkpt>
      <trkpt lat="46.79966" lon="-1.79193">
        <ele>27</ele>
        <time>2018-03-08T19:51:36Z</time>
      </trkpt>
      <trkpt lat="46.79969" lon="-1.79197">
        <ele>27</ele>
        <time>2018-03-08T19:52:36Z</time>
      </trkpt>
      <trkpt lat="46.79972" lon="-1.79201">
        <ele>27</ele>
        <time>2018-03-08T19:53:36Z</time>
      </trkpt>
      <trkpt lat="46.79978" lon="-1.7921">
        <ele>26</ele>
        <time>2018-03-08T19:54:36Z</time>
      </trkpt>
      <trkpt lat="46.79987" lon="-1.79223">
        <ele>26</ele>
        <time>2018-03-08T19:55:36Z</time>
      </trkpt>
      <trkpt lat="46.79989" lon="-1.79226">
        <ele>26</ele>
        <time>2018-03-08T19:56:36Z</time>
      </trkpt>
      <trkpt lat="46.80025" lon="-1.79277">
        <ele>25</ele>
        <time>2018-03-08T19:57:36Z</time>
      </trkpt>
      <trkpt lat="46.80066" lon="-1.79337">
        <ele>24</ele>
        <time>2018-03-08T19:58:36Z</time>
      </trkpt>
      <trkpt lat="46.80112" lon="-1.79405">
        <ele>24</ele>
        <time>2018-03-08T19:59:36Z</time>
      </trkpt>
      <trkpt lat="46.80155" lon="-1.79467">
        <ele>25</ele>
        <time>2018-03-08T20:00:36Z</time>
      </trkpt>
      <trkpt lat="46.80201" lon="-1.79534">
        <ele>25</ele>
        <time>2018-03-08T20:01:36Z</time>
      </trkpt>
      <trkpt lat="46.80232" lon="-1.79579">
        <ele>25</ele>
        <time>2018-03-08T20:02:36Z</time>
      </trkpt>
      <trkpt lat="46.80236" lon="-1.79585">
        <ele>25</ele>
        <time>2018-03-08T20:03:36Z</time>
      </trkpt>
      <trkpt lat="46.80242" lon="-1.79593">
        <ele>25</ele>
        <time>2018-03-08T20:04:36Z</time>
      </trkpt>
      <trkpt lat="46.80249" lon="-1.79604">
        <ele>25</ele>
        <time>2018-03-08T20:05:36Z</time>
      </trkpt>
      <trkpt lat="46.80256" lon="-1.79614">
        <ele>25</ele>
        <time>2018-03-08T20:06:36Z</time>
      </trkpt>
      <trkpt lat="46.80262" lon="-1.79623">
        <ele>25</ele>
        <time>2018-03-08T20:07:36Z</time>
      </trkpt>
      <trkpt lat="46.80274" lon="-1.7964">
        <ele>25</ele>
        <time>2018-03-08T20:08:36Z</time>
      </trkpt>
      <trkpt lat="46.80291" lon="-1.79665">
        <ele>25</ele>
        <time>2018-03-08T20:09:36Z</time>
      </trkpt>
      <trkpt lat="46.80322" lon="-1.7971">
        <ele>24</ele>
        <time>2018-03-08T20:10:36Z</time>
      </trkpt>
      <trkpt lat="46.80347" lon="-1.79747">
        <ele>24</ele>
        <time>2018-03-08T20:11:36Z</time>
      </trkpt>
      <trkpt lat="46.80358" lon="-1.79764">
        <ele>23</ele>
        <time>2018-03-08T20:12:36Z</time>
      </trkpt>
      <trkpt lat="46.80391" lon="-1.79812">
        <ele>20</ele>
        <time>2018-03-08T20:13:36Z</time>
      </trkpt>
      <trkpt lat="46.80415" lon="-1.79847">
        <ele>19</ele>
        <time>2018-03-08T20:14:36Z</time>
      </trkpt>
      <trkpt lat="46.80431" lon="-1.7987">
        <ele>19</ele>
        <time>2018-03-08T20:15:36Z</time>
      </trkpt>
      <trkpt lat="46.80432" lon="-1.79871">
        <ele>19</ele>
        <time>2018-03-08T20:16:36Z</time>
      </trkpt>
      <trkpt lat="46.80442" lon="-1.79886">
        <ele>19</ele>
        <time>2018-03-08T20:17:36Z</time>
      </trkpt>
      <trkpt lat="46.80455" lon="-1.79905">
        <ele>19</ele>
        <time>2018-03-08T20:18:36Z</time>
      </trkpt>
      <trkpt lat="46.80492" lon="-1.79959">
        <ele>20</ele>
        <time>2018-03-08T20:19:36Z</time>
      </trkpt>
      <trkpt lat="46.80516" lon="-1.79995">
        <ele>21</ele>
        <time>2018-03-08T20:20:36Z</time>
      </trkpt>
      <trkpt lat="46.80537" lon="-1.80024">
        <ele>21</ele>
        <time>2018-03-08T20:21:36Z</time>
      </trkpt>
      <trkpt lat="46.80561" lon="-1.80059">
        <ele>22</ele>
        <time>2018-03-08T20:22:36Z</time>
      </trkpt>
      <trkpt lat="46.80612" lon="-1.80133">
        <ele>23</ele>
        <time>2018-03-08T20:23:36Z</time>
      </trkpt>
      <trkpt lat="46.80648" lon="-1.80186">
        <ele>24</ele>
        <time>2018-03-08T20:24:36Z</time>
      </trkpt>
      <trkpt lat="46.8067" lon="-1.80216">
        <ele>25</ele>
        <time>2018-03-08T20:25:36Z</time>
      </trkpt>
      <trkpt lat="46.80679" lon="-1.80231">
        <ele>25</ele>
        <time>2018-03-08T20:26:36Z</time>
      </trkpt>
      <trkpt lat="46.80698" lon="-1.80258">
        <ele>25</ele>
        <time>2018-03-08T20:27:36Z</time>
      </trkpt>
      <trkpt lat="46.80718" lon="-1.80287">
        <ele>25</ele>
        <time>2018-03-08T20:28:36Z</time>
      </trkpt>
      <trkpt lat="46.80762" lon="-1.80347">
        <ele>24</ele>
        <time>2018-03-08T20:29:36Z</time>
      </trkpt>
      <trkpt lat="46.80795" lon="-1.80396">
        <ele>25</ele>
        <time>2018-03-08T20:30:36Z</time>
      </trkpt>
      <trkpt lat="46.80828" lon="-1.80444">
        <ele>25</ele>
        <time>2018-03-08T20:31:36Z</time>
      </trkpt>
      <trkpt lat="46.80854" lon="-1.80483">
        <ele>25</ele>
        <time>2018-03-08T20:32:36Z</time>
      </trkpt>
      <trkpt lat="46.80881" lon="-1.80521">
        <ele>26</ele>
        <time>2018-03-08T20:33:36Z</time>
      </trkpt>
      <trkpt lat="46.80908" lon="-1.8056">
        <ele>27</ele>
        <time>2018-03-08T20:34:36Z</time>
      </trkpt>
      <trkpt lat="46.80939" lon="-1.80604">
        <ele>28</ele>
        <time>2018-03-08T20:35:36Z</time>
      </trkpt>
      <trkpt lat="46.80964" lon="-1.80641">
        <ele>29</ele>
        <time>2018-03-08T20:36:36Z</time>
      </trkpt>
      <trkpt lat="46.81" lon="-1.80693">
        <ele>30</ele>
        <time>2018-03-08T20:37:36Z</time>
      </trkpt>
      <trkpt lat="46.81031" lon="-1.80737">
        <ele>32</ele>
        <time>2018-03-08T20:38:36Z</time>
      </trkpt>
      <trkpt lat="46.81058" lon="-1.80776">
        <ele>33</ele>
        <time>2018-03-08T20:39:36Z</time>
      </trkpt>
      <trkpt lat="46.81088" lon="-1.80818">
        <ele>35</ele>
        <time>2018-03-08T20:40:36Z</time>
      </trkpt>
      <trkpt lat="46.81114" lon="-1.80855">
        <ele>35</ele>
        <time>2018-03-08T20:41:36Z</time>
      </trkpt>
      <trkpt lat="46.81134" lon="-1.80885">
        <ele>35</ele>
        <time>2018-03-08T20:42:36Z</time>
      </trkpt>
      <trkpt lat="46.81149" lon="-1.80907">
        <ele>36</ele>
        <time>2018-03-08T20:43:36Z</time>
      </trkpt>
      <trkpt lat="46.81157" lon="-1.80919">
        <ele>36</ele>
        <time>2018-03-08T20:44:36Z</time>
      </trkpt>
      <trkpt lat="46.81163" lon="-1.80928">
        <ele>36</ele>
        <time>2018-03-08T20:45:36Z</time>
      </trkpt>
      <trkpt lat="46.81186" lon="-1.80959">
        <ele>36</ele>
        <time>2018-03-08T20:46:36Z</time>
      </trkpt>
      <trkpt lat="46.81195" lon="-1.80973">
        <ele>36</ele>
        <time>2018-03-08T20:47:36Z</time>
      </trkpt>
      <trkpt lat="46.81213" lon="-1.81">
        <ele>36</ele>
        <time>2018-03-08T20:48:36Z</time>
      </trkpt>
      <trkpt lat="46.81223" lon="-1.81017">
        <ele>36</ele>
        <time>2018-03-08T20:49:36Z</time>
      </trkpt>
      <trkpt lat="46.81237" lon="-1.81041">
        <ele>35</ele>
        <time>2018-03-08T20:50:36Z</time>
      </trkpt>
      <trkpt lat="46.81239" lon="-1.81045">
        <ele>35</ele>
        <time>2018-03-08T20:51:36Z</time>
      </trkpt>
      <trkpt lat="46.81258" lon="-1.81083">
        <ele>35</ele>
        <time>2018-03-08T20:52:36Z</time>
      </trkpt>
      <trkpt lat="46.81283" lon="-1.81131">
        <ele>36</ele>
        <time>2018-03-08T20:53:36Z</time>
      </trkpt>
      <trkpt lat="46.81302" lon="-1.8117">
        <ele>36</ele>
        <time>2018-03-08T20:54:36Z</time>
      </trkpt>
      <trkpt lat="46.81309" lon="-1.81184">
        <ele>35</ele>
        <time>2018-03-08T20:55:36Z</time>
      </trkpt>
      <trkpt lat="46.81316" lon="-1.81197">
        <ele>35</ele>
        <time>2018-03-08T20:56:36Z</time>
      </trkpt>
      <trkpt lat="46.81326" lon="-1.81216">
        <ele>35</ele>
        <time>2018-03-08T20:57:36Z</time>
      </trkpt>
      <trkpt lat="46.81353" lon="-1.81266">
        <ele>34</ele>
        <time>2018-03-08T20:58:36Z</time>
      </trkpt>
      <trkpt lat="46.81377" lon="-1.81309">
        <ele>34</ele>
        <time>2018-03-08T20:59:36Z</time>
      </trkpt>
      <trkpt lat="46.81403" lon="-1.81357">
        <ele>33</ele>
        <time>2018-03-08T21:00:36Z</time>
      </trkpt>
      <trkpt lat="46.81428" lon="-1.81402">
        <ele>33</ele>
        <time>2018-03-08T21:01:36Z</time>
      </trkpt>
      <trkpt lat="46.81454" lon="-1.81449">
        <ele>32</ele>
        <time>2018-03-08T21:02:36Z</time>
      </trkpt>
      <trkpt lat="46.81481" lon="-1.815">
        <ele>32</ele>
        <time>2018-03-08T21:03:36Z</time>
      </trkpt>
      <trkpt lat="46.81503" lon="-1.81539">
        <ele>33</ele>
        <time>2018-03-08T21:04:36Z</time>
      </trkpt>
      <trkpt lat="46.81554" lon="-1.81634">
        <ele>33</ele>
        <time>2018-03-08T21:05:36Z</time>
      </trkpt>
      <trkpt lat="46.81604" lon="-1.81726">
        <ele>34</ele>
        <time>2018-03-08T21:06:36Z</time>
      </trkpt>
      <trkpt lat="46.81624" lon="-1.81763">
        <ele>35</ele>
        <time>2018-03-08T21:07:36Z</time>
      </trkpt>
      <trkpt lat="46.81652" lon="-1.81818">
        <ele>34</ele>
        <time>2018-03-08T21:08:36Z</time>
      </trkpt>
      <trkpt lat="46.81673" lon="-1.81859">
        <ele>34</ele>
        <time>2018-03-08T21:09:36Z</time>
      </trkpt>
      <trkpt lat="46.81681" lon="-1.81877">
        <ele>33</ele>
        <time>2018-03-08T21:10:36Z</time>
      </trkpt>
      <trkpt lat="46.81688" lon="-1.81891">
        <ele>33</ele>
        <time>2018-03-08T21:11:36Z</time>
      </trkpt>
      <trkpt lat="46.81702" lon="-1.8193">
        <ele>33</ele>
        <time>2018-03-08T21:12:36Z</time>
      </trkpt>
      <trkpt lat="46.81714" lon="-1.8196">
        <ele>33</ele>
        <time>2018-03-08T21:13:36Z</time>
      </trkpt>
      <trkpt lat="46.81723" lon="-1.81986">
        <ele>33</ele>
        <time>2018-03-08T21:14:36Z</time>
      </trkpt>
      <trkpt lat="46.81761" lon="-1.82095">
        <ele>34</ele>
        <time>2018-03-08T21:15:36Z</time>
      </trkpt>
      <trkpt lat="46.81783" lon="-1.82161">
        <ele>34</ele>
        <time>2018-03-08T21:16:36Z</time>
      </trkpt>
      <trkpt lat="46.81808" lon="-1.82235">
        <ele>32</ele>
        <time>2018-03-08T21:17:36Z</time>
      </trkpt>
      <trkpt lat="46.8186" lon="-1.82387">
        <ele>28</ele>
        <time>2018-03-08T21:18:36Z</time>
      </trkpt>
      <trkpt lat="46.81922" lon="-1.82573">
        <ele>27</ele>
        <time>2018-03-08T21:19:36Z</time>
      </trkpt>
      <trkpt lat="46.81937" lon="-1.82616">
        <ele>26</ele>
        <time>2018-03-08T21:20:36Z</time>
      </trkpt>
      <trkpt lat="46.81944" lon="-1.82635">
        <ele>26</ele>
        <time>2018-03-08T21:21:36Z</time>
      </trkpt>
      <trkpt lat="46.81997" lon="-1.82792">
        <ele>23</ele>
        <time>2018-03-08T21:22:36Z</time>
      </trkpt>
      <trkpt lat="46.82063" lon="-1.82985">
        <ele>23</ele>
        <time>2018-03-08T21:23:36Z</time>
      </trkpt>
      <trkpt lat="46.82126" lon="-1.83168">
        <ele>23</ele>
        <time>2018-03-08T21:24:36Z</time>
      </trkpt>
      <trkpt lat="46.82154" lon="-1.83252">
        <ele>25</ele>
        <time>2018-03-08T21:25:36Z</time>
      </trkpt>
      <trkpt lat="46.82164" lon="-1.83283">
        <ele>25</ele>
        <time>2018-03-08T21:26:36Z</time>
      </trkpt>
      <trkpt lat="46.82166" lon="-1.83292">
        <ele>24</ele>
        <time>2018-03-08T21:27:36Z</time>
      </trkpt>
      <trkpt lat="46.82172" lon="-1.83311">
        <ele>24</ele>
        <time>2018-03-08T21:28:36Z</time>
      </trkpt>
      <trkpt lat="46.8218" lon="-1.83342">
        <ele>24</ele>
        <time>2018-03-08T21:29:36Z</time>
      </trkpt>
      <trkpt lat="46.82198" lon="-1.83415">
        <ele>23</ele>
        <time>2018-03-08T21:30:36Z</time>
      </trkpt>
      <trkpt lat="46.82221" lon="-1.83504">
        <ele>22</ele>
        <time>2018-03-08T21:31:36Z</time>
      </trkpt>
      <trkpt lat="46.82232" lon="-1.83552">
        <ele>22</ele>
        <time>2018-03-08T21:32:36Z</time>
      </trkpt>
      <trkpt lat="46.82235" lon="-1.83564">
        <ele>22</ele>
        <time>2018-03-08T21:33:36Z</time>
      </trkpt>
      <trkpt lat="46.82239" lon="-1.8358">
        <ele>22</ele>
        <time>2018-03-08T21:34:36Z</time>
      </trkpt>
      <trkpt lat="46.82249" lon="-1.8362">
        <ele>22</ele>
        <time>2018-03-08T21:35:36Z</time>
      </trkpt>
      <trkpt lat="46.82259" lon="-1.83659">
        <ele>22</ele>
        <time>2018-03-08T21:36:36Z</time>
      </trkpt>
      <trkpt lat="46.82271" lon="-1.83715">
        <ele>22</ele>
        <time>2018-03-08T21:37:36Z</time>
      </trkpt>
      <trkpt lat="46.82282" lon="-1.8377">
        <ele>22</ele>
        <time>2018-03-08T21:38:36Z</time>
      </trkpt>
      <trkpt lat="46.82289" lon="-1.83807">
        <ele>22</ele>
        <time>2018-03-08T21:39:36Z</time>
      </trkpt>
      <trkpt lat="46.82304" lon="-1.83884">
        <ele>21</ele>
        <time>2018-03-08T21:40:36Z</time>
      </trkpt>
      <trkpt lat="46.82316" lon="-1.8395">
        <ele>21</ele>
        <time>2018-03-08T21:41:36Z</time>
      </trkpt>
      <trkpt lat="46.82341" lon="-1.84084">
        <ele>20</ele>
        <time>2018-03-08T21:42:36Z</time>
      </trkpt>
      <trkpt lat="46.82349" lon="-1.84127">
        <ele>20</ele>
        <time>2018-03-08T21:43:36Z</time>
      </trkpt>
      <trkpt lat="46.82361" lon="-1.84195">
        <ele>20</ele>
        <time>2018-03-08T21:44:36Z</time>
      </trkpt>
      <trkpt lat="46.82375" lon="-1.84273">
        <ele>18</ele>
        <time>2018-03-08T21:45:36Z</time>
      </trkpt>
      <trkpt lat="46.82379" lon="-1.8429">
        <ele>18</ele>
        <time>2018-03-08T21:46:36Z</time>
      </trkpt>
      <trkpt lat="46.82385" lon="-1.84309">
        <ele>18</ele>
        <time>2018-03-08T21:47:36Z</time>
      </trkpt>
      <trkpt lat="46.8239" lon="-1.84323">
        <ele>18</ele>
        <time>2018-03-08T21:48:36Z</time>
      </trkpt>
      <trkpt lat="46.82397" lon="-1.84336">
        <ele>18</ele>
        <time>2018-03-08T21:49:36Z</time>
      </trkpt>
      <trkpt lat="46.82404" lon="-1.8435">
        <ele>18</ele>
        <time>2018-03-08T21:50:36Z</time>
      </trkpt>
      <trkpt lat="46.82409" lon="-1.84358">
        <ele>17</ele>
        <time>2018-03-08T21:51:36Z</time>
      </trkpt>
      <trkpt lat="46.82422" lon="-1.84373">
        <ele>17</ele>
        <time>2018-03-08T21:52:36Z</time>
      </trkpt>
      <trkpt lat="46.82444" lon="-1.84395">
        <ele>16</ele>
        <time>2018-03-08T21:53:36Z</time>
      </trkpt>
      <trkpt lat="46.82501" lon="-1.84447">
        <ele>16</ele>
        <time>2018-03-08T21:54:36Z</time>
      </trkpt>
      <trkpt lat="46.82565" lon="-1.84504">
        <ele>18</ele>
        <time>2018-03-08T21:55:36Z</time>
      </trkpt>
      <trkpt lat="46.82658" lon="-1.84588">
        <ele>18</ele>
        <time>2018-03-08T21:56:36Z</time>
      </trkpt>
      <trkpt lat="46.82703" lon="-1.84629">
        <ele>17</ele>
        <time>2018-03-08T21:57:36Z</time>
      </trkpt>
      <trkpt lat="46.82745" lon="-1.84665">
        <ele>16</ele>
        <time>2018-03-08T21:58:36Z</time>
      </trkpt>
      <trkpt lat="46.82794" lon="-1.84709">
        <ele>15</ele>
        <time>2018-03-08T21:59:36Z</time>
      </trkpt>
      <trkpt lat="46.82803" lon="-1.84718">
        <ele>15</ele>
        <time>2018-03-08T22:00:36Z</time>
      </trkpt>
      <trkpt lat="46.82839" lon="-1.8475">
        <ele>14</ele>
        <time>2018-03-08T22:01:36Z</time>
      </trkpt>
      <trkpt lat="46.82858" lon="-1.84767">
        <ele>15</ele>
        <time>2018-03-08T22:02:36Z</time>
      </trkpt>
      <trkpt lat="46.82871" lon="-1.84779">
        <ele>15</ele>
        <time>2018-03-08T22:03:36Z</time>
      </trkpt>
      <trkpt lat="46.82907" lon="-1.84811">
        <ele>16</ele>
        <time>2018-03-08T22:04:36Z</time>
      </trkpt>
      <trkpt lat="46.82943" lon="-1.84844">
        <ele>16</ele>
        <time>2018-03-08T22:05:36Z</time>
      </trkpt>
      <trkpt lat="46.82953" lon="-1.84854">
        <ele>16</ele>
        <time>2018-03-08T22:06:36Z</time>
      </trkpt>
      <trkpt lat="46.82971" lon="-1.8487">
        <ele>17</ele>
        <time>2018-03-08T22:07:36Z</time>
      </trkpt>
      <trkpt lat="46.82996" lon="-1.84892">
        <ele>16</ele>
        <time>2018-03-08T22:08:36Z</time>
      </trkpt>
      <trkpt lat="46.83009" lon="-1.84903">
        <ele>17</ele>
        <time>2018-03-08T22:09:36Z</time>
      </trkpt>
      <trkpt lat="46.83034" lon="-1.84927">
        <ele>17</ele>
        <time>2018-03-08T22:10:36Z</time>
      </trkpt>
      <trkpt lat="46.83036" lon="-1.84929">
        <ele>17</ele>
        <time>2018-03-08T22:11:36Z</time>
      </trkpt>
      <trkpt lat="46.83057" lon="-1.84948">
        <ele>17</ele>
        <time>2018-03-08T22:12:36Z</time>
      </trkpt>
      <trkpt lat="46.83094" lon="-1.84981">
        <ele>16</ele>
        <time>2018-03-08T22:13:36Z</time>
      </trkpt>
      <trkpt lat="46.83102" lon="-1.84988">
        <ele>16</ele>
        <time>2018-03-08T22:14:36Z</time>
      </trkpt>
      <trkpt lat="46.8312" lon="-1.85005">
        <ele>17</ele>
        <time>2018-03-08T22:15:36Z</time>
      </trkpt>
      <trkpt lat="46.83152" lon="-1.85033">
        <ele>17</ele>
        <time>2018-03-08T22:16:36Z</time>
      </trkpt>
      <trkpt lat="46.83171" lon="-1.8505">
        <ele>17</ele>
        <time>2018-03-08T22:17:36Z</time>
      </trkpt>
      <trkpt lat="46.83171" lon="-1.8505">
        <ele>17</ele>
        <time>2018-03-08T22:18:36Z</time>
      </trkpt>
      <trkpt lat="46.83189" lon="-1.85066">
        <ele>15</ele>
        <time>2018-03-08T22:19:36Z</time>
      </trkpt>
      <trkpt lat="46.83207" lon="-1.85079">
        <ele>14</ele>
        <time>2018-03-08T22:20:36Z</time>
      </trkpt>
      <trkpt lat="46.83224" lon="-1.85089">
        <ele>14</ele>
        <time>2018-03-08T22:21:36Z</time>
      </trkpt>
      <trkpt lat="46.83229" lon="-1.85092">
        <ele>14</ele>
        <time>2018-03-08T22:22:36Z</time>
      </trkpt>
      <trkpt lat="46.83259" lon="-1.85107">
        <ele>14</ele>
        <time>2018-03-08T22:23:36Z</time>
      </trkpt>
      <trkpt lat="46.83281" lon="-1.85117">
        <ele>14</ele>
        <time>2018-03-08T22:24:36Z</time>
      </trkpt>
      <trkpt lat="46.83283" lon="-1.85118">
        <ele>14</ele>
        <time>2018-03-08T22:25:36Z</time>
      </trkpt>
      <trkpt lat="46.83287" lon="-1.8512">
        <ele>14</ele>
        <time>2018-03-08T22:26:36Z</time>
      </trkpt>
      <trkpt lat="46.83294" lon="-1.85123">
        <ele>14</ele>
        <time>2018-03-08T22:27:36Z</time>
      </trkpt>
      <trkpt lat="46.833" lon="-1.85125">
        <ele>14</ele>
        <time>2018-03-08T22:28:36Z</time>
      </trkpt>
      <trkpt lat="46.83302" lon="-1.85126">
        <ele>14</ele>
        <time>2018-03-08T22:29:36Z</time>
      </trkpt>
      <trkpt lat="46.83308" lon="-1.85126">
        <ele>14</ele>
        <time>2018-03-08T22:30:36Z</time>
      </trkpt>
      <trkpt lat="46.83318" lon="-1.85127">
        <ele>14</ele>
        <time>2018-03-08T22:31:36Z</time>
      </trkpt>
      <trkpt lat="46.83325" lon="-1.85126">
        <ele>14</ele>
        <time>2018-03-08T22:32:36Z</time>
      </trkpt>
      <trkpt lat="46.83334" lon="-1.85121">
        <ele>14</ele>
        <time>2018-03-08T22:33:36Z</time>
      </trkpt>
      <trkpt lat="46.83343" lon="-1.85114">
        <ele>14</ele>
        <time>2018-03-08T22:34:36Z</time>
      </trkpt>
      <trkpt lat="46.83353" lon="-1.85104">
        <ele>14</ele>
        <time>2018-03-08T22:35:36Z</time>
      </trkpt>
      <trkpt lat="46.83365" lon="-1.85092">
        <ele>14</ele>
        <time>2018-03-08T22:36:36Z</time>
      </trkpt>
      <trkpt lat="46.8338" lon="-1.85076">
        <ele>15</ele>
        <time>2018-03-08T22:37:36Z</time>
      </trkpt>
      <trkpt lat="46.83394" lon="-1.85063">
        <ele>15</ele>
        <time>2018-03-08T22:38:36Z</time>
      </trkpt>
      <trkpt lat="46.83406" lon="-1.85053">
        <ele>15</ele>
        <time>2018-03-08T22:39:36Z</time>
      </trkpt>
      <trkpt lat="46.83413" lon="-1.85047">
        <ele>15</ele>
        <time>2018-03-08T22:40:36Z</time>
      </trkpt>
      <trkpt lat="46.83419" lon="-1.85044">
        <ele>15</ele>
        <time>2018-03-08T22:41:36Z</time>
      </trkpt>
      <trkpt lat="46.83427" lon="-1.8504">
        <ele>15</ele>
        <time>2018-03-08T22:42:36Z</time>
      </trkpt>
      <trkpt lat="46.83438" lon="-1.85035">
        <ele>15</ele>
        <time>2018-03-08T22:43:36Z</time>
      </trkpt>
      <trkpt lat="46.83445" lon="-1.85032">
        <ele>14</ele>
        <time>2018-03-08T22:44:36Z</time>
      </trkpt>
      <trkpt lat="46.83453" lon="-1.8503">
        <ele>14</ele>
        <time>2018-03-08T22:45:36Z</time>
      </trkpt>
      <trkpt lat="46.83465" lon="-1.85027">
        <ele>14</ele>
        <time>2018-03-08T22:46:36Z</time>
      </trkpt>
      <trkpt lat="46.8348" lon="-1.85024">
        <ele>14</ele>
        <time>2018-03-08T22:47:36Z</time>
      </trkpt>
      <trkpt lat="46.83493" lon="-1.85023">
        <ele>13</ele>
        <time>2018-03-08T22:48:36Z</time>
      </trkpt>
      <trkpt lat="46.83506" lon="-1.85019">
        <ele>13</ele>
        <time>2018-03-08T22:49:36Z</time>
      </trkpt>
      <trkpt lat="46.83522" lon="-1.85016">
        <ele>14</ele>
        <time>2018-03-08T22:50:36Z</time>
      </trkpt>
      <trkpt lat="46.83523" lon="-1.85015">
        <ele>14</ele>
        <time>2018-03-08T22:51:36Z</time>
      </trkpt>
      <trkpt lat="46.83534" lon="-1.85011">
        <ele>14</ele>
        <time>2018-03-08T22:52:36Z</time>
      </trkpt>
      <trkpt lat="46.83553" lon="-1.84998">
        <ele>14</ele>
        <time>2018-03-08T22:53:36Z</time>
      </trkpt>
      <trkpt lat="46.83579" lon="-1.84977">
        <ele>16</ele>
        <time>2018-03-08T22:54:36Z</time>
      </trkpt>
      <trkpt lat="46.83604" lon="-1.84957">
        <ele>17</ele>
        <time>2018-03-08T22:55:36Z</time>
      </trkpt>
      <trkpt lat="46.83624" lon="-1.8494">
        <ele>18</ele>
        <time>2018-03-08T22:56:36Z</time>
      </trkpt>
      <trkpt lat="46.83637" lon="-1.8493">
        <ele>18</ele>
        <time>2018-03-08T22:57:36Z</time>
      </trkpt>
      <trkpt lat="46.83681" lon="-1.84895">
        <ele>20</ele>
        <time>2018-03-08T22:58:36Z</time>
      </trkpt>
      <trkpt lat="46.83713" lon="-1.84869">
        <ele>20</ele>
        <time>2018-03-08T22:59:36Z</time>
      </trkpt>
      <trkpt lat="46.83716" lon="-1.84867">
        <ele>20</ele>
        <time>2018-03-08T23:00:36Z</time>
      </trkpt>
      <trkpt lat="46.83731" lon="-1.84855">
        <ele>20</ele>
        <time>2018-03-08T23:01:36Z</time>
      </trkpt>
      <trkpt lat="46.83746" lon="-1.84843">
        <ele>19</ele>
        <time>2018-03-08T23:02:36Z</time>
      </trkpt>
      <trkpt lat="46.83766" lon="-1.84827">
        <ele>20</ele>
        <time>2018-03-08T23:03:36Z</time>
      </trkpt>
      <trkpt lat="46.83779" lon="-1.84816">
        <ele>21</ele>
        <time>2018-03-08T23:04:36Z</time>
      </trkpt>
      <trkpt lat="46.8378" lon="-1.84815">
        <ele>21</ele>
        <time>2018-03-08T23:05:36Z</time>
      </trkpt>
      <trkpt lat="46.83789" lon="-1.84808">
        <ele>22</ele>
        <time>2018-03-08T23:06:36Z</time>
      </trkpt>
      <trkpt lat="46.83802" lon="-1.84796">
        <ele>23</ele>
        <time>2018-03-08T23:07:36Z</time>
      </trkpt>
      <trkpt lat="46.83811" lon="-1.84788">
        <ele>23</ele>
        <time>2018-03-08T23:08:36Z</time>
      </trkpt>
      <trkpt lat="46.83823" lon="-1.84778">
        <ele>25</ele>
        <time>2018-03-08T23:09:36Z</time>
      </trkpt>
      <trkpt lat="46.83824" lon="-1.84777">
        <ele>25</ele>
        <time>2018-03-08T23:10:36Z</time>
      </trkpt>
      <trkpt lat="46.83836" lon="-1.84761">
        <ele>26</ele>
        <time>2018-03-08T23:11:36Z</time>
      </trkpt>
      <trkpt lat="46.83856" lon="-1.8473">
        <ele>28</ele>
        <time>2018-03-08T23:12:36Z</time>
      </trkpt>
      <trkpt lat="46.83884" lon="-1.84685">
        <ele>31</ele>
        <time>2018-03-08T23:13:36Z</time>
      </trkpt>
      <trkpt lat="46.8391" lon="-1.84642">
        <ele>32</ele>
        <time>2018-03-08T23:14:36Z</time>
      </trkpt>
      <trkpt lat="46.83944" lon="-1.84588">
        <ele>33</ele>
        <time>2018-03-08T23:15:36Z</time>
      </trkpt>
      <trkpt lat="46.83965" lon="-1.84553">
        <ele>32</ele>
        <time>2018-03-08T23:16:36Z</time>
      </trkpt>
      <trkpt lat="46.83987" lon="-1.84521">
        <ele>31</ele>
        <time>2018-03-08T23:17:36Z</time>
      </trkpt>
      <trkpt lat="46.84022" lon="-1.84464">
        <ele>30</ele>
        <time>2018-03-08T23:18:36Z</time>
      </trkpt>
      <trkpt lat="46.84042" lon="-1.84429">
        <ele>31</ele>
        <time>2018-03-08T23:19:36Z</time>
      </trkpt>
      <trkpt lat="46.84066" lon="-1.84391">
        <ele>29</ele>
        <time>2018-03-08T23:20:36Z</time>
      </trkpt>
      <trkpt lat="46.84085" lon="-1.84369">
        <ele>27</ele>
        <time>2018-03-08T23:21:36Z</time>
      </trkpt>
      <trkpt lat="46.84095" lon="-1.8436">
        <ele>26</ele>
        <time>2018-03-08T23:22:36Z</time>
      </trkpt>
      <trkpt lat="46.8411" lon="-1.84348">
        <ele>25</ele>
        <time>2018-03-08T23:23:36Z</time>
      </trkpt>
      <trkpt lat="46.84121" lon="-1.84336">
        <ele>25</ele>
        <time>2018-03-08T23:24:36Z</time>
      </trkpt>
      <trkpt lat="46.84134" lon="-1.8432">
        <ele>24</ele>
        <time>2018-03-08T23:25:36Z</time>
      </trkpt>
      <trkpt lat="46.84146" lon="-1.84303">
        <ele>23</ele>
        <time>2018-03-08T23:26:36Z</time>
      </trkpt>
      <trkpt lat="46.84152" lon="-1.84293">
        <ele>23</ele>
        <time>2018-03-08T23:27:36Z</time>
      </trkpt>
      <trkpt lat="46.8416" lon="-1.84283">
        <ele>23</ele>
        <time>2018-03-08T23:28:36Z</time>
      </trkpt>
      <trkpt lat="46.84165" lon="-1.84275">
        <ele>23</ele>
        <time>2018-03-08T23:29:36Z</time>
      </trkpt>
      <trkpt lat="46.84189" lon="-1.84243">
        <ele>22</ele>
        <time>2018-03-08T23:30:36Z</time>
      </trkpt>
      <trkpt lat="46.84201" lon="-1.84228">
        <ele>21</ele>
        <time>2018-03-08T23:31:36Z</time>
      </trkpt>
      <trkpt lat="46.84214" lon="-1.84213">
        <ele>21</ele>
        <time>2018-03-08T23:32:36Z</time>
      </trkpt>
      <trkpt lat="46.84222" lon="-1.84205">
        <ele>21</ele>
        <time>2018-03-08T23:33:36Z</time>
      </trkpt>
      <trkpt lat="46.8423" lon="-1.84202">
        <ele>21</ele>
        <time>2018-03-08T23:34:36Z</time>
      </trkpt>
      <trkpt lat="46.84232" lon="-1.84201">
        <ele>21</ele>
        <time>2018-03-08T23:35:36Z</time>
      </trkpt>
      <trkpt lat="46.84237" lon="-1.84201">
        <ele>21</ele>
        <time>2018-03-08T23:36:36Z</time>
      </trkpt>
      <trkpt lat="46.84244" lon="-1.84202">
        <ele>21</ele>
        <time>2018-03-08T23:37:36Z</time>
      </trkpt>
      <trkpt lat="46.84255" lon="-1.84205">
        <ele>21</ele>
        <time>2018-03-08T23:38:36Z</time>
      </trkpt>
      <trkpt lat="46.84269" lon="-1.84213">
        <ele>21</ele>
        <time>2018-03-08T23:39:36Z</time>
      </trkpt>
      <trkpt lat="46.84282" lon="-1.84218">
        <ele>21</ele>
        <time>2018-03-08T23:40:36Z</time>
      </trkpt>
      <trkpt lat="46.84299" lon="-1.84221">
        <ele>21</ele>
        <time>2018-03-08T23:41:36Z</time>
      </trkpt>
      <trkpt lat="46.84326" lon="-1.84221">
        <ele>21</ele>
        <time>2018-03-08T23:42:36Z</time>
      </trkpt>
      <trkpt lat="46.84354" lon="-1.84221">
        <ele>21</ele>
        <time>2018-03-08T23:43:36Z</time>
      </trkpt>
      <trkpt lat="46.84367" lon="-1.84221">
        <ele>21</ele>
        <time>2018-03-08T23:44:36Z</time>
      </trkpt>
      <trkpt lat="46.84369" lon="-1.84221">
        <ele>21</ele>
        <time>2018-03-08T23:45:36Z</time>
      </trkpt>
      <trkpt lat="46.84376" lon="-1.84221">
        <ele>21</ele>
        <time>2018-03-08T23:46:36Z</time>
      </trkpt>
      <trkpt lat="46.84384" lon="-1.8422">
        <ele>21</ele>
        <time>2018-03-08T23:47:36Z</time>
      </trkpt>
      <trkpt lat="46.84396" lon="-1.84219">
        <ele>22</ele>
        <time>2018-03-08T23:48:36Z</time>
      </trkpt>
      <trkpt lat="46.84406" lon="-1.84217">
        <ele>22</ele>
        <time>2018-03-08T23:49:36Z</time>
      </trkpt>
      <trkpt lat="46.84431" lon="-1.84212">
        <ele>23</ele>
        <time>2018-03-08T23:50:36Z</time>
      </trkpt>
      <trkpt lat="46.84458" lon="-1.84206">
        <ele>24</ele>
        <time>2018-03-08T23:51:36Z</time>
      </trkpt>
      <trkpt lat="46.84483" lon="-1.84201">
        <ele>26</ele>
        <time>2018-03-08T23:52:36Z</time>
      </trkpt>
      <trkpt lat="46.84505" lon="-1.84197">
        <ele>27</ele>
        <time>2018-03-08T23:53:36Z</time>
      </trkpt>
      <trkpt lat="46.84541" lon="-1.84189">
        <ele>28</ele>
        <time>2018-03-08T23:54:36Z</time>
      </trkpt>
      <trkpt lat="46.8456" lon="-1.84186">
        <ele>29</ele>
        <time>2018-03-08T23:55:36Z</time>
      </trkpt>
      <trkpt lat="46.84575" lon="-1.84184">
        <ele>29</ele>
        <time>2018-03-08T23:56:36Z</time>
      </trkpt>
      <trkpt lat="46.84584" lon="-1.84182">
        <ele>29</ele>
        <time>2018-03-08T23:57:36Z</time>
      </trkpt>
      <trkpt lat="46.84594" lon="-1.84178">
        <ele>29</ele>
        <time>2018-03-08T23:58:36Z</time>
      </trkpt>
      <trkpt lat="46.84605" lon="-1.84173">
        <ele>29</ele>
        <time>2018-03-08T23:59:36Z</time>
      </trkpt>
      <trkpt lat="46.84616" lon="-1.84165">
        <ele>29</ele>
        <time>2018-03-09T00:00:36Z</time>
      </trkpt>
      <trkpt lat="46.84627" lon="-1.84156">
        <ele>29</ele>
        <time>2018-03-09T00:01:36Z</time>
      </trkpt>
      <trkpt lat="46.84637" lon="-1.84147">
        <ele>29</ele>
        <time>2018-03-09T00:02:36Z</time>
      </trkpt>
      <trkpt lat="46.84648" lon="-1.84137">
        <ele>29</ele>
        <time>2018-03-09T00:03:36Z</time>
      </trkpt>
      <trkpt lat="46.84659" lon="-1.84124">
        <ele>29</ele>
        <time>2018-03-09T00:04:36Z</time>
      </trkpt>
      <trkpt lat="46.8467" lon="-1.84107">
        <ele>29</ele>
        <time>2018-03-09T00:05:36Z</time>
      </trkpt>
      <trkpt lat="46.84679" lon="-1.84092">
        <ele>29</ele>
        <time>2018-03-09T00:06:36Z</time>
      </trkpt>
      <trkpt lat="46.84688" lon="-1.84075">
        <ele>29</ele>
        <time>2018-03-09T00:07:36Z</time>
      </trkpt>
      <trkpt lat="46.84696" lon="-1.84058">
        <ele>29</ele>
        <time>2018-03-09T00:08:36Z</time>
      </trkpt>
      <trkpt lat="46.84708" lon="-1.84031">
        <ele>29</ele>
        <time>2018-03-09T00:09:36Z</time>
      </trkpt>
      <trkpt lat="46.84719" lon="-1.84006">
        <ele>29</ele>
        <time>2018-03-09T00:10:36Z</time>
      </trkpt>
      <trkpt lat="46.84731" lon="-1.83983">
        <ele>29</ele>
        <time>2018-03-09T00:11:36Z</time>
      </trkpt>
      <trkpt lat="46.84739" lon="-1.83966">
        <ele>30</ele>
        <time>2018-03-09T00:12:36Z</time>
      </trkpt>
      <trkpt lat="46.84739" lon="-1.83966">
        <ele>30</ele>
        <time>2018-03-09T00:13:36Z</time>
      </trkpt>
      <trkpt lat="46.84743" lon="-1.83946">
        <ele>30</ele>
        <time>2018-03-09T00:14:36Z</time>
      </trkpt>
      <trkpt lat="46.84747" lon="-1.83906">
        <ele>31</ele>
        <time>2018-03-09T00:15:36Z</time>
      </trkpt>
      <trkpt lat="46.84752" lon="-1.8385">
        <ele>32</ele>
        <time>2018-03-09T00:16:36Z</time>
      </trkpt>
      <trkpt lat="46.84757" lon="-1.83789">
        <ele>32</ele>
        <time>2018-03-09T00:17:36Z</time>
      </trkpt>
      <trkpt lat="46.84763" lon="-1.83729">
        <ele>32</ele>
        <time>2018-03-09T00:18:36Z</time>
      </trkpt>
      <trkpt lat="46.84766" lon="-1.83698">
        <ele>33</ele>
        <time>2018-03-09T00:19:36Z</time>
      </trkpt>
      <trkpt lat="46.84769" lon="-1.83663">
        <ele>33</ele>
        <time>2018-03-09T00:20:36Z</time>
      </trkpt>
      <trkpt lat="46.84771" lon="-1.83646">
        <ele>33</ele>
        <time>2018-03-09T00:21:36Z</time>
      </trkpt>
      <trkpt lat="46.84773" lon="-1.83623">
        <ele>33</ele>
        <time>2018-03-09T00:22:36Z</time>
      </trkpt>
      <trkpt lat="46.84774" lon="-1.83604">
        <ele>33</ele>
        <time>2018-03-09T00:23:36Z</time>
      </trkpt>
      <trkpt lat="46.84775" lon="-1.83589">
        <ele>33</ele>
        <time>2018-03-09T00:24:36Z</time>
      </trkpt>
      <trkpt lat="46.84775" lon="-1.83581">
        <ele>33</ele>
        <time>2018-03-09T00:25:36Z</time>
      </trkpt>
      <trkpt lat="46.84774" lon="-1.83573">
        <ele>34</ele>
        <time>2018-03-09T00:26:36Z</time>
      </trkpt>
      <trkpt lat="46.84772" lon="-1.83558">
        <ele>34</ele>
        <time>2018-03-09T00:27:36Z</time>
      </trkpt>
      <trkpt lat="46.8477" lon="-1.83548">
        <ele>34</ele>
        <time>2018-03-09T00:28:36Z</time>
      </trkpt>
      <trkpt lat="46.84765" lon="-1.83537">
        <ele>34</ele>
        <time>2018-03-09T00:29:36Z</time>
      </trkpt>
      <trkpt lat="46.84755" lon="-1.83519">
        <ele>35</ele>
        <time>2018-03-09T00:30:36Z</time>
      </trkpt>
      <trkpt lat="46.84746" lon="-1.83505">
        <ele>35</ele>
        <time>2018-03-09T00:31:36Z</time>
      </trkpt>
      <trkpt lat="46.84734" lon="-1.83491">
        <ele>35</ele>
        <time>2018-03-09T00:32:36Z</time>
      </trkpt>
      <trkpt lat="46.84724" lon="-1.83479">
        <ele>36</ele>
        <time>2018-03-09T00:33:36Z</time>
      </trkpt>
      <trkpt lat="46.84714" lon="-1.83468">
        <ele>36</ele>
        <time>2018-03-09T00:34:36Z</time>
      </trkpt>
      <trkpt lat="46.8471" lon="-1.83465">
        <ele>36</ele>
        <time>2018-03-09T00:35:36Z</time>
      </trkpt>
      <trkpt lat="46.84703" lon="-1.83461">
        <ele>36</ele>
        <time>2018-03-09T00:36:36Z</time>
      </trkpt>
      <trkpt lat="46.84695" lon="-1.83459">
        <ele>36</ele>
        <time>2018-03-09T00:37:36Z</time>
      </trkpt>
      <trkpt lat="46.84685" lon="-1.83458">
        <ele>36</ele>
        <time>2018-03-09T00:38:36Z</time>
      </trkpt>
      <trkpt lat="46.84671" lon="-1.83458">
        <ele>36</ele>
        <time>2018-03-09T00:39:36Z</time>
      </trkpt>
      <trkpt lat="46.8466" lon="-1.8346">
        <ele>36</ele>
        <time>2018-03-09T00:40:36Z</time>
      </trkpt>
      <trkpt lat="46.84649" lon="-1.83461">
        <ele>36</ele>
        <time>2018-03-09T00:41:36Z</time>
      </trkpt>
      <trkpt lat="46.84641" lon="-1.83459">
        <ele>36</ele>
        <time>2018-03-09T00:42:36Z</time>
      </trkpt>
      <trkpt lat="46.84635" lon="-1.83455">
        <ele>36</ele>
        <time>2018-03-09T00:43:36Z</time>
      </trkpt>
      <trkpt lat="46.84629" lon="-1.8345">
        <ele>36</ele>
        <time>2018-03-09T00:44:36Z</time>
      </trkpt>
      <trkpt lat="46.84625" lon="-1.8344">
        <ele>35</ele>
        <time>2018-03-09T00:45:36Z</time>
      </trkpt>
      <trkpt lat="46.8462" lon="-1.83426">
        <ele>35</ele>
        <time>2018-03-09T00:46:36Z</time>
      </trkpt>
      <trkpt lat="46.84617" lon="-1.83403">
        <ele>35</ele>
        <time>2018-03-09T00:47:36Z</time>
      </trkpt>
      <trkpt lat="46.84613" lon="-1.8338">
        <ele>35</ele>
        <time>2018-03-09T00:48:36Z</time>
      </trkpt>
      <trkpt lat="46.84609" lon="-1.83356">
        <ele>35</ele>
        <time>2018-03-09T00:49:36Z</time>
      </trkpt>
      <trkpt lat="46.84602" lon="-1.83313">
        <ele>35</ele>
        <time>2018-03-09T00:50:36Z</time>
      </trkpt>
      <trkpt lat="46.84593" lon="-1.83255">
        <ele>35</ele>
        <time>2018-03-09T00:51:36Z</time>
      </trkpt>
      <trkpt lat="46.84584" lon="-1.83199">
        <ele>36</ele>
        <time>2018-03-09T00:52:36Z</time>
      </trkpt>
      <trkpt lat="46.84582" lon="-1.83181">
        <ele>37</ele>
        <time>2018-03-09T00:53:36Z</time>
      </trkpt>
      <trkpt lat="46.8458" lon="-1.83164">
        <ele>37</ele>
        <time>2018-03-09T00:54:36Z</time>
      </trkpt>
      <trkpt lat="46.8458" lon="-1.83147">
        <ele>37</ele>
        <time>2018-03-09T00:55:36Z</time>
      </trkpt>
      <trkpt lat="46.84579" lon="-1.83135">
        <ele>37</ele>
        <time>2018-03-09T00:56:36Z</time>
      </trkpt>
      <trkpt lat="46.84581" lon="-1.83119">
        <ele>38</ele>
        <time>2018-03-09T00:57:36Z</time>
      </trkpt>
      <trkpt lat="46.84583" lon="-1.83103">
        <ele>38</ele>
        <time>2018-03-09T00:58:36Z</time>
      </trkpt>
      <trkpt lat="46.84586" lon="-1.83093">
        <ele>38</ele>
        <time>2018-03-09T00:59:36Z</time>
      </trkpt>
      <trkpt lat="46.84589" lon="-1.83082">
        <ele>38</ele>
        <time>2018-03-09T01:00:36Z</time>
      </trkpt>
      <trkpt lat="46.84598" lon="-1.83064">
        <ele>38</ele>
        <time>2018-03-09T01:01:36Z</time>
      </trkpt>
      <trkpt lat="46.84614" lon="-1.8303">
        <ele>39</ele>
        <time>2018-03-09T01:02:36Z</time>
      </trkpt>
      <trkpt lat="46.84626" lon="-1.83003">
        <ele>39</ele>
        <time>2018-03-09T01:03:36Z</time>
      </trkpt>
      <trkpt lat="46.84654" lon="-1.82943">
        <ele>41</ele>
        <time>2018-03-09T01:04:36Z</time>
      </trkpt>
      <trkpt lat="46.84692" lon="-1.82864">
        <ele>43</ele>
        <time>2018-03-09T01:05:36Z</time>
      </trkpt>
      <trkpt lat="46.84694" lon="-1.8286">
        <ele>43</ele>
        <time>2018-03-09T01:06:36Z</time>
      </trkpt>
      <trkpt lat="46.84737" lon="-1.82767">
        <ele>44</ele>
        <time>2018-03-09T01:07:36Z</time>
      </trkpt>
      <trkpt lat="46.84778" lon="-1.8268">
        <ele>45</ele>
        <time>2018-03-09T01:08:36Z</time>
      </trkpt>
      <trkpt lat="46.84791" lon="-1.82652">
        <ele>45</ele>
        <time>2018-03-09T01:09:36Z</time>
      </trkpt>
      <trkpt lat="46.84796" lon="-1.8264">
        <ele>45</ele>
        <time>2018-03-09T01:10:36Z</time>
      </trkpt>
      <trkpt lat="46.84803" lon="-1.82624">
        <ele>45</ele>
        <time>2018-03-09T01:11:36Z</time>
      </trkpt>
      <trkpt lat="46.84799" lon="-1.82605">
        <ele>45</ele>
        <time>2018-03-09T01:12:36Z</time>
      </trkpt>
      <trkpt lat="46.84794" lon="-1.82583">
        <ele>46</ele>
        <time>2018-03-09T01:13:36Z</time>
      </trkpt>
      <trkpt lat="46.84786" lon="-1.82546">
        <ele>46</ele>
        <time>2018-03-09T01:14:36Z</time>
      </trkpt>
      <trkpt lat="46.84786" lon="-1.82544">
        <ele>46</ele>
        <time>2018-03-09T01:15:36Z</time>
      </trkpt>
      <trkpt lat="46.84777" lon="-1.825">
        <ele>46</ele>
        <time>2018-03-09T01:16:36Z</time>
      </trkpt>
      <trkpt lat="46.84767" lon="-1.82452">
        <ele>46</ele>
        <time>2018-03-09T01:17:36Z</time>
      </trkpt>
      <trkpt lat="46.84752" lon="-1.82383">
        <ele>46</ele>
        <time>2018-03-09T01:18:36Z</time>
      </trkpt>
      <trkpt lat="46.84735" lon="-1.82291">
        <ele>47</ele>
        <time>2018-03-09T01:19:36Z</time>
      </trkpt>
      <trkpt lat="46.84715" lon="-1.82216">
        <ele>47</ele>
        <time>2018-03-09T01:20:36Z</time>
      </trkpt>
      <trkpt lat="46.84698" lon="-1.82158">
        <ele>47</ele>
        <time>2018-03-09T01:21:36Z</time>
      </trkpt>
      <trkpt lat="46.84675" lon="-1.82073">
        <ele>49</ele>
        <time>2018-03-09T01:22:36Z</time>
      </trkpt>
      <trkpt lat="46.84655" lon="-1.82014">
        <ele>48</ele>
        <time>2018-03-09T01:23:36Z</time>
      </trkpt>
      <trkpt lat="46.84642" lon="-1.81978">
        <ele>48</ele>
        <time>2018-03-09T01:24:36Z</time>
      </trkpt>
      <trkpt lat="46.84615" lon="-1.81908">
        <ele>49</ele>
        <time>2018-03-09T01:25:36Z</time>
      </trkpt>
      <trkpt lat="46.84592" lon="-1.8185">
        <ele>50</ele>
        <time>2018-03-09T01:26:36Z</time>
      </trkpt>
      <trkpt lat="46.84576" lon="-1.81807">
        <ele>50</ele>
        <time>2018-03-09T01:27:36Z</time>
      </trkpt>
      <trkpt lat="46.84568" lon="-1.81786">
        <ele>50</ele>
        <time>2018-03-09T01:28:36Z</time>
      </trkpt>
      <trkpt lat="46.84556" lon="-1.81754">
        <ele>50</ele>
        <time>2018-03-09T01:29:36Z</time>
      </trkpt>
      <trkpt lat="46.84544" lon="-1.81722">
        <ele>50</ele>
        <time>2018-03-09T01:30:36Z</time>
      </trkpt>
      <trkpt lat="46.84535" lon="-1.81698">
        <ele>49</ele>
        <time>2018-03-09T01:31:36Z</time>
      </trkpt>
      <trkpt lat="46.8453" lon="-1.81681">
        <ele>49</ele>
        <time>2018-03-09T01:32:36Z</time>
      </trkpt>
      <trkpt lat="46.84525" lon="-1.81657">
        <ele>49</ele>
        <time>2018-03-09T01:33:36Z</time>
      </trkpt>
      <trkpt lat="46.84522" lon="-1.81631">
        <ele>49</ele>
        <time>2018-03-09T01:34:36Z</time>
      </trkpt>
      <trkpt lat="46.84519" lon="-1.81601">
        <ele>49</ele>
        <time>2018-03-09T01:35:36Z</time>
      </trkpt>
      <trkpt lat="46.84512" lon="-1.81518">
        <ele>49</ele>
        <time>2018-03-09T01:36:36Z</time>
      </trkpt>
      <trkpt lat="46.84507" lon="-1.81454">
        <ele>50</ele>
        <time>2018-03-09T01:37:36Z</time>
      </trkpt>
      <trkpt lat="46.84504" lon="-1.81418">
        <ele>50</ele>
        <time>2018-03-09T01:38:36Z</time>
      </trkpt>
      <trkpt lat="46.84499" lon="-1.81347">
        <ele>50</ele>
        <time>2018-03-09T01:39:36Z</time>
      </trkpt>
      <trkpt lat="46.84493" lon="-1.81251">
        <ele>51</ele>
        <time>2018-03-09T01:40:36Z</time>
      </trkpt>
      <trkpt lat="46.8449" lon="-1.81222">
        <ele>51</ele>
        <time>2018-03-09T01:41:36Z</time>
      </trkpt>
      <trkpt lat="46.84489" lon="-1.81204">
        <ele>51</ele>
        <time>2018-03-09T01:42:36Z</time>
      </trkpt>
      <trkpt lat="46.84488" lon="-1.81185">
        <ele>51</ele>
        <time>2018-03-09T01:43:36Z</time>
      </trkpt>
      <trkpt lat="46.84488" lon="-1.81149">
        <ele>51</ele>
        <time>2018-03-09T01:44:36Z</time>
      </trkpt>
      <trkpt lat="46.84491" lon="-1.81102">
        <ele>52</ele>
        <time>2018-03-09T01:45:36Z</time>
      </trkpt>
      <trkpt lat="46.84497" lon="-1.81027">
        <ele>51</ele>
        <time>2018-03-09T01:46:36Z</time>
      </trkpt>
      <trkpt lat="46.84502" lon="-1.80965">
        <ele>51</ele>
        <time>2018-03-09T01:47:36Z</time>
      </trkpt>
      <trkpt lat="46.84509" lon="-1.80872">
        <ele>51</ele>
        <time>2018-03-09T01:48:36Z</time>
      </trkpt>
      <trkpt lat="46.84516" lon="-1.80792">
        <ele>52</ele>
        <time>2018-03-09T01:49:36Z</time>
      </trkpt>
      <trkpt lat="46.84521" lon="-1.80727">
        <ele>52</ele>
        <time>2018-03-09T01:50:36Z</time>
      </trkpt>
      <trkpt lat="46.84523" lon="-1.80637">
        <ele>54</ele>
        <time>2018-03-09T01:51:36Z</time>
      </trkpt>
      <trkpt lat="46.84523" lon="-1.80572">
        <ele>55</ele>
        <time>2018-03-09T01:52:36Z</time>
      </trkpt>
      <trkpt lat="46.84523" lon="-1.80513">
        <ele>55</ele>
        <time>2018-03-09T01:53:36Z</time>
      </trkpt>
      <trkpt lat="46.84524" lon="-1.80467">
        <ele>55</ele>
        <time>2018-03-09T01:54:36Z</time>
      </trkpt>
      <trkpt lat="46.84525" lon="-1.80434">
        <ele>55</ele>
        <time>2018-03-09T01:55:36Z</time>
      </trkpt>
      <trkpt lat="46.84528" lon="-1.80387">
        <ele>54</ele>
        <time>2018-03-09T01:56:36Z</time>
      </trkpt>
      <trkpt lat="46.84536" lon="-1.8032">
        <ele>55</ele>
        <time>2018-03-09T01:57:36Z</time>
      </trkpt>
      <trkpt lat="46.84548" lon="-1.80224">
        <ele>55</ele>
        <time>2018-03-09T01:58:36Z</time>
      </trkpt>
      <trkpt lat="46.84555" lon="-1.80165">
        <ele>55</ele>
        <time>2018-03-09T01:59:36Z</time>
      </trkpt>
      <trkpt lat="46.84563" lon="-1.80127">
        <ele>54</ele>
        <time>2018-03-09T02:00:36Z</time>
      </trkpt>
      <trkpt lat="46.84577" lon="-1.80083">
        <ele>54</ele>
        <time>2018-03-09T02:01:36Z</time>
      </trkpt>
      <trkpt lat="46.84592" lon="-1.80041">
        <ele>55</ele>
        <time>2018-03-09T02:02:36Z</time>
      </trkpt>
      <trkpt lat="46.84615" lon="-1.79976">
        <ele>55</ele>
        <time>2018-03-09T02:03:36Z</time>
      </trkpt>
      <trkpt lat="46.84633" lon="-1.7993">
        <ele>55</ele>
        <time>2018-03-09T02:04:36Z</time>
      </trkpt>
      <trkpt lat="46.84645" lon="-1.79906">
        <ele>56</ele>
        <time>2018-03-09T02:05:36Z</time>
      </trkpt>
      <trkpt lat="46.84666" lon="-1.79874">
        <ele>56</ele>
        <time>2018-03-09T02:06:36Z</time>
      </trkpt>
      <trkpt lat="46.84698" lon="-1.79831">
        <ele>56</ele>
        <time>2018-03-09T02:07:36Z</time>
      </trkpt>
      <trkpt lat="46.84741" lon="-1.79774">
        <ele>54</ele>
        <time>2018-03-09T02:08:36Z</time>
      </trkpt>
      <trkpt lat="46.84801" lon="-1.79694">
        <ele>54</ele>
        <time>2018-03-09T02:09:36Z</time>
      </trkpt>
      <trkpt lat="46.84837" lon="-1.79647">
        <ele>54</ele>
        <time>2018-03-09T02:10:36Z</time>
      </trkpt>
      <trkpt lat="46.84837" lon="-1.79647">
        <ele>54</ele>
        <time>2018-03-09T02:11:36Z</time>
      </trkpt>
      <trkpt lat="46.84888" lon="-1.7972">
        <ele>55</ele>
        <time>2018-03-09T02:12:36Z</time>
      </trkpt>
      <trkpt lat="46.84921" lon="-1.79765">
        <ele>55</ele>
        <time>2018-03-09T02:13:36Z</time>
      </trkpt>
      <trkpt lat="46.84981" lon="-1.79841">
        <ele>55</ele>
        <time>2018-03-09T02:14:36Z</time>
      </trkpt>
      <trkpt lat="46.85045" lon="-1.7992">
        <ele>55</ele>
        <time>2018-03-09T02:15:36Z</time>
      </trkpt>
      <trkpt lat="46.85084" lon="-1.7997">
        <ele>56</ele>
        <time>2018-03-09T02:16:36Z</time>
      </trkpt>
      <trkpt lat="46.85143" lon="-1.80045">
        <ele>55</ele>
        <time>2018-03-09T02:17:36Z</time>
      </trkpt>
      <trkpt lat="46.85184" lon="-1.80095">
        <ele>54</ele>
        <time>2018-03-09T02:18:36Z</time>
      </trkpt>
      <trkpt lat="46.8522" lon="-1.80139">
        <ele>54</ele>
        <time>2018-03-09T02:19:36Z</time>
      </trkpt>
      <trkpt lat="46.85268" lon="-1.80189">
        <ele>53</ele>
        <time>2018-03-09T02:20:36Z</time>
      </trkpt>
      <trkpt lat="46.85316" lon="-1.80236">
        <ele>52</ele>
        <time>2018-03-09T02:21:36Z</time>
      </trkpt>
      <trkpt lat="46.85354" lon="-1.80278">
        <ele>52</ele>
        <time>2018-03-09T02:22:36Z</time>
      </trkpt>
      <trkpt lat="46.85384" lon="-1.80312">
        <ele>51</ele>
        <time>2018-03-09T02:23:36Z</time>
      </trkpt>
      <trkpt lat="46.85413" lon="-1.80348">
        <ele>51</ele>
        <time>2018-03-09T02:24:36Z</time>
      </trkpt>
      <trkpt lat="46.85457" lon="-1.80402">
        <ele>51</ele>
        <time>2018-03-09T02:25:36Z</time>
      </trkpt>
      <trkpt lat="46.85514" lon="-1.80471">
        <ele>52</ele>
        <time>2018-03-09T02:26:36Z</time>
      </trkpt>
      <trkpt lat="46.85551" lon="-1.80511">
        <ele>51</ele>
        <time>2018-03-09T02:27:36Z</time>
      </trkpt>
      <trkpt lat="46.85584" lon="-1.80547">
        <ele>51</ele>
        <time>2018-03-09T02:28:36Z</time>
      </trkpt>
      <trkpt lat="46.85617" lon="-1.80576">
        <ele>51</ele>
        <time>2018-03-09T02:29:36Z</time>
      </trkpt>
      <trkpt lat="46.85652" lon="-1.80606">
        <ele>52</ele>
        <time>2018-03-09T02:30:36Z</time>
      </trkpt>
      <trkpt lat="46.85658" lon="-1.80611">
        <ele>52</ele>
        <time>2018-03-09T02:31:36Z</time>
      </trkpt>
      <trkpt lat="46.8567" lon="-1.80622">
        <ele>51</ele>
        <time>2018-03-09T02:32:36Z</time>
      </trkpt>
      <trkpt lat="46.85689" lon="-1.80639">
        <ele>51</ele>
        <time>2018-03-09T02:33:36Z</time>
      </trkpt>
      <trkpt lat="46.85706" lon="-1.80652">
        <ele>51</ele>
        <time>2018-03-09T02:34:36Z</time>
      </trkpt>
      <trkpt lat="46.85727" lon="-1.8067">
        <ele>51</ele>
        <time>2018-03-09T02:35:36Z</time>
      </trkpt>
      <trkpt lat="46.85746" lon="-1.80687">
        <ele>51</ele>
        <time>2018-03-09T02:36:36Z</time>
      </trkpt>
      <trkpt lat="46.85791" lon="-1.80725">
        <ele>51</ele>
        <time>2018-03-09T02:37:36Z</time>
      </trkpt>
      <trkpt lat="46.85831" lon="-1.80761">
        <ele>51</ele>
        <time>2018-03-09T02:38:36Z</time>
      </trkpt>
      <trkpt lat="46.85884" lon="-1.80809">
        <ele>50</ele>
        <time>2018-03-09T02:39:36Z</time>
      </trkpt>
      <trkpt lat="46.85921" lon="-1.80843">
        <ele>50</ele>
        <time>2018-03-09T02:40:36Z</time>
      </trkpt>
      <trkpt lat="46.85929" lon="-1.80846">
        <ele>50</ele>
        <time>2018-03-09T02:41:36Z</time>
      </trkpt>
      <trkpt lat="46.85947" lon="-1.80856">
        <ele>49</ele>
        <time>2018-03-09T02:42:36Z</time>
      </trkpt>
      <trkpt lat="46.85959" lon="-1.80876">
        <ele>49</ele>
        <time>2018-03-09T02:43:36Z</time>
      </trkpt>
      <trkpt lat="46.85967" lon="-1.80884">
        <ele>49</ele>
        <time>2018-03-09T02:44:36Z</time>
      </trkpt>
      <trkpt lat="46.85986" lon="-1.80904">
        <ele>48</ele>
        <time>2018-03-09T02:45:36Z</time>
      </trkpt>
      <trkpt lat="46.86032" lon="-1.80954">
        <ele>48</ele>
        <time>2018-03-09T02:46:36Z</time>
      </trkpt>
      <trkpt lat="46.86061" lon="-1.80985">
        <ele>49</ele>
        <time>2018-03-09T02:47:36Z</time>
      </trkpt>
      <trkpt lat="46.86101" lon="-1.81029">
        <ele>49</ele>
        <time>2018-03-09T02:48:36Z</time>
      </trkpt>
      <trkpt lat="46.8612" lon="-1.81049">
        <ele>48</ele>
        <time>2018-03-09T02:49:36Z</time>
      </trkpt>
      <trkpt lat="46.86134" lon="-1.81064">
        <ele>47</ele>
        <time>2018-03-09T02:50:36Z</time>
      </trkpt>
      <trkpt lat="46.86155" lon="-1.81085">
        <ele>46</ele>
        <time>2018-03-09T02:51:36Z</time>
      </trkpt>
      <trkpt lat="46.86167" lon="-1.81098">
        <ele>46</ele>
        <time>2018-03-09T02:52:36Z</time>
      </trkpt>
      <trkpt lat="46.8617" lon="-1.81102">
        <ele>46</ele>
        <time>2018-03-09T02:53:36Z</time>
      </trkpt>
      <trkpt lat="46.86199" lon="-1.81135">
        <ele>45</ele>
        <time>2018-03-09T02:54:36Z</time>
      </trkpt>
      <trkpt lat="46.86239" lon="-1.81177">
        <ele>44</ele>
        <time>2018-03-09T02:55:36Z</time>
      </trkpt>
      <trkpt lat="46.86277" lon="-1.81216">
        <ele>44</ele>
        <time>2018-03-09T02:56:36Z</time>
      </trkpt>
      <trkpt lat="46.86309" lon="-1.81251">
        <ele>44</ele>
        <time>2018-03-09T02:57:36Z</time>
      </trkpt>
      <trkpt lat="46.86343" lon="-1.81283">
        <ele>43</ele>
        <time>2018-03-09T02:58:36Z</time>
      </trkpt>
      <trkpt lat="46.86373" lon="-1.8131">
        <ele>43</ele>
        <time>2018-03-09T02:59:36Z</time>
      </trkpt>
      <trkpt lat="46.86422" lon="-1.81351">
        <ele>43</ele>
        <time>2018-03-09T03:00:36Z</time>
      </trkpt>
      <trkpt lat="46.86464" lon="-1.81387">
        <ele>43</ele>
        <time>2018-03-09T03:01:36Z</time>
      </trkpt>
      <trkpt lat="46.86521" lon="-1.81438">
        <ele>43</ele>
        <time>2018-03-09T03:02:36Z</time>
      </trkpt>
      <trkpt lat="46.86557" lon="-1.8147">
        <ele>43</ele>
        <time>2018-03-09T03:03:36Z</time>
      </trkpt>
      <trkpt lat="46.86565" lon="-1.81478">
        <ele>43</ele>
        <time>2018-03-09T03:04:36Z</time>
      </trkpt>
      <trkpt lat="46.8662" lon="-1.81527">
        <ele>43</ele>
        <time>2018-03-09T03:05:36Z</time>
      </trkpt>
      <trkpt lat="46.86683" lon="-1.81583">
        <ele>41</ele>
        <time>2018-03-09T03:06:36Z</time>
      </trkpt>
      <trkpt lat="46.86688" lon="-1.81588">
        <ele>41</ele>
        <time>2018-03-09T03:07:36Z</time>
      </trkpt>
      <trkpt lat="46.86753" lon="-1.81644">
        <ele>37</ele>
        <time>2018-03-09T03:08:36Z</time>
      </trkpt>
      <trkpt lat="46.86812" lon="-1.81697">
        <ele>37</ele>
        <time>2018-03-09T03:09:36Z</time>
      </trkpt>
      <trkpt lat="46.86851" lon="-1.81732">
        <ele>36</ele>
        <time>2018-03-09T03:10:36Z</time>
      </trkpt>
      <trkpt lat="46.86879" lon="-1.8176">
        <ele>35</ele>
        <time>2018-03-09T03:11:36Z</time>
      </trkpt>
      <trkpt lat="46.86893" lon="-1.81774">
        <ele>35</ele>
        <time>2018-03-09T03:12:36Z</time>
      </trkpt>
      <trkpt lat="46.86905" lon="-1.81792">
        <ele>34</ele>
        <time>2018-03-09T03:13:36Z</time>
      </trkpt>
      <trkpt lat="46.8692" lon="-1.81817">
        <ele>33</ele>
        <time>2018-03-09T03:14:36Z</time>
      </trkpt>
      <trkpt lat="46.86923" lon="-1.81823">
        <ele>32</ele>
        <time>2018-03-09T03:15:36Z</time>
      </trkpt>
      <trkpt lat="46.86936" lon="-1.81843">
        <ele>32</ele>
        <time>2018-03-09T03:16:36Z</time>
      </trkpt>
      <trkpt lat="46.86944" lon="-1.81856">
        <ele>32</ele>
        <time>2018-03-09T03:17:36Z</time>
      </trkpt>
      <trkpt lat="46.86953" lon="-1.81865">
        <ele>32</ele>
        <time>2018-03-09T03:18:36Z</time>
      </trkpt>
      <trkpt lat="46.86962" lon="-1.81872">
        <ele>32</ele>
        <time>2018-03-09T03:19:36Z</time>
      </trkpt>
      <trkpt lat="46.86972" lon="-1.81877">
        <ele>32</ele>
        <time>2018-03-09T03:20:36Z</time>
      </trkpt>
      <trkpt lat="46.86983" lon="-1.8188">
        <ele>33</ele>
        <time>2018-03-09T03:21:36Z</time>
      </trkpt>
      <trkpt lat="46.86991" lon="-1.8188">
        <ele>33</ele>
        <time>2018-03-09T03:22:36Z</time>
      </trkpt>
      <trkpt lat="46.87015" lon="-1.81877">
        <ele>33</ele>
        <time>2018-03-09T03:23:36Z</time>
      </trkpt>
      <trkpt lat="46.87031" lon="-1.81877">
        <ele>34</ele>
        <time>2018-03-09T03:24:36Z</time>
      </trkpt>
      <trkpt lat="46.87046" lon="-1.81879">
        <ele>34</ele>
        <time>2018-03-09T03:25:36Z</time>
      </trkpt>
      <trkpt lat="46.87059" lon="-1.81885">
        <ele>34</ele>
        <time>2018-03-09T03:26:36Z</time>
      </trkpt>
      <trkpt lat="46.87076" lon="-1.81892">
        <ele>34</ele>
        <time>2018-03-09T03:27:36Z</time>
      </trkpt>
      <trkpt lat="46.871" lon="-1.81906">
        <ele>34</ele>
        <time>2018-03-09T03:28:36Z</time>
      </trkpt>
      <trkpt lat="46.87149" lon="-1.81936">
        <ele>32</ele>
        <time>2018-03-09T03:29:36Z</time>
      </trkpt>
      <trkpt lat="46.87171" lon="-1.81952">
        <ele>32</ele>
        <time>2018-03-09T03:30:36Z</time>
      </trkpt>
      <trkpt lat="46.87183" lon="-1.81964">
        <ele>32</ele>
        <time>2018-03-09T03:31:36Z</time>
      </trkpt>
      <trkpt lat="46.87197" lon="-1.81981">
        <ele>31</ele>
        <time>2018-03-09T03:32:36Z</time>
      </trkpt>
      <trkpt lat="46.87207" lon="-1.81995">
        <ele>31</ele>
        <time>2018-03-09T03:33:36Z</time>
      </trkpt>
      <trkpt lat="46.87219" lon="-1.82012">
        <ele>31</ele>
        <time>2018-03-09T03:34:36Z</time>
      </trkpt>
      <trkpt lat="46.87229" lon="-1.82029">
        <ele>31</ele>
        <time>2018-03-09T03:35:36Z</time>
      </trkpt>
      <trkpt lat="46.87247" lon="-1.82067">
        <ele>31</ele>
        <time>2018-03-09T03:36:36Z</time>
      </trkpt>
      <trkpt lat="46.87261" lon="-1.82095">
        <ele>31</ele>
        <time>2018-03-09T03:37:36Z</time>
      </trkpt>
      <trkpt lat="46.8727" lon="-1.82109">
        <ele>32</ele>
        <time>2018-03-09T03:38:36Z</time>
      </trkpt>
      <trkpt lat="46.8728" lon="-1.82124">
        <ele>32</ele>
        <time>2018-03-09T03:39:36Z</time>
      </trkpt>
      <trkpt lat="46.87294" lon="-1.82141">
        <ele>32</ele>
        <time>2018-03-09T03:40:36Z</time>
      </trkpt>
      <trkpt lat="46.87322" lon="-1.82171">
        <ele>31</ele>
        <time>2018-03-09T03:41:36Z</time>
      </trkpt>
      <trkpt lat="46.87382" lon="-1.82235">
        <ele>33</ele>
        <time>2018-03-09T03:42:36Z</time>
      </trkpt>
      <trkpt lat="46.87428" lon="-1.82287">
        <ele>34</ele>
        <time>2018-03-09T03:43:36Z</time>
      </trkpt>
      <trkpt lat="46.87477" lon="-1.82341">
        <ele>36</ele>
        <time>2018-03-09T03:44:36Z</time>
      </trkpt>
      <trkpt lat="46.87508" lon="-1.82375">
        <ele>36</ele>
        <time>2018-03-09T03:45:36Z</time>
      </trkpt>
      <trkpt lat="46.8753" lon="-1.82398">
        <ele>36</ele>
        <time>2018-03-09T03:46:36Z</time>
      </trkpt>
      <trkpt lat="46.87571" lon="-1.82436">
        <ele>36</ele>
        <time>2018-03-09T03:47:36Z</time>
      </trkpt>
      <trkpt lat="46.87624" lon="-1.82484">
        <ele>35</ele>
        <time>2018-03-09T03:48:36Z</time>
      </trkpt>
      <trkpt lat="46.87655" lon="-1.82512">
        <ele>34</ele>
        <time>2018-03-09T03:49:36Z</time>
      </trkpt>
      <trkpt lat="46.87666" lon="-1.82519">
        <ele>34</ele>
        <time>2018-03-09T03:50:36Z</time>
      </trkpt>
      <trkpt lat="46.87675" lon="-1.82523">
        <ele>34</ele>
        <time>2018-03-09T03:51:36Z</time>
      </trkpt>
      <trkpt lat="46.87685" lon="-1.82524">
        <ele>34</ele>
        <time>2018-03-09T03:52:36Z</time>
      </trkpt>
      <trkpt lat="46.87696" lon="-1.82522">
        <ele>33</ele>
        <time>2018-03-09T03:53:36Z</time>
      </trkpt>
      <trkpt lat="46.87797" lon="-1.82487">
        <ele>33</ele>
        <time>2018-03-09T03:54:36Z</time>
      </trkpt>
      <trkpt lat="46.87858" lon="-1.82466">
        <ele>33</ele>
        <time>2018-03-09T03:55:36Z</time>
      </trkpt>
      <trkpt lat="46.87859" lon="-1.82465">
        <ele>33</ele>
        <time>2018-03-09T03:56:36Z</time>
      </trkpt>
      <trkpt lat="46.8792" lon="-1.82445">
        <ele>34</ele>
        <time>2018-03-09T03:57:36Z</time>
      </trkpt>
      <trkpt lat="46.87925" lon="-1.82443">
        <ele>34</ele>
        <time>2018-03-09T03:58:36Z</time>
      </trkpt>
      <trkpt lat="46.87989" lon="-1.82421">
        <ele>34</ele>
        <time>2018-03-09T03:59:36Z</time>
      </trkpt>
      <trkpt lat="46.88039" lon="-1.82404">
        <ele>34</ele>
        <time>2018-03-09T04:00:36Z</time>
      </trkpt>
      <trkpt lat="46.88052" lon="-1.824">
        <ele>34</ele>
        <time>2018-03-09T04:01:36Z</time>
      </trkpt>
      <trkpt lat="46.88064" lon="-1.82397">
        <ele>34</ele>
        <time>2018-03-09T04:02:36Z</time>
      </trkpt>
      <trkpt lat="46.88084" lon="-1.82392">
        <ele>34</ele>
        <time>2018-03-09T04:03:36Z</time>
      </trkpt>
      <trkpt lat="46.8816" lon="-1.82377">
        <ele>34</ele>
        <time>2018-03-09T04:04:36Z</time>
      </trkpt>
      <trkpt lat="46.88194" lon="-1.8237">
        <ele>33</ele>
        <time>2018-03-09T04:05:36Z</time>
      </trkpt>
      <trkpt lat="46.88218" lon="-1.82367">
        <ele>33</ele>
        <time>2018-03-09T04:06:36Z</time>
      </trkpt>
      <trkpt lat="46.88242" lon="-1.82365">
        <ele>33</ele>
        <time>2018-03-09T04:07:36Z</time>
      </trkpt>
      <trkpt lat="46.8828" lon="-1.82362">
        <ele>33</ele>
        <time>2018-03-09T04:08:36Z</time>
      </trkpt>
      <trkpt lat="46.88292" lon="-1.82362">
        <ele>33</ele>
        <time>2018-03-09T04:09:36Z</time>
      </trkpt>
      <trkpt lat="46.88325" lon="-1.8236">
        <ele>33</ele>
        <time>2018-03-09T04:10:36Z</time>
      </trkpt>
      <trkpt lat="46.88357" lon="-1.82358">
        <ele>33</ele>
        <time>2018-03-09T04:11:36Z</time>
      </trkpt>
      <trkpt lat="46.88385" lon="-1.82356">
        <ele>32</ele>
        <time>2018-03-09T04:12:36Z</time>
      </trkpt>
      <trkpt lat="46.88403" lon="-1.82354">
        <ele>32</ele>
        <time>2018-03-09T04:13:36Z</time>
      </trkpt>
      <trkpt lat="46.88417" lon="-1.82352">
        <ele>32</ele>
        <time>2018-03-09T04:14:36Z</time>
      </trkpt>
      <trkpt lat="46.88429" lon="-1.8235">
        <ele>32</ele>
        <time>2018-03-09T04:15:36Z</time>
      </trkpt>
      <trkpt lat="46.88441" lon="-1.82346">
        <ele>31</ele>
        <time>2018-03-09T04:16:36Z</time>
      </trkpt>
      <trkpt lat="46.88453" lon="-1.82342">
        <ele>31</ele>
        <time>2018-03-09T04:17:36Z</time>
      </trkpt>
      <trkpt lat="46.88506" lon="-1.82322">
        <ele>30</ele>
        <time>2018-03-09T04:18:36Z</time>
      </trkpt>
      <trkpt lat="46.88543" lon="-1.82309">
        <ele>29</ele>
        <time>2018-03-09T04:19:36Z</time>
      </trkpt>
      <trkpt lat="46.88545" lon="-1.82309">
        <ele>29</ele>
        <time>2018-03-09T04:20:36Z</time>
      </trkpt>
      <trkpt lat="46.88559" lon="-1.82305">
        <ele>29</ele>
        <time>2018-03-09T04:21:36Z</time>
      </trkpt>
      <trkpt lat="46.88564" lon="-1.82305">
        <ele>29</ele>
        <time>2018-03-09T04:22:36Z</time>
      </trkpt>
      <trkpt lat="46.8857" lon="-1.82305">
        <ele>29</ele>
        <time>2018-03-09T04:23:36Z</time>
      </trkpt>
      <trkpt lat="46.88579" lon="-1.82306">
        <ele>28</ele>
        <time>2018-03-09T04:24:36Z</time>
      </trkpt>
      <trkpt lat="46.88583" lon="-1.82307">
        <ele>28</ele>
        <time>2018-03-09T04:25:36Z</time>
      </trkpt>
      <trkpt lat="46.88589" lon="-1.8231">
        <ele>28</ele>
        <time>2018-03-09T04:26:36Z</time>
      </trkpt>
      <trkpt lat="46.88596" lon="-1.82315">
        <ele>28</ele>
        <time>2018-03-09T04:27:36Z</time>
      </trkpt>
      <trkpt lat="46.88603" lon="-1.82322">
        <ele>28</ele>
        <time>2018-03-09T04:28:36Z</time>
      </trkpt>
      <trkpt lat="46.88621" lon="-1.8234">
        <ele>29</ele>
        <time>2018-03-09T04:29:36Z</time>
      </trkpt>
      <trkpt lat="46.88636" lon="-1.82356">
        <ele>28</ele>
        <time>2018-03-09T04:30:36Z</time>
      </trkpt>
      <trkpt lat="46.88645" lon="-1.82363">
        <ele>28</ele>
        <time>2018-03-09T04:31:36Z</time>
      </trkpt>
      <trkpt lat="46.8865" lon="-1.82366">
        <ele>28</ele>
        <time>2018-03-09T04:32:36Z</time>
      </trkpt>
      <trkpt lat="46.88653" lon="-1.82367">
        <ele>28</ele>
        <time>2018-03-09T04:33:36Z</time>
      </trkpt>
      <trkpt lat="46.88658" lon="-1.82369">
        <ele>28</ele>
        <time>2018-03-09T04:34:36Z</time>
      </trkpt>
      <trkpt lat="46.88668" lon="-1.82372">
        <ele>28</ele>
        <time>2018-03-09T04:35:36Z</time>
      </trkpt>
      <trkpt lat="46.88689" lon="-1.82377">
        <ele>27</ele>
        <time>2018-03-09T04:36:36Z</time>
      </trkpt>
      <trkpt lat="46.88728" lon="-1.82386">
        <ele>27</ele>
        <time>2018-03-09T04:37:36Z</time>
      </trkpt>
      <trkpt lat="46.88742" lon="-1.8239">
        <ele>26</ele>
        <time>2018-03-09T04:38:36Z</time>
      </trkpt>
      <trkpt lat="46.88751" lon="-1.82393">
        <ele>26</ele>
        <time>2018-03-09T04:39:36Z</time>
      </trkpt>
      <trkpt lat="46.88763" lon="-1.82399">
        <ele>25</ele>
        <time>2018-03-09T04:40:36Z</time>
      </trkpt>
      <trkpt lat="46.8877" lon="-1.82403">
        <ele>25</ele>
        <time>2018-03-09T04:41:36Z</time>
      </trkpt>
      <trkpt lat="46.88784" lon="-1.82413">
        <ele>25</ele>
        <time>2018-03-09T04:42:36Z</time>
      </trkpt>
      <trkpt lat="46.88799" lon="-1.82424">
        <ele>24</ele>
        <time>2018-03-09T04:43:36Z</time>
      </trkpt>
      <trkpt lat="46.88813" lon="-1.82435">
        <ele>24</ele>
        <time>2018-03-09T04:44:36Z</time>
      </trkpt>
      <trkpt lat="46.88824" lon="-1.82446">
        <ele>23</ele>
        <time>2018-03-09T04:45:36Z</time>
      </trkpt>
      <trkpt lat="46.88833" lon="-1.82457">
        <ele>23</ele>
        <time>2018-03-09T04:46:36Z</time>
      </trkpt>
      <trkpt lat="46.88837" lon="-1.82463">
        <ele>23</ele>
        <time>2018-03-09T04:47:36Z</time>
      </trkpt>
      <trkpt lat="46.8884" lon="-1.82467">
        <ele>23</ele>
        <time>2018-03-09T04:48:36Z</time>
      </trkpt>
      <trkpt lat="46.88846" lon="-1.82477">
        <ele>23</ele>
        <time>2018-03-09T04:49:36Z</time>
      </trkpt>
      <trkpt lat="46.88848" lon="-1.82481">
        <ele>23</ele>
        <time>2018-03-09T04:50:36Z</time>
      </trkpt>
      <trkpt lat="46.88852" lon="-1.82491">
        <ele>23</ele>
        <time>2018-03-09T04:51:36Z</time>
      </trkpt>
      <trkpt lat="46.88857" lon="-1.82503">
        <ele>23</ele>
        <time>2018-03-09T04:52:36Z</time>
      </trkpt>
      <trkpt lat="46.88861" lon="-1.82517">
        <ele>23</ele>
        <time>2018-03-09T04:53:36Z</time>
      </trkpt>
      <trkpt lat="46.88866" lon="-1.82528">
        <ele>24</ele>
        <time>2018-03-09T04:54:36Z</time>
      </trkpt>
      <trkpt lat="46.8887" lon="-1.82542">
        <ele>24</ele>
        <time>2018-03-09T04:55:36Z</time>
      </trkpt>
      <trkpt lat="46.88876" lon="-1.82558">
        <ele>24</ele>
        <time>2018-03-09T04:56:36Z</time>
      </trkpt>
      <trkpt lat="46.88879" lon="-1.82565">
        <ele>25</ele>
        <time>2018-03-09T04:57:36Z</time>
      </trkpt>
      <trkpt lat="46.88884" lon="-1.8258">
        <ele>25</ele>
        <time>2018-03-09T04:58:36Z</time>
      </trkpt>
      <trkpt lat="46.88901" lon="-1.82626">
        <ele>26</ele>
        <time>2018-03-09T04:59:36Z</time>
      </trkpt>
      <trkpt lat="46.88908" lon="-1.82651">
        <ele>26</ele>
        <time>2018-03-09T05:00:36Z</time>
      </trkpt>
      <trkpt lat="46.8891" lon="-1.82656">
        <ele>26</ele>
        <time>2018-03-09T05:01:36Z</time>
      </trkpt>
      <trkpt lat="46.88917" lon="-1.82676">
        <ele>26</ele>
        <time>2018-03-09T05:02:36Z</time>
      </trkpt>
      <trkpt lat="46.8892" lon="-1.82687">
        <ele>26</ele>
        <time>2018-03-09T05:03:36Z</time>
      </trkpt>
      <trkpt lat="46.88922" lon="-1.82693">
        <ele>26</ele>
        <time>2018-03-09T05:04:36Z</time>
      </trkpt>
      <trkpt lat="46.88924" lon="-1.82702">
        <ele>26</ele>
        <time>2018-03-09T05:05:36Z</time>
      </trkpt>
      <trkpt lat="46.88925" lon="-1.82713">
        <ele>26</ele>
        <time>2018-03-09T05:06:36Z</time>
      </trkpt>
      <trkpt lat="46.88926" lon="-1.82717">
        <ele>26</ele>
        <time>2018-03-09T05:07:36Z</time>
      </trkpt>
      <trkpt lat="46.8893" lon="-1.82741">
        <ele>26</ele>
        <time>2018-03-09T05:08:36Z</time>
      </trkpt>
      <trkpt lat="46.88935" lon="-1.82777">
        <ele>25</ele>
        <time>2018-03-09T05:09:36Z</time>
      </trkpt>
      <trkpt lat="46.8894" lon="-1.82821">
        <ele>23</ele>
        <time>2018-03-09T05:10:36Z</time>
      </trkpt>
      <trkpt lat="46.88943" lon="-1.82836">
        <ele>23</ele>
        <time>2018-03-09T05:11:36Z</time>
      </trkpt>
      <trkpt lat="46.88944" lon="-1.82843">
        <ele>23</ele>
        <time>2018-03-09T05:12:36Z</time>
      </trkpt>
      <trkpt lat="46.88946" lon="-1.82854">
        <ele>23</ele>
        <time>2018-03-09T05:13:36Z</time>
      </trkpt>
      <trkpt lat="46.88949" lon="-1.82868">
        <ele>23</ele>
        <time>2018-03-09T05:14:36Z</time>
      </trkpt>
      <trkpt lat="46.88954" lon="-1.82888">
        <ele>23</ele>
        <time>2018-03-09T05:15:36Z</time>
      </trkpt>
      <trkpt lat="46.88958" lon="-1.82907">
        <ele>23</ele>
        <time>2018-03-09T05:16:36Z</time>
      </trkpt>
      <trkpt lat="46.88962" lon="-1.82926">
        <ele>24</ele>
        <time>2018-03-09T05:17:36Z</time>
      </trkpt>
      <trkpt lat="46.88964" lon="-1.82934">
        <ele>24</ele>
        <time>2018-03-09T05:18:36Z</time>
      </trkpt>
      <trkpt lat="46.88965" lon="-1.82937">
        <ele>24</ele>
        <time>2018-03-09T05:19:36Z</time>
      </trkpt>
      <trkpt lat="46.88967" lon="-1.82942">
        <ele>24</ele>
        <time>2018-03-09T05:20:36Z</time>
      </trkpt>
      <trkpt lat="46.88968" lon="-1.82945">
        <ele>24</ele>
        <time>2018-03-09T05:21:36Z</time>
      </trkpt>
      <trkpt lat="46.8897" lon="-1.82949">
        <ele>24</ele>
        <time>2018-03-09T05:22:36Z</time>
      </trkpt>
      <trkpt lat="46.88974" lon="-1.82954">
        <ele>24</ele>
        <time>2018-03-09T05:23:36Z</time>
      </trkpt>
      <trkpt lat="46.88976" lon="-1.82956">
        <ele>24</ele>
        <time>2018-03-09T05:24:36Z</time>
      </trkpt>
      <trkpt lat="46.88978" lon="-1.82958">
        <ele>24</ele>
        <time>2018-03-09T05:25:36Z</time>
      </trkpt>
      <trkpt lat="46.88981" lon="-1.82961">
        <ele>25</ele>
        <time>2018-03-09T05:26:36Z</time>
      </trkpt>
      <trkpt lat="46.88985" lon="-1.82964">
        <ele>25</ele>
        <time>2018-03-09T05:27:36Z</time>
      </trkpt>
      <trkpt lat="46.88992" lon="-1.82969">
        <ele>25</ele>
        <time>2018-03-09T05:28:36Z</time>
      </trkpt>
      <trkpt lat="46.88995" lon="-1.82972">
        <ele>25</ele>
        <time>2018-03-09T05:29:36Z</time>
      </trkpt>
      <trkpt lat="46.89" lon="-1.82976">
        <ele>25</ele>
        <time>2018-03-09T05:30:36Z</time>
      </trkpt>
      <trkpt lat="46.89016" lon="-1.82994">
        <ele>26</ele>
        <time>2018-03-09T05:31:36Z</time>
      </trkpt>
      <trkpt lat="46.89037" lon="-1.83021">
        <ele>27</ele>
        <time>2018-03-09T05:32:36Z</time>
      </trkpt>
      <trkpt lat="46.89038" lon="-1.83023">
        <ele>28</ele>
        <time>2018-03-09T05:33:36Z</time>
      </trkpt>
      <trkpt lat="46.89041" lon="-1.83027">
        <ele>28</ele>
        <time>2018-03-09T05:34:36Z</time>
      </trkpt>
      <trkpt lat="46.89052" lon="-1.83037">
        <ele>28</ele>
        <time>2018-03-09T05:35:36Z</time>
      </trkpt>
      <trkpt lat="46.89073" lon="-1.83058">
        <ele>30</ele>
        <time>2018-03-09T05:36:36Z</time>
      </trkpt>
      <trkpt lat="46.89089" lon="-1.83073">
        <ele>31</ele>
        <time>2018-03-09T05:37:36Z</time>
      </trkpt>
      <trkpt lat="46.89095" lon="-1.8308">
        <ele>31</ele>
        <time>2018-03-09T05:38:36Z</time>
      </trkpt>
      <trkpt lat="46.89104" lon="-1.83089">
        <ele>31</ele>
        <time>2018-03-09T05:39:36Z</time>
      </trkpt>
      <trkpt lat="46.89105" lon="-1.8309">
        <ele>31</ele>
        <time>2018-03-09T05:40:36Z</time>
      </trkpt>
      <trkpt lat="46.89111" lon="-1.83096">
        <ele>31</ele>
        <time>2018-03-09T05:41:36Z</time>
      </trkpt>
      <trkpt lat="46.89117" lon="-1.83102">
        <ele>31</ele>
        <time>2018-03-09T05:42:36Z</time>
      </trkpt>
      <trkpt lat="46.8912" lon="-1.83104">
        <ele>31</ele>
        <time>2018-03-09T05:43:36Z</time>
      </trkpt>
      <trkpt lat="46.89122" lon="-1.83106">
        <ele>31</ele>
        <time>2018-03-09T05:44:36Z</time>
      </trkpt>
      <trkpt lat="46.89134" lon="-1.83105">
        <ele>31</ele>
        <time>2018-03-09T05:45:36Z</time>
      </trkpt>
      <trkpt lat="46.89135" lon="-1.83117">
        <ele>32</ele>
        <time>2018-03-09T05:46:36Z</time>
      </trkpt>
      <trkpt lat="46.89135" lon="-1.83136">
        <ele>32</ele>
        <time>2018-03-09T05:47:36Z</time>
      </trkpt>
      <trkpt lat="46.89135" lon="-1.8315">
        <ele>32</ele>
        <time>2018-03-09T05:48:36Z</time>
      </trkpt>
      <trkpt lat="46.89135" lon="-1.8315">
        <ele>32</ele>
        <time>2018-03-09T05:49:36Z</time>
      </trkpt>
      <trkpt lat="46.89129" lon="-1.83151">
        <ele>32</ele>
        <time>2018-03-09T05:50:36Z</time>
      </trkpt>
      <trkpt lat="46.89125" lon="-1.83152">
        <ele>32</ele>
        <time>2018-03-09T05:51:36Z</time>
      </trkpt>
      <trkpt lat="46.89115" lon="-1.83164">
        <ele>32</ele>
        <time>2018-03-09T05:52:36Z</time>
      </trkpt>
      <trkpt lat="46.8908" lon="-1.83201">
        <ele>31</ele>
        <time>2018-03-09T05:53:36Z</time>
      </trkpt>
      <trkpt lat="46.89061" lon="-1.83221">
        <ele>31</ele>
        <time>2018-03-09T05:54:36Z</time>
      </trkpt>
      <trkpt lat="46.89036" lon="-1.8325">
        <ele>30</ele>
        <time>2018-03-09T05:55:36Z</time>
      </trkpt>
      <trkpt lat="46.8901" lon="-1.83278">
        <ele>29</ele>
        <time>2018-03-09T05:56:36Z</time>
      </trkpt>
      <trkpt lat="46.88992" lon="-1.83297">
        <ele>28</ele>
        <time>2018-03-09T05:57:36Z</time>
      </trkpt>
      <trkpt lat="46.88961" lon="-1.83329">
        <ele>27</ele>
        <time>2018-03-09T05:58:36Z</time>
      </trkpt>
      <trkpt lat="46.8895" lon="-1.8334">
        <ele>27</ele>
        <time>2018-03-09T05:59:36Z</time>
      </trkpt>
      <trkpt lat="46.88947" lon="-1.83347">
        <ele>27</ele>
        <time>2018-03-09T06:00:36Z</time>
      </trkpt>
      <trkpt lat="46.88945" lon="-1.83352">
        <ele>27</ele>
        <time>2018-03-09T06:01:36Z</time>
      </trkpt>
      <trkpt lat="46.88941" lon="-1.8336">
        <ele>27</ele>
        <time>2018-03-09T06:02:36Z</time>
      </trkpt>
      <trkpt lat="46.88937" lon="-1.83371">
        <ele>26</ele>
        <time>2018-03-09T06:03:36Z</time>
      </trkpt>
      <trkpt lat="46.88937" lon="-1.83371">
        <ele>26</ele>
        <time>2018-03-09T06:04:36Z</time>
      </trkpt>
      <trkpt lat="46.88937" lon="-1.83372">
        <ele>26</ele>
        <time>2018-03-09T06:05:36Z</time>
      </trkpt>
      <trkpt lat="46.88938" lon="-1.83372">
        <ele>26</ele>
        <time>2018-03-09T06:06:36Z</time>
      </trkpt>
      <trkpt lat="46.88938" lon="-1.83373">
        <ele>26</ele>
        <time>2018-03-09T06:07:36Z</time>
      </trkpt>
      <trkpt lat="46.88938" lon="-1.83374">
        <ele>26</ele>
        <time>2018-03-09T06:08:36Z</time>
      </trkpt>
      <trkpt lat="46.88938" lon="-1.83375">
        <ele>26</ele>
        <time>2018-03-09T06:09:36Z</time>
      </trkpt>
      <trkpt lat="46.88939" lon="-1.83375">
        <ele>26</ele>
        <time>2018-03-09T06:10:36Z</time>
      </trkpt>
      <trkpt lat="46.88939" lon="-1.83376">
        <ele>26</ele>
        <time>2018-03-09T06:11:36Z</time>
      </trkpt>
      <trkpt lat="46.88939" lon="-1.83377">
        <ele>26</ele>
        <time>2018-03-09T06:12:36Z</time>
      </trkpt>
      <trkpt lat="46.88939" lon="-1.83378">
        <ele>26</ele>
        <time>2018-03-09T06:13:36Z</time>
      </trkpt>
      <trkpt lat="46.88939" lon="-1.83379">
        <ele>26</ele>
        <time>2018-03-09T06:14:36Z</time>
      </trkpt>
      <trkpt lat="46.88939" lon="-1.8338">
        <ele>26</ele>
        <time>2018-03-09T06:15:36Z</time>
      </trkpt>
      <trkpt lat="46.88944" lon="-1.83388">
        <ele>26</ele>
        <time>2018-03-09T06:16:36Z</time>
      </trkpt>
      <trkpt lat="46.88949" lon="-1.83397">
        <ele>26</ele>
        <time>2018-03-09T06:17:36Z</time>
      </trkpt>
      <trkpt lat="46.8895" lon="-1.834">
        <ele>26</ele>
        <time>2018-03-09T06:18:36Z</time>
      </trkpt>
      <trkpt lat="46.88952" lon="-1.83404">
        <ele>26</ele>
        <time>2018-03-09T06:19:36Z</time>
      </trkpt>
      <trkpt lat="46.88954" lon="-1.83414">
        <ele>26</ele>
        <time>2018-03-09T06:20:36Z</time>
      </trkpt>
      <trkpt lat="46.88955" lon="-1.83425">
        <ele>26</ele>
        <time>2018-03-09T06:21:36Z</time>
      </trkpt>
      <trkpt lat="46.88955" lon="-1.83435">
        <ele>26</ele>
        <time>2018-03-09T06:22:36Z</time>
      </trkpt>
      <trkpt lat="46.88954" lon="-1.83447">
        <ele>26</ele>
        <time>2018-03-09T06:23:36Z</time>
      </trkpt>
      <trkpt lat="46.88954" lon="-1.83454">
        <ele>26</ele>
        <time>2018-03-09T06:24:36Z</time>
      </trkpt>
      <trkpt lat="46.88951" lon="-1.83509">
        <ele>25</ele>
        <time>2018-03-09T06:25:36Z</time>
      </trkpt>
      <trkpt lat="46.88948" lon="-1.83542">
        <ele>25</ele>
        <time>2018-03-09T06:26:36Z</time>
      </trkpt>
      <trkpt lat="46.88948" lon="-1.83556">
        <ele>25</ele>
        <time>2018-03-09T06:27:36Z</time>
      </trkpt>
      <trkpt lat="46.88948" lon="-1.83566">
        <ele>25</ele>
        <time>2018-03-09T06:28:36Z</time>
      </trkpt>
      <trkpt lat="46.88949" lon="-1.83579">
        <ele>26</ele>
        <time>2018-03-09T06:29:36Z</time>
      </trkpt>
      <trkpt lat="46.88951" lon="-1.83607">
        <ele>25</ele>
        <time>2018-03-09T06:30:36Z</time>
      </trkpt>
      <trkpt lat="46.88952" lon="-1.83613">
        <ele>25</ele>
        <time>2018-03-09T06:31:36Z</time>
      </trkpt>
      <trkpt lat="46.88953" lon="-1.83623">
        <ele>25</ele>
        <time>2018-03-09T06:32:36Z</time>
      </trkpt>
      <trkpt lat="46.88956" lon="-1.83652">
        <ele>25</ele>
        <time>2018-03-09T06:33:36Z</time>
      </trkpt>
      <trkpt lat="46.88957" lon="-1.83662">
        <ele>25</ele>
        <time>2018-03-09T06:34:36Z</time>
      </trkpt>
      <trkpt lat="46.88957" lon="-1.83671">
        <ele>24</ele>
        <time>2018-03-09T06:35:36Z</time>
      </trkpt>
      <trkpt lat="46.88957" lon="-1.83682">
        <ele>24</ele>
        <time>2018-03-09T06:36:36Z</time>
      </trkpt>
      <trkpt lat="46.88955" lon="-1.8372">
        <ele>23</ele>
        <time>2018-03-09T06:37:36Z</time>
      </trkpt>
      <trkpt lat="46.88947" lon="-1.83811">
        <ele>20</ele>
        <time>2018-03-09T06:38:36Z</time>
      </trkpt>
      <trkpt lat="46.88942" lon="-1.83872">
        <ele>19</ele>
        <time>2018-03-09T06:39:36Z</time>
      </trkpt>
      <trkpt lat="46.88941" lon="-1.83881">
        <ele>19</ele>
        <time>2018-03-09T06:40:36Z</time>
      </trkpt>
      <trkpt lat="46.88941" lon="-1.83893">
        <ele>19</ele>
        <time>2018-03-09T06:41:36Z</time>
      </trkpt>
      <trkpt lat="46.8894" lon="-1.83906">
        <ele>19</ele>
        <time>2018-03-09T06:42:36Z</time>
      </trkpt>
      <trkpt lat="46.8894" lon="-1.83916">
        <ele>19</ele>
        <time>2018-03-09T06:43:36Z</time>
      </trkpt>
      <trkpt lat="46.8894" lon="-1.83923">
        <ele>19</ele>
        <time>2018-03-09T06:44:36Z</time>
      </trkpt>
      <trkpt lat="46.88945" lon="-1.83946">
        <ele>19</ele>
        <time>2018-03-09T06:45:36Z</time>
      </trkpt>
      <trkpt lat="46.88947" lon="-1.83953">
        <ele>19</ele>
        <time>2018-03-09T06:46:36Z</time>
      </trkpt>
      <trkpt lat="46.88953" lon="-1.83986">
        <ele>19</ele>
        <time>2018-03-09T06:47:36Z</time>
      </trkpt>
      <trkpt lat="46.88965" lon="-1.84046">
        <ele>19</ele>
        <time>2018-03-09T06:48:36Z</time>
      </trkpt>
      <trkpt lat="46.88983" lon="-1.84129">
        <ele>18</ele>
        <time>2018-03-09T06:49:36Z</time>
      </trkpt>
      <trkpt lat="46.89003" lon="-1.84227">
        <ele>17</ele>
        <time>2018-03-09T06:50:36Z</time>
      </trkpt>
      <trkpt lat="46.89008" lon="-1.8425">
        <ele>17</ele>
        <time>2018-03-09T06:51:36Z</time>
      </trkpt>
      <trkpt lat="46.89014" lon="-1.84276">
        <ele>17</ele>
        <time>2018-03-09T06:52:36Z</time>
      </trkpt>
      <trkpt lat="46.89019" lon="-1.84296">
        <ele>17</ele>
        <time>2018-03-09T06:53:36Z</time>
      </trkpt>
      <trkpt lat="46.89023" lon="-1.84312">
        <ele>17</ele>
        <time>2018-03-09T06:54:36Z</time>
      </trkpt>
      <trkpt lat="46.89027" lon="-1.84326">
        <ele>18</ele>
        <time>2018-03-09T06:55:36Z</time>
      </trkpt>
      <trkpt lat="46.89032" lon="-1.8434">
        <ele>18</ele>
        <time>2018-03-09T06:56:36Z</time>
      </trkpt>
      <trkpt lat="46.89038" lon="-1.84356">
        <ele>18</ele>
        <time>2018-03-09T06:57:36Z</time>
      </trkpt>
      <trkpt lat="46.89045" lon="-1.84374">
        <ele>19</ele>
        <time>2018-03-09T06:58:36Z</time>
      </trkpt>
      <trkpt lat="46.89052" lon="-1.84387">
        <ele>19</ele>
        <time>2018-03-09T06:59:36Z</time>
      </trkpt>
      <trkpt lat="46.89065" lon="-1.84409">
        <ele>20</ele>
        <time>2018-03-09T07:00:36Z</time>
      </trkpt>
      <trkpt lat="46.89074" lon="-1.84423">
        <ele>20</ele>
        <time>2018-03-09T07:01:36Z</time>
      </trkpt>
      <trkpt lat="46.89084" lon="-1.84437">
        <ele>21</ele>
        <time>2018-03-09T07:02:36Z</time>
      </trkpt>
      <trkpt lat="46.89098" lon="-1.84454">
        <ele>21</ele>
        <time>2018-03-09T07:03:36Z</time>
      </trkpt>
      <trkpt lat="46.89107" lon="-1.84462">
        <ele>22</ele>
        <time>2018-03-09T07:04:36Z</time>
      </trkpt>
      <trkpt lat="46.89116" lon="-1.84471">
        <ele>22</ele>
        <time>2018-03-09T07:05:36Z</time>
      </trkpt>
      <trkpt lat="46.89145" lon="-1.845">
        <ele>23</ele>
        <time>2018-03-09T07:06:36Z</time>
      </trkpt>
      <trkpt lat="46.8916" lon="-1.84515">
        <ele>23</ele>
        <time>2018-03-09T07:07:36Z</time>
      </trkpt>
      <trkpt lat="46.8917" lon="-1.84525">
        <ele>23</ele>
        <time>2018-03-09T07:08:36Z</time>
      </trkpt>
      <trkpt lat="46.89199" lon="-1.84553">
        <ele>24</ele>
        <time>2018-03-09T07:09:36Z</time>
      </trkpt>
      <trkpt lat="46.89227" lon="-1.8458">
        <ele>25</ele>
        <time>2018-03-09T07:10:36Z</time>
      </trkpt>
      <trkpt lat="46.89228" lon="-1.84579">
        <ele>25</ele>
        <time>2018-03-09T07:11:36Z</time>
      </trkpt>
      <trkpt lat="46.89229" lon="-1.84578">
        <ele>25</ele>
        <time>2018-03-09T07:12:36Z</time>
      </trkpt>
      <trkpt lat="46.89229" lon="-1.84577">
        <ele>25</ele>
        <time>2018-03-09T07:13:36Z</time>
      </trkpt>
      <trkpt lat="46.8923" lon="-1.84576">
        <ele>25</ele>
        <time>2018-03-09T07:14:36Z</time>
      </trkpt>
      <trkpt lat="46.89231" lon="-1.84576">
        <ele>25</ele>
        <time>2018-03-09T07:15:36Z</time>
      </trkpt>
      <trkpt lat="46.89232" lon="-1.84575">
        <ele>25</ele>
        <time>2018-03-09T07:16:36Z</time>
      </trkpt>
      <trkpt lat="46.89233" lon="-1.84574">
        <ele>25</ele>
        <time>2018-03-09T07:17:36Z</time>
      </trkpt>
      <trkpt lat="46.89234" lon="-1.84574">
        <ele>25</ele>
        <time>2018-03-09T07:18:36Z</time>
      </trkpt>
      <trkpt lat="46.89235" lon="-1.84573">
        <ele>25</ele>
        <time>2018-03-09T07:19:36Z</time>
      </trkpt>
      <trkpt lat="46.89236" lon="-1.84573">
        <ele>25</ele>
        <time>2018-03-09T07:20:36Z</time>
      </trkpt>
      <trkpt lat="46.89237" lon="-1.84573">
        <ele>25</ele>
        <time>2018-03-09T07:21:36Z</time>
      </trkpt>
      <trkpt lat="46.89238" lon="-1.84573">
        <ele>25</ele>
        <time>2018-03-09T07:22:36Z</time>
      </trkpt>
      <trkpt lat="46.89239" lon="-1.84573">
        <ele>25</ele>
        <time>2018-03-09T07:23:36Z</time>
      </trkpt>
      <trkpt lat="46.8924" lon="-1.84573">
        <ele>26</ele>
        <time>2018-03-09T07:24:36Z</time>
      </trkpt>
      <trkpt lat="46.89241" lon="-1.84573">
        <ele>26</ele>
        <time>2018-03-09T07:25:36Z</time>
      </trkpt>
      <trkpt lat="46.89242" lon="-1.84573">
        <ele>26</ele>
        <time>2018-03-09T07:26:36Z</time>
      </trkpt>
      <trkpt lat="46.89243" lon="-1.84574">
        <ele>26</ele>
        <time>2018-03-09T07:27:36Z</time>
      </trkpt>
      <trkpt lat="46.89244" lon="-1.84574">
        <ele>26</ele>
        <time>2018-03-09T07:28:36Z</time>
      </trkpt>
      <trkpt lat="46.89245" lon="-1.84575">
        <ele>26</ele>
        <time>2018-03-09T07:29:36Z</time>
      </trkpt>
      <trkpt lat="46.89246" lon="-1.84576">
        <ele>26</ele>
        <time>2018-03-09T07:30:36Z</time>
      </trkpt>
      <trkpt lat="46.89247" lon="-1.84577">
        <ele>26</ele>
        <time>2018-03-09T07:31:36Z</time>
      </trkpt>
      <trkpt lat="46.89248" lon="-1.84578">
        <ele>26</ele>
        <time>2018-03-09T07:32:36Z</time>
      </trkpt>
      <trkpt lat="46.89249" lon="-1.84579">
        <ele>26</ele>
        <time>2018-03-09T07:33:36Z</time>
      </trkpt>
      <trkpt lat="46.8925" lon="-1.84581">
        <ele>26</ele>
        <time>2018-03-09T07:34:36Z</time>
      </trkpt>
      <trkpt lat="46.89251" lon="-1.84582">
        <ele>26</ele>
        <time>2018-03-09T07:35:36Z</time>
      </trkpt>
      <trkpt lat="46.89251" lon="-1.84583">
        <ele>26</ele>
        <time>2018-03-09T07:36:36Z</time>
      </trkpt>
      <trkpt lat="46.89252" lon="-1.84585">
        <ele>26</ele>
        <time>2018-03-09T07:37:36Z</time>
      </trkpt>
      <trkpt lat="46.89252" lon="-1.84586">
        <ele>26</ele>
        <time>2018-03-09T07:38:36Z</time>
      </trkpt>
      <trkpt lat="46.89252" lon="-1.84587">
        <ele>26</ele>
        <time>2018-03-09T07:39:36Z</time>
      </trkpt>
      <trkpt lat="46.89253" lon="-1.84589">
        <ele>26</ele>
        <time>2018-03-09T07:40:36Z</time>
      </trkpt>
      <trkpt lat="46.89253" lon="-1.8459">
        <ele>26</ele>
        <time>2018-03-09T07:41:36Z</time>
      </trkpt>
      <trkpt lat="46.89253" lon="-1.84592">
        <ele>26</ele>
        <time>2018-03-09T07:42:36Z</time>
      </trkpt>
      <trkpt lat="46.89253" lon="-1.84593">
        <ele>26</ele>
        <time>2018-03-09T07:43:36Z</time>
      </trkpt>
      <trkpt lat="46.89253" lon="-1.84594">
        <ele>26</ele>
        <time>2018-03-09T07:44:36Z</time>
      </trkpt>
      <trkpt lat="46.89253" lon="-1.84596">
        <ele>26</ele>
        <time>2018-03-09T07:45:36Z</time>
      </trkpt>
      <trkpt lat="46.89253" lon="-1.84597">
        <ele>26</ele>
        <time>2018-03-09T07:46:36Z</time>
      </trkpt>
      <trkpt lat="46.89253" lon="-1.84599">
        <ele>26</ele>
        <time>2018-03-09T07:47:36Z</time>
      </trkpt>
      <trkpt lat="46.89253" lon="-1.846">
        <ele>26</ele>
        <time>2018-03-09T07:48:36Z</time>
      </trkpt>
      <trkpt lat="46.89252" lon="-1.84602">
        <ele>26</ele>
        <time>2018-03-09T07:49:36Z</time>
      </trkpt>
      <trkpt lat="46.89252" lon="-1.84603">
        <ele>26</ele>
        <time>2018-03-09T07:50:36Z</time>
      </trkpt>
      <trkpt lat="46.89252" lon="-1.84604">
        <ele>26</ele>
        <time>2018-03-09T07:51:36Z</time>
      </trkpt>
      <trkpt lat="46.89251" lon="-1.84606">
        <ele>26</ele>
        <time>2018-03-09T07:52:36Z</time>
      </trkpt>
      <trkpt lat="46.8925" lon="-1.84607">
        <ele>26</ele>
        <time>2018-03-09T07:53:36Z</time>
      </trkpt>
      <trkpt lat="46.89263" lon="-1.84624">
        <ele>26</ele>
        <time>2018-03-09T07:54:36Z</time>
      </trkpt>
      <trkpt lat="46.89286" lon="-1.84653">
        <ele>26</ele>
        <time>2018-03-09T07:55:36Z</time>
      </trkpt>
      <trkpt lat="46.89324" lon="-1.84703">
        <ele>27</ele>
        <time>2018-03-09T07:56:36Z</time>
      </trkpt>
      <trkpt lat="46.89365" lon="-1.84756">
        <ele>28</ele>
        <time>2018-03-09T07:57:36Z</time>
      </trkpt>
      <trkpt lat="46.89406" lon="-1.8481">
        <ele>28</ele>
        <time>2018-03-09T07:58:36Z</time>
      </trkpt>
      <trkpt lat="46.89431" lon="-1.84841">
        <ele>28</ele>
        <time>2018-03-09T07:59:36Z</time>
      </trkpt>
      <trkpt lat="46.89437" lon="-1.84849">
        <ele>28</ele>
        <time>2018-03-09T08:00:36Z</time>
      </trkpt>
      <trkpt lat="46.8944" lon="-1.84854">
        <ele>28</ele>
        <time>2018-03-09T08:01:36Z</time>
      </trkpt>
      <trkpt lat="46.8944" lon="-1.84854">
        <ele>28</ele>
        <time>2018-03-09T08:02:36Z</time>
      </trkpt>
      <trkpt lat="46.89443" lon="-1.84859">
        <ele>28</ele>
        <time>2018-03-09T08:03:36Z</time>
      </trkpt>
      <trkpt lat="46.89445" lon="-1.84868">
        <ele>28</ele>
        <time>2018-03-09T08:04:36Z</time>
      </trkpt>
      <trkpt lat="46.89447" lon="-1.84887">
        <ele>29</ele>
        <time>2018-03-09T08:05:36Z</time>
      </trkpt>
      <trkpt lat="46.8945" lon="-1.8495">
        <ele>28</ele>
        <time>2018-03-09T08:06:36Z</time>
      </trkpt>
      <trkpt lat="46.89451" lon="-1.8498">
        <ele>28</ele>
        <time>2018-03-09T08:07:36Z</time>
      </trkpt>
      <trkpt lat="46.89451" lon="-1.84985">
        <ele>28</ele>
        <time>2018-03-09T08:08:36Z</time>
      </trkpt>
      <trkpt lat="46.89451" lon="-1.85004">
        <ele>28</ele>
        <time>2018-03-09T08:09:36Z</time>
      </trkpt>
      <trkpt lat="46.8945" lon="-1.85021">
        <ele>28</ele>
        <time>2018-03-09T08:10:36Z</time>
      </trkpt>
      <trkpt lat="46.89449" lon="-1.85047">
        <ele>27</ele>
        <time>2018-03-09T08:11:36Z</time>
      </trkpt>
      <trkpt lat="46.89446" lon="-1.8507">
        <ele>27</ele>
        <time>2018-03-09T08:12:36Z</time>
      </trkpt>
      <trkpt lat="46.89444" lon="-1.8509">
        <ele>27</ele>
        <time>2018-03-09T08:13:36Z</time>
      </trkpt>
      <trkpt lat="46.8944" lon="-1.8511">
        <ele>27</ele>
        <time>2018-03-09T08:14:36Z</time>
      </trkpt>
      <trkpt lat="46.89436" lon="-1.85128">
        <ele>27</ele>
        <time>2018-03-09T08:15:36Z</time>
      </trkpt>
      <trkpt lat="46.89427" lon="-1.85165">
        <ele>26</ele>
        <time>2018-03-09T08:16:36Z</time>
      </trkpt>
      <trkpt lat="46.89419" lon="-1.85192">
        <ele>26</ele>
        <time>2018-03-09T08:17:36Z</time>
      </trkpt>
      <trkpt lat="46.89396" lon="-1.85276">
        <ele>25</ele>
        <time>2018-03-09T08:18:36Z</time>
      </trkpt>
      <trkpt lat="46.89392" lon="-1.85289">
        <ele>25</ele>
        <time>2018-03-09T08:19:36Z</time>
      </trkpt>
      <trkpt lat="46.89368" lon="-1.85372">
        <ele>25</ele>
        <time>2018-03-09T08:20:36Z</time>
      </trkpt>
      <trkpt lat="46.89359" lon="-1.85405">
        <ele>26</ele>
        <time>2018-03-09T08:21:36Z</time>
      </trkpt>
      <trkpt lat="46.89342" lon="-1.85467">
        <ele>26</ele>
        <time>2018-03-09T08:22:36Z</time>
      </trkpt>
      <trkpt lat="46.89333" lon="-1.85497">
        <ele>26</ele>
        <time>2018-03-09T08:23:36Z</time>
      </trkpt>
      <trkpt lat="46.8933" lon="-1.85512">
        <ele>26</ele>
        <time>2018-03-09T08:24:36Z</time>
      </trkpt>
      <trkpt lat="46.89326" lon="-1.85527">
        <ele>26</ele>
        <time>2018-03-09T08:25:36Z</time>
      </trkpt>
      <trkpt lat="46.89324" lon="-1.85544">
        <ele>25</ele>
        <time>2018-03-09T08:26:36Z</time>
      </trkpt>
      <trkpt lat="46.89321" lon="-1.85561">
        <ele>25</ele>
        <time>2018-03-09T08:27:36Z</time>
      </trkpt>
      <trkpt lat="46.8932" lon="-1.85576">
        <ele>25</ele>
        <time>2018-03-09T08:28:36Z</time>
      </trkpt>
      <trkpt lat="46.89315" lon="-1.85653">
        <ele>25</ele>
        <time>2018-03-09T08:29:36Z</time>
      </trkpt>
      <trkpt lat="46.89307" lon="-1.85788">
        <ele>24</ele>
        <time>2018-03-09T08:30:36Z</time>
      </trkpt>
      <trkpt lat="46.89301" lon="-1.85885">
        <ele>24</ele>
        <time>2018-03-09T08:31:36Z</time>
      </trkpt>
      <trkpt lat="46.89294" lon="-1.85992">
        <ele>24</ele>
        <time>2018-03-09T08:32:36Z</time>
      </trkpt>
      <trkpt lat="46.89293" lon="-1.86011">
        <ele>23</ele>
        <time>2018-03-09T08:33:36Z</time>
      </trkpt>
      <trkpt lat="46.8929" lon="-1.8606">
        <ele>23</ele>
        <time>2018-03-09T08:34:36Z</time>
      </trkpt>
      <trkpt lat="46.89288" lon="-1.86085">
        <ele>23</ele>
        <time>2018-03-09T08:35:36Z</time>
      </trkpt>
      <trkpt lat="46.89286" lon="-1.86107">
        <ele>24</ele>
        <time>2018-03-09T08:36:36Z</time>
      </trkpt>
      <trkpt lat="46.89283" lon="-1.8613">
        <ele>24</ele>
        <time>2018-03-09T08:37:36Z</time>
      </trkpt>
      <trkpt lat="46.89283" lon="-1.86132">
        <ele>24</ele>
        <time>2018-03-09T08:38:36Z</time>
      </trkpt>
      <trkpt lat="46.8928" lon="-1.8615">
        <ele>25</ele>
        <time>2018-03-09T08:39:36Z</time>
      </trkpt>
      <trkpt lat="46.89276" lon="-1.86174">
        <ele>25</ele>
        <time>2018-03-09T08:40:36Z</time>
      </trkpt>
      <trkpt lat="46.89269" lon="-1.86204">
        <ele>24</ele>
        <time>2018-03-09T08:41:36Z</time>
      </trkpt>
      <trkpt lat="46.89263" lon="-1.86229">
        <ele>24</ele>
        <time>2018-03-09T08:42:36Z</time>
      </trkpt>
      <trkpt lat="46.89251" lon="-1.8627">
        <ele>23</ele>
        <time>2018-03-09T08:43:36Z</time>
      </trkpt>
      <trkpt lat="46.89236" lon="-1.86316">
        <ele>21</ele>
        <time>2018-03-09T08:44:36Z</time>
      </trkpt>
      <trkpt lat="46.89217" lon="-1.86372">
        <ele>21</ele>
        <time>2018-03-09T08:45:36Z</time>
      </trkpt>
      <trkpt lat="46.89178" lon="-1.86486">
        <ele>20</ele>
        <time>2018-03-09T08:46:36Z</time>
      </trkpt>
      <trkpt lat="46.89157" lon="-1.86551">
        <ele>20</ele>
        <time>2018-03-09T08:47:36Z</time>
      </trkpt>
      <trkpt lat="46.8913" lon="-1.8663">
        <ele>20</ele>
        <time>2018-03-09T08:48:36Z</time>
      </trkpt>
      <trkpt lat="46.89103" lon="-1.86712">
        <ele>18</ele>
        <time>2018-03-09T08:49:36Z</time>
      </trkpt>
      <trkpt lat="46.89091" lon="-1.8675">
        <ele>17</ele>
        <time>2018-03-09T08:50:36Z</time>
      </trkpt>
      <trkpt lat="46.89084" lon="-1.8677">
        <ele>17</ele>
        <time>2018-03-09T08:51:36Z</time>
      </trkpt>
      <trkpt lat="46.8908" lon="-1.86785">
        <ele>16</ele>
        <time>2018-03-09T08:52:36Z</time>
      </trkpt>
      <trkpt lat="46.89076" lon="-1.86796">
        <ele>16</ele>
        <time>2018-03-09T08:53:36Z</time>
      </trkpt>
      <trkpt lat="46.89073" lon="-1.86812">
        <ele>16</ele>
        <time>2018-03-09T08:54:36Z</time>
      </trkpt>
      <trkpt lat="46.89067" lon="-1.86837">
        <ele>16</ele>
        <time>2018-03-09T08:55:36Z</time>
      </trkpt>
      <trkpt lat="46.89063" lon="-1.86859">
        <ele>16</ele>
        <time>2018-03-09T08:56:36Z</time>
      </trkpt>
      <trkpt lat="46.8906" lon="-1.86881">
        <ele>16</ele>
        <time>2018-03-09T08:57:36Z</time>
      </trkpt>
      <trkpt lat="46.89057" lon="-1.86907">
        <ele>16</ele>
        <time>2018-03-09T08:58:36Z</time>
      </trkpt>
      <trkpt lat="46.89054" lon="-1.86934">
        <ele>16</ele>
        <time>2018-03-09T08:59:36Z</time>
      </trkpt>
      <trkpt lat="46.89053" lon="-1.86965">
        <ele>17</ele>
        <time>2018-03-09T09:00:36Z</time>
      </trkpt>
      <trkpt lat="46.89052" lon="-1.86986">
        <ele>17</ele>
        <time>2018-03-09T09:01:36Z</time>
      </trkpt>
      <trkpt lat="46.8905" lon="-1.87054">
        <ele>16</ele>
        <time>2018-03-09T09:02:36Z</time>
      </trkpt>
      <trkpt lat="46.89046" lon="-1.87166">
        <ele>14</ele>
        <time>2018-03-09T09:03:36Z</time>
      </trkpt>
      <trkpt lat="46.89044" lon="-1.87237">
        <ele>15</ele>
        <time>2018-03-09T09:04:36Z</time>
      </trkpt>
      <trkpt lat="46.89042" lon="-1.87303">
        <ele>15</ele>
        <time>2018-03-09T09:05:36Z</time>
      </trkpt>
      <trkpt lat="46.89038" lon="-1.87398">
        <ele>15</ele>
        <time>2018-03-09T09:06:36Z</time>
      </trkpt>
      <trkpt lat="46.89037" lon="-1.87466">
        <ele>15</ele>
        <time>2018-03-09T09:07:36Z</time>
      </trkpt>
      <trkpt lat="46.89035" lon="-1.87513">
        <ele>15</ele>
        <time>2018-03-09T09:08:36Z</time>
      </trkpt>
      <trkpt lat="46.89032" lon="-1.87579">
        <ele>15</ele>
        <time>2018-03-09T09:09:36Z</time>
      </trkpt>
      <trkpt lat="46.8903" lon="-1.87651">
        <ele>14</ele>
        <time>2018-03-09T09:10:36Z</time>
      </trkpt>
      <trkpt lat="46.89029" lon="-1.87699">
        <ele>14</ele>
        <time>2018-03-09T09:11:36Z</time>
      </trkpt>
      <trkpt lat="46.89027" lon="-1.8774">
        <ele>14</ele>
        <time>2018-03-09T09:12:36Z</time>
      </trkpt>
      <trkpt lat="46.89025" lon="-1.87777">
        <ele>14</ele>
        <time>2018-03-09T09:13:36Z</time>
      </trkpt>
      <trkpt lat="46.89024" lon="-1.87795">
        <ele>14</ele>
        <time>2018-03-09T09:14:36Z</time>
      </trkpt>
      <trkpt lat="46.8902" lon="-1.87824">
        <ele>14</ele>
        <time>2018-03-09T09:15:36Z</time>
      </trkpt>
      <trkpt lat="46.8901" lon="-1.87874">
        <ele>14</ele>
        <time>2018-03-09T09:16:36Z</time>
      </trkpt>
      <trkpt lat="46.89002" lon="-1.87905">
        <ele>14</ele>
        <time>2018-03-09T09:17:36Z</time>
      </trkpt>
      <trkpt lat="46.88986" lon="-1.87952">
        <ele>13</ele>
        <time>2018-03-09T09:18:36Z</time>
      </trkpt>
      <trkpt lat="46.88961" lon="-1.88024">
        <ele>11</ele>
        <time>2018-03-09T09:19:36Z</time>
      </trkpt>
      <trkpt lat="46.88929" lon="-1.88111">
        <ele>10</ele>
        <time>2018-03-09T09:20:36Z</time>
      </trkpt>
      <trkpt lat="46.88911" lon="-1.88163">
        <ele>11</ele>
        <time>2018-03-09T09:21:36Z</time>
      </trkpt>
      <trkpt lat="46.88902" lon="-1.8819">
        <ele>12</ele>
        <time>2018-03-09T09:22:36Z</time>
      </trkpt>
      <trkpt lat="46.88877" lon="-1.88261">
        <ele>13</ele>
        <time>2018-03-09T09:23:36Z</time>
      </trkpt>
      <trkpt lat="46.88849" lon="-1.88338">
        <ele>13</ele>
        <time>2018-03-09T09:24:36Z</time>
      </trkpt>
      <trkpt lat="46.8882" lon="-1.88425">
        <ele>12</ele>
        <time>2018-03-09T09:25:36Z</time>
      </trkpt>
      <trkpt lat="46.88799" lon="-1.88486">
        <ele>13</ele>
        <time>2018-03-09T09:26:36Z</time>
      </trkpt>
      <trkpt lat="46.88779" lon="-1.88544">
        <ele>14</ele>
        <time>2018-03-09T09:27:36Z</time>
      </trkpt>
      <trkpt lat="46.88765" lon="-1.88586">
        <ele>15</ele>
        <time>2018-03-09T09:28:36Z</time>
      </trkpt>
      <trkpt lat="46.88744" lon="-1.88644">
        <ele>16</ele>
        <time>2018-03-09T09:29:36Z</time>
      </trkpt>
      <trkpt lat="46.88732" lon="-1.88678">
        <ele>17</ele>
        <time>2018-03-09T09:30:36Z</time>
      </trkpt>
      <trkpt lat="46.8873" lon="-1.88685">
        <ele>17</ele>
        <time>2018-03-09T09:31:36Z</time>
      </trkpt>
      <trkpt lat="46.88721" lon="-1.88713">
        <ele>18</ele>
        <time>2018-03-09T09:32:36Z</time>
      </trkpt>
      <trkpt lat="46.88717" lon="-1.88726">
        <ele>18</ele>
        <time>2018-03-09T09:33:36Z</time>
      </trkpt>
      <trkpt lat="46.88687" lon="-1.88812">
        <ele>21</ele>
        <time>2018-03-09T09:34:36Z</time>
      </trkpt>
      <trkpt lat="46.88665" lon="-1.88873">
        <ele>21</ele>
        <time>2018-03-09T09:35:36Z</time>
      </trkpt>
      <trkpt lat="46.88644" lon="-1.88933">
        <ele>18</ele>
        <time>2018-03-09T09:36:36Z</time>
      </trkpt>
      <trkpt lat="46.88636" lon="-1.88955">
        <ele>18</ele>
        <time>2018-03-09T09:37:36Z</time>
      </trkpt>
      <trkpt lat="46.88629" lon="-1.88975">
        <ele>17</ele>
        <time>2018-03-09T09:38:36Z</time>
      </trkpt>
      <trkpt lat="46.88625" lon="-1.8899">
        <ele>17</ele>
        <time>2018-03-09T09:39:36Z</time>
      </trkpt>
      <trkpt lat="46.88621" lon="-1.89006">
        <ele>16</ele>
        <time>2018-03-09T09:40:36Z</time>
      </trkpt>
      <trkpt lat="46.88618" lon="-1.8902">
        <ele>16</ele>
        <time>2018-03-09T09:41:36Z</time>
      </trkpt>
      <trkpt lat="46.88616" lon="-1.89036">
        <ele>16</ele>
        <time>2018-03-09T09:42:36Z</time>
      </trkpt>
      <trkpt lat="46.88615" lon="-1.89052">
        <ele>16</ele>
        <time>2018-03-09T09:43:36Z</time>
      </trkpt>
      <trkpt lat="46.88614" lon="-1.89065">
        <ele>16</ele>
        <time>2018-03-09T09:44:36Z</time>
      </trkpt>
      <trkpt lat="46.88614" lon="-1.89085">
        <ele>16</ele>
        <time>2018-03-09T09:45:36Z</time>
      </trkpt>
      <trkpt lat="46.88615" lon="-1.89108">
        <ele>16</ele>
        <time>2018-03-09T09:46:36Z</time>
      </trkpt>
      <trkpt lat="46.88617" lon="-1.89126">
        <ele>16</ele>
        <time>2018-03-09T09:47:36Z</time>
      </trkpt>
      <trkpt lat="46.88621" lon="-1.89172">
        <ele>15</ele>
        <time>2018-03-09T09:48:36Z</time>
      </trkpt>
      <trkpt lat="46.88626" lon="-1.8923">
        <ele>13</ele>
        <time>2018-03-09T09:49:36Z</time>
      </trkpt>
      <trkpt lat="46.88628" lon="-1.89257">
        <ele>12</ele>
        <time>2018-03-09T09:50:36Z</time>
      </trkpt>
      <trkpt lat="46.8863" lon="-1.89284">
        <ele>12</ele>
        <time>2018-03-09T09:51:36Z</time>
      </trkpt>
      <trkpt lat="46.8863" lon="-1.89298">
        <ele>12</ele>
        <time>2018-03-09T09:52:36Z</time>
      </trkpt>
      <trkpt lat="46.88631" lon="-1.89311">
        <ele>12</ele>
        <time>2018-03-09T09:53:36Z</time>
      </trkpt>
      <trkpt lat="46.88631" lon="-1.89325">
        <ele>12</ele>
        <time>2018-03-09T09:54:36Z</time>
      </trkpt>
      <trkpt lat="46.88632" lon="-1.89339">
        <ele>12</ele>
        <time>2018-03-09T09:55:36Z</time>
      </trkpt>
      <trkpt lat="46.88632" lon="-1.89353">
        <ele>12</ele>
        <time>2018-03-09T09:56:36Z</time>
      </trkpt>
      <trkpt lat="46.88631" lon="-1.89367">
        <ele>12</ele>
        <time>2018-03-09T09:57:36Z</time>
      </trkpt>
      <trkpt lat="46.88627" lon="-1.89424">
        <ele>12</ele>
        <time>2018-03-09T09:58:36Z</time>
      </trkpt>
      <trkpt lat="46.8862" lon="-1.89495">
        <ele>13</ele>
        <time>2018-03-09T09:59:36Z</time>
      </trkpt>
      <trkpt lat="46.88611" lon="-1.89597">
        <ele>12</ele>
        <time>2018-03-09T10:00:36Z</time>
      </trkpt>
      <trkpt lat="46.88593" lon="-1.89782">
        <ele>11</ele>
        <time>2018-03-09T10:01:36Z</time>
      </trkpt>
      <trkpt lat="46.88586" lon="-1.89856">
        <ele>11</ele>
        <time>2018-03-09T10:02:36Z</time>
      </trkpt>
      <trkpt lat="46.88584" lon="-1.89885">
        <ele>12</ele>
        <time>2018-03-09T10:03:36Z</time>
      </trkpt>
      <trkpt lat="46.88583" lon="-1.899">
        <ele>12</ele>
        <time>2018-03-09T10:04:36Z</time>
      </trkpt>
      <trkpt lat="46.88582" lon="-1.89915">
        <ele>12</ele>
        <time>2018-03-09T10:05:36Z</time>
      </trkpt>
      <trkpt lat="46.88582" lon="-1.89931">
        <ele>12</ele>
        <time>2018-03-09T10:06:36Z</time>
      </trkpt>
      <trkpt lat="46.88581" lon="-1.89958">
        <ele>12</ele>
        <time>2018-03-09T10:07:36Z</time>
      </trkpt>
      <trkpt lat="46.88581" lon="-1.89999">
        <ele>13</ele>
        <time>2018-03-09T10:08:36Z</time>
      </trkpt>
      <trkpt lat="46.88583" lon="-1.90088">
        <ele>11</ele>
        <time>2018-03-09T10:09:36Z</time>
      </trkpt>
      <trkpt lat="46.88585" lon="-1.90164">
        <ele>11</ele>
        <time>2018-03-09T10:10:36Z</time>
      </trkpt>
      <trkpt lat="46.88585" lon="-1.90203">
        <ele>11</ele>
        <time>2018-03-09T10:11:36Z</time>
      </trkpt>
      <trkpt lat="46.88585" lon="-1.90222">
        <ele>12</ele>
        <time>2018-03-09T10:12:36Z</time>
      </trkpt>
      <trkpt lat="46.88585" lon="-1.90247">
        <ele>12</ele>
        <time>2018-03-09T10:13:36Z</time>
      </trkpt>
      <trkpt lat="46.88584" lon="-1.90267">
        <ele>12</ele>
        <time>2018-03-09T10:14:36Z</time>
      </trkpt>
      <trkpt lat="46.88583" lon="-1.90298">
        <ele>12</ele>
        <time>2018-03-09T10:15:36Z</time>
      </trkpt>
      <trkpt lat="46.8858" lon="-1.90344">
        <ele>12</ele>
        <time>2018-03-09T10:16:36Z</time>
      </trkpt>
      <trkpt lat="46.88577" lon="-1.9041">
        <ele>13</ele>
        <time>2018-03-09T10:17:36Z</time>
      </trkpt>
      <trkpt lat="46.88575" lon="-1.90435">
        <ele>13</ele>
        <time>2018-03-09T10:18:36Z</time>
      </trkpt>
      <trkpt lat="46.88569" lon="-1.90529">
        <ele>13</ele>
        <time>2018-03-09T10:19:36Z</time>
      </trkpt>
      <trkpt lat="46.88565" lon="-1.90607">
        <ele>14</ele>
        <time>2018-03-09T10:20:36Z</time>
      </trkpt>
      <trkpt lat="46.88562" lon="-1.90658">
        <ele>15</ele>
        <time>2018-03-09T10:21:36Z</time>
      </trkpt>
      <trkpt lat="46.88559" lon="-1.90716">
        <ele>14</ele>
        <time>2018-03-09T10:22:36Z</time>
      </trkpt>
      <trkpt lat="46.88554" lon="-1.90787">
        <ele>14</ele>
        <time>2018-03-09T10:23:36Z</time>
      </trkpt>
      <trkpt lat="46.88551" lon="-1.90852">
        <ele>13</ele>
        <time>2018-03-09T10:24:36Z</time>
      </trkpt>
      <trkpt lat="46.88546" lon="-1.90913">
        <ele>13</ele>
        <time>2018-03-09T10:25:36Z</time>
      </trkpt>
      <trkpt lat="46.88544" lon="-1.90943">
        <ele>14</ele>
        <time>2018-03-09T10:26:36Z</time>
      </trkpt>
      <trkpt lat="46.88539" lon="-1.90986">
        <ele>14</ele>
        <time>2018-03-09T10:27:36Z</time>
      </trkpt>
      <trkpt lat="46.88536" lon="-1.91005">
        <ele>15</ele>
        <time>2018-03-09T10:28:36Z</time>
      </trkpt>
      <trkpt lat="46.88532" lon="-1.91027">
        <ele>15</ele>
        <time>2018-03-09T10:29:36Z</time>
      </trkpt>
      <trkpt lat="46.88525" lon="-1.91068">
        <ele>15</ele>
        <time>2018-03-09T10:30:36Z</time>
      </trkpt>
      <trkpt lat="46.88514" lon="-1.91112">
        <ele>15</ele>
        <time>2018-03-09T10:31:36Z</time>
      </trkpt>
      <trkpt lat="46.88504" lon="-1.91147">
        <ele>15</ele>
        <time>2018-03-09T10:32:36Z</time>
      </trkpt>
      <trkpt lat="46.88489" lon="-1.91206">
        <ele>15</ele>
        <time>2018-03-09T10:33:36Z</time>
      </trkpt>
      <trkpt lat="46.88477" lon="-1.91248">
        <ele>16</ele>
        <time>2018-03-09T10:34:36Z</time>
      </trkpt>
      <trkpt lat="46.88474" lon="-1.91262">
        <ele>16</ele>
        <time>2018-03-09T10:35:36Z</time>
      </trkpt>
      <trkpt lat="46.88473" lon="-1.91265">
        <ele>16</ele>
        <time>2018-03-09T10:36:36Z</time>
      </trkpt>
      <trkpt lat="46.88461" lon="-1.91312">
        <ele>16</ele>
        <time>2018-03-09T10:37:36Z</time>
      </trkpt>
      <trkpt lat="46.88457" lon="-1.91334">
        <ele>16</ele>
        <time>2018-03-09T10:38:36Z</time>
      </trkpt>
      <trkpt lat="46.88453" lon="-1.91356">
        <ele>15</ele>
        <time>2018-03-09T10:39:36Z</time>
      </trkpt>
      <trkpt lat="46.8845" lon="-1.91377">
        <ele>15</ele>
        <time>2018-03-09T10:40:36Z</time>
      </trkpt>
      <trkpt lat="46.88447" lon="-1.91396">
        <ele>15</ele>
        <time>2018-03-09T10:41:36Z</time>
      </trkpt>
      <trkpt lat="46.88445" lon="-1.91417">
        <ele>14</ele>
        <time>2018-03-09T10:42:36Z</time>
      </trkpt>
      <trkpt lat="46.88444" lon="-1.91441">
        <ele>14</ele>
        <time>2018-03-09T10:43:36Z</time>
      </trkpt>
      <trkpt lat="46.88441" lon="-1.91484">
        <ele>15</ele>
        <time>2018-03-09T10:44:36Z</time>
      </trkpt>
      <trkpt lat="46.88438" lon="-1.91555">
        <ele>15</ele>
        <time>2018-03-09T10:45:36Z</time>
      </trkpt>
      <trkpt lat="46.88435" lon="-1.91622">
        <ele>15</ele>
        <time>2018-03-09T10:46:36Z</time>
      </trkpt>
      <trkpt lat="46.88431" lon="-1.917">
        <ele>15</ele>
        <time>2018-03-09T10:47:36Z</time>
      </trkpt>
      <trkpt lat="46.88425" lon="-1.91795">
        <ele>15</ele>
        <time>2018-03-09T10:48:36Z</time>
      </trkpt>
      <trkpt lat="46.88422" lon="-1.91848">
        <ele>15</ele>
        <time>2018-03-09T10:49:36Z</time>
      </trkpt>
      <trkpt lat="46.88421" lon="-1.91877">
        <ele>14</ele>
        <time>2018-03-09T10:50:36Z</time>
      </trkpt>
      <trkpt lat="46.8842" lon="-1.91902">
        <ele>14</ele>
        <time>2018-03-09T10:51:36Z</time>
      </trkpt>
      <trkpt lat="46.88419" lon="-1.91922">
        <ele>14</ele>
        <time>2018-03-09T10:52:36Z</time>
      </trkpt>
      <trkpt lat="46.8842" lon="-1.91942">
        <ele>14</ele>
        <time>2018-03-09T10:53:36Z</time>
      </trkpt>
      <trkpt lat="46.8842" lon="-1.91962">
        <ele>15</ele>
        <time>2018-03-09T10:54:36Z</time>
      </trkpt>
      <trkpt lat="46.88421" lon="-1.9198">
        <ele>15</ele>
        <time>2018-03-09T10:55:36Z</time>
      </trkpt>
      <trkpt lat="46.88423" lon="-1.92005">
        <ele>15</ele>
        <time>2018-03-09T10:56:36Z</time>
      </trkpt>
      <trkpt lat="46.88429" lon="-1.92061">
        <ele>15</ele>
        <time>2018-03-09T10:57:36Z</time>
      </trkpt>
      <trkpt lat="46.88436" lon="-1.92136">
        <ele>15</ele>
        <time>2018-03-09T10:58:36Z</time>
      </trkpt>
      <trkpt lat="46.88449" lon="-1.92242">
        <ele>14</ele>
        <time>2018-03-09T10:59:36Z</time>
      </trkpt>
      <trkpt lat="46.8846" lon="-1.92342">
        <ele>14</ele>
        <time>2018-03-09T11:00:36Z</time>
      </trkpt>
      <trkpt lat="46.88475" lon="-1.9247">
        <ele>15</ele>
        <time>2018-03-09T11:01:36Z</time>
      </trkpt>
      <trkpt lat="46.88485" lon="-1.92559">
        <ele>15</ele>
        <time>2018-03-09T11:02:36Z</time>
      </trkpt>
      <trkpt lat="46.88487" lon="-1.92581">
        <ele>15</ele>
        <time>2018-03-09T11:03:36Z</time>
      </trkpt>
      <trkpt lat="46.88489" lon="-1.92608">
        <ele>15</ele>
        <time>2018-03-09T11:04:36Z</time>
      </trkpt>
      <trkpt lat="46.8849" lon="-1.9263">
        <ele>15</ele>
        <time>2018-03-09T11:05:36Z</time>
      </trkpt>
      <trkpt lat="46.8849" lon="-1.92652">
        <ele>15</ele>
        <time>2018-03-09T11:06:36Z</time>
      </trkpt>
      <trkpt lat="46.88489" lon="-1.92673">
        <ele>15</ele>
        <time>2018-03-09T11:07:36Z</time>
      </trkpt>
      <trkpt lat="46.88488" lon="-1.92697">
        <ele>15</ele>
        <time>2018-03-09T11:08:36Z</time>
      </trkpt>
      <trkpt lat="46.88485" lon="-1.92723">
        <ele>15</ele>
        <time>2018-03-09T11:09:36Z</time>
      </trkpt>
      <trkpt lat="46.8848" lon="-1.92755">
        <ele>15</ele>
        <time>2018-03-09T11:10:36Z</time>
      </trkpt>
      <trkpt lat="46.88469" lon="-1.92822">
        <ele>14</ele>
        <time>2018-03-09T11:11:36Z</time>
      </trkpt>
      <trkpt lat="46.8846" lon="-1.92871">
        <ele>14</ele>
        <time>2018-03-09T11:12:36Z</time>
      </trkpt>
      <trkpt lat="46.88453" lon="-1.92899">
        <ele>14</ele>
        <time>2018-03-09T11:13:36Z</time>
      </trkpt>
      <trkpt lat="46.88442" lon="-1.92949">
        <ele>14</ele>
        <time>2018-03-09T11:14:36Z</time>
      </trkpt>
      <trkpt lat="46.88426" lon="-1.93024">
        <ele>13</ele>
        <time>2018-03-09T11:15:36Z</time>
      </trkpt>
      <trkpt lat="46.88412" lon="-1.93086">
        <ele>12</ele>
        <time>2018-03-09T11:16:36Z</time>
      </trkpt>
      <trkpt lat="46.88406" lon="-1.9311">
        <ele>13</ele>
        <time>2018-03-09T11:17:36Z</time>
      </trkpt>
      <trkpt lat="46.88404" lon="-1.93121">
        <ele>13</ele>
        <time>2018-03-09T11:18:36Z</time>
      </trkpt>
      <trkpt lat="46.88402" lon="-1.9313">
        <ele>13</ele>
        <time>2018-03-09T11:19:36Z</time>
      </trkpt>
      <trkpt lat="46.88402" lon="-1.9313">
        <ele>13</ele>
        <time>2018-03-09T11:20:36Z</time>
      </trkpt>
      <trkpt lat="46.88393" lon="-1.93137">
        <ele>13</ele>
        <time>2018-03-09T11:21:36Z</time>
      </trkpt>
      <trkpt lat="46.88382" lon="-1.93146">
        <ele>14</ele>
        <time>2018-03-09T11:22:36Z</time>
      </trkpt>
      <trkpt lat="46.8837" lon="-1.93155">
        <ele>14</ele>
        <time>2018-03-09T11:23:36Z</time>
      </trkpt>
      <trkpt lat="46.8836" lon="-1.93161">
        <ele>14</ele>
        <time>2018-03-09T11:24:36Z</time>
      </trkpt>
      <trkpt lat="46.88345" lon="-1.93168">
        <ele>15</ele>
        <time>2018-03-09T11:25:36Z</time>
      </trkpt>
      <trkpt lat="46.88315" lon="-1.93181">
        <ele>15</ele>
        <time>2018-03-09T11:26:36Z</time>
      </trkpt>
      <trkpt lat="46.88297" lon="-1.93189">
        <ele>15</ele>
        <time>2018-03-09T11:27:36Z</time>
      </trkpt>
      <trkpt lat="46.88224" lon="-1.93218">
        <ele>14</ele>
        <time>2018-03-09T11:28:36Z</time>
      </trkpt>
      <trkpt lat="46.88193" lon="-1.9323">
        <ele>14</ele>
        <time>2018-03-09T11:29:36Z</time>
      </trkpt>
      <trkpt lat="46.88119" lon="-1.93261">
        <ele>14</ele>
        <time>2018-03-09T11:30:36Z</time>
      </trkpt>
      <trkpt lat="46.88008" lon="-1.93306">
        <ele>12</ele>
        <time>2018-03-09T11:31:36Z</time>
      </trkpt>
      <trkpt lat="46.88008" lon="-1.93306">
        <ele>12</ele>
        <time>2018-03-09T11:32:36Z</time>
      </trkpt>
      <trkpt lat="46.88017" lon="-1.93337">
        <ele>12</ele>
        <time>2018-03-09T11:33:36Z</time>
      </trkpt>
      <trkpt lat="46.88027" lon="-1.93369">
        <ele>12</ele>
        <time>2018-03-09T11:34:36Z</time>
      </trkpt>
      <trkpt lat="46.88036" lon="-1.93397">
        <ele>12</ele>
        <time>2018-03-09T11:35:36Z</time>
      </trkpt>
      <trkpt lat="46.88056" lon="-1.93453">
        <ele>12</ele>
        <time>2018-03-09T11:36:36Z</time>
      </trkpt>
      <trkpt lat="46.88064" lon="-1.93478">
        <ele>11</ele>
        <time>2018-03-09T11:37:36Z</time>
      </trkpt>
      <trkpt lat="46.88069" lon="-1.93498">
        <ele>11</ele>
        <time>2018-03-09T11:38:36Z</time>
      </trkpt>
      <trkpt lat="46.88087" lon="-1.93568">
        <ele>13</ele>
        <time>2018-03-09T11:39:36Z</time>
      </trkpt>
      <trkpt lat="46.88104" lon="-1.93637">
        <ele>13</ele>
        <time>2018-03-09T11:40:36Z</time>
      </trkpt>
      <trkpt lat="46.88117" lon="-1.93686">
        <ele>13</ele>
        <time>2018-03-09T11:41:36Z</time>
      </trkpt>
      <trkpt lat="46.88141" lon="-1.93769">
        <ele>12</ele>
        <time>2018-03-09T11:42:36Z</time>
      </trkpt>
      <trkpt lat="46.88158" lon="-1.93824">
        <ele>11</ele>
        <time>2018-03-09T11:43:36Z</time>
      </trkpt>
      <trkpt lat="46.88163" lon="-1.93853">
        <ele>11</ele>
        <time>2018-03-09T11:44:36Z</time>
      </trkpt>
      <trkpt lat="46.88167" lon="-1.9388">
        <ele>11</ele>
        <time>2018-03-09T11:45:36Z</time>
      </trkpt>
      <trkpt lat="46.88168" lon="-1.93893">
        <ele>11</ele>
        <time>2018-03-09T11:46:36Z</time>
      </trkpt>
      <trkpt lat="46.88168" lon="-1.93918">
        <ele>11</ele>
        <time>2018-03-09T11:47:36Z</time>
      </trkpt>
      <trkpt lat="46.88169" lon="-1.93959">
        <ele>11</ele>
        <time>2018-03-09T11:48:36Z</time>
      </trkpt>
      <trkpt lat="46.8817" lon="-1.93985">
        <ele>11</ele>
        <time>2018-03-09T11:49:36Z</time>
      </trkpt>
      <trkpt lat="46.88173" lon="-1.94118">
        <ele>11</ele>
        <time>2018-03-09T11:50:36Z</time>
      </trkpt>
      <trkpt lat="46.88174" lon="-1.94174">
        <ele>11</ele>
        <time>2018-03-09T11:51:36Z</time>
      </trkpt>
      <trkpt lat="46.88173" lon="-1.94202">
        <ele>11</ele>
        <time>2018-03-09T11:52:36Z</time>
      </trkpt>
      <trkpt lat="46.88173" lon="-1.94227">
        <ele>10</ele>
        <time>2018-03-09T11:53:36Z</time>
      </trkpt>
      <trkpt lat="46.88171" lon="-1.94259">
        <ele>10</ele>
        <time>2018-03-09T11:54:36Z</time>
      </trkpt>
      <trkpt lat="46.88166" lon="-1.94334">
        <ele>10</ele>
        <time>2018-03-09T11:55:36Z</time>
      </trkpt>
      <trkpt lat="46.8816" lon="-1.9442">
        <ele>9</ele>
        <time>2018-03-09T11:56:36Z</time>
      </trkpt>
      <trkpt lat="46.8816" lon="-1.9442">
        <ele>9</ele>
        <time>2018-03-09T11:57:36Z</time>
      </trkpt>
      <trkpt lat="46.88142" lon="-1.94418">
        <ele>9</ele>
        <time>2018-03-09T11:58:36Z</time>
      </trkpt>
      <trkpt lat="46.88128" lon="-1.94417">
        <ele>9</ele>
        <time>2018-03-09T11:59:36Z</time>
      </trkpt>
      <trkpt lat="46.88112" lon="-1.94417">
        <ele>9</ele>
        <time>2018-03-09T12:00:36Z</time>
      </trkpt>
      <trkpt lat="46.88099" lon="-1.94417">
        <ele>9</ele>
        <time>2018-03-09T12:01:36Z</time>
      </trkpt>
      <trkpt lat="46.88083" lon="-1.94418">
        <ele>9</ele>
        <time>2018-03-09T12:02:36Z</time>
      </trkpt>
      <trkpt lat="46.8807" lon="-1.94419">
        <ele>9</ele>
        <time>2018-03-09T12:03:36Z</time>
      </trkpt>
      <trkpt lat="46.88054" lon="-1.94421">
        <ele>9</ele>
        <time>2018-03-09T12:04:36Z</time>
      </trkpt>
      <trkpt lat="46.8804" lon="-1.94424">
        <ele>10</ele>
        <time>2018-03-09T12:05:36Z</time>
      </trkpt>
      <trkpt lat="46.88025" lon="-1.94428">
        <ele>10</ele>
        <time>2018-03-09T12:06:36Z</time>
      </trkpt>
      <trkpt lat="46.88009" lon="-1.94434">
        <ele>10</ele>
        <time>2018-03-09T12:07:36Z</time>
      </trkpt>
      <trkpt lat="46.88" lon="-1.94438">
        <ele>10</ele>
        <time>2018-03-09T12:08:36Z</time>
      </trkpt>
      <trkpt lat="46.87981" lon="-1.94447">
        <ele>11</ele>
        <time>2018-03-09T12:09:36Z</time>
      </trkpt>
      <trkpt lat="46.87966" lon="-1.94456">
        <ele>11</ele>
        <time>2018-03-09T12:10:36Z</time>
      </trkpt>
      <trkpt lat="46.87943" lon="-1.94469">
        <ele>12</ele>
        <time>2018-03-09T12:11:36Z</time>
      </trkpt>
      <trkpt lat="46.87913" lon="-1.94487">
        <ele>12</ele>
        <time>2018-03-09T12:12:36Z</time>
      </trkpt>
      <trkpt lat="46.87896" lon="-1.94497">
        <ele>12</ele>
        <time>2018-03-09T12:13:36Z</time>
      </trkpt>
      <trkpt lat="46.87881" lon="-1.94509">
        <ele>12</ele>
        <time>2018-03-09T12:14:36Z</time>
      </trkpt>
      <trkpt lat="46.87843" lon="-1.94541">
        <ele>12</ele>
        <time>2018-03-09T12:15:36Z</time>
      </trkpt>
      <trkpt lat="46.87843" lon="-1.94541">
        <ele>12</ele>
        <time>2018-03-09T12:16:36Z</time>
      </trkpt>
      <trkpt lat="46.87813" lon="-1.94561">
        <ele>12</ele>
        <time>2018-03-09T12:17:36Z</time>
      </trkpt>
      <trkpt lat="46.87795" lon="-1.94573">
        <ele>12</ele>
        <time>2018-03-09T12:18:36Z</time>
      </trkpt>
      <trkpt lat="46.87788" lon="-1.94578">
        <ele>12</ele>
        <time>2018-03-09T12:19:36Z</time>
      </trkpt>
      <trkpt lat="46.87773" lon="-1.94586">
        <ele>12</ele>
        <time>2018-03-09T12:20:36Z</time>
      </trkpt>
      <trkpt lat="46.87761" lon="-1.94593">
        <ele>12</ele>
        <time>2018-03-09T12:21:36Z</time>
      </trkpt>
      <trkpt lat="46.87746" lon="-1.946">
        <ele>12</ele>
        <time>2018-03-09T12:22:36Z</time>
      </trkpt>
      <trkpt lat="46.87729" lon="-1.94606">
        <ele>12</ele>
        <time>2018-03-09T12:23:36Z</time>
      </trkpt>
      <trkpt lat="46.87689" lon="-1.94618">
        <ele>13</ele>
        <time>2018-03-09T12:24:36Z</time>
      </trkpt>
      <trkpt lat="46.87672" lon="-1.94623">
        <ele>14</ele>
        <time>2018-03-09T12:25:36Z</time>
      </trkpt>
      <trkpt lat="46.8765" lon="-1.94631">
        <ele>14</ele>
        <time>2018-03-09T12:26:36Z</time>
      </trkpt>
      <trkpt lat="46.87617" lon="-1.94645">
        <ele>15</ele>
        <time>2018-03-09T12:27:36Z</time>
      </trkpt>
      <trkpt lat="46.87578" lon="-1.94663">
        <ele>16</ele>
        <time>2018-03-09T12:28:36Z</time>
      </trkpt>
      <trkpt lat="46.87558" lon="-1.94671">
        <ele>16</ele>
        <time>2018-03-09T12:29:36Z</time>
      </trkpt>
      <trkpt lat="46.87547" lon="-1.94674">
        <ele>16</ele>
        <time>2018-03-09T12:30:36Z</time>
      </trkpt>
      <trkpt lat="46.87535" lon="-1.94678">
        <ele>15</ele>
        <time>2018-03-09T12:31:36Z</time>
      </trkpt>
      <trkpt lat="46.87529" lon="-1.94679">
        <ele>15</ele>
        <time>2018-03-09T12:32:36Z</time>
      </trkpt>
      <trkpt lat="46.87529" lon="-1.94679">
        <ele>15</ele>
        <time>2018-03-09T12:33:36Z</time>
      </trkpt>
      <trkpt lat="46.8752" lon="-1.94681">
        <ele>15</ele>
        <time>2018-03-09T12:34:36Z</time>
      </trkpt>
      <trkpt lat="46.87505" lon="-1.94685">
        <ele>15</ele>
        <time>2018-03-09T12:35:36Z</time>
      </trkpt>
      <trkpt lat="46.87468" lon="-1.94693">
        <ele>15</ele>
        <time>2018-03-09T12:36:36Z</time>
      </trkpt>
      <trkpt lat="46.87445" lon="-1.94698">
        <ele>15</ele>
        <time>2018-03-09T12:37:36Z</time>
      </trkpt>
      <trkpt lat="46.87445" lon="-1.94698">
        <ele>15</ele>
        <time>2018-03-09T12:38:36Z</time>
      </trkpt>
      <trkpt lat="46.87433" lon="-1.94702">
        <ele>14</ele>
        <time>2018-03-09T12:39:36Z</time>
      </trkpt>
      <trkpt lat="46.87417" lon="-1.9471">
        <ele>14</ele>
        <time>2018-03-09T12:40:36Z</time>
      </trkpt>
      <trkpt lat="46.87375" lon="-1.94729">
        <ele>13</ele>
        <time>2018-03-09T12:41:36Z</time>
      </trkpt>
      <trkpt lat="46.87358" lon="-1.94738">
        <ele>12</ele>
        <time>2018-03-09T12:42:36Z</time>
      </trkpt>
      <trkpt lat="46.87305" lon="-1.94767">
        <ele>11</ele>
        <time>2018-03-09T12:43:36Z</time>
      </trkpt>
      <trkpt lat="46.87233" lon="-1.94806">
        <ele>10</ele>
        <time>2018-03-09T12:44:36Z</time>
      </trkpt>
      <trkpt lat="46.87172" lon="-1.94839">
        <ele>10</ele>
        <time>2018-03-09T12:45:36Z</time>
      </trkpt>
      <trkpt lat="46.87133" lon="-1.9486">
        <ele>9</ele>
        <time>2018-03-09T12:46:36Z</time>
      </trkpt>
      <trkpt lat="46.87103" lon="-1.94875">
        <ele>8</ele>
        <time>2018-03-09T12:47:36Z</time>
      </trkpt>
      <trkpt lat="46.87079" lon="-1.94886">
        <ele>8</ele>
        <time>2018-03-09T12:48:36Z</time>
      </trkpt>
      <trkpt lat="46.87" lon="-1.94919">
        <ele>8</ele>
        <time>2018-03-09T12:49:36Z</time>
      </trkpt>
      <trkpt lat="46.86927" lon="-1.9495">
        <ele>6</ele>
        <time>2018-03-09T12:50:36Z</time>
      </trkpt>
      <trkpt lat="46.86897" lon="-1.94963">
        <ele>5</ele>
        <time>2018-03-09T12:51:36Z</time>
      </trkpt>
      <trkpt lat="46.86878" lon="-1.9497">
        <ele>5</ele>
        <time>2018-03-09T12:52:36Z</time>
      </trkpt>
      <trkpt lat="46.86867" lon="-1.94974">
        <ele>5</ele>
        <time>2018-03-09T12:53:36Z</time>
      </trkpt>
      <trkpt lat="46.86856" lon="-1.94977">
        <ele>5</ele>
        <time>2018-03-09T12:54:36Z</time>
      </trkpt>
      <trkpt lat="46.86845" lon="-1.94979">
        <ele>5</ele>
        <time>2018-03-09T12:55:36Z</time>
      </trkpt>
      <trkpt lat="46.86834" lon="-1.94981">
        <ele>5</ele>
        <time>2018-03-09T12:56:36Z</time>
      </trkpt>
      <trkpt lat="46.86823" lon="-1.94982">
        <ele>5</ele>
        <time>2018-03-09T12:57:36Z</time>
      </trkpt>
      <trkpt lat="46.868" lon="-1.94984">
        <ele>5</ele>
        <time>2018-03-09T12:58:36Z</time>
      </trkpt>
      <trkpt lat="46.86793" lon="-1.94987">
        <ele>5</ele>
        <time>2018-03-09T12:59:36Z</time>
      </trkpt>
      <trkpt lat="46.86793" lon="-1.94988">
        <ele>5</ele>
        <time>2018-03-09T13:00:36Z</time>
      </trkpt>
      <trkpt lat="46.86793" lon="-1.94989">
        <ele>5</ele>
        <time>2018-03-09T13:01:36Z</time>
      </trkpt>
      <trkpt lat="46.86793" lon="-1.9499">
        <ele>5</ele>
        <time>2018-03-09T13:02:36Z</time>
      </trkpt>
      <trkpt lat="46.86793" lon="-1.94991">
        <ele>5</ele>
        <time>2018-03-09T13:03:36Z</time>
      </trkpt>
      <trkpt lat="46.86793" lon="-1.94992">
        <ele>5</ele>
        <time>2018-03-09T13:04:36Z</time>
      </trkpt>
      <trkpt lat="46.86793" lon="-1.94993">
        <ele>5</ele>
        <time>2018-03-09T13:05:36Z</time>
      </trkpt>
      <trkpt lat="46.86793" lon="-1.94994">
        <ele>5</ele>
        <time>2018-03-09T13:06:36Z</time>
      </trkpt>
      <trkpt lat="46.86792" lon="-1.94995">
        <ele>5</ele>
        <time>2018-03-09T13:07:36Z</time>
      </trkpt>
      <trkpt lat="46.86792" lon="-1.94996">
        <ele>5</ele>
        <time>2018-03-09T13:08:36Z</time>
      </trkpt>
      <trkpt lat="46.86792" lon="-1.94997">
        <ele>5</ele>
        <time>2018-03-09T13:09:36Z</time>
      </trkpt>
      <trkpt lat="46.86791" lon="-1.94998">
        <ele>5</ele>
        <time>2018-03-09T13:10:36Z</time>
      </trkpt>
      <trkpt lat="46.86791" lon="-1.94999">
        <ele>5</ele>
        <time>2018-03-09T13:11:36Z</time>
      </trkpt>
      <trkpt lat="46.86791" lon="-1.95">
        <ele>5</ele>
        <time>2018-03-09T13:12:36Z</time>
      </trkpt>
      <trkpt lat="46.8679" lon="-1.95">
        <ele>5</ele>
        <time>2018-03-09T13:13:36Z</time>
      </trkpt>
      <trkpt lat="46.8679" lon="-1.95001">
        <ele>5</ele>
        <time>2018-03-09T13:14:36Z</time>
      </trkpt>
      <trkpt lat="46.86789" lon="-1.95001">
        <ele>5</ele>
        <time>2018-03-09T13:15:36Z</time>
      </trkpt>
      <trkpt lat="46.86789" lon="-1.95002">
        <ele>5</ele>
        <time>2018-03-09T13:16:36Z</time>
      </trkpt>
      <trkpt lat="46.86788" lon="-1.95003">
        <ele>5</ele>
        <time>2018-03-09T13:17:36Z</time>
      </trkpt>
      <trkpt lat="46.86787" lon="-1.95003">
        <ele>5</ele>
        <time>2018-03-09T13:18:36Z</time>
      </trkpt>
      <trkpt lat="46.86787" lon="-1.95004">
        <ele>5</ele>
        <time>2018-03-09T13:19:36Z</time>
      </trkpt>
      <trkpt lat="46.86786" lon="-1.95004">
        <ele>5</ele>
        <time>2018-03-09T13:20:36Z</time>
      </trkpt>
      <trkpt lat="46.86785" lon="-1.95004">
        <ele>5</ele>
        <time>2018-03-09T13:21:36Z</time>
      </trkpt>
      <trkpt lat="46.86785" lon="-1.95005">
        <ele>5</ele>
        <time>2018-03-09T13:22:36Z</time>
      </trkpt>
      <trkpt lat="46.86784" lon="-1.95005">
        <ele>5</ele>
        <time>2018-03-09T13:23:36Z</time>
      </trkpt>
      <trkpt lat="46.86783" lon="-1.95005">
        <ele>5</ele>
        <time>2018-03-09T13:24:36Z</time>
      </trkpt>
      <trkpt lat="46.86782" lon="-1.95005">
        <ele>5</ele>
        <time>2018-03-09T13:25:36Z</time>
      </trkpt>
      <trkpt lat="46.86781" lon="-1.95005">
        <ele>5</ele>
        <time>2018-03-09T13:26:36Z</time>
      </trkpt>
      <trkpt lat="46.8678" lon="-1.95005">
        <ele>5</ele>
        <time>2018-03-09T13:27:36Z</time>
      </trkpt>
      <trkpt lat="46.8678" lon="-1.95004">
        <ele>5</ele>
        <time>2018-03-09T13:28:36Z</time>
      </trkpt>
      <trkpt lat="46.86779" lon="-1.95004">
        <ele>5</ele>
        <time>2018-03-09T13:29:36Z</time>
      </trkpt>
      <trkpt lat="46.86778" lon="-1.95004">
        <ele>5</ele>
        <time>2018-03-09T13:30:36Z</time>
      </trkpt>
      <trkpt lat="46.86778" lon="-1.95003">
        <ele>5</ele>
        <time>2018-03-09T13:31:36Z</time>
      </trkpt>
      <trkpt lat="46.86777" lon="-1.95003">
        <ele>5</ele>
        <time>2018-03-09T13:32:36Z</time>
      </trkpt>
      <trkpt lat="46.86777" lon="-1.95002">
        <ele>5</ele>
        <time>2018-03-09T13:33:36Z</time>
      </trkpt>
      <trkpt lat="46.86776" lon="-1.95002">
        <ele>5</ele>
        <time>2018-03-09T13:34:36Z</time>
      </trkpt>
      <trkpt lat="46.86776" lon="-1.95001">
        <ele>5</ele>
        <time>2018-03-09T13:35:36Z</time>
      </trkpt>
      <trkpt lat="46.86775" lon="-1.95">
        <ele>5</ele>
        <time>2018-03-09T13:36:36Z</time>
      </trkpt>
      <trkpt lat="46.86775" lon="-1.94999">
        <ele>5</ele>
        <time>2018-03-09T13:37:36Z</time>
      </trkpt>
      <trkpt lat="46.86774" lon="-1.94999">
        <ele>5</ele>
        <time>2018-03-09T13:38:36Z</time>
      </trkpt>
      <trkpt lat="46.86774" lon="-1.94998">
        <ele>5</ele>
        <time>2018-03-09T13:39:36Z</time>
      </trkpt>
      <trkpt lat="46.86774" lon="-1.94997">
        <ele>5</ele>
        <time>2018-03-09T13:40:36Z</time>
      </trkpt>
      <trkpt lat="46.86773" lon="-1.94997">
        <ele>5</ele>
        <time>2018-03-09T13:41:36Z</time>
      </trkpt>
      <trkpt lat="46.86773" lon="-1.94996">
        <ele>5</ele>
        <time>2018-03-09T13:42:36Z</time>
      </trkpt>
      <trkpt lat="46.86773" lon="-1.94995">
        <ele>5</ele>
        <time>2018-03-09T13:43:36Z</time>
      </trkpt>
      <trkpt lat="46.86773" lon="-1.94994">
        <ele>5</ele>
        <time>2018-03-09T13:44:36Z</time>
      </trkpt>
      <trkpt lat="46.86773" lon="-1.94993">
        <ele>5</ele>
        <time>2018-03-09T13:45:36Z</time>
      </trkpt>
      <trkpt lat="46.86772" lon="-1.94992">
        <ele>5</ele>
        <time>2018-03-09T13:46:36Z</time>
      </trkpt>
      <trkpt lat="46.86772" lon="-1.94991">
        <ele>5</ele>
        <time>2018-03-09T13:47:36Z</time>
      </trkpt>
      <trkpt lat="46.86772" lon="-1.9499">
        <ele>5</ele>
        <time>2018-03-09T13:48:36Z</time>
      </trkpt>
      <trkpt lat="46.86772" lon="-1.94989">
        <ele>5</ele>
        <time>2018-03-09T13:49:36Z</time>
      </trkpt>
      <trkpt lat="46.86765" lon="-1.94989">
        <ele>5</ele>
        <time>2018-03-09T13:50:36Z</time>
      </trkpt>
      <trkpt lat="46.86756" lon="-1.9499">
        <ele>5</ele>
        <time>2018-03-09T13:51:36Z</time>
      </trkpt>
      <trkpt lat="46.86747" lon="-1.94991">
        <ele>5</ele>
        <time>2018-03-09T13:52:36Z</time>
      </trkpt>
      <trkpt lat="46.86738" lon="-1.94993">
        <ele>5</ele>
        <time>2018-03-09T13:53:36Z</time>
      </trkpt>
      <trkpt lat="46.86719" lon="-1.94998">
        <ele>5</ele>
        <time>2018-03-09T13:54:36Z</time>
      </trkpt>
      <trkpt lat="46.86702" lon="-1.95006">
        <ele>4</ele>
        <time>2018-03-09T13:55:36Z</time>
      </trkpt>
      <trkpt lat="46.86682" lon="-1.95014">
        <ele>4</ele>
        <time>2018-03-09T13:56:36Z</time>
      </trkpt>
      <trkpt lat="46.86658" lon="-1.95025">
        <ele>4</ele>
        <time>2018-03-09T13:57:36Z</time>
      </trkpt>
      <trkpt lat="46.86633" lon="-1.95037">
        <ele>4</ele>
        <time>2018-03-09T13:58:36Z</time>
      </trkpt>
      <trkpt lat="46.86608" lon="-1.95047">
        <ele>4</ele>
        <time>2018-03-09T13:59:36Z</time>
      </trkpt>
      <trkpt lat="46.86584" lon="-1.95054">
        <ele>4</ele>
        <time>2018-03-09T14:00:36Z</time>
      </trkpt>
      <trkpt lat="46.86576" lon="-1.95057">
        <ele>4</ele>
        <time>2018-03-09T14:01:36Z</time>
      </trkpt>
      <trkpt lat="46.86567" lon="-1.95061">
        <ele>4</ele>
        <time>2018-03-09T14:02:36Z</time>
      </trkpt>
      <trkpt lat="46.86563" lon="-1.95062">
        <ele>4</ele>
        <time>2018-03-09T14:03:36Z</time>
      </trkpt>
      <trkpt lat="46.86555" lon="-1.95064">
        <ele>4</ele>
        <time>2018-03-09T14:04:36Z</time>
      </trkpt>
      <trkpt lat="46.86544" lon="-1.95068">
        <ele>3</ele>
        <time>2018-03-09T14:05:36Z</time>
      </trkpt>
      <trkpt lat="46.86543" lon="-1.95071">
        <ele>3</ele>
        <time>2018-03-09T14:06:36Z</time>
      </trkpt>
      <trkpt lat="46.86542" lon="-1.95073">
        <ele>3</ele>
        <time>2018-03-09T14:07:36Z</time>
      </trkpt>
      <trkpt lat="46.8654" lon="-1.95076">
        <ele>3</ele>
        <time>2018-03-09T14:08:36Z</time>
      </trkpt>
      <trkpt lat="46.86538" lon="-1.95077">
        <ele>3</ele>
        <time>2018-03-09T14:09:36Z</time>
      </trkpt>
      <trkpt lat="46.86535" lon="-1.95078">
        <ele>3</ele>
        <time>2018-03-09T14:10:36Z</time>
      </trkpt>
      <trkpt lat="46.86532" lon="-1.95078">
        <ele>3</ele>
        <time>2018-03-09T14:11:36Z</time>
      </trkpt>
      <trkpt lat="46.8653" lon="-1.95077">
        <ele>3</ele>
        <time>2018-03-09T14:12:36Z</time>
      </trkpt>
      <trkpt lat="46.86528" lon="-1.95075">
        <ele>3</ele>
        <time>2018-03-09T14:13:36Z</time>
      </trkpt>
      <trkpt lat="46.86527" lon="-1.95074">
        <ele>3</ele>
        <time>2018-03-09T14:14:36Z</time>
      </trkpt>
      <trkpt lat="46.86526" lon="-1.95072">
        <ele>3</ele>
        <time>2018-03-09T14:15:36Z</time>
      </trkpt>
      <trkpt lat="46.86525" lon="-1.9507">
        <ele>3</ele>
        <time>2018-03-09T14:16:36Z</time>
      </trkpt>
      <trkpt lat="46.86525" lon="-1.95069">
        <ele>3</ele>
        <time>2018-03-09T14:17:36Z</time>
      </trkpt>
      <trkpt lat="46.86514" lon="-1.95074">
        <ele>3</ele>
        <time>2018-03-09T14:18:36Z</time>
      </trkpt>
      <trkpt lat="46.86498" lon="-1.95084">
        <ele>3</ele>
        <time>2018-03-09T14:19:36Z</time>
      </trkpt>
      <trkpt lat="46.86491" lon="-1.95088">
        <ele>3</ele>
        <time>2018-03-09T14:20:36Z</time>
      </trkpt>
      <trkpt lat="46.8648" lon="-1.95091">
        <ele>3</ele>
        <time>2018-03-09T14:21:36Z</time>
      </trkpt>
      <trkpt lat="46.8647" lon="-1.95096">
        <ele>3</ele>
        <time>2018-03-09T14:22:36Z</time>
      </trkpt>
      <trkpt lat="46.86457" lon="-1.95102">
        <ele>3</ele>
        <time>2018-03-09T14:23:36Z</time>
      </trkpt>
      <trkpt lat="46.86422" lon="-1.9512">
        <ele>2</ele>
        <time>2018-03-09T14:24:36Z</time>
      </trkpt>
      <trkpt lat="46.86403" lon="-1.95129">
        <ele>2</ele>
        <time>2018-03-09T14:25:36Z</time>
      </trkpt>
      <trkpt lat="46.86389" lon="-1.95136">
        <ele>3</ele>
        <time>2018-03-09T14:26:36Z</time>
      </trkpt>
      <trkpt lat="46.86383" lon="-1.95138">
        <ele>3</ele>
        <time>2018-03-09T14:27:36Z</time>
      </trkpt>
      <trkpt lat="46.86377" lon="-1.95141">
        <ele>3</ele>
        <time>2018-03-09T14:28:36Z</time>
      </trkpt>
      <trkpt lat="46.86367" lon="-1.95144">
        <ele>3</ele>
        <time>2018-03-09T14:29:36Z</time>
      </trkpt>
      <trkpt lat="46.86357" lon="-1.95147">
        <ele>3</ele>
        <time>2018-03-09T14:30:36Z</time>
      </trkpt>
      <trkpt lat="46.86344" lon="-1.9515">
        <ele>3</ele>
        <time>2018-03-09T14:31:36Z</time>
      </trkpt>
      <trkpt lat="46.86319" lon="-1.95152">
        <ele>2</ele>
        <time>2018-03-09T14:32:36Z</time>
      </trkpt>
      <trkpt lat="46.86287" lon="-1.95157">
        <ele>2</ele>
        <time>2018-03-09T14:33:36Z</time>
      </trkpt>
      <trkpt lat="46.86264" lon="-1.95159">
        <ele>1</ele>
        <time>2018-03-09T14:34:36Z</time>
      </trkpt>
      <trkpt lat="46.86237" lon="-1.95163">
        <ele>1</ele>
        <time>2018-03-09T14:35:36Z</time>
      </trkpt>
      <trkpt lat="46.86199" lon="-1.95169">
        <ele>1</ele>
        <time>2018-03-09T14:36:36Z</time>
      </trkpt>
      <trkpt lat="46.86174" lon="-1.95172">
        <ele>1</ele>
        <time>2018-03-09T14:37:36Z</time>
      </trkpt>
      <trkpt lat="46.8616" lon="-1.95172">
        <ele>1</ele>
        <time>2018-03-09T14:38:36Z</time>
      </trkpt>
      <trkpt lat="46.86151" lon="-1.95171">
        <ele>1</ele>
        <time>2018-03-09T14:39:36Z</time>
      </trkpt>
      <trkpt lat="46.86141" lon="-1.9517">
        <ele>2</ele>
        <time>2018-03-09T14:40:36Z</time>
      </trkpt>
      <trkpt lat="46.86128" lon="-1.95168">
        <ele>2</ele>
        <time>2018-03-09T14:41:36Z</time>
      </trkpt>
      <trkpt lat="46.86113" lon="-1.95165">
        <ele>2</ele>
        <time>2018-03-09T14:42:36Z</time>
      </trkpt>
      <trkpt lat="46.86106" lon="-1.95164">
        <ele>2</ele>
        <time>2018-03-09T14:43:36Z</time>
      </trkpt>
      <trkpt lat="46.86098" lon="-1.95163">
        <ele>3</ele>
        <time>2018-03-09T14:44:36Z</time>
      </trkpt>
      <trkpt lat="46.86085" lon="-1.95162">
        <ele>3</ele>
        <time>2018-03-09T14:45:36Z</time>
      </trkpt>
      <trkpt lat="46.86076" lon="-1.95164">
        <ele>3</ele>
        <time>2018-03-09T14:46:36Z</time>
      </trkpt>
      <trkpt lat="46.86063" lon="-1.95169">
        <ele>4</ele>
        <time>2018-03-09T14:47:36Z</time>
      </trkpt>
      <trkpt lat="46.86054" lon="-1.95174">
        <ele>4</ele>
        <time>2018-03-09T14:48:36Z</time>
      </trkpt>
      <trkpt lat="46.8605" lon="-1.9518">
        <ele>4</ele>
        <time>2018-03-09T14:49:36Z</time>
      </trkpt>
      <trkpt lat="46.86046" lon="-1.9519">
        <ele>4</ele>
        <time>2018-03-09T14:50:36Z</time>
      </trkpt>
      <trkpt lat="46.86044" lon="-1.952">
        <ele>5</ele>
        <time>2018-03-09T14:51:36Z</time>
      </trkpt>
      <trkpt lat="46.86043" lon="-1.95211">
        <ele>5</ele>
        <time>2018-03-09T14:52:36Z</time>
      </trkpt>
      <trkpt lat="46.86041" lon="-1.9522">
        <ele>5</ele>
        <time>2018-03-09T14:53:36Z</time>
      </trkpt>
      <trkpt lat="46.86041" lon="-1.95248">
        <ele>5</ele>
        <time>2018-03-09T14:54:36Z</time>
      </trkpt>
      <trkpt lat="46.86043" lon="-1.95294">
        <ele>5</ele>
        <time>2018-03-09T14:55:36Z</time>
      </trkpt>
      <trkpt lat="46.86044" lon="-1.95308">
        <ele>5</ele>
        <time>2018-03-09T14:56:36Z</time>
      </trkpt>
      <trkpt lat="46.86044" lon="-1.95319">
        <ele>5</ele>
        <time>2018-03-09T14:57:36Z</time>
      </trkpt>
      <trkpt lat="46.86045" lon="-1.95366">
        <ele>4</ele>
        <time>2018-03-09T14:58:36Z</time>
      </trkpt>
      <trkpt lat="46.86045" lon="-1.95373">
        <ele>4</ele>
        <time>2018-03-09T14:59:36Z</time>
      </trkpt>
      <trkpt lat="46.86046" lon="-1.95426">
        <ele>4</ele>
        <time>2018-03-09T15:00:36Z</time>
      </trkpt>
      <trkpt lat="46.86047" lon="-1.95441">
        <ele>4</ele>
        <time>2018-03-09T15:01:36Z</time>
      </trkpt>
      <trkpt lat="46.86048" lon="-1.95485">
        <ele>4</ele>
        <time>2018-03-09T15:02:36Z</time>
      </trkpt>
      <trkpt lat="46.86048" lon="-1.95505">
        <ele>4</ele>
        <time>2018-03-09T15:03:36Z</time>
      </trkpt>
      <trkpt lat="46.86049" lon="-1.95515">
        <ele>4</ele>
        <time>2018-03-09T15:04:36Z</time>
      </trkpt>
      <trkpt lat="46.8605" lon="-1.95526">
        <ele>4</ele>
        <time>2018-03-09T15:05:36Z</time>
      </trkpt>
      <trkpt lat="46.86051" lon="-1.95537">
        <ele>4</ele>
        <time>2018-03-09T15:06:36Z</time>
      </trkpt>
      <trkpt lat="46.86052" lon="-1.95551">
        <ele>4</ele>
        <time>2018-03-09T15:07:36Z</time>
      </trkpt>
      <trkpt lat="46.86054" lon="-1.95565">
        <ele>5</ele>
        <time>2018-03-09T15:08:36Z</time>
      </trkpt>
      <trkpt lat="46.86057" lon="-1.95592">
        <ele>5</ele>
        <time>2018-03-09T15:09:36Z</time>
      </trkpt>
      <trkpt lat="46.86059" lon="-1.95621">
        <ele>4</ele>
        <time>2018-03-09T15:10:36Z</time>
      </trkpt>
      <trkpt lat="46.8606" lon="-1.95639">
        <ele>4</ele>
        <time>2018-03-09T15:11:36Z</time>
      </trkpt>
      <trkpt lat="46.86061" lon="-1.95654">
        <ele>4</ele>
        <time>2018-03-09T15:12:36Z</time>
      </trkpt>
      <trkpt lat="46.8606" lon="-1.95665">
        <ele>4</ele>
        <time>2018-03-09T15:13:36Z</time>
      </trkpt>
      <trkpt lat="46.86059" lon="-1.95676">
        <ele>4</ele>
        <time>2018-03-09T15:14:36Z</time>
      </trkpt>
      <trkpt lat="46.86057" lon="-1.95685">
        <ele>4</ele>
        <time>2018-03-09T15:15:36Z</time>
      </trkpt>
      <trkpt lat="46.86044" lon="-1.95707">
        <ele>4</ele>
        <time>2018-03-09T15:16:36Z</time>
      </trkpt>
      <trkpt lat="46.86036" lon="-1.95719">
        <ele>4</ele>
        <time>2018-03-09T15:17:36Z</time>
      </trkpt>
      <trkpt lat="46.86034" lon="-1.95722">
        <ele>4</ele>
        <time>2018-03-09T15:18:36Z</time>
      </trkpt>
      <trkpt lat="46.86014" lon="-1.95747">
        <ele>4</ele>
        <time>2018-03-09T15:19:36Z</time>
      </trkpt>
      <trkpt lat="46.86008" lon="-1.95755">
        <ele>4</ele>
        <time>2018-03-09T15:20:36Z</time>
      </trkpt>
      <trkpt lat="46.86002" lon="-1.95765">
        <ele>4</ele>
        <time>2018-03-09T15:21:36Z</time>
      </trkpt>
      <trkpt lat="46.85995" lon="-1.95778">
        <ele>4</ele>
        <time>2018-03-09T15:22:36Z</time>
      </trkpt>
      <trkpt lat="46.85977" lon="-1.95814">
        <ele>4</ele>
        <time>2018-03-09T15:23:36Z</time>
      </trkpt>
      <trkpt lat="46.85973" lon="-1.95824">
        <ele>4</ele>
        <time>2018-03-09T15:24:36Z</time>
      </trkpt>
      <trkpt lat="46.85965" lon="-1.95842">
        <ele>4</ele>
        <time>2018-03-09T15:25:36Z</time>
      </trkpt>
      <trkpt lat="46.85959" lon="-1.95854">
        <ele>4</ele>
        <time>2018-03-09T15:26:36Z</time>
      </trkpt>
      <trkpt lat="46.8595" lon="-1.95867">
        <ele>4</ele>
        <time>2018-03-09T15:27:36Z</time>
      </trkpt>
      <trkpt lat="46.85945" lon="-1.95874">
        <ele>4</ele>
        <time>2018-03-09T15:28:36Z</time>
      </trkpt>
      <trkpt lat="46.85942" lon="-1.95878">
        <ele>4</ele>
        <time>2018-03-09T15:29:36Z</time>
      </trkpt>
      <trkpt lat="46.85928" lon="-1.95893">
        <ele>4</ele>
        <time>2018-03-09T15:30:36Z</time>
      </trkpt>
      <trkpt lat="46.85923" lon="-1.95901">
        <ele>4</ele>
        <time>2018-03-09T15:31:36Z</time>
      </trkpt>
      <trkpt lat="46.85909" lon="-1.95921">
        <ele>4</ele>
        <time>2018-03-09T15:32:36Z</time>
      </trkpt>
      <trkpt lat="46.8589" lon="-1.95949">
        <ele>3</ele>
        <time>2018-03-09T15:33:36Z</time>
      </trkpt>
      <trkpt lat="46.85887" lon="-1.95952">
        <ele>3</ele>
        <time>2018-03-09T15:34:36Z</time>
      </trkpt>
      <trkpt lat="46.85878" lon="-1.95966">
        <ele>3</ele>
        <time>2018-03-09T15:35:36Z</time>
      </trkpt>
      <trkpt lat="46.85875" lon="-1.9597">
        <ele>3</ele>
        <time>2018-03-09T15:36:36Z</time>
      </trkpt>
      <trkpt lat="46.85867" lon="-1.95981">
        <ele>3</ele>
        <time>2018-03-09T15:37:36Z</time>
      </trkpt>
      <trkpt lat="46.85857" lon="-1.95996">
        <ele>2</ele>
        <time>2018-03-09T15:38:36Z</time>
      </trkpt>
      <trkpt lat="46.85847" lon="-1.9601">
        <ele>2</ele>
        <time>2018-03-09T15:39:36Z</time>
      </trkpt>
      <trkpt lat="46.85844" lon="-1.96015">
        <ele>2</ele>
        <time>2018-03-09T15:40:36Z</time>
      </trkpt>
      <trkpt lat="46.8584" lon="-1.9602">
        <ele>2</ele>
        <time>2018-03-09T15:41:36Z</time>
      </trkpt>
      <trkpt lat="46.85833" lon="-1.96032">
        <ele>2</ele>
        <time>2018-03-09T15:42:36Z</time>
      </trkpt>
      <trkpt lat="46.85825" lon="-1.96046">
        <ele>2</ele>
        <time>2018-03-09T15:43:36Z</time>
      </trkpt>
      <trkpt lat="46.85816" lon="-1.96064">
        <ele>2</ele>
        <time>2018-03-09T15:44:36Z</time>
      </trkpt>
      <trkpt lat="46.85812" lon="-1.96072">
        <ele>2</ele>
        <time>2018-03-09T15:45:36Z</time>
      </trkpt>
      <trkpt lat="46.85801" lon="-1.96094">
        <ele>2</ele>
        <time>2018-03-09T15:46:36Z</time>
      </trkpt>
      <trkpt lat="46.85775" lon="-1.96148">
        <ele>2</ele>
        <time>2018-03-09T15:47:36Z</time>
      </trkpt>
      <trkpt lat="46.85766" lon="-1.96164">
        <ele>2</ele>
        <time>2018-03-09T15:48:36Z</time>
      </trkpt>
      <trkpt lat="46.85753" lon="-1.9619">
        <ele>1</ele>
        <time>2018-03-09T15:49:36Z</time>
      </trkpt>
      <trkpt lat="46.85748" lon="-1.96197">
        <ele>1</ele>
        <time>2018-03-09T15:50:36Z</time>
      </trkpt>
      <trkpt lat="46.85732" lon="-1.96254">
        <ele>1.4</ele>
        <time>2018-03-09T15:51:36Z</time>
      </trkpt>
      <trkpt lat="46.85727" lon="-1.96266">
        <ele>1.6</ele>
        <time>2018-03-09T15:52:36Z</time>
      </trkpt>
      <trkpt lat="46.85723" lon="-1.96274">
        <ele>1.9</ele>
        <time>2018-03-09T15:53:36Z</time>
      </trkpt>
      <trkpt lat="46.85717" lon="-1.96285">
        <ele>1.8</ele>
        <time>2018-03-09T15:54:36Z</time>
      </trkpt>
      <trkpt lat="46.85712" lon="-1.96291">
        <ele>1.7</ele>
        <time>2018-03-09T15:55:36Z</time>
      </trkpt>
      <trkpt lat="46.85703" lon="-1.963">
        <ele>1.8</ele>
        <time>2018-03-09T15:56:36Z</time>
      </trkpt>
      <trkpt lat="46.85684" lon="-1.96315">
        <ele>2</ele>
        <time>2018-03-09T15:57:36Z</time>
      </trkpt>
      <trkpt lat="46.8567" lon="-1.96331">
        <ele>2</ele>
        <time>2018-03-09T15:58:36Z</time>
      </trkpt>
      <trkpt lat="46.85657" lon="-1.96347">
        <ele>1.7</ele>
        <time>2018-03-09T15:59:36Z</time>
      </trkpt>
      <trkpt lat="46.85643" lon="-1.9637">
        <ele>1.9</ele>
        <time>2018-03-09T16:00:36Z</time>
      </trkpt>
      <trkpt lat="46.85637" lon="-1.9638">
        <ele>2</ele>
        <time>2018-03-09T16:01:36Z</time>
      </trkpt>
      <trkpt lat="46.85632" lon="-1.96393">
        <ele>1.9</ele>
        <time>2018-03-09T16:02:36Z</time>
      </trkpt>
      <trkpt lat="46.85627" lon="-1.96409">
        <ele>1.6</ele>
        <time>2018-03-09T16:03:36Z</time>
      </trkpt>
      <trkpt lat="46.85626" lon="-1.96423">
        <ele>1.5</ele>
        <time>2018-03-09T16:04:36Z</time>
      </trkpt>
      <trkpt lat="46.85627" lon="-1.96444">
        <ele>1.4</ele>
        <time>2018-03-09T16:05:36Z</time>
      </trkpt>
      <trkpt lat="46.85627" lon="-1.96462">
        <ele>1.4</ele>
        <time>2018-03-09T16:06:36Z</time>
      </trkpt>
      <trkpt lat="46.85626" lon="-1.96474">
        <ele>1.5</ele>
        <time>2018-03-09T16:07:36Z</time>
      </trkpt>
      <trkpt lat="46.85625" lon="-1.96484">
        <ele>1.7</ele>
        <time>2018-03-09T16:08:36Z</time>
      </trkpt>
      <trkpt lat="46.85622" lon="-1.96494">
        <ele>1.9</ele>
        <time>2018-03-09T16:09:36Z</time>
      </trkpt>
      <trkpt lat="46.85619" lon="-1.96501">
        <ele>2</ele>
        <time>2018-03-09T16:10:36Z</time>
      </trkpt>
      <trkpt lat="46.85615" lon="-1.96509">
        <ele>1.7</ele>
        <time>2018-03-09T16:11:36Z</time>
      </trkpt>
      <trkpt lat="46.85609" lon="-1.96515">
        <ele>1.5</ele>
        <time>2018-03-09T16:12:36Z</time>
      </trkpt>
      <trkpt lat="46.85603" lon="-1.96519">
        <ele>1.5</ele>
        <time>2018-03-09T16:13:36Z</time>
      </trkpt>
      <trkpt lat="46.85591" lon="-1.96525">
        <ele>1.8</ele>
        <time>2018-03-09T16:14:36Z</time>
      </trkpt>
      <trkpt lat="46.85582" lon="-1.9653">
        <ele>2</ele>
        <time>2018-03-09T16:15:36Z</time>
      </trkpt>
      <trkpt lat="46.85576" lon="-1.96534">
        <ele>2</ele>
        <time>2018-03-09T16:16:36Z</time>
      </trkpt>
      <trkpt lat="46.85569" lon="-1.96539">
        <ele>2</ele>
        <time>2018-03-09T16:17:36Z</time>
      </trkpt>
      <trkpt lat="46.85564" lon="-1.96545">
        <ele>2</ele>
        <time>2018-03-09T16:18:36Z</time>
      </trkpt>
      <trkpt lat="46.85558" lon="-1.96553">
        <ele>2</ele>
        <time>2018-03-09T16:19:36Z</time>
      </trkpt>
      <trkpt lat="46.85553" lon="-1.9656">
        <ele>2</ele>
        <time>2018-03-09T16:20:36Z</time>
      </trkpt>
      <trkpt lat="46.85547" lon="-1.96573">
        <ele>1.8</ele>
        <time>2018-03-09T16:21:36Z</time>
      </trkpt>
      <trkpt lat="46.85538" lon="-1.96599">
        <ele>1.7</ele>
        <time>2018-03-09T16:22:36Z</time>
      </trkpt>
      <trkpt lat="46.85529" lon="-1.9662">
        <ele>2</ele>
        <time>2018-03-09T16:23:36Z</time>
      </trkpt>
      <trkpt lat="46.85517" lon="-1.96653">
        <ele>2</ele>
        <time>2018-03-09T16:24:36Z</time>
      </trkpt>
      <trkpt lat="46.85505" lon="-1.96695">
        <ele>2</ele>
        <time>2018-03-09T16:25:36Z</time>
      </trkpt>
      <trkpt lat="46.85501" lon="-1.96708">
        <ele>2</ele>
        <time>2018-03-09T16:26:36Z</time>
      </trkpt>
      <trkpt lat="46.85499" lon="-1.96721">
        <ele>1</ele>
        <time>2018-03-09T16:27:36Z</time>
      </trkpt>
      <trkpt lat="46.85497" lon="-1.96734">
        <ele>1</ele>
        <time>2018-03-09T16:28:36Z</time>
      </trkpt>
      <trkpt lat="46.85497" lon="-1.96744">
        <ele>1</ele>
        <time>2018-03-09T16:29:36Z</time>
      </trkpt>
      <trkpt lat="46.85497" lon="-1.96756">
        <ele>1</ele>
        <time>2018-03-09T16:30:36Z</time>
      </trkpt>
      <trkpt lat="46.85499" lon="-1.96768">
        <ele>1</ele>
        <time>2018-03-09T16:31:36Z</time>
      </trkpt>
      <trkpt lat="46.855" lon="-1.96783">
        <ele>1</ele>
        <time>2018-03-09T16:32:36Z</time>
      </trkpt>
      <trkpt lat="46.85506" lon="-1.96806">
        <ele>2</ele>
        <time>2018-03-09T16:33:36Z</time>
      </trkpt>
      <trkpt lat="46.85517" lon="-1.96838">
        <ele>2</ele>
        <time>2018-03-09T16:34:36Z</time>
      </trkpt>
      <trkpt lat="46.85521" lon="-1.96852">
        <ele>1</ele>
        <time>2018-03-09T16:35:36Z</time>
      </trkpt>
      <trkpt lat="46.85525" lon="-1.96867">
        <ele>1</ele>
        <time>2018-03-09T16:36:36Z</time>
      </trkpt>
      <trkpt lat="46.85527" lon="-1.96882">
        <ele>1</ele>
        <time>2018-03-09T16:37:36Z</time>
      </trkpt>
      <trkpt lat="46.85531" lon="-1.96913">
        <ele>1</ele>
        <time>2018-03-09T16:38:36Z</time>
      </trkpt>
      <trkpt lat="46.85539" lon="-1.9699">
        <ele>1</ele>
        <time>2018-03-09T16:39:36Z</time>
      </trkpt>
      <trkpt lat="46.8554" lon="-1.97006">
        <ele>1</ele>
        <time>2018-03-09T16:40:36Z</time>
      </trkpt>
      <trkpt lat="46.85541" lon="-1.97016">
        <ele>1</ele>
        <time>2018-03-09T16:41:36Z</time>
      </trkpt>
      <trkpt lat="46.8554" lon="-1.97028">
        <ele>1</ele>
        <time>2018-03-09T16:42:36Z</time>
      </trkpt>
      <trkpt lat="46.85538" lon="-1.97039">
        <ele>1</ele>
        <time>2018-03-09T16:43:36Z</time>
      </trkpt>
      <trkpt lat="46.85535" lon="-1.9705">
        <ele>1</ele>
        <time>2018-03-09T16:44:36Z</time>
      </trkpt>
      <trkpt lat="46.85522" lon="-1.97086">
        <ele>1</ele>
        <time>2018-03-09T16:45:36Z</time>
      </trkpt>
      <trkpt lat="46.85515" lon="-1.97106">
        <ele>1</ele>
        <time>2018-03-09T16:46:36Z</time>
      </trkpt>
      <trkpt lat="46.85499" lon="-1.97151">
        <ele>3</ele>
        <time>2018-03-09T16:47:36Z</time>
      </trkpt>
      <trkpt lat="46.85475" lon="-1.97228">
        <ele>3</ele>
        <time>2018-03-09T16:48:36Z</time>
      </trkpt>
      <trkpt lat="46.85461" lon="-1.97276">
        <ele>2</ele>
        <time>2018-03-09T16:49:36Z</time>
      </trkpt>
      <trkpt lat="46.85452" lon="-1.97306">
        <ele>1</ele>
        <time>2018-03-09T16:50:36Z</time>
      </trkpt>
      <trkpt lat="46.85446" lon="-1.97329">
        <ele>1</ele>
        <time>2018-03-09T16:51:36Z</time>
      </trkpt>
      <trkpt lat="46.8544" lon="-1.97344">
        <ele>1</ele>
        <time>2018-03-09T16:52:36Z</time>
      </trkpt>
      <trkpt lat="46.85434" lon="-1.97359">
        <ele>1</ele>
        <time>2018-03-09T16:53:36Z</time>
      </trkpt>
      <trkpt lat="46.85426" lon="-1.97373">
        <ele>1</ele>
        <time>2018-03-09T16:54:36Z</time>
      </trkpt>
      <trkpt lat="46.85418" lon="-1.97385">
        <ele>1</ele>
        <time>2018-03-09T16:55:36Z</time>
      </trkpt>
      <trkpt lat="46.85416" lon="-1.97389">
        <ele>1</ele>
        <time>2018-03-09T16:56:36Z</time>
      </trkpt>
      <trkpt lat="46.85405" lon="-1.97401">
        <ele>1</ele>
        <time>2018-03-09T16:57:36Z</time>
      </trkpt>
      <trkpt lat="46.85399" lon="-1.97407">
        <ele>1</ele>
        <time>2018-03-09T16:58:36Z</time>
      </trkpt>
      <trkpt lat="46.85391" lon="-1.97413">
        <ele>1</ele>
        <time>2018-03-09T16:59:36Z</time>
      </trkpt>
      <trkpt lat="46.85384" lon="-1.97417">
        <ele>1</ele>
        <time>2018-03-09T17:00:36Z</time>
      </trkpt>
      <trkpt lat="46.85369" lon="-1.97425">
        <ele>1</ele>
        <time>2018-03-09T17:01:36Z</time>
      </trkpt>
      <trkpt lat="46.85335" lon="-1.97435">
        <ele>1</ele>
        <time>2018-03-09T17:02:36Z</time>
      </trkpt>
      <trkpt lat="46.85304" lon="-1.97447">
        <ele>1</ele>
        <time>2018-03-09T17:03:36Z</time>
      </trkpt>
      <trkpt lat="46.85291" lon="-1.97454">
        <ele>1</ele>
        <time>2018-03-09T17:04:36Z</time>
      </trkpt>
      <trkpt lat="46.85283" lon="-1.9746">
        <ele>1</ele>
        <time>2018-03-09T17:05:36Z</time>
      </trkpt>
      <trkpt lat="46.85276" lon="-1.97467">
        <ele>1</ele>
        <time>2018-03-09T17:06:36Z</time>
      </trkpt>
      <trkpt lat="46.8527" lon="-1.97475">
        <ele>1</ele>
        <time>2018-03-09T17:07:36Z</time>
      </trkpt>
      <trkpt lat="46.85253" lon="-1.975">
        <ele>1</ele>
        <time>2018-03-09T17:08:36Z</time>
      </trkpt>
      <trkpt lat="46.85224" lon="-1.97541">
        <ele>1</ele>
        <time>2018-03-09T17:09:36Z</time>
      </trkpt>
      <trkpt lat="46.85214" lon="-1.97555">
        <ele>1</ele>
        <time>2018-03-09T17:10:36Z</time>
      </trkpt>
      <trkpt lat="46.85146" lon="-1.97611">
        <ele>1</ele>
        <time>2018-03-09T17:11:36Z</time>
      </trkpt>
      <trkpt lat="46.85068" lon="-1.97676">
        <ele>2</ele>
        <time>2018-03-09T17:12:36Z</time>
      </trkpt>
      <trkpt lat="46.85032" lon="-1.97705">
        <ele>2</ele>
        <time>2018-03-09T17:13:36Z</time>
      </trkpt>
      <trkpt lat="46.8501" lon="-1.97723">
        <ele>1</ele>
        <time>2018-03-09T17:14:36Z</time>
      </trkpt>
      <trkpt lat="46.84993" lon="-1.97736">
        <ele>1</ele>
        <time>2018-03-09T17:15:36Z</time>
      </trkpt>
      <trkpt lat="46.8498" lon="-1.97747">
        <ele>1</ele>
        <time>2018-03-09T17:16:36Z</time>
      </trkpt>
      <trkpt lat="46.84976" lon="-1.9775">
        <ele>2</ele>
        <time>2018-03-09T17:17:36Z</time>
      </trkpt>
      <trkpt lat="46.84971" lon="-1.97755">
        <ele>2</ele>
        <time>2018-03-09T17:18:36Z</time>
      </trkpt>
      <trkpt lat="46.84963" lon="-1.97763">
        <ele>2</ele>
        <time>2018-03-09T17:19:36Z</time>
      </trkpt>
      <trkpt lat="46.8495" lon="-1.97776">
        <ele>2</ele>
        <time>2018-03-09T17:20:36Z</time>
      </trkpt>
      <trkpt lat="46.84938" lon="-1.97792">
        <ele>1.9</ele>
        <time>2018-03-09T17:21:36Z</time>
      </trkpt>
      <trkpt lat="46.8492" lon="-1.97816">
        <ele>1.5</ele>
        <time>2018-03-09T17:22:36Z</time>
      </trkpt>
      <trkpt lat="46.8489" lon="-1.97861">
        <ele>2</ele>
        <time>2018-03-09T17:23:36Z</time>
      </trkpt>
      <trkpt lat="46.84844" lon="-1.97927">
        <ele>2</ele>
        <time>2018-03-09T17:24:36Z</time>
      </trkpt>
      <trkpt lat="46.84802" lon="-1.9799">
        <ele>2</ele>
        <time>2018-03-09T17:25:36Z</time>
      </trkpt>
      <trkpt lat="46.84778" lon="-1.98025">
        <ele>2</ele>
        <time>2018-03-09T17:26:36Z</time>
      </trkpt>
      <trkpt lat="46.8476" lon="-1.98051">
        <ele>1.2</ele>
        <time>2018-03-09T17:27:36Z</time>
      </trkpt>
      <trkpt lat="46.84754" lon="-1.98059">
        <ele>1.1</ele>
        <time>2018-03-09T17:28:36Z</time>
      </trkpt>
      <trkpt lat="46.84749" lon="-1.98066">
        <ele>1.4</ele>
        <time>2018-03-09T17:29:36Z</time>
      </trkpt>
      <trkpt lat="46.84742" lon="-1.98073">
        <ele>1.7</ele>
        <time>2018-03-09T17:30:36Z</time>
      </trkpt>
      <trkpt lat="46.84737" lon="-1.98079">
        <ele>1.9</ele>
        <time>2018-03-09T17:31:36Z</time>
      </trkpt>
      <trkpt lat="46.84733" lon="-1.98083">
        <ele>2</ele>
        <time>2018-03-09T17:32:36Z</time>
      </trkpt>
      <trkpt lat="46.84725" lon="-1.98091">
        <ele>2</ele>
        <time>2018-03-09T17:33:36Z</time>
      </trkpt>
      <trkpt lat="46.84713" lon="-1.98101">
        <ele>2</ele>
        <time>2018-03-09T17:34:36Z</time>
      </trkpt>
      <trkpt lat="46.84696" lon="-1.98113">
        <ele>1.9</ele>
        <time>2018-03-09T17:35:36Z</time>
      </trkpt>
      <trkpt lat="46.84689" lon="-1.98118">
        <ele>1.8</ele>
        <time>2018-03-09T17:36:36Z</time>
      </trkpt>
      <trkpt lat="46.84685" lon="-1.98122">
        <ele>1.7</ele>
        <time>2018-03-09T17:37:36Z</time>
      </trkpt>
      <trkpt lat="46.84679" lon="-1.98129">
        <ele>1.7</ele>
        <time>2018-03-09T17:38:36Z</time>
      </trkpt>
      <trkpt lat="46.84673" lon="-1.98138">
        <ele>1.8</ele>
        <time>2018-03-09T17:39:36Z</time>
      </trkpt>
      <trkpt lat="46.84668" lon="-1.98146">
        <ele>1.7</ele>
        <time>2018-03-09T17:40:36Z</time>
      </trkpt>
      <trkpt lat="46.84662" lon="-1.98158">
        <ele>1.4</ele>
        <time>2018-03-09T17:41:36Z</time>
      </trkpt>
      <trkpt lat="46.84656" lon="-1.98174">
        <ele>1.5</ele>
        <time>2018-03-09T17:42:36Z</time>
      </trkpt>
      <trkpt lat="46.84647" lon="-1.98199">
        <ele>1</ele>
        <time>2018-03-09T17:43:36Z</time>
      </trkpt>
      <trkpt lat="46.84644" lon="-1.98207">
        <ele>1</ele>
        <time>2018-03-09T17:44:36Z</time>
      </trkpt>
      <trkpt lat="46.84639" lon="-1.98215">
        <ele>1</ele>
        <time>2018-03-09T17:45:36Z</time>
      </trkpt>
      <trkpt lat="46.84635" lon="-1.98223">
        <ele>1</ele>
        <time>2018-03-09T17:46:36Z</time>
      </trkpt>
      <trkpt lat="46.84626" lon="-1.98234">
        <ele>1</ele>
        <time>2018-03-09T17:47:36Z</time>
      </trkpt>
      <trkpt lat="46.84613" lon="-1.98247">
        <ele>1</ele>
        <time>2018-03-09T17:48:36Z</time>
      </trkpt>
      <trkpt lat="46.84606" lon="-1.98255">
        <ele>1</ele>
        <time>2018-03-09T17:49:36Z</time>
      </trkpt>
      <trkpt lat="46.84601" lon="-1.98264">
        <ele>1</ele>
        <time>2018-03-09T17:50:36Z</time>
      </trkpt>
      <trkpt lat="46.84594" lon="-1.98277">
        <ele>1</ele>
        <time>2018-03-09T17:51:36Z</time>
      </trkpt>
      <trkpt lat="46.84582" lon="-1.98301">
        <ele>2</ele>
        <time>2018-03-09T17:52:36Z</time>
      </trkpt>
      <trkpt lat="46.8457" lon="-1.98326">
        <ele>2</ele>
        <time>2018-03-09T17:53:36Z</time>
      </trkpt>
      <trkpt lat="46.84566" lon="-1.98338">
        <ele>2</ele>
        <time>2018-03-09T17:54:36Z</time>
      </trkpt>
      <trkpt lat="46.84562" lon="-1.98349">
        <ele>1</ele>
        <time>2018-03-09T17:55:36Z</time>
      </trkpt>
      <trkpt lat="46.84559" lon="-1.9836">
        <ele>1</ele>
        <time>2018-03-09T17:56:36Z</time>
      </trkpt>
      <trkpt lat="46.84556" lon="-1.9837">
        <ele>1</ele>
        <time>2018-03-09T17:57:36Z</time>
      </trkpt>
      <trkpt lat="46.84554" lon="-1.9838">
        <ele>1</ele>
        <time>2018-03-09T17:58:36Z</time>
      </trkpt>
      <trkpt lat="46.84553" lon="-1.9839">
        <ele>1</ele>
        <time>2018-03-09T17:59:36Z</time>
      </trkpt>
      <trkpt lat="46.84553" lon="-1.98403">
        <ele>1</ele>
        <time>2018-03-09T18:00:36Z</time>
      </trkpt>
      <trkpt lat="46.84553" lon="-1.98416">
        <ele>1</ele>
        <time>2018-03-09T18:01:36Z</time>
      </trkpt>
      <trkpt lat="46.84553" lon="-1.98441">
        <ele>1</ele>
        <time>2018-03-09T18:02:36Z</time>
      </trkpt>
      <trkpt lat="46.84553" lon="-1.98453">
        <ele>1</ele>
        <time>2018-03-09T18:03:36Z</time>
      </trkpt>
      <trkpt lat="46.84552" lon="-1.98463">
        <ele>1</ele>
        <time>2018-03-09T18:04:36Z</time>
      </trkpt>
      <trkpt lat="46.8455" lon="-1.98474">
        <ele>1</ele>
        <time>2018-03-09T18:05:36Z</time>
      </trkpt>
      <trkpt lat="46.84549" lon="-1.98483">
        <ele>2</ele>
        <time>2018-03-09T18:06:36Z</time>
      </trkpt>
      <trkpt lat="46.84544" lon="-1.98496">
        <ele>2</ele>
        <time>2018-03-09T18:07:36Z</time>
      </trkpt>
      <trkpt lat="46.84538" lon="-1.98511">
        <ele>1</ele>
        <time>2018-03-09T18:08:36Z</time>
      </trkpt>
      <trkpt lat="46.84508" lon="-1.98583">
        <ele>2</ele>
        <time>2018-03-09T18:09:36Z</time>
      </trkpt>
      <trkpt lat="46.8448" lon="-1.98649">
        <ele>1</ele>
        <time>2018-03-09T18:10:36Z</time>
      </trkpt>
      <trkpt lat="46.8447" lon="-1.9867">
        <ele>1</ele>
        <time>2018-03-09T18:11:36Z</time>
      </trkpt>
      <trkpt lat="46.84464" lon="-1.98681">
        <ele>1</ele>
        <time>2018-03-09T18:12:36Z</time>
      </trkpt>
      <trkpt lat="46.84459" lon="-1.9869">
        <ele>1</ele>
        <time>2018-03-09T18:13:36Z</time>
      </trkpt>
      <trkpt lat="46.84453" lon="-1.987">
        <ele>1</ele>
        <time>2018-03-09T18:14:36Z</time>
      </trkpt>
      <trkpt lat="46.84447" lon="-1.98708">
        <ele>1</ele>
        <time>2018-03-09T18:15:36Z</time>
      </trkpt>
      <trkpt lat="46.84441" lon="-1.98715">
        <ele>1</ele>
        <time>2018-03-09T18:16:36Z</time>
      </trkpt>
      <trkpt lat="46.84434" lon="-1.98721">
        <ele>1</ele>
        <time>2018-03-09T18:17:36Z</time>
      </trkpt>
      <trkpt lat="46.84412" lon="-1.98735">
        <ele>1</ele>
        <time>2018-03-09T18:18:36Z</time>
      </trkpt>
      <trkpt lat="46.84375" lon="-1.98755">
        <ele>1</ele>
        <time>2018-03-09T18:19:36Z</time>
      </trkpt>
      <trkpt lat="46.84336" lon="-1.98774">
        <ele>1</ele>
        <time>2018-03-09T18:20:36Z</time>
      </trkpt>
      <trkpt lat="46.84325" lon="-1.98779">
        <ele>1</ele>
        <time>2018-03-09T18:21:36Z</time>
      </trkpt>
      <trkpt lat="46.84314" lon="-1.98782">
        <ele>1</ele>
        <time>2018-03-09T18:22:36Z</time>
      </trkpt>
      <trkpt lat="46.84302" lon="-1.98786">
        <ele>1</ele>
        <time>2018-03-09T18:23:36Z</time>
      </trkpt>
      <trkpt lat="46.84291" lon="-1.98788">
        <ele>1</ele>
        <time>2018-03-09T18:24:36Z</time>
      </trkpt>
      <trkpt lat="46.84277" lon="-1.98791">
        <ele>1</ele>
        <time>2018-03-09T18:25:36Z</time>
      </trkpt>
      <trkpt lat="46.84227" lon="-1.988">
        <ele>1</ele>
        <time>2018-03-09T18:26:36Z</time>
      </trkpt>
      <trkpt lat="46.8419" lon="-1.98808">
        <ele>1</ele>
        <time>2018-03-09T18:27:36Z</time>
      </trkpt>
      <trkpt lat="46.84174" lon="-1.98811">
        <ele>1</ele>
        <time>2018-03-09T18:28:36Z</time>
      </trkpt>
      <trkpt lat="46.84163" lon="-1.98813">
        <ele>1</ele>
        <time>2018-03-09T18:29:36Z</time>
      </trkpt>
      <trkpt lat="46.8415" lon="-1.98817">
        <ele>1</ele>
        <time>2018-03-09T18:30:36Z</time>
      </trkpt>
      <trkpt lat="46.84139" lon="-1.9882">
        <ele>1</ele>
        <time>2018-03-09T18:31:36Z</time>
      </trkpt>
      <trkpt lat="46.84125" lon="-1.98824">
        <ele>1</ele>
        <time>2018-03-09T18:32:36Z</time>
      </trkpt>
      <trkpt lat="46.84109" lon="-1.9883">
        <ele>1</ele>
        <time>2018-03-09T18:33:36Z</time>
      </trkpt>
      <trkpt lat="46.84079" lon="-1.98841">
        <ele>1</ele>
        <time>2018-03-09T18:34:36Z</time>
      </trkpt>
      <trkpt lat="46.8403" lon="-1.98859">
        <ele>1</ele>
        <time>2018-03-09T18:35:36Z</time>
      </trkpt>
      <trkpt lat="46.84015" lon="-1.98865">
        <ele>1</ele>
        <time>2018-03-09T18:36:36Z</time>
      </trkpt>
      <trkpt lat="46.84007" lon="-1.98869">
        <ele>1</ele>
        <time>2018-03-09T18:37:36Z</time>
      </trkpt>
      <trkpt lat="46.83999" lon="-1.98873">
        <ele>1</ele>
        <time>2018-03-09T18:38:36Z</time>
      </trkpt>
      <trkpt lat="46.83989" lon="-1.98878">
        <ele>2</ele>
        <time>2018-03-09T18:39:36Z</time>
      </trkpt>
      <trkpt lat="46.83977" lon="-1.98887">
        <ele>2</ele>
        <time>2018-03-09T18:40:36Z</time>
      </trkpt>
      <trkpt lat="46.83968" lon="-1.98893">
        <ele>1.9</ele>
        <time>2018-03-09T18:41:36Z</time>
      </trkpt>
      <trkpt lat="46.83958" lon="-1.98898">
        <ele>1.7</ele>
        <time>2018-03-09T18:42:36Z</time>
      </trkpt>
      <trkpt lat="46.83948" lon="-1.98903">
        <ele>1.6</ele>
        <time>2018-03-09T18:43:36Z</time>
      </trkpt>
      <trkpt lat="46.83925" lon="-1.98914">
        <ele>1.9</ele>
        <time>2018-03-09T18:44:36Z</time>
      </trkpt>
      <trkpt lat="46.83884" lon="-1.9893">
        <ele>2</ele>
        <time>2018-03-09T18:45:36Z</time>
      </trkpt>
      <trkpt lat="46.83847" lon="-1.98945">
        <ele>2</ele>
        <time>2018-03-09T18:46:36Z</time>
      </trkpt>
      <trkpt lat="46.83808" lon="-1.9896">
        <ele>2</ele>
        <time>2018-03-09T18:47:36Z</time>
      </trkpt>
      <trkpt lat="46.83783" lon="-1.98971">
        <ele>2.8</ele>
        <time>2018-03-09T18:48:36Z</time>
      </trkpt>
      <trkpt lat="46.83771" lon="-1.98976">
        <ele>2.5</ele>
        <time>2018-03-09T18:49:36Z</time>
      </trkpt>
      <trkpt lat="46.83762" lon="-1.9898">
        <ele>2</ele>
        <time>2018-03-09T18:50:36Z</time>
      </trkpt>
      <trkpt lat="46.83717" lon="-1.98999">
        <ele>2</ele>
        <time>2018-03-09T18:51:36Z</time>
      </trkpt>
      <trkpt lat="46.83674" lon="-1.99021">
        <ele>1</ele>
        <time>2018-03-09T18:52:36Z</time>
      </trkpt>
      <trkpt lat="46.83604" lon="-1.99055">
        <ele>2</ele>
        <time>2018-03-09T18:53:36Z</time>
      </trkpt>
      <trkpt lat="46.83543" lon="-1.99087">
        <ele>1</ele>
        <time>2018-03-09T18:54:36Z</time>
      </trkpt>
      <trkpt lat="46.83489" lon="-1.99115">
        <ele>1</ele>
        <time>2018-03-09T18:55:36Z</time>
      </trkpt>
      <trkpt lat="46.83455" lon="-1.99134">
        <ele>1</ele>
        <time>2018-03-09T18:56:36Z</time>
      </trkpt>
      <trkpt lat="46.83404" lon="-1.99167">
        <ele>1</ele>
        <time>2018-03-09T18:57:36Z</time>
      </trkpt>
      <trkpt lat="46.83367" lon="-1.99191">
        <ele>1</ele>
        <time>2018-03-09T18:58:36Z</time>
      </trkpt>
      <trkpt lat="46.83342" lon="-1.99206">
        <ele>1</ele>
        <time>2018-03-09T18:59:36Z</time>
      </trkpt>
      <trkpt lat="46.83335" lon="-1.99209">
        <ele>1</ele>
        <time>2018-03-09T19:00:36Z</time>
      </trkpt>
      <trkpt lat="46.83309" lon="-1.9922">
        <ele>1</ele>
        <time>2018-03-09T19:01:36Z</time>
      </trkpt>
      <trkpt lat="46.8327" lon="-1.99231">
        <ele>1</ele>
        <time>2018-03-09T19:02:36Z</time>
      </trkpt>
      <trkpt lat="46.8322" lon="-1.99247">
        <ele>1</ele>
        <time>2018-03-09T19:03:36Z</time>
      </trkpt>
      <trkpt lat="46.83198" lon="-1.99253">
        <ele>1</ele>
        <time>2018-03-09T19:04:36Z</time>
      </trkpt>
      <trkpt lat="46.83191" lon="-1.99255">
        <ele>1</ele>
        <time>2018-03-09T19:05:36Z</time>
      </trkpt>
      <trkpt lat="46.83174" lon="-1.99259">
        <ele>1</ele>
        <time>2018-03-09T19:06:36Z</time>
      </trkpt>
      <trkpt lat="46.83133" lon="-1.99269">
        <ele>1</ele>
        <time>2018-03-09T19:07:36Z</time>
      </trkpt>
      <trkpt lat="46.83094" lon="-1.99284">
        <ele>1</ele>
        <time>2018-03-09T19:08:36Z</time>
      </trkpt>
      <trkpt lat="46.83052" lon="-1.99319">
        <ele>1</ele>
        <time>2018-03-09T19:09:36Z</time>
      </trkpt>
      <trkpt lat="46.83022" lon="-1.9935">
        <ele>1</ele>
        <time>2018-03-09T19:10:36Z</time>
      </trkpt>
      <trkpt lat="46.83002" lon="-1.99372">
        <ele>1</ele>
        <time>2018-03-09T19:11:36Z</time>
      </trkpt>
      <trkpt lat="46.82959" lon="-1.99417">
        <ele>1</ele>
        <time>2018-03-09T19:12:36Z</time>
      </trkpt>
      <trkpt lat="46.82925" lon="-1.99451">
        <ele>1</ele>
        <time>2018-03-09T19:13:36Z</time>
      </trkpt>
      <trkpt lat="46.82916" lon="-1.99455">
        <ele>1</ele>
        <time>2018-03-09T19:14:36Z</time>
      </trkpt>
      <trkpt lat="46.82905" lon="-1.99461">
        <ele>2</ele>
        <time>2018-03-09T19:15:36Z</time>
      </trkpt>
      <trkpt lat="46.82884" lon="-1.99464">
        <ele>1.9</ele>
        <time>2018-03-09T19:16:36Z</time>
      </trkpt>
      <trkpt lat="46.82865" lon="-1.99463">
        <ele>1.7</ele>
        <time>2018-03-09T19:17:36Z</time>
      </trkpt>
      <trkpt lat="46.82847" lon="-1.9946">
        <ele>1.8</ele>
        <time>2018-03-09T19:18:36Z</time>
      </trkpt>
      <trkpt lat="46.82822" lon="-1.99459">
        <ele>2.2</ele>
        <time>2018-03-09T19:19:36Z</time>
      </trkpt>
      <trkpt lat="46.82813" lon="-1.99459">
        <ele>2.4</ele>
        <time>2018-03-09T19:20:36Z</time>
      </trkpt>
      <trkpt lat="46.82801" lon="-1.99461">
        <ele>2.5</ele>
        <time>2018-03-09T19:21:36Z</time>
      </trkpt>
      <trkpt lat="46.8276" lon="-1.9947">
        <ele>2.6</ele>
        <time>2018-03-09T19:22:36Z</time>
      </trkpt>
      <trkpt lat="46.82718" lon="-1.99481">
        <ele>1</ele>
        <time>2018-03-09T19:23:36Z</time>
      </trkpt>
      <trkpt lat="46.82683" lon="-1.99489">
        <ele>1</ele>
        <time>2018-03-09T19:24:36Z</time>
      </trkpt>
      <trkpt lat="46.82639" lon="-1.99498">
        <ele>2</ele>
        <time>2018-03-09T19:25:36Z</time>
      </trkpt>
      <trkpt lat="46.82615" lon="-1.995">
        <ele>2</ele>
        <time>2018-03-09T19:26:36Z</time>
      </trkpt>
      <trkpt lat="46.82593" lon="-1.99497">
        <ele>1.9</ele>
        <time>2018-03-09T19:27:36Z</time>
      </trkpt>
      <trkpt lat="46.82563" lon="-1.99489">
        <ele>1.6</ele>
        <time>2018-03-09T19:28:36Z</time>
      </trkpt>
      <trkpt lat="46.82549" lon="-1.99485">
        <ele>1.6</ele>
        <time>2018-03-09T19:29:36Z</time>
      </trkpt>
      <trkpt lat="46.82518" lon="-1.99479">
        <ele>2</ele>
        <time>2018-03-09T19:30:36Z</time>
      </trkpt>
      <trkpt lat="46.82511" lon="-1.99481">
        <ele>2</ele>
        <time>2018-03-09T19:31:36Z</time>
      </trkpt>
      <trkpt lat="46.82506" lon="-1.99482">
        <ele>2</ele>
        <time>2018-03-09T19:32:36Z</time>
      </trkpt>
      <trkpt lat="46.82501" lon="-1.99483">
        <ele>2</ele>
        <time>2018-03-09T19:33:36Z</time>
      </trkpt>
      <trkpt lat="46.82494" lon="-1.99486">
        <ele>2</ele>
        <time>2018-03-09T19:34:36Z</time>
      </trkpt>
      <trkpt lat="46.82488" lon="-1.99488">
        <ele>2</ele>
        <time>2018-03-09T19:35:36Z</time>
      </trkpt>
      <trkpt lat="46.82486" lon="-1.9949">
        <ele>2</ele>
        <time>2018-03-09T19:36:36Z</time>
      </trkpt>
      <trkpt lat="46.82484" lon="-1.99492">
        <ele>2</ele>
        <time>2018-03-09T19:37:36Z</time>
      </trkpt>
      <trkpt lat="46.82479" lon="-1.99496">
        <ele>2</ele>
        <time>2018-03-09T19:38:36Z</time>
      </trkpt>
      <trkpt lat="46.82474" lon="-1.99502">
        <ele>2</ele>
        <time>2018-03-09T19:39:36Z</time>
      </trkpt>
      <trkpt lat="46.82469" lon="-1.9951">
        <ele>2</ele>
        <time>2018-03-09T19:40:36Z</time>
      </trkpt>
      <trkpt lat="46.82464" lon="-1.99518">
        <ele>1</ele>
        <time>2018-03-09T19:41:36Z</time>
      </trkpt>
      <trkpt lat="46.8246" lon="-1.99524">
        <ele>1</ele>
        <time>2018-03-09T19:42:36Z</time>
      </trkpt>
      <trkpt lat="46.82456" lon="-1.99533">
        <ele>1</ele>
        <time>2018-03-09T19:43:36Z</time>
      </trkpt>
      <trkpt lat="46.82453" lon="-1.99541">
        <ele>1</ele>
        <time>2018-03-09T19:44:36Z</time>
      </trkpt>
      <trkpt lat="46.8245" lon="-1.99551">
        <ele>1</ele>
        <time>2018-03-09T19:45:36Z</time>
      </trkpt>
      <trkpt lat="46.82445" lon="-1.99564">
        <ele>1</ele>
        <time>2018-03-09T19:46:36Z</time>
      </trkpt>
      <trkpt lat="46.82445" lon="-1.99564">
        <ele>1</ele>
        <time>2018-03-09T19:47:36Z</time>
      </trkpt>
      <trkpt lat="46.82446" lon="-1.99565">
        <ele>1</ele>
        <time>2018-03-09T19:48:36Z</time>
      </trkpt>
      <trkpt lat="46.82447" lon="-1.99566">
        <ele>1</ele>
        <time>2018-03-09T19:49:36Z</time>
      </trkpt>
      <trkpt lat="46.82447" lon="-1.99567">
        <ele>1</ele>
        <time>2018-03-09T19:50:36Z</time>
      </trkpt>
      <trkpt lat="46.82447" lon="-1.99568">
        <ele>1</ele>
        <time>2018-03-09T19:51:36Z</time>
      </trkpt>
      <trkpt lat="46.82448" lon="-1.99569">
        <ele>1</ele>
        <time>2018-03-09T19:52:36Z</time>
      </trkpt>
      <trkpt lat="46.82448" lon="-1.9957">
        <ele>1</ele>
        <time>2018-03-09T19:53:36Z</time>
      </trkpt>
      <trkpt lat="46.82448" lon="-1.99571">
        <ele>1</ele>
        <time>2018-03-09T19:54:36Z</time>
      </trkpt>
      <trkpt lat="46.82448" lon="-1.99572">
        <ele>1</ele>
        <time>2018-03-09T19:55:36Z</time>
      </trkpt>
      <trkpt lat="46.82449" lon="-1.99574">
        <ele>2</ele>
        <time>2018-03-09T19:56:36Z</time>
      </trkpt>
      <trkpt lat="46.82449" lon="-1.99575">
        <ele>2</ele>
        <time>2018-03-09T19:57:36Z</time>
      </trkpt>
      <trkpt lat="46.82449" lon="-1.99576">
        <ele>2</ele>
        <time>2018-03-09T19:58:36Z</time>
      </trkpt>
      <trkpt lat="46.82449" lon="-1.99577">
        <ele>2</ele>
        <time>2018-03-09T19:59:36Z</time>
      </trkpt>
      <trkpt lat="46.82449" lon="-1.99578">
        <ele>2</ele>
        <time>2018-03-09T20:00:36Z</time>
      </trkpt>
      <trkpt lat="46.82448" lon="-1.99579">
        <ele>2</ele>
        <time>2018-03-09T20:01:36Z</time>
      </trkpt>
      <trkpt lat="46.82448" lon="-1.9958">
        <ele>2</ele>
        <time>2018-03-09T20:02:36Z</time>
      </trkpt>
      <trkpt lat="46.82448" lon="-1.99581">
        <ele>2</ele>
        <time>2018-03-09T20:03:36Z</time>
      </trkpt>
      <trkpt lat="46.82448" lon="-1.99582">
        <ele>2</ele>
        <time>2018-03-09T20:04:36Z</time>
      </trkpt>
      <trkpt lat="46.82448" lon="-1.99583">
        <ele>2</ele>
        <time>2018-03-09T20:05:36Z</time>
      </trkpt>
      <trkpt lat="46.82447" lon="-1.99584">
        <ele>2</ele>
        <time>2018-03-09T20:06:36Z</time>
      </trkpt>
      <trkpt lat="46.82447" lon="-1.99585">
        <ele>2</ele>
        <time>2018-03-09T20:07:36Z</time>
      </trkpt>
      <trkpt lat="46.82447" lon="-1.99586">
        <ele>2</ele>
        <time>2018-03-09T20:08:36Z</time>
      </trkpt>
      <trkpt lat="46.82446" lon="-1.99587">
        <ele>2</ele>
        <time>2018-03-09T20:09:36Z</time>
      </trkpt>
      <trkpt lat="46.82445" lon="-1.99588">
        <ele>2</ele>
        <time>2018-03-09T20:10:36Z</time>
      </trkpt>
      <trkpt lat="46.82445" lon="-1.99589">
        <ele>2</ele>
        <time>2018-03-09T20:11:36Z</time>
      </trkpt>
      <trkpt lat="46.82444" lon="-1.9959">
        <ele>2</ele>
        <time>2018-03-09T20:12:36Z</time>
      </trkpt>
      <trkpt lat="46.82443" lon="-1.99591">
        <ele>2</ele>
        <time>2018-03-09T20:13:36Z</time>
      </trkpt>
      <trkpt lat="46.82442" lon="-1.99592">
        <ele>2</ele>
        <time>2018-03-09T20:14:36Z</time>
      </trkpt>
      <trkpt lat="46.82441" lon="-1.99592">
        <ele>2</ele>
        <time>2018-03-09T20:15:36Z</time>
      </trkpt>
      <trkpt lat="46.8244" lon="-1.99593">
        <ele>2</ele>
        <time>2018-03-09T20:16:36Z</time>
      </trkpt>
      <trkpt lat="46.82439" lon="-1.99593">
        <ele>2</ele>
        <time>2018-03-09T20:17:36Z</time>
      </trkpt>
      <trkpt lat="46.82439" lon="-1.99594">
        <ele>2</ele>
        <time>2018-03-09T20:18:36Z</time>
      </trkpt>
      <trkpt lat="46.82438" lon="-1.99594">
        <ele>2</ele>
        <time>2018-03-09T20:19:36Z</time>
      </trkpt>
      <trkpt lat="46.82437" lon="-1.99594">
        <ele>2</ele>
        <time>2018-03-09T20:20:36Z</time>
      </trkpt>
      <trkpt lat="46.82436" lon="-1.99594">
        <ele>2</ele>
        <time>2018-03-09T20:21:36Z</time>
      </trkpt>
      <trkpt lat="46.82435" lon="-1.99595">
        <ele>2</ele>
        <time>2018-03-09T20:22:36Z</time>
      </trkpt>
      <trkpt lat="46.82434" lon="-1.99594">
        <ele>2</ele>
        <time>2018-03-09T20:23:36Z</time>
      </trkpt>
      <trkpt lat="46.82433" lon="-1.99594">
        <ele>2</ele>
        <time>2018-03-09T20:24:36Z</time>
      </trkpt>
      <trkpt lat="46.82432" lon="-1.99594">
        <ele>2</ele>
        <time>2018-03-09T20:25:36Z</time>
      </trkpt>
      <trkpt lat="46.82431" lon="-1.99594">
        <ele>2</ele>
        <time>2018-03-09T20:26:36Z</time>
      </trkpt>
      <trkpt lat="46.8243" lon="-1.99593">
        <ele>2</ele>
        <time>2018-03-09T20:27:36Z</time>
      </trkpt>
      <trkpt lat="46.82429" lon="-1.99593">
        <ele>2</ele>
        <time>2018-03-09T20:28:36Z</time>
      </trkpt>
      <trkpt lat="46.82429" lon="-1.99592">
        <ele>2</ele>
        <time>2018-03-09T20:29:36Z</time>
      </trkpt>
      <trkpt lat="46.82428" lon="-1.99592">
        <ele>2</ele>
        <time>2018-03-09T20:30:36Z</time>
      </trkpt>
      <trkpt lat="46.82428" lon="-1.99591">
        <ele>2</ele>
        <time>2018-03-09T20:31:36Z</time>
      </trkpt>
      <trkpt lat="46.82427" lon="-1.99591">
        <ele>2</ele>
        <time>2018-03-09T20:32:36Z</time>
      </trkpt>
      <trkpt lat="46.82427" lon="-1.9959">
        <ele>2</ele>
        <time>2018-03-09T20:33:36Z</time>
      </trkpt>
      <trkpt lat="46.82426" lon="-1.9959">
        <ele>2</ele>
        <time>2018-03-09T20:34:36Z</time>
      </trkpt>
      <trkpt lat="46.82426" lon="-1.99589">
        <ele>2</ele>
        <time>2018-03-09T20:35:36Z</time>
      </trkpt>
      <trkpt lat="46.82426" lon="-1.99588">
        <ele>2</ele>
        <time>2018-03-09T20:36:36Z</time>
      </trkpt>
      <trkpt lat="46.82425" lon="-1.99587">
        <ele>2</ele>
        <time>2018-03-09T20:37:36Z</time>
      </trkpt>
      <trkpt lat="46.82425" lon="-1.99586">
        <ele>2</ele>
        <time>2018-03-09T20:38:36Z</time>
      </trkpt>
      <trkpt lat="46.82424" lon="-1.99585">
        <ele>2</ele>
        <time>2018-03-09T20:39:36Z</time>
      </trkpt>
      <trkpt lat="46.82424" lon="-1.99584">
        <ele>2</ele>
        <time>2018-03-09T20:40:36Z</time>
      </trkpt>
      <trkpt lat="46.82424" lon="-1.99583">
        <ele>2</ele>
        <time>2018-03-09T20:41:36Z</time>
      </trkpt>
      <trkpt lat="46.82423" lon="-1.99582">
        <ele>2</ele>
        <time>2018-03-09T20:42:36Z</time>
      </trkpt>
      <trkpt lat="46.82423" lon="-1.99581">
        <ele>2</ele>
        <time>2018-03-09T20:43:36Z</time>
      </trkpt>
      <trkpt lat="46.82423" lon="-1.9958">
        <ele>2</ele>
        <time>2018-03-09T20:44:36Z</time>
      </trkpt>
      <trkpt lat="46.8242" lon="-1.99577">
        <ele>2</ele>
        <time>2018-03-09T20:45:36Z</time>
      </trkpt>
      <trkpt lat="46.82411" lon="-1.99571">
        <ele>2</ele>
        <time>2018-03-09T20:46:36Z</time>
      </trkpt>
      <trkpt lat="46.82407" lon="-1.99568">
        <ele>2</ele>
        <time>2018-03-09T20:47:36Z</time>
      </trkpt>
      <trkpt lat="46.82403" lon="-1.99565">
        <ele>2</ele>
        <time>2018-03-09T20:48:36Z</time>
      </trkpt>
      <trkpt lat="46.82391" lon="-1.99559">
        <ele>1</ele>
        <time>2018-03-09T20:49:36Z</time>
      </trkpt>
      <trkpt lat="46.82371" lon="-1.99547">
        <ele>1</ele>
        <time>2018-03-09T20:50:36Z</time>
      </trkpt>
      <trkpt lat="46.82366" lon="-1.99544">
        <ele>1</ele>
        <time>2018-03-09T20:51:36Z</time>
      </trkpt>
      <trkpt lat="46.82352" lon="-1.9954">
        <ele>1</ele>
        <time>2018-03-09T20:52:36Z</time>
      </trkpt>
      <trkpt lat="46.82341" lon="-1.99533">
        <ele>1</ele>
        <time>2018-03-09T20:53:36Z</time>
      </trkpt>
      <trkpt lat="46.82326" lon="-1.99524">
        <ele>2</ele>
        <time>2018-03-09T20:54:36Z</time>
      </trkpt>
      <trkpt lat="46.82305" lon="-1.9951">
        <ele>2</ele>
        <time>2018-03-09T20:55:36Z</time>
      </trkpt>
      <trkpt lat="46.82286" lon="-1.99496">
        <ele>2</ele>
        <time>2018-03-09T20:56:36Z</time>
      </trkpt>
      <trkpt lat="46.82278" lon="-1.99491">
        <ele>2</ele>
        <time>2018-03-09T20:57:36Z</time>
      </trkpt>
      <trkpt lat="46.82271" lon="-1.99486">
        <ele>2</ele>
        <time>2018-03-09T20:58:36Z</time>
      </trkpt>
      <trkpt lat="46.82265" lon="-1.99482">
        <ele>2</ele>
        <time>2018-03-09T20:59:36Z</time>
      </trkpt>
      <trkpt lat="46.82264" lon="-1.99481">
        <ele>2</ele>
        <time>2018-03-09T21:00:36Z</time>
      </trkpt>
      <trkpt lat="46.82252" lon="-1.99472">
        <ele>2</ele>
        <time>2018-03-09T21:01:36Z</time>
      </trkpt>
      <trkpt lat="46.8225" lon="-1.99471">
        <ele>2</ele>
        <time>2018-03-09T21:02:36Z</time>
      </trkpt>
      <trkpt lat="46.8225" lon="-1.99471">
        <ele>2</ele>
        <time>2018-03-09T21:03:36Z</time>
      </trkpt>
      <trkpt lat="46.82229" lon="-1.99454">
        <ele>2</ele>
        <time>2018-03-09T21:04:36Z</time>
      </trkpt>
      <trkpt lat="46.82221" lon="-1.99448">
        <ele>2</ele>
        <time>2018-03-09T21:05:36Z</time>
      </trkpt>
      <trkpt lat="46.82201" lon="-1.99433">
        <ele>2</ele>
        <time>2018-03-09T21:06:36Z</time>
      </trkpt>
      <trkpt lat="46.82193" lon="-1.99427">
        <ele>1</ele>
        <time>2018-03-09T21:07:36Z</time>
      </trkpt>
      <trkpt lat="46.82177" lon="-1.99416">
        <ele>1</ele>
        <time>2018-03-09T21:08:36Z</time>
      </trkpt>
      <trkpt lat="46.82165" lon="-1.99409">
        <ele>1</ele>
        <time>2018-03-09T21:09:36Z</time>
      </trkpt>
      <trkpt lat="46.82159" lon="-1.99405">
        <ele>1</ele>
        <time>2018-03-09T21:10:36Z</time>
      </trkpt>
      <trkpt lat="46.82141" lon="-1.99391">
        <ele>1</ele>
        <time>2018-03-09T21:11:36Z</time>
      </trkpt>
      <trkpt lat="46.82127" lon="-1.99382">
        <ele>1</ele>
        <time>2018-03-09T21:12:36Z</time>
      </trkpt>
      <trkpt lat="46.8212" lon="-1.99379">
        <ele>1</ele>
        <time>2018-03-09T21:13:36Z</time>
      </trkpt>
      <trkpt lat="46.82116" lon="-1.99376">
        <ele>1</ele>
        <time>2018-03-09T21:14:36Z</time>
      </trkpt>
      <trkpt lat="46.82109" lon="-1.99373">
        <ele>1</ele>
        <time>2018-03-09T21:15:36Z</time>
      </trkpt>
      <trkpt lat="46.82103" lon="-1.99371">
        <ele>1</ele>
        <time>2018-03-09T21:16:36Z</time>
      </trkpt>
      <trkpt lat="46.82092" lon="-1.99366">
        <ele>1</ele>
        <time>2018-03-09T21:17:36Z</time>
      </trkpt>
      <trkpt lat="46.82064" lon="-1.99358">
        <ele>1</ele>
        <time>2018-03-09T21:18:36Z</time>
      </trkpt>
      <trkpt lat="46.82026" lon="-1.99347">
        <ele>2</ele>
        <time>2018-03-09T21:19:36Z</time>
      </trkpt>
      <trkpt lat="46.82024" lon="-1.99346">
        <ele>2</ele>
        <time>2018-03-09T21:20:36Z</time>
      </trkpt>
      <trkpt lat="46.82009" lon="-1.99341">
        <ele>2</ele>
        <time>2018-03-09T21:21:36Z</time>
      </trkpt>
      <trkpt lat="46.82001" lon="-1.99337">
        <ele>2</ele>
        <time>2018-03-09T21:22:36Z</time>
      </trkpt>
      <trkpt lat="46.81959" lon="-1.99318">
        <ele>2</ele>
        <time>2018-03-09T21:23:36Z</time>
      </trkpt>
      <trkpt lat="46.81957" lon="-1.99317">
        <ele>2</ele>
        <time>2018-03-09T21:24:36Z</time>
      </trkpt>
      <trkpt lat="46.8194" lon="-1.99309">
        <ele>2</ele>
        <time>2018-03-09T21:25:36Z</time>
      </trkpt>
      <trkpt lat="46.81938" lon="-1.99308">
        <ele>2</ele>
        <time>2018-03-09T21:26:36Z</time>
      </trkpt>
      <trkpt lat="46.8193" lon="-1.99305">
        <ele>2</ele>
        <time>2018-03-09T21:27:36Z</time>
      </trkpt>
      <trkpt lat="46.81912" lon="-1.99305">
        <ele>2</ele>
        <time>2018-03-09T21:28:36Z</time>
      </trkpt>
      <trkpt lat="46.81911" lon="-1.99306">
        <ele>2</ele>
        <time>2018-03-09T21:29:36Z</time>
      </trkpt>
      <trkpt lat="46.81911" lon="-1.99307">
        <ele>2</ele>
        <time>2018-03-09T21:30:36Z</time>
      </trkpt>
      <trkpt lat="46.8191" lon="-1.99307">
        <ele>2</ele>
        <time>2018-03-09T21:31:36Z</time>
      </trkpt>
      <trkpt lat="46.8191" lon="-1.99308">
        <ele>2</ele>
        <time>2018-03-09T21:32:36Z</time>
      </trkpt>
      <trkpt lat="46.81909" lon="-1.99308">
        <ele>2</ele>
        <time>2018-03-09T21:33:36Z</time>
      </trkpt>
      <trkpt lat="46.81908" lon="-1.99309">
        <ele>2</ele>
        <time>2018-03-09T21:34:36Z</time>
      </trkpt>
      <trkpt lat="46.81907" lon="-1.99309">
        <ele>2</ele>
        <time>2018-03-09T21:35:36Z</time>
      </trkpt>
      <trkpt lat="46.81906" lon="-1.99309">
        <ele>2</ele>
        <time>2018-03-09T21:36:36Z</time>
      </trkpt>
      <trkpt lat="46.81906" lon="-1.9931">
        <ele>2</ele>
        <time>2018-03-09T21:37:36Z</time>
      </trkpt>
      <trkpt lat="46.81905" lon="-1.9931">
        <ele>2</ele>
        <time>2018-03-09T21:38:36Z</time>
      </trkpt>
      <trkpt lat="46.81904" lon="-1.9931">
        <ele>2</ele>
        <time>2018-03-09T21:39:36Z</time>
      </trkpt>
      <trkpt lat="46.81904" lon="-1.99309">
        <ele>2</ele>
        <time>2018-03-09T21:40:36Z</time>
      </trkpt>
      <trkpt lat="46.81903" lon="-1.99309">
        <ele>2</ele>
        <time>2018-03-09T21:41:36Z</time>
      </trkpt>
      <trkpt lat="46.81902" lon="-1.99309">
        <ele>2</ele>
        <time>2018-03-09T21:42:36Z</time>
      </trkpt>
      <trkpt lat="46.81901" lon="-1.99309">
        <ele>2</ele>
        <time>2018-03-09T21:43:36Z</time>
      </trkpt>
      <trkpt lat="46.81901" lon="-1.99308">
        <ele>2</ele>
        <time>2018-03-09T21:44:36Z</time>
      </trkpt>
      <trkpt lat="46.819" lon="-1.99308">
        <ele>2</ele>
        <time>2018-03-09T21:45:36Z</time>
      </trkpt>
      <trkpt lat="46.819" lon="-1.99307">
        <ele>2</ele>
        <time>2018-03-09T21:46:36Z</time>
      </trkpt>
      <trkpt lat="46.81899" lon="-1.99307">
        <ele>2</ele>
        <time>2018-03-09T21:47:36Z</time>
      </trkpt>
      <trkpt lat="46.81899" lon="-1.99306">
        <ele>2</ele>
        <time>2018-03-09T21:48:36Z</time>
      </trkpt>
      <trkpt lat="46.81898" lon="-1.99306">
        <ele>2</ele>
        <time>2018-03-09T21:49:36Z</time>
      </trkpt>
      <trkpt lat="46.81898" lon="-1.99305">
        <ele>2</ele>
        <time>2018-03-09T21:50:36Z</time>
      </trkpt>
      <trkpt lat="46.81897" lon="-1.99304">
        <ele>2</ele>
        <time>2018-03-09T21:51:36Z</time>
      </trkpt>
      <trkpt lat="46.81897" lon="-1.99303">
        <ele>2</ele>
        <time>2018-03-09T21:52:36Z</time>
      </trkpt>
      <trkpt lat="46.81897" lon="-1.99302">
        <ele>2</ele>
        <time>2018-03-09T21:53:36Z</time>
      </trkpt>
      <trkpt lat="46.81896" lon="-1.99302">
        <ele>2</ele>
        <time>2018-03-09T21:54:36Z</time>
      </trkpt>
      <trkpt lat="46.81896" lon="-1.99301">
        <ele>2</ele>
        <time>2018-03-09T21:55:36Z</time>
      </trkpt>
      <trkpt lat="46.81896" lon="-1.993">
        <ele>2</ele>
        <time>2018-03-09T21:56:36Z</time>
      </trkpt>
      <trkpt lat="46.81896" lon="-1.99299">
        <ele>2</ele>
        <time>2018-03-09T21:57:36Z</time>
      </trkpt>
      <trkpt lat="46.81896" lon="-1.99298">
        <ele>2</ele>
        <time>2018-03-09T21:58:36Z</time>
      </trkpt>
      <trkpt lat="46.81896" lon="-1.99297">
        <ele>2</ele>
        <time>2018-03-09T21:59:36Z</time>
      </trkpt>
      <trkpt lat="46.81878" lon="-1.99285">
        <ele>2</ele>
        <time>2018-03-09T22:00:36Z</time>
      </trkpt>
      <trkpt lat="46.81874" lon="-1.99282">
        <ele>2</ele>
        <time>2018-03-09T22:01:36Z</time>
      </trkpt>
      <trkpt lat="46.81869" lon="-1.99278">
        <ele>2</ele>
        <time>2018-03-09T22:02:36Z</time>
      </trkpt>
      <trkpt lat="46.81835" lon="-1.99268">
        <ele>2</ele>
        <time>2018-03-09T22:03:36Z</time>
      </trkpt>
      <trkpt lat="46.81802" lon="-1.99259">
        <ele>2</ele>
        <time>2018-03-09T22:04:36Z</time>
      </trkpt>
      <trkpt lat="46.81748" lon="-1.99246">
        <ele>1</ele>
        <time>2018-03-09T22:05:36Z</time>
      </trkpt>
      <trkpt lat="46.81733" lon="-1.99241">
        <ele>1</ele>
        <time>2018-03-09T22:06:36Z</time>
      </trkpt>
      <trkpt lat="46.81702" lon="-1.99235">
        <ele>1</ele>
        <time>2018-03-09T22:07:36Z</time>
      </trkpt>
      <trkpt lat="46.81696" lon="-1.99234">
        <ele>2</ele>
        <time>2018-03-09T22:08:36Z</time>
      </trkpt>
      <trkpt lat="46.81672" lon="-1.99226">
        <ele>2</ele>
        <time>2018-03-09T22:09:36Z</time>
      </trkpt>
      <trkpt lat="46.8165" lon="-1.99216">
        <ele>2</ele>
        <time>2018-03-09T22:10:36Z</time>
      </trkpt>
      <trkpt lat="46.81645" lon="-1.99214">
        <ele>2</ele>
        <time>2018-03-09T22:11:36Z</time>
      </trkpt>
      <trkpt lat="46.81631" lon="-1.99207">
        <ele>2</ele>
        <time>2018-03-09T22:12:36Z</time>
      </trkpt>
      <trkpt lat="46.81604" lon="-1.99187">
        <ele>1</ele>
        <time>2018-03-09T22:13:36Z</time>
      </trkpt>
      <trkpt lat="46.81574" lon="-1.99159">
        <ele>1</ele>
        <time>2018-03-09T22:14:36Z</time>
      </trkpt>
      <trkpt lat="46.81544" lon="-1.99129">
        <ele>2</ele>
        <time>2018-03-09T22:15:36Z</time>
      </trkpt>
      <trkpt lat="46.81527" lon="-1.9911">
        <ele>2</ele>
        <time>2018-03-09T22:16:36Z</time>
      </trkpt>
      <trkpt lat="46.81522" lon="-1.99104">
        <ele>2</ele>
        <time>2018-03-09T22:17:36Z</time>
      </trkpt>
      <trkpt lat="46.81496" lon="-1.9908">
        <ele>3</ele>
        <time>2018-03-09T22:18:36Z</time>
      </trkpt>
      <trkpt lat="46.81461" lon="-1.99046">
        <ele>2</ele>
        <time>2018-03-09T22:19:36Z</time>
      </trkpt>
      <trkpt lat="46.81427" lon="-1.99014">
        <ele>2</ele>
        <time>2018-03-09T22:20:36Z</time>
      </trkpt>
      <trkpt lat="46.81385" lon="-1.98973">
        <ele>2</ele>
        <time>2018-03-09T22:21:36Z</time>
      </trkpt>
      <trkpt lat="46.8135" lon="-1.98938">
        <ele>2</ele>
        <time>2018-03-09T22:22:36Z</time>
      </trkpt>
      <trkpt lat="46.81297" lon="-1.98885">
        <ele>1</ele>
        <time>2018-03-09T22:23:36Z</time>
      </trkpt>
      <trkpt lat="46.81282" lon="-1.9887">
        <ele>1</ele>
        <time>2018-03-09T22:24:36Z</time>
      </trkpt>
      <trkpt lat="46.81251" lon="-1.98841">
        <ele>2</ele>
        <time>2018-03-09T22:25:36Z</time>
      </trkpt>
      <trkpt lat="46.81244" lon="-1.98835">
        <ele>1.8</ele>
        <time>2018-03-09T22:26:36Z</time>
      </trkpt>
      <trkpt lat="46.81234" lon="-1.98828">
        <ele>1.4</ele>
        <time>2018-03-09T22:27:36Z</time>
      </trkpt>
      <trkpt lat="46.81225" lon="-1.98822">
        <ele>1.1</ele>
        <time>2018-03-09T22:28:36Z</time>
      </trkpt>
      <trkpt lat="46.81212" lon="-1.98819">
        <ele>1.4</ele>
        <time>2018-03-09T22:29:36Z</time>
      </trkpt>
      <trkpt lat="46.81197" lon="-1.98819">
        <ele>1.9</ele>
        <time>2018-03-09T22:30:36Z</time>
      </trkpt>
      <trkpt lat="46.81188" lon="-1.98823">
        <ele>2</ele>
        <time>2018-03-09T22:31:36Z</time>
      </trkpt>
      <trkpt lat="46.81183" lon="-1.98825">
        <ele>2</ele>
        <time>2018-03-09T22:32:36Z</time>
      </trkpt>
      <trkpt lat="46.81176" lon="-1.98831">
        <ele>2</ele>
        <time>2018-03-09T22:33:36Z</time>
      </trkpt>
      <trkpt lat="46.81165" lon="-1.98844">
        <ele>1</ele>
        <time>2018-03-09T22:34:36Z</time>
      </trkpt>
      <trkpt lat="46.81149" lon="-1.98867">
        <ele>1</ele>
        <time>2018-03-09T22:35:36Z</time>
      </trkpt>
      <trkpt lat="46.81132" lon="-1.98892">
        <ele>1</ele>
        <time>2018-03-09T22:36:36Z</time>
      </trkpt>
      <trkpt lat="46.81124" lon="-1.98903">
        <ele>1</ele>
        <time>2018-03-09T22:37:36Z</time>
      </trkpt>
      <trkpt lat="46.81115" lon="-1.9891">
        <ele>1</ele>
        <time>2018-03-09T22:38:36Z</time>
      </trkpt>
      <trkpt lat="46.81109" lon="-1.98916">
        <ele>1</ele>
        <time>2018-03-09T22:39:36Z</time>
      </trkpt>
      <trkpt lat="46.81102" lon="-1.98915">
        <ele>1</ele>
        <time>2018-03-09T22:40:36Z</time>
      </trkpt>
      <trkpt lat="46.81092" lon="-1.98916">
        <ele>1</ele>
        <time>2018-03-09T22:41:36Z</time>
      </trkpt>
      <trkpt lat="46.81082" lon="-1.98915">
        <ele>1</ele>
        <time>2018-03-09T22:42:36Z</time>
      </trkpt>
      <trkpt lat="46.81076" lon="-1.98914">
        <ele>1</ele>
        <time>2018-03-09T22:43:36Z</time>
      </trkpt>
      <trkpt lat="46.81063" lon="-1.98909">
        <ele>1</ele>
        <time>2018-03-09T22:44:36Z</time>
      </trkpt>
      <trkpt lat="46.81049" lon="-1.98901">
        <ele>1</ele>
        <time>2018-03-09T22:45:36Z</time>
      </trkpt>
      <trkpt lat="46.81029" lon="-1.98885">
        <ele>1</ele>
        <time>2018-03-09T22:46:36Z</time>
      </trkpt>
      <trkpt lat="46.81011" lon="-1.98871">
        <ele>1</ele>
        <time>2018-03-09T22:47:36Z</time>
      </trkpt>
      <trkpt lat="46.80982" lon="-1.98848">
        <ele>2</ele>
        <time>2018-03-09T22:48:36Z</time>
      </trkpt>
      <trkpt lat="46.80932" lon="-1.98808">
        <ele>1</ele>
        <time>2018-03-09T22:49:36Z</time>
      </trkpt>
      <trkpt lat="46.80874" lon="-1.98762">
        <ele>1</ele>
        <time>2018-03-09T22:50:36Z</time>
      </trkpt>
      <trkpt lat="46.80823" lon="-1.98721">
        <ele>1.6</ele>
        <time>2018-03-09T22:51:36Z</time>
      </trkpt>
      <trkpt lat="46.80799" lon="-1.98696">
        <ele>2</ele>
        <time>2018-03-09T22:52:36Z</time>
      </trkpt>
      <trkpt lat="46.80741" lon="-1.98633">
        <ele>2</ele>
        <time>2018-03-09T22:53:36Z</time>
      </trkpt>
      <trkpt lat="46.80691" lon="-1.98577">
        <ele>1</ele>
        <time>2018-03-09T22:54:36Z</time>
      </trkpt>
      <trkpt lat="46.80628" lon="-1.9851">
        <ele>1</ele>
        <time>2018-03-09T22:55:36Z</time>
      </trkpt>
      <trkpt lat="46.8053" lon="-1.98408">
        <ele>2</ele>
        <time>2018-03-09T22:56:36Z</time>
      </trkpt>
      <trkpt lat="46.80522" lon="-1.98399">
        <ele>2.1</ele>
        <time>2018-03-09T22:57:36Z</time>
      </trkpt>
      <trkpt lat="46.80483" lon="-1.98363">
        <ele>1</ele>
        <time>2018-03-09T22:58:36Z</time>
      </trkpt>
      <trkpt lat="46.80479" lon="-1.98366">
        <ele>1</ele>
        <time>2018-03-09T22:59:36Z</time>
      </trkpt>
      <trkpt lat="46.80476" lon="-1.98368">
        <ele>1</ele>
        <time>2018-03-09T23:00:36Z</time>
      </trkpt>
      <trkpt lat="46.80472" lon="-1.98368">
        <ele>1</ele>
        <time>2018-03-09T23:01:36Z</time>
      </trkpt>
      <trkpt lat="46.80469" lon="-1.98368">
        <ele>1</ele>
        <time>2018-03-09T23:02:36Z</time>
      </trkpt>
      <trkpt lat="46.80465" lon="-1.98365">
        <ele>1</ele>
        <time>2018-03-09T23:03:36Z</time>
      </trkpt>
      <trkpt lat="46.80463" lon="-1.98363">
        <ele>1</ele>
        <time>2018-03-09T23:04:36Z</time>
      </trkpt>
      <trkpt lat="46.80461" lon="-1.9836">
        <ele>1</ele>
        <time>2018-03-09T23:05:36Z</time>
      </trkpt>
      <trkpt lat="46.80459" lon="-1.98357">
        <ele>1</ele>
        <time>2018-03-09T23:06:36Z</time>
      </trkpt>
      <trkpt lat="46.80457" lon="-1.9835">
        <ele>1</ele>
        <time>2018-03-09T23:07:36Z</time>
      </trkpt>
      <trkpt lat="46.80457" lon="-1.98345">
        <ele>1</ele>
        <time>2018-03-09T23:08:36Z</time>
      </trkpt>
      <trkpt lat="46.80457" lon="-1.98342">
        <ele>1</ele>
        <time>2018-03-09T23:09:36Z</time>
      </trkpt>
      <trkpt lat="46.80438" lon="-1.98312">
        <ele>1</ele>
        <time>2018-03-09T23:10:36Z</time>
      </trkpt>
      <trkpt lat="46.80426" lon="-1.98291">
        <ele>1</ele>
        <time>2018-03-09T23:11:36Z</time>
      </trkpt>
      <trkpt lat="46.80387" lon="-1.98245">
        <ele>2</ele>
        <time>2018-03-09T23:12:36Z</time>
      </trkpt>
      <trkpt lat="46.80368" lon="-1.98222">
        <ele>2</ele>
        <time>2018-03-09T23:13:36Z</time>
      </trkpt>
      <trkpt lat="46.80354" lon="-1.98206">
        <ele>2</ele>
        <time>2018-03-09T23:14:36Z</time>
      </trkpt>
      <trkpt lat="46.8033" lon="-1.98178">
        <ele>1</ele>
        <time>2018-03-09T23:15:36Z</time>
      </trkpt>
      <trkpt lat="46.80307" lon="-1.98155">
        <ele>1</ele>
        <time>2018-03-09T23:16:36Z</time>
      </trkpt>
      <trkpt lat="46.80291" lon="-1.98135">
        <ele>2</ele>
        <time>2018-03-09T23:17:36Z</time>
      </trkpt>
      <trkpt lat="46.8029" lon="-1.98133">
        <ele>2</ele>
        <time>2018-03-09T23:18:36Z</time>
      </trkpt>
      <trkpt lat="46.80276" lon="-1.98119">
        <ele>2</ele>
        <time>2018-03-09T23:19:36Z</time>
      </trkpt>
      <trkpt lat="46.80262" lon="-1.98105">
        <ele>2</ele>
        <time>2018-03-09T23:20:36Z</time>
      </trkpt>
      <trkpt lat="46.80244" lon="-1.98094">
        <ele>2</ele>
        <time>2018-03-09T23:21:36Z</time>
      </trkpt>
      <trkpt lat="46.80226" lon="-1.98085">
        <ele>2</ele>
        <time>2018-03-09T23:22:36Z</time>
      </trkpt>
      <trkpt lat="46.80212" lon="-1.9808">
        <ele>2</ele>
        <time>2018-03-09T23:23:36Z</time>
      </trkpt>
      <trkpt lat="46.80188" lon="-1.9807">
        <ele>2</ele>
        <time>2018-03-09T23:24:36Z</time>
      </trkpt>
      <trkpt lat="46.8016" lon="-1.98058">
        <ele>1</ele>
        <time>2018-03-09T23:25:36Z</time>
      </trkpt>
      <trkpt lat="46.8014" lon="-1.9805">
        <ele>1</ele>
        <time>2018-03-09T23:26:36Z</time>
      </trkpt>
      <trkpt lat="46.80128" lon="-1.98045">
        <ele>1</ele>
        <time>2018-03-09T23:27:36Z</time>
      </trkpt>
      <trkpt lat="46.80126" lon="-1.98045">
        <ele>1</ele>
        <time>2018-03-09T23:28:36Z</time>
      </trkpt>
      <trkpt lat="46.80097" lon="-1.98034">
        <ele>2</ele>
        <time>2018-03-09T23:29:36Z</time>
      </trkpt>
      <trkpt lat="46.80063" lon="-1.98017">
        <ele>2</ele>
        <time>2018-03-09T23:30:36Z</time>
      </trkpt>
      <trkpt lat="46.80035" lon="-1.98003">
        <ele>2.7</ele>
        <time>2018-03-09T23:31:36Z</time>
      </trkpt>
      <trkpt lat="46.80027" lon="-1.97997">
        <ele>2.9</ele>
        <time>2018-03-09T23:32:36Z</time>
      </trkpt>
      <trkpt lat="46.80002" lon="-1.97973">
        <ele>2</ele>
        <time>2018-03-09T23:33:36Z</time>
      </trkpt>
      <trkpt lat="46.79974" lon="-1.9794">
        <ele>2</ele>
        <time>2018-03-09T23:34:36Z</time>
      </trkpt>
      <trkpt lat="46.79972" lon="-1.97938">
        <ele>2</ele>
        <time>2018-03-09T23:35:36Z</time>
      </trkpt>
      <trkpt lat="46.79941" lon="-1.97903">
        <ele>2</ele>
        <time>2018-03-09T23:36:36Z</time>
      </trkpt>
      <trkpt lat="46.79912" lon="-1.97874">
        <ele>2</ele>
        <time>2018-03-09T23:37:36Z</time>
      </trkpt>
      <trkpt lat="46.79879" lon="-1.97853">
        <ele>2</ele>
        <time>2018-03-09T23:38:36Z</time>
      </trkpt>
      <trkpt lat="46.79845" lon="-1.97834">
        <ele>2</ele>
        <time>2018-03-09T23:39:36Z</time>
      </trkpt>
      <trkpt lat="46.79818" lon="-1.97823">
        <ele>2</ele>
        <time>2018-03-09T23:40:36Z</time>
      </trkpt>
      <trkpt lat="46.79791" lon="-1.97817">
        <ele>2</ele>
        <time>2018-03-09T23:41:36Z</time>
      </trkpt>
      <trkpt lat="46.7977" lon="-1.97818">
        <ele>1</ele>
        <time>2018-03-09T23:42:36Z</time>
      </trkpt>
      <trkpt lat="46.79753" lon="-1.97822">
        <ele>1</ele>
        <time>2018-03-09T23:43:36Z</time>
      </trkpt>
      <trkpt lat="46.79728" lon="-1.97832">
        <ele>1</ele>
        <time>2018-03-09T23:44:36Z</time>
      </trkpt>
      <trkpt lat="46.79705" lon="-1.97841">
        <ele>1</ele>
        <time>2018-03-09T23:45:36Z</time>
      </trkpt>
      <trkpt lat="46.79681" lon="-1.97851">
        <ele>1</ele>
        <time>2018-03-09T23:46:36Z</time>
      </trkpt>
      <trkpt lat="46.79642" lon="-1.97867">
        <ele>1</ele>
        <time>2018-03-09T23:47:36Z</time>
      </trkpt>
      <trkpt lat="46.79616" lon="-1.97877">
        <ele>2</ele>
        <time>2018-03-09T23:48:36Z</time>
      </trkpt>
      <trkpt lat="46.7959" lon="-1.97887">
        <ele>2</ele>
        <time>2018-03-09T23:49:36Z</time>
      </trkpt>
      <trkpt lat="46.79571" lon="-1.97892">
        <ele>2</ele>
        <time>2018-03-09T23:50:36Z</time>
      </trkpt>
      <trkpt lat="46.79557" lon="-1.97895">
        <ele>2</ele>
        <time>2018-03-09T23:51:36Z</time>
      </trkpt>
      <trkpt lat="46.79537" lon="-1.97898">
        <ele>1.8</ele>
        <time>2018-03-09T23:52:36Z</time>
      </trkpt>
      <trkpt lat="46.7949" lon="-1.97903">
        <ele>1.8</ele>
        <time>2018-03-09T23:53:36Z</time>
      </trkpt>
      <trkpt lat="46.79423" lon="-1.97912">
        <ele>2</ele>
        <time>2018-03-09T23:54:36Z</time>
      </trkpt>
      <trkpt lat="46.79351" lon="-1.9792">
        <ele>1</ele>
        <time>2018-03-09T23:55:36Z</time>
      </trkpt>
      <trkpt lat="46.79312" lon="-1.97923">
        <ele>1</ele>
        <time>2018-03-09T23:56:36Z</time>
      </trkpt>
      <trkpt lat="46.793" lon="-1.97923">
        <ele>1</ele>
        <time>2018-03-09T23:57:36Z</time>
      </trkpt>
      <trkpt lat="46.79294" lon="-1.97921">
        <ele>1</ele>
        <time>2018-03-09T23:58:36Z</time>
      </trkpt>
      <trkpt lat="46.79291" lon="-1.9792">
        <ele>1</ele>
        <time>2018-03-09T23:59:36Z</time>
      </trkpt>
      <trkpt lat="46.79287" lon="-1.97918">
        <ele>1</ele>
        <time>2018-03-10T00:00:36Z</time>
      </trkpt>
      <trkpt lat="46.79277" lon="-1.97913">
        <ele>1</ele>
        <time>2018-03-10T00:01:36Z</time>
      </trkpt>
      <trkpt lat="46.79273" lon="-1.9791">
        <ele>1</ele>
        <time>2018-03-10T00:02:36Z</time>
      </trkpt>
      <trkpt lat="46.79268" lon="-1.97907">
        <ele>1</ele>
        <time>2018-03-10T00:03:36Z</time>
      </trkpt>
      <trkpt lat="46.79261" lon="-1.97899">
        <ele>1</ele>
        <time>2018-03-10T00:04:36Z</time>
      </trkpt>
      <trkpt lat="46.79256" lon="-1.97893">
        <ele>1</ele>
        <time>2018-03-10T00:05:36Z</time>
      </trkpt>
      <trkpt lat="46.79245" lon="-1.97877">
        <ele>1</ele>
        <time>2018-03-10T00:06:36Z</time>
      </trkpt>
      <trkpt lat="46.79227" lon="-1.97845">
        <ele>1</ele>
        <time>2018-03-10T00:07:36Z</time>
      </trkpt>
      <trkpt lat="46.79202" lon="-1.97797">
        <ele>1</ele>
        <time>2018-03-10T00:08:36Z</time>
      </trkpt>
      <trkpt lat="46.79154" lon="-1.97705">
        <ele>2</ele>
        <time>2018-03-10T00:09:36Z</time>
      </trkpt>
      <trkpt lat="46.79132" lon="-1.97662">
        <ele>1.8</ele>
        <time>2018-03-10T00:10:36Z</time>
      </trkpt>
      <trkpt lat="46.79111" lon="-1.97621">
        <ele>1</ele>
        <time>2018-03-10T00:11:36Z</time>
      </trkpt>
      <trkpt lat="46.79076" lon="-1.97554">
        <ele>1</ele>
        <time>2018-03-10T00:12:36Z</time>
      </trkpt>
      <trkpt lat="46.7907" lon="-1.97542">
        <ele>1</ele>
        <time>2018-03-10T00:13:36Z</time>
      </trkpt>
      <trkpt lat="46.79053" lon="-1.9751">
        <ele>1</ele>
        <time>2018-03-10T00:14:36Z</time>
      </trkpt>
      <trkpt lat="46.7903" lon="-1.97473">
        <ele>1</ele>
        <time>2018-03-10T00:15:36Z</time>
      </trkpt>
      <trkpt lat="46.79006" lon="-1.97445">
        <ele>2</ele>
        <time>2018-03-10T00:16:36Z</time>
      </trkpt>
      <trkpt lat="46.78983" lon="-1.97425">
        <ele>2</ele>
        <time>2018-03-10T00:17:36Z</time>
      </trkpt>
      <trkpt lat="46.78968" lon="-1.97414">
        <ele>2</ele>
        <time>2018-03-10T00:18:36Z</time>
      </trkpt>
      <trkpt lat="46.78959" lon="-1.97409">
        <ele>2</ele>
        <time>2018-03-10T00:19:36Z</time>
      </trkpt>
      <trkpt lat="46.78935" lon="-1.97397">
        <ele>2</ele>
        <time>2018-03-10T00:20:36Z</time>
      </trkpt>
      <trkpt lat="46.78896" lon="-1.97382">
        <ele>3</ele>
        <time>2018-03-10T00:21:36Z</time>
      </trkpt>
      <trkpt lat="46.78843" lon="-1.97362">
        <ele>5</ele>
        <time>2018-03-10T00:22:36Z</time>
      </trkpt>
      <trkpt lat="46.78761" lon="-1.97331">
        <ele>3</ele>
        <time>2018-03-10T00:23:36Z</time>
      </trkpt>
      <trkpt lat="46.78708" lon="-1.97311">
        <ele>3</ele>
        <time>2018-03-10T00:24:36Z</time>
      </trkpt>
      <trkpt lat="46.78647" lon="-1.97287">
        <ele>3</ele>
        <time>2018-03-10T00:25:36Z</time>
      </trkpt>
      <trkpt lat="46.78638" lon="-1.97284">
        <ele>3</ele>
        <time>2018-03-10T00:26:36Z</time>
      </trkpt>
      <trkpt lat="46.78612" lon="-1.97274">
        <ele>4</ele>
        <time>2018-03-10T00:27:36Z</time>
      </trkpt>
      <trkpt lat="46.78587" lon="-1.97263">
        <ele>5</ele>
        <time>2018-03-10T00:28:36Z</time>
      </trkpt>
      <trkpt lat="46.7852" lon="-1.97238">
        <ele>5</ele>
        <time>2018-03-10T00:29:36Z</time>
      </trkpt>
      <trkpt lat="46.78503" lon="-1.97232">
        <ele>4</ele>
        <time>2018-03-10T00:30:36Z</time>
      </trkpt>
      <trkpt lat="46.78465" lon="-1.97216">
        <ele>4</ele>
        <time>2018-03-10T00:31:36Z</time>
      </trkpt>
      <trkpt lat="46.78423" lon="-1.97197">
        <ele>5</ele>
        <time>2018-03-10T00:32:36Z</time>
      </trkpt>
      <trkpt lat="46.78307" lon="-1.97133">
        <ele>5</ele>
        <time>2018-03-10T00:33:36Z</time>
      </trkpt>
      <trkpt lat="46.78282" lon="-1.97119">
        <ele>4</ele>
        <time>2018-03-10T00:34:36Z</time>
      </trkpt>
      <trkpt lat="46.78249" lon="-1.971">
        <ele>3</ele>
        <time>2018-03-10T00:35:36Z</time>
      </trkpt>
      <trkpt lat="46.7822" lon="-1.97084">
        <ele>3</ele>
        <time>2018-03-10T00:36:36Z</time>
      </trkpt>
      <trkpt lat="46.78207" lon="-1.97077">
        <ele>3</ele>
        <time>2018-03-10T00:37:36Z</time>
      </trkpt>
      <trkpt lat="46.78183" lon="-1.97064">
        <ele>3</ele>
        <time>2018-03-10T00:38:36Z</time>
      </trkpt>
      <trkpt lat="46.78149" lon="-1.97046">
        <ele>4</ele>
        <time>2018-03-10T00:39:36Z</time>
      </trkpt>
      <trkpt lat="46.78108" lon="-1.97022">
        <ele>5</ele>
        <time>2018-03-10T00:40:36Z</time>
      </trkpt>
      <trkpt lat="46.78048" lon="-1.96989">
        <ele>5</ele>
        <time>2018-03-10T00:41:36Z</time>
      </trkpt>
      <trkpt lat="46.77993" lon="-1.96959">
        <ele>4</ele>
        <time>2018-03-10T00:42:36Z</time>
      </trkpt>
      <trkpt lat="46.7796" lon="-1.9694">
        <ele>4</ele>
        <time>2018-03-10T00:43:36Z</time>
      </trkpt>
      <trkpt lat="46.77938" lon="-1.96929">
        <ele>3</ele>
        <time>2018-03-10T00:44:36Z</time>
      </trkpt>
      <trkpt lat="46.77917" lon="-1.96918">
        <ele>3</ele>
        <time>2018-03-10T00:45:36Z</time>
      </trkpt>
      <trkpt lat="46.77886" lon="-1.96906">
        <ele>4</ele>
        <time>2018-03-10T00:46:36Z</time>
      </trkpt>
      <trkpt lat="46.77842" lon="-1.96888">
        <ele>5</ele>
        <time>2018-03-10T00:47:36Z</time>
      </trkpt>
      <trkpt lat="46.77818" lon="-1.96879">
        <ele>5</ele>
        <time>2018-03-10T00:48:36Z</time>
      </trkpt>
      <trkpt lat="46.77782" lon="-1.96865">
        <ele>4</ele>
        <time>2018-03-10T00:49:36Z</time>
      </trkpt>
      <trkpt lat="46.77755" lon="-1.96851">
        <ele>4</ele>
        <time>2018-03-10T00:50:36Z</time>
      </trkpt>
      <trkpt lat="46.77731" lon="-1.96834">
        <ele>4</ele>
        <time>2018-03-10T00:51:36Z</time>
      </trkpt>
      <trkpt lat="46.77701" lon="-1.9681">
        <ele>3</ele>
        <time>2018-03-10T00:52:36Z</time>
      </trkpt>
      <trkpt lat="46.77684" lon="-1.96793">
        <ele>3</ele>
        <time>2018-03-10T00:53:36Z</time>
      </trkpt>
      <trkpt lat="46.77571" lon="-1.96688">
        <ele>5</ele>
        <time>2018-03-10T00:54:36Z</time>
      </trkpt>
      <trkpt lat="46.77524" lon="-1.96644">
        <ele>6</ele>
        <time>2018-03-10T00:55:36Z</time>
      </trkpt>
      <trkpt lat="46.77518" lon="-1.96641">
        <ele>6</ele>
        <time>2018-03-10T00:56:36Z</time>
      </trkpt>
      <trkpt lat="46.77481" lon="-1.96606">
        <ele>6</ele>
        <time>2018-03-10T00:57:36Z</time>
      </trkpt>
      <trkpt lat="46.77477" lon="-1.96599">
        <ele>6</ele>
        <time>2018-03-10T00:58:36Z</time>
      </trkpt>
      <trkpt lat="46.77468" lon="-1.9659">
        <ele>6</ele>
        <time>2018-03-10T00:59:36Z</time>
      </trkpt>
      <trkpt lat="46.77467" lon="-1.96589">
        <ele>6</ele>
        <time>2018-03-10T01:00:36Z</time>
      </trkpt>
      <trkpt lat="46.77365" lon="-1.96485">
        <ele>4</ele>
        <time>2018-03-10T01:01:36Z</time>
      </trkpt>
      <trkpt lat="46.77363" lon="-1.96484">
        <ele>4</ele>
        <time>2018-03-10T01:02:36Z</time>
      </trkpt>
      <trkpt lat="46.77306" lon="-1.96428">
        <ele>5</ele>
        <time>2018-03-10T01:03:36Z</time>
      </trkpt>
      <trkpt lat="46.77281" lon="-1.96404">
        <ele>5</ele>
        <time>2018-03-10T01:04:36Z</time>
      </trkpt>
      <trkpt lat="46.77263" lon="-1.96387">
        <ele>4</ele>
        <time>2018-03-10T01:05:36Z</time>
      </trkpt>
      <trkpt lat="46.77211" lon="-1.96338">
        <ele>5</ele>
        <time>2018-03-10T01:06:36Z</time>
      </trkpt>
      <trkpt lat="46.77186" lon="-1.9632">
        <ele>6</ele>
        <time>2018-03-10T01:07:36Z</time>
      </trkpt>
      <trkpt lat="46.77166" lon="-1.96314">
        <ele>7</ele>
        <time>2018-03-10T01:08:36Z</time>
      </trkpt>
      <trkpt lat="46.77166" lon="-1.96319">
        <ele>7</ele>
        <time>2018-03-10T01:09:36Z</time>
      </trkpt>
      <trkpt lat="46.77166" lon="-1.96322">
        <ele>7</ele>
        <time>2018-03-10T01:10:36Z</time>
      </trkpt>
      <trkpt lat="46.77165" lon="-1.96324">
        <ele>7</ele>
        <time>2018-03-10T01:11:36Z</time>
      </trkpt>
      <trkpt lat="46.77164" lon="-1.96327">
        <ele>7</ele>
        <time>2018-03-10T01:12:36Z</time>
      </trkpt>
      <trkpt lat="46.77162" lon="-1.96328">
        <ele>7</ele>
        <time>2018-03-10T01:13:36Z</time>
      </trkpt>
      <trkpt lat="46.7716" lon="-1.9633">
        <ele>7</ele>
        <time>2018-03-10T01:14:36Z</time>
      </trkpt>
      <trkpt lat="46.77158" lon="-1.9633">
        <ele>7</ele>
        <time>2018-03-10T01:15:36Z</time>
      </trkpt>
      <trkpt lat="46.77156" lon="-1.96329">
        <ele>7</ele>
        <time>2018-03-10T01:16:36Z</time>
      </trkpt>
      <trkpt lat="46.77154" lon="-1.96328">
        <ele>7</ele>
        <time>2018-03-10T01:17:36Z</time>
      </trkpt>
      <trkpt lat="46.77153" lon="-1.96326">
        <ele>7</ele>
        <time>2018-03-10T01:18:36Z</time>
      </trkpt>
      <trkpt lat="46.77152" lon="-1.96324">
        <ele>7</ele>
        <time>2018-03-10T01:19:36Z</time>
      </trkpt>
      <trkpt lat="46.77151" lon="-1.9632">
        <ele>7</ele>
        <time>2018-03-10T01:20:36Z</time>
      </trkpt>
      <trkpt lat="46.77151" lon="-1.96317">
        <ele>6</ele>
        <time>2018-03-10T01:21:36Z</time>
      </trkpt>
      <trkpt lat="46.77151" lon="-1.96315">
        <ele>6</ele>
        <time>2018-03-10T01:22:36Z</time>
      </trkpt>
      <trkpt lat="46.77132" lon="-1.96302">
        <ele>6</ele>
        <time>2018-03-10T01:23:36Z</time>
      </trkpt>
      <trkpt lat="46.77103" lon="-1.96298">
        <ele>6</ele>
        <time>2018-03-10T01:24:36Z</time>
      </trkpt>
      <trkpt lat="46.77029" lon="-1.96289">
        <ele>4</ele>
        <time>2018-03-10T01:25:36Z</time>
      </trkpt>
      <trkpt lat="46.77023" lon="-1.96289">
        <ele>3</ele>
        <time>2018-03-10T01:26:36Z</time>
      </trkpt>
      <trkpt lat="46.76955" lon="-1.96283">
        <ele>3</ele>
        <time>2018-03-10T01:27:36Z</time>
      </trkpt>
      <trkpt lat="46.76928" lon="-1.96281">
        <ele>3</ele>
        <time>2018-03-10T01:28:36Z</time>
      </trkpt>
      <trkpt lat="46.76887" lon="-1.96274">
        <ele>4</ele>
        <time>2018-03-10T01:29:36Z</time>
      </trkpt>
      <trkpt lat="46.76872" lon="-1.96271">
        <ele>3</ele>
        <time>2018-03-10T01:30:36Z</time>
      </trkpt>
      <trkpt lat="46.76817" lon="-1.96263">
        <ele>3</ele>
        <time>2018-03-10T01:31:36Z</time>
      </trkpt>
      <trkpt lat="46.76785" lon="-1.96253">
        <ele>3</ele>
        <time>2018-03-10T01:32:36Z</time>
      </trkpt>
      <trkpt lat="46.76722" lon="-1.9623">
        <ele>3</ele>
        <time>2018-03-10T01:33:36Z</time>
      </trkpt>
      <trkpt lat="46.76618" lon="-1.96189">
        <ele>4</ele>
        <time>2018-03-10T01:34:36Z</time>
      </trkpt>
      <trkpt lat="46.76539" lon="-1.9616">
        <ele>3</ele>
        <time>2018-03-10T01:35:36Z</time>
      </trkpt>
      <trkpt lat="46.76513" lon="-1.9615">
        <ele>3</ele>
        <time>2018-03-10T01:36:36Z</time>
      </trkpt>
      <trkpt lat="46.76485" lon="-1.96139">
        <ele>2</ele>
        <time>2018-03-10T01:37:36Z</time>
      </trkpt>
      <trkpt lat="46.76435" lon="-1.96123">
        <ele>2</ele>
        <time>2018-03-10T01:38:36Z</time>
      </trkpt>
      <trkpt lat="46.76431" lon="-1.96121">
        <ele>2</ele>
        <time>2018-03-10T01:39:36Z</time>
      </trkpt>
      <trkpt lat="46.76411" lon="-1.96114">
        <ele>2</ele>
        <time>2018-03-10T01:40:36Z</time>
      </trkpt>
      <trkpt lat="46.76383" lon="-1.96105">
        <ele>2</ele>
        <time>2018-03-10T01:41:36Z</time>
      </trkpt>
      <trkpt lat="46.76353" lon="-1.96093">
        <ele>3</ele>
        <time>2018-03-10T01:42:36Z</time>
      </trkpt>
      <trkpt lat="46.76325" lon="-1.9608">
        <ele>3</ele>
        <time>2018-03-10T01:43:36Z</time>
      </trkpt>
      <trkpt lat="46.76318" lon="-1.96076">
        <ele>3</ele>
        <time>2018-03-10T01:44:36Z</time>
      </trkpt>
      <trkpt lat="46.76308" lon="-1.9607">
        <ele>3</ele>
        <time>2018-03-10T01:45:36Z</time>
      </trkpt>
      <trkpt lat="46.76286" lon="-1.96055">
        <ele>3</ele>
        <time>2018-03-10T01:46:36Z</time>
      </trkpt>
      <trkpt lat="46.76249" lon="-1.96029">
        <ele>4</ele>
        <time>2018-03-10T01:47:36Z</time>
      </trkpt>
      <trkpt lat="46.76226" lon="-1.96014">
        <ele>4</ele>
        <time>2018-03-10T01:48:36Z</time>
      </trkpt>
      <trkpt lat="46.76203" lon="-1.96002">
        <ele>4</ele>
        <time>2018-03-10T01:49:36Z</time>
      </trkpt>
      <trkpt lat="46.76153" lon="-1.95979">
        <ele>3</ele>
        <time>2018-03-10T01:50:36Z</time>
      </trkpt>
      <trkpt lat="46.76101" lon="-1.95956">
        <ele>4</ele>
        <time>2018-03-10T01:51:36Z</time>
      </trkpt>
      <trkpt lat="46.76057" lon="-1.95938">
        <ele>5</ele>
        <time>2018-03-10T01:52:36Z</time>
      </trkpt>
      <trkpt lat="46.7605" lon="-1.95936">
        <ele>5</ele>
        <time>2018-03-10T01:53:36Z</time>
      </trkpt>
      <trkpt lat="46.76034" lon="-1.95931">
        <ele>5</ele>
        <time>2018-03-10T01:54:36Z</time>
      </trkpt>
      <trkpt lat="46.7602" lon="-1.95927">
        <ele>5</ele>
        <time>2018-03-10T01:55:36Z</time>
      </trkpt>
      <trkpt lat="46.76002" lon="-1.95925">
        <ele>6</ele>
        <time>2018-03-10T01:56:36Z</time>
      </trkpt>
      <trkpt lat="46.75982" lon="-1.95923">
        <ele>5</ele>
        <time>2018-03-10T01:57:36Z</time>
      </trkpt>
      <trkpt lat="46.75927" lon="-1.9592">
        <ele>4</ele>
        <time>2018-03-10T01:58:36Z</time>
      </trkpt>
      <trkpt lat="46.75906" lon="-1.9592">
        <ele>4</ele>
        <time>2018-03-10T01:59:36Z</time>
      </trkpt>
      <trkpt lat="46.75903" lon="-1.9592">
        <ele>4</ele>
        <time>2018-03-10T02:00:36Z</time>
      </trkpt>
      <trkpt lat="46.75857" lon="-1.95917">
        <ele>3</ele>
        <time>2018-03-10T02:01:36Z</time>
      </trkpt>
      <trkpt lat="46.75855" lon="-1.95917">
        <ele>3</ele>
        <time>2018-03-10T02:02:36Z</time>
      </trkpt>
      <trkpt lat="46.75766" lon="-1.95913">
        <ele>2</ele>
        <time>2018-03-10T02:03:36Z</time>
      </trkpt>
      <trkpt lat="46.75724" lon="-1.95909">
        <ele>3</ele>
        <time>2018-03-10T02:04:36Z</time>
      </trkpt>
      <trkpt lat="46.75696" lon="-1.95905">
        <ele>3</ele>
        <time>2018-03-10T02:05:36Z</time>
      </trkpt>
      <trkpt lat="46.75657" lon="-1.95895">
        <ele>3</ele>
        <time>2018-03-10T02:06:36Z</time>
      </trkpt>
      <trkpt lat="46.75612" lon="-1.95882">
        <ele>2</ele>
        <time>2018-03-10T02:07:36Z</time>
      </trkpt>
      <trkpt lat="46.75565" lon="-1.95868">
        <ele>1</ele>
        <time>2018-03-10T02:08:36Z</time>
      </trkpt>
      <trkpt lat="46.75564" lon="-1.95868">
        <ele>1</ele>
        <time>2018-03-10T02:09:36Z</time>
      </trkpt>
      <trkpt lat="46.7553" lon="-1.95855">
        <ele>2</ele>
        <time>2018-03-10T02:10:36Z</time>
      </trkpt>
      <trkpt lat="46.75522" lon="-1.95849">
        <ele>2</ele>
        <time>2018-03-10T02:11:36Z</time>
      </trkpt>
      <trkpt lat="46.75506" lon="-1.9584">
        <ele>3</ele>
        <time>2018-03-10T02:12:36Z</time>
      </trkpt>
      <trkpt lat="46.75477" lon="-1.95826">
        <ele>2</ele>
        <time>2018-03-10T02:13:36Z</time>
      </trkpt>
      <trkpt lat="46.75427" lon="-1.95799">
        <ele>2</ele>
        <time>2018-03-10T02:14:36Z</time>
      </trkpt>
      <trkpt lat="46.75367" lon="-1.95767">
        <ele>1</ele>
        <time>2018-03-10T02:15:36Z</time>
      </trkpt>
      <trkpt lat="46.75348" lon="-1.95757">
        <ele>1</ele>
        <time>2018-03-10T02:16:36Z</time>
      </trkpt>
      <trkpt lat="46.7531" lon="-1.95737">
        <ele>1</ele>
        <time>2018-03-10T02:17:36Z</time>
      </trkpt>
      <trkpt lat="46.75274" lon="-1.9572">
        <ele>1</ele>
        <time>2018-03-10T02:18:36Z</time>
      </trkpt>
      <trkpt lat="46.75243" lon="-1.95711">
        <ele>1</ele>
        <time>2018-03-10T02:19:36Z</time>
      </trkpt>
      <trkpt lat="46.75236" lon="-1.95709">
        <ele>1</ele>
        <time>2018-03-10T02:20:36Z</time>
      </trkpt>
      <trkpt lat="46.75217" lon="-1.95706">
        <ele>2</ele>
        <time>2018-03-10T02:21:36Z</time>
      </trkpt>
      <trkpt lat="46.75193" lon="-1.95706">
        <ele>1</ele>
        <time>2018-03-10T02:22:36Z</time>
      </trkpt>
      <trkpt lat="46.75163" lon="-1.95705">
        <ele>1</ele>
        <time>2018-03-10T02:23:36Z</time>
      </trkpt>
      <trkpt lat="46.75128" lon="-1.95704">
        <ele>1</ele>
        <time>2018-03-10T02:24:36Z</time>
      </trkpt>
      <trkpt lat="46.75102" lon="-1.95701">
        <ele>1</ele>
        <time>2018-03-10T02:25:36Z</time>
      </trkpt>
      <trkpt lat="46.7508" lon="-1.95696">
        <ele>1</ele>
        <time>2018-03-10T02:26:36Z</time>
      </trkpt>
      <trkpt lat="46.75053" lon="-1.95686">
        <ele>1</ele>
        <time>2018-03-10T02:27:36Z</time>
      </trkpt>
      <trkpt lat="46.75029" lon="-1.95675">
        <ele>1</ele>
        <time>2018-03-10T02:28:36Z</time>
      </trkpt>
      <trkpt lat="46.74994" lon="-1.95658">
        <ele>2</ele>
        <time>2018-03-10T02:29:36Z</time>
      </trkpt>
      <trkpt lat="46.74953" lon="-1.95639">
        <ele>1</ele>
        <time>2018-03-10T02:30:36Z</time>
      </trkpt>
      <trkpt lat="46.74928" lon="-1.95627">
        <ele>1</ele>
        <time>2018-03-10T02:31:36Z</time>
      </trkpt>
      <trkpt lat="46.7492" lon="-1.95623">
        <ele>1</ele>
        <time>2018-03-10T02:32:36Z</time>
      </trkpt>
      <trkpt lat="46.74893" lon="-1.95608">
        <ele>1</ele>
        <time>2018-03-10T02:33:36Z</time>
      </trkpt>
      <trkpt lat="46.74872" lon="-1.95599">
        <ele>1</ele>
        <time>2018-03-10T02:34:36Z</time>
      </trkpt>
      <trkpt lat="46.74848" lon="-1.95588">
        <ele>2</ele>
        <time>2018-03-10T02:35:36Z</time>
      </trkpt>
      <trkpt lat="46.74826" lon="-1.9558">
        <ele>2</ele>
        <time>2018-03-10T02:36:36Z</time>
      </trkpt>
      <trkpt lat="46.74806" lon="-1.95574">
        <ele>2</ele>
        <time>2018-03-10T02:37:36Z</time>
      </trkpt>
      <trkpt lat="46.74785" lon="-1.95572">
        <ele>1</ele>
        <time>2018-03-10T02:38:36Z</time>
      </trkpt>
      <trkpt lat="46.74771" lon="-1.9557">
        <ele>1</ele>
        <time>2018-03-10T02:39:36Z</time>
      </trkpt>
      <trkpt lat="46.74762" lon="-1.95571">
        <ele>1</ele>
        <time>2018-03-10T02:40:36Z</time>
      </trkpt>
      <trkpt lat="46.74738" lon="-1.95572">
        <ele>1</ele>
        <time>2018-03-10T02:41:36Z</time>
      </trkpt>
      <trkpt lat="46.74708" lon="-1.95575">
        <ele>2</ele>
        <time>2018-03-10T02:42:36Z</time>
      </trkpt>
      <trkpt lat="46.74688" lon="-1.95576">
        <ele>2</ele>
        <time>2018-03-10T02:43:36Z</time>
      </trkpt>
      <trkpt lat="46.74666" lon="-1.95578">
        <ele>2</ele>
        <time>2018-03-10T02:44:36Z</time>
      </trkpt>
      <trkpt lat="46.74644" lon="-1.95576">
        <ele>2</ele>
        <time>2018-03-10T02:45:36Z</time>
      </trkpt>
      <trkpt lat="46.7462" lon="-1.95573">
        <ele>2</ele>
        <time>2018-03-10T02:46:36Z</time>
      </trkpt>
      <trkpt lat="46.74591" lon="-1.95567">
        <ele>3</ele>
        <time>2018-03-10T02:47:36Z</time>
      </trkpt>
      <trkpt lat="46.74567" lon="-1.95561">
        <ele>3</ele>
        <time>2018-03-10T02:48:36Z</time>
      </trkpt>
      <trkpt lat="46.74531" lon="-1.95554">
        <ele>2</ele>
        <time>2018-03-10T02:49:36Z</time>
      </trkpt>
      <trkpt lat="46.74509" lon="-1.95549">
        <ele>2</ele>
        <time>2018-03-10T02:50:36Z</time>
      </trkpt>
      <trkpt lat="46.74493" lon="-1.95545">
        <ele>2</ele>
        <time>2018-03-10T02:51:36Z</time>
      </trkpt>
      <trkpt lat="46.74484" lon="-1.95541">
        <ele>1</ele>
        <time>2018-03-10T02:52:36Z</time>
      </trkpt>
      <trkpt lat="46.7448" lon="-1.9554">
        <ele>1</ele>
        <time>2018-03-10T02:53:36Z</time>
      </trkpt>
      <trkpt lat="46.74469" lon="-1.95537">
        <ele>1</ele>
        <time>2018-03-10T02:54:36Z</time>
      </trkpt>
      <trkpt lat="46.74469" lon="-1.95537">
        <ele>1</ele>
        <time>2018-03-10T02:55:36Z</time>
      </trkpt>
      <trkpt lat="46.74468" lon="-1.95542">
        <ele>2</ele>
        <time>2018-03-10T02:56:36Z</time>
      </trkpt>
      <trkpt lat="46.74466" lon="-1.95544">
        <ele>2</ele>
        <time>2018-03-10T02:57:36Z</time>
      </trkpt>
      <trkpt lat="46.74464" lon="-1.95547">
        <ele>2</ele>
        <time>2018-03-10T02:58:36Z</time>
      </trkpt>
      <trkpt lat="46.74461" lon="-1.95548">
        <ele>2</ele>
        <time>2018-03-10T02:59:36Z</time>
      </trkpt>
      <trkpt lat="46.74457" lon="-1.95548">
        <ele>1</ele>
        <time>2018-03-10T03:00:36Z</time>
      </trkpt>
      <trkpt lat="46.74452" lon="-1.95546">
        <ele>1</ele>
        <time>2018-03-10T03:01:36Z</time>
      </trkpt>
      <trkpt lat="46.74448" lon="-1.95542">
        <ele>1</ele>
        <time>2018-03-10T03:02:36Z</time>
      </trkpt>
      <trkpt lat="46.74447" lon="-1.95537">
        <ele>2</ele>
        <time>2018-03-10T03:03:36Z</time>
      </trkpt>
      <trkpt lat="46.74447" lon="-1.9553">
        <ele>2</ele>
        <time>2018-03-10T03:04:36Z</time>
      </trkpt>
      <trkpt lat="46.74432" lon="-1.95514">
        <ele>2</ele>
        <time>2018-03-10T03:05:36Z</time>
      </trkpt>
      <trkpt lat="46.74425" lon="-1.95511">
        <ele>2</ele>
        <time>2018-03-10T03:06:36Z</time>
      </trkpt>
      <trkpt lat="46.74416" lon="-1.95507">
        <ele>2</ele>
        <time>2018-03-10T03:07:36Z</time>
      </trkpt>
      <trkpt lat="46.74394" lon="-1.95502">
        <ele>2</ele>
        <time>2018-03-10T03:08:36Z</time>
      </trkpt>
      <trkpt lat="46.74368" lon="-1.95497">
        <ele>1</ele>
        <time>2018-03-10T03:09:36Z</time>
      </trkpt>
      <trkpt lat="46.7433" lon="-1.9549">
        <ele>1</ele>
        <time>2018-03-10T03:10:36Z</time>
      </trkpt>
      <trkpt lat="46.74293" lon="-1.95482">
        <ele>1</ele>
        <time>2018-03-10T03:11:36Z</time>
      </trkpt>
      <trkpt lat="46.74259" lon="-1.95474">
        <ele>1</ele>
        <time>2018-03-10T03:12:36Z</time>
      </trkpt>
      <trkpt lat="46.74234" lon="-1.95466">
        <ele>1</ele>
        <time>2018-03-10T03:13:36Z</time>
      </trkpt>
      <trkpt lat="46.74206" lon="-1.95455">
        <ele>2</ele>
        <time>2018-03-10T03:14:36Z</time>
      </trkpt>
      <trkpt lat="46.74188" lon="-1.95446">
        <ele>2</ele>
        <time>2018-03-10T03:15:36Z</time>
      </trkpt>
      <trkpt lat="46.74158" lon="-1.95432">
        <ele>2</ele>
        <time>2018-03-10T03:16:36Z</time>
      </trkpt>
      <trkpt lat="46.74136" lon="-1.95419">
        <ele>2</ele>
        <time>2018-03-10T03:17:36Z</time>
      </trkpt>
      <trkpt lat="46.74111" lon="-1.95404">
        <ele>3</ele>
        <time>2018-03-10T03:18:36Z</time>
      </trkpt>
      <trkpt lat="46.74106" lon="-1.954">
        <ele>3</ele>
        <time>2018-03-10T03:19:36Z</time>
      </trkpt>
      <trkpt lat="46.74095" lon="-1.95392">
        <ele>4</ele>
        <time>2018-03-10T03:20:36Z</time>
      </trkpt>
      <trkpt lat="46.7408" lon="-1.95382">
        <ele>5</ele>
        <time>2018-03-10T03:21:36Z</time>
      </trkpt>
      <trkpt lat="46.74062" lon="-1.9537">
        <ele>5</ele>
        <time>2018-03-10T03:22:36Z</time>
      </trkpt>
      <trkpt lat="46.74038" lon="-1.95351">
        <ele>5</ele>
        <time>2018-03-10T03:23:36Z</time>
      </trkpt>
      <trkpt lat="46.7402" lon="-1.95337">
        <ele>5</ele>
        <time>2018-03-10T03:24:36Z</time>
      </trkpt>
      <trkpt lat="46.74006" lon="-1.95327">
        <ele>5</ele>
        <time>2018-03-10T03:25:36Z</time>
      </trkpt>
      <trkpt lat="46.73984" lon="-1.95313">
        <ele>4</ele>
        <time>2018-03-10T03:26:36Z</time>
      </trkpt>
      <trkpt lat="46.73962" lon="-1.95302">
        <ele>4</ele>
        <time>2018-03-10T03:27:36Z</time>
      </trkpt>
      <trkpt lat="46.73939" lon="-1.95292">
        <ele>4</ele>
        <time>2018-03-10T03:28:36Z</time>
      </trkpt>
      <trkpt lat="46.7391" lon="-1.95281">
        <ele>3</ele>
        <time>2018-03-10T03:29:36Z</time>
      </trkpt>
      <trkpt lat="46.7389" lon="-1.95273">
        <ele>3</ele>
        <time>2018-03-10T03:30:36Z</time>
      </trkpt>
      <trkpt lat="46.73862" lon="-1.95261">
        <ele>3</ele>
        <time>2018-03-10T03:31:36Z</time>
      </trkpt>
      <trkpt lat="46.73826" lon="-1.95246">
        <ele>3</ele>
        <time>2018-03-10T03:32:36Z</time>
      </trkpt>
      <trkpt lat="46.73804" lon="-1.95237">
        <ele>4</ele>
        <time>2018-03-10T03:33:36Z</time>
      </trkpt>
      <trkpt lat="46.73784" lon="-1.95228">
        <ele>4</ele>
        <time>2018-03-10T03:34:36Z</time>
      </trkpt>
      <trkpt lat="46.73762" lon="-1.95218">
        <ele>4</ele>
        <time>2018-03-10T03:35:36Z</time>
      </trkpt>
      <trkpt lat="46.73742" lon="-1.95206">
        <ele>4</ele>
        <time>2018-03-10T03:36:36Z</time>
      </trkpt>
      <trkpt lat="46.73714" lon="-1.95191">
        <ele>3</ele>
        <time>2018-03-10T03:37:36Z</time>
      </trkpt>
      <trkpt lat="46.73687" lon="-1.95175">
        <ele>3</ele>
        <time>2018-03-10T03:38:36Z</time>
      </trkpt>
      <trkpt lat="46.73663" lon="-1.95161">
        <ele>3</ele>
        <time>2018-03-10T03:39:36Z</time>
      </trkpt>
      <trkpt lat="46.73662" lon="-1.9516">
        <ele>3</ele>
        <time>2018-03-10T03:40:36Z</time>
      </trkpt>
      <trkpt lat="46.73634" lon="-1.95144">
        <ele>2</ele>
        <time>2018-03-10T03:41:36Z</time>
      </trkpt>
      <trkpt lat="46.73609" lon="-1.9513">
        <ele>2</ele>
        <time>2018-03-10T03:42:36Z</time>
      </trkpt>
      <trkpt lat="46.73589" lon="-1.95117">
        <ele>2</ele>
        <time>2018-03-10T03:43:36Z</time>
      </trkpt>
      <trkpt lat="46.73573" lon="-1.95108">
        <ele>2</ele>
        <time>2018-03-10T03:44:36Z</time>
      </trkpt>
      <trkpt lat="46.73559" lon="-1.951">
        <ele>3</ele>
        <time>2018-03-10T03:45:36Z</time>
      </trkpt>
      <trkpt lat="46.73533" lon="-1.95087">
        <ele>3</ele>
        <time>2018-03-10T03:46:36Z</time>
      </trkpt>
      <trkpt lat="46.73524" lon="-1.95083">
        <ele>4</ele>
        <time>2018-03-10T03:47:36Z</time>
      </trkpt>
      <trkpt lat="46.73513" lon="-1.95077">
        <ele>4</ele>
        <time>2018-03-10T03:48:36Z</time>
      </trkpt>
      <trkpt lat="46.73507" lon="-1.95073">
        <ele>4</ele>
        <time>2018-03-10T03:49:36Z</time>
      </trkpt>
      <trkpt lat="46.73501" lon="-1.95069">
        <ele>4</ele>
        <time>2018-03-10T03:50:36Z</time>
      </trkpt>
      <trkpt lat="46.73497" lon="-1.95067">
        <ele>4</ele>
        <time>2018-03-10T03:51:36Z</time>
      </trkpt>
      <trkpt lat="46.7349" lon="-1.95067">
        <ele>4</ele>
        <time>2018-03-10T03:52:36Z</time>
      </trkpt>
      <trkpt lat="46.73483" lon="-1.95069">
        <ele>4</ele>
        <time>2018-03-10T03:53:36Z</time>
      </trkpt>
      <trkpt lat="46.73475" lon="-1.9507">
        <ele>4</ele>
        <time>2018-03-10T03:54:36Z</time>
      </trkpt>
      <trkpt lat="46.7347" lon="-1.9507">
        <ele>4</ele>
        <time>2018-03-10T03:55:36Z</time>
      </trkpt>
      <trkpt lat="46.73467" lon="-1.95069">
        <ele>4</ele>
        <time>2018-03-10T03:56:36Z</time>
      </trkpt>
      <trkpt lat="46.73456" lon="-1.95066">
        <ele>5</ele>
        <time>2018-03-10T03:57:36Z</time>
      </trkpt>
      <trkpt lat="46.73447" lon="-1.95064">
        <ele>5</ele>
        <time>2018-03-10T03:58:36Z</time>
      </trkpt>
      <trkpt lat="46.73421" lon="-1.9506">
        <ele>5</ele>
        <time>2018-03-10T03:59:36Z</time>
      </trkpt>
      <trkpt lat="46.73413" lon="-1.95056">
        <ele>5</ele>
        <time>2018-03-10T04:00:36Z</time>
      </trkpt>
      <trkpt lat="46.73392" lon="-1.95052">
        <ele>4</ele>
        <time>2018-03-10T04:01:36Z</time>
      </trkpt>
      <trkpt lat="46.73347" lon="-1.95044">
        <ele>4</ele>
        <time>2018-03-10T04:02:36Z</time>
      </trkpt>
      <trkpt lat="46.73309" lon="-1.95037">
        <ele>4</ele>
        <time>2018-03-10T04:03:36Z</time>
      </trkpt>
      <trkpt lat="46.73267" lon="-1.95029">
        <ele>4</ele>
        <time>2018-03-10T04:04:36Z</time>
      </trkpt>
      <trkpt lat="46.73184" lon="-1.95014">
        <ele>6</ele>
        <time>2018-03-10T04:05:36Z</time>
      </trkpt>
      <trkpt lat="46.73133" lon="-1.95002">
        <ele>7</ele>
        <time>2018-03-10T04:06:36Z</time>
      </trkpt>
      <trkpt lat="46.73121" lon="-1.95001">
        <ele>7</ele>
        <time>2018-03-10T04:07:36Z</time>
      </trkpt>
      <trkpt lat="46.73114" lon="-1.94997">
        <ele>7</ele>
        <time>2018-03-10T04:08:36Z</time>
      </trkpt>
      <trkpt lat="46.73055" lon="-1.94978">
        <ele>7</ele>
        <time>2018-03-10T04:09:36Z</time>
      </trkpt>
      <trkpt lat="46.73025" lon="-1.94967">
        <ele>6</ele>
        <time>2018-03-10T04:10:36Z</time>
      </trkpt>
      <trkpt lat="46.73" lon="-1.94957">
        <ele>5</ele>
        <time>2018-03-10T04:11:36Z</time>
      </trkpt>
      <trkpt lat="46.7298" lon="-1.9495">
        <ele>5</ele>
        <time>2018-03-10T04:12:36Z</time>
      </trkpt>
      <trkpt lat="46.72956" lon="-1.94942">
        <ele>5</ele>
        <time>2018-03-10T04:13:36Z</time>
      </trkpt>
      <trkpt lat="46.72938" lon="-1.94935">
        <ele>4</ele>
        <time>2018-03-10T04:14:36Z</time>
      </trkpt>
      <trkpt lat="46.72925" lon="-1.9493">
        <ele>4</ele>
        <time>2018-03-10T04:15:36Z</time>
      </trkpt>
      <trkpt lat="46.72917" lon="-1.94928">
        <ele>4</ele>
        <time>2018-03-10T04:16:36Z</time>
      </trkpt>
      <trkpt lat="46.72906" lon="-1.94925">
        <ele>4</ele>
        <time>2018-03-10T04:17:36Z</time>
      </trkpt>
      <trkpt lat="46.72898" lon="-1.94923">
        <ele>4</ele>
        <time>2018-03-10T04:18:36Z</time>
      </trkpt>
      <trkpt lat="46.72891" lon="-1.94922">
        <ele>4</ele>
        <time>2018-03-10T04:19:36Z</time>
      </trkpt>
      <trkpt lat="46.72884" lon="-1.94922">
        <ele>4</ele>
        <time>2018-03-10T04:20:36Z</time>
      </trkpt>
      <trkpt lat="46.72852" lon="-1.94927">
        <ele>4</ele>
        <time>2018-03-10T04:21:36Z</time>
      </trkpt>
      <trkpt lat="46.72831" lon="-1.94934">
        <ele>4</ele>
        <time>2018-03-10T04:22:36Z</time>
      </trkpt>
      <trkpt lat="46.72823" lon="-1.94937">
        <ele>4</ele>
        <time>2018-03-10T04:23:36Z</time>
      </trkpt>
      <trkpt lat="46.72811" lon="-1.94943">
        <ele>4</ele>
        <time>2018-03-10T04:24:36Z</time>
      </trkpt>
      <trkpt lat="46.72811" lon="-1.94943">
        <ele>4</ele>
        <time>2018-03-10T04:25:36Z</time>
      </trkpt>
      <trkpt lat="46.7281" lon="-1.94944">
        <ele>4</ele>
        <time>2018-03-10T04:26:36Z</time>
      </trkpt>
      <trkpt lat="46.7281" lon="-1.94946">
        <ele>4</ele>
        <time>2018-03-10T04:27:36Z</time>
      </trkpt>
      <trkpt lat="46.72809" lon="-1.94947">
        <ele>4</ele>
        <time>2018-03-10T04:28:36Z</time>
      </trkpt>
      <trkpt lat="46.72808" lon="-1.94949">
        <ele>4</ele>
        <time>2018-03-10T04:29:36Z</time>
      </trkpt>
      <trkpt lat="46.72807" lon="-1.9495">
        <ele>4</ele>
        <time>2018-03-10T04:30:36Z</time>
      </trkpt>
      <trkpt lat="46.72806" lon="-1.94952">
        <ele>4</ele>
        <time>2018-03-10T04:31:36Z</time>
      </trkpt>
      <trkpt lat="46.72805" lon="-1.94953">
        <ele>4</ele>
        <time>2018-03-10T04:32:36Z</time>
      </trkpt>
      <trkpt lat="46.72804" lon="-1.94955">
        <ele>4</ele>
        <time>2018-03-10T04:33:36Z</time>
      </trkpt>
      <trkpt lat="46.72801" lon="-1.94958">
        <ele>4</ele>
        <time>2018-03-10T04:34:36Z</time>
      </trkpt>
      <trkpt lat="46.72798" lon="-1.94961">
        <ele>4</ele>
        <time>2018-03-10T04:35:36Z</time>
      </trkpt>
      <trkpt lat="46.72795" lon="-1.94963">
        <ele>4</ele>
        <time>2018-03-10T04:36:36Z</time>
      </trkpt>
      <trkpt lat="46.72792" lon="-1.94965">
        <ele>4</ele>
        <time>2018-03-10T04:37:36Z</time>
      </trkpt>
      <trkpt lat="46.72788" lon="-1.94966">
        <ele>4</ele>
        <time>2018-03-10T04:38:36Z</time>
      </trkpt>
      <trkpt lat="46.72784" lon="-1.94967">
        <ele>4</ele>
        <time>2018-03-10T04:39:36Z</time>
      </trkpt>
      <trkpt lat="46.72781" lon="-1.94967">
        <ele>4</ele>
        <time>2018-03-10T04:40:36Z</time>
      </trkpt>
      <trkpt lat="46.72777" lon="-1.94967">
        <ele>4</ele>
        <time>2018-03-10T04:41:36Z</time>
      </trkpt>
      <trkpt lat="46.72776" lon="-1.94967">
        <ele>4</ele>
        <time>2018-03-10T04:42:36Z</time>
      </trkpt>
      <trkpt lat="46.72775" lon="-1.94966">
        <ele>4</ele>
        <time>2018-03-10T04:43:36Z</time>
      </trkpt>
      <trkpt lat="46.72774" lon="-1.94966">
        <ele>4</ele>
        <time>2018-03-10T04:44:36Z</time>
      </trkpt>
      <trkpt lat="46.72773" lon="-1.94966">
        <ele>4</ele>
        <time>2018-03-10T04:45:36Z</time>
      </trkpt>
      <trkpt lat="46.72772" lon="-1.94965">
        <ele>4</ele>
        <time>2018-03-10T04:46:36Z</time>
      </trkpt>
      <trkpt lat="46.72771" lon="-1.94965">
        <ele>4</ele>
        <time>2018-03-10T04:47:36Z</time>
      </trkpt>
      <trkpt lat="46.7277" lon="-1.94964">
        <ele>4</ele>
        <time>2018-03-10T04:48:36Z</time>
      </trkpt>
      <trkpt lat="46.72768" lon="-1.94964">
        <ele>4</ele>
        <time>2018-03-10T04:49:36Z</time>
      </trkpt>
      <trkpt lat="46.72767" lon="-1.94963">
        <ele>4</ele>
        <time>2018-03-10T04:50:36Z</time>
      </trkpt>
      <trkpt lat="46.72766" lon="-1.94962">
        <ele>4</ele>
        <time>2018-03-10T04:51:36Z</time>
      </trkpt>
      <trkpt lat="46.72765" lon="-1.94961">
        <ele>4</ele>
        <time>2018-03-10T04:52:36Z</time>
      </trkpt>
      <trkpt lat="46.72764" lon="-1.94961">
        <ele>4</ele>
        <time>2018-03-10T04:53:36Z</time>
      </trkpt>
      <trkpt lat="46.72763" lon="-1.9496">
        <ele>4</ele>
        <time>2018-03-10T04:54:36Z</time>
      </trkpt>
      <trkpt lat="46.72762" lon="-1.94959">
        <ele>4</ele>
        <time>2018-03-10T04:55:36Z</time>
      </trkpt>
      <trkpt lat="46.72761" lon="-1.94958">
        <ele>4</ele>
        <time>2018-03-10T04:56:36Z</time>
      </trkpt>
      <trkpt lat="46.72745" lon="-1.94954">
        <ele>4</ele>
        <time>2018-03-10T04:57:36Z</time>
      </trkpt>
      <trkpt lat="46.72736" lon="-1.94951">
        <ele>4</ele>
        <time>2018-03-10T04:58:36Z</time>
      </trkpt>
      <trkpt lat="46.72724" lon="-1.94945">
        <ele>4</ele>
        <time>2018-03-10T04:59:36Z</time>
      </trkpt>
      <trkpt lat="46.72714" lon="-1.94947">
        <ele>4</ele>
        <time>2018-03-10T05:00:36Z</time>
      </trkpt>
      <trkpt lat="46.72698" lon="-1.94948">
        <ele>4</ele>
        <time>2018-03-10T05:01:36Z</time>
      </trkpt>
      <trkpt lat="46.72689" lon="-1.9495">
        <ele>4</ele>
        <time>2018-03-10T05:02:36Z</time>
      </trkpt>
      <trkpt lat="46.72686" lon="-1.9495">
        <ele>4</ele>
        <time>2018-03-10T05:03:36Z</time>
      </trkpt>
      <trkpt lat="46.72674" lon="-1.94952">
        <ele>4</ele>
        <time>2018-03-10T05:04:36Z</time>
      </trkpt>
      <trkpt lat="46.72657" lon="-1.94954">
        <ele>4</ele>
        <time>2018-03-10T05:05:36Z</time>
      </trkpt>
      <trkpt lat="46.72642" lon="-1.94954">
        <ele>4</ele>
        <time>2018-03-10T05:06:36Z</time>
      </trkpt>
      <trkpt lat="46.72624" lon="-1.94953">
        <ele>4</ele>
        <time>2018-03-10T05:07:36Z</time>
      </trkpt>
      <trkpt lat="46.7261" lon="-1.94952">
        <ele>4</ele>
        <time>2018-03-10T05:08:36Z</time>
      </trkpt>
      <trkpt lat="46.72594" lon="-1.9495">
        <ele>4</ele>
        <time>2018-03-10T05:09:36Z</time>
      </trkpt>
      <trkpt lat="46.72578" lon="-1.94948">
        <ele>4</ele>
        <time>2018-03-10T05:10:36Z</time>
      </trkpt>
      <trkpt lat="46.72566" lon="-1.94946">
        <ele>5</ele>
        <time>2018-03-10T05:11:36Z</time>
      </trkpt>
      <trkpt lat="46.72553" lon="-1.94943">
        <ele>5</ele>
        <time>2018-03-10T05:12:36Z</time>
      </trkpt>
      <trkpt lat="46.72537" lon="-1.94939">
        <ele>5</ele>
        <time>2018-03-10T05:13:36Z</time>
      </trkpt>
      <trkpt lat="46.72525" lon="-1.94935">
        <ele>5</ele>
        <time>2018-03-10T05:14:36Z</time>
      </trkpt>
      <trkpt lat="46.72511" lon="-1.94929">
        <ele>5</ele>
        <time>2018-03-10T05:15:36Z</time>
      </trkpt>
      <trkpt lat="46.72495" lon="-1.94922">
        <ele>5</ele>
        <time>2018-03-10T05:16:36Z</time>
      </trkpt>
      <trkpt lat="46.72485" lon="-1.94918">
        <ele>5</ele>
        <time>2018-03-10T05:17:36Z</time>
      </trkpt>
      <trkpt lat="46.72476" lon="-1.94915">
        <ele>5</ele>
        <time>2018-03-10T05:18:36Z</time>
      </trkpt>
      <trkpt lat="46.72468" lon="-1.94912">
        <ele>5</ele>
        <time>2018-03-10T05:19:36Z</time>
      </trkpt>
      <trkpt lat="46.72461" lon="-1.94909">
        <ele>5</ele>
        <time>2018-03-10T05:20:36Z</time>
      </trkpt>
      <trkpt lat="46.72452" lon="-1.94907">
        <ele>6</ele>
        <time>2018-03-10T05:21:36Z</time>
      </trkpt>
      <trkpt lat="46.72444" lon="-1.94906">
        <ele>6</ele>
        <time>2018-03-10T05:22:36Z</time>
      </trkpt>
      <trkpt lat="46.72435" lon="-1.94906">
        <ele>6</ele>
        <time>2018-03-10T05:23:36Z</time>
      </trkpt>
      <trkpt lat="46.72423" lon="-1.94905">
        <ele>6</ele>
        <time>2018-03-10T05:24:36Z</time>
      </trkpt>
      <trkpt lat="46.72416" lon="-1.94905">
        <ele>6</ele>
        <time>2018-03-10T05:25:36Z</time>
      </trkpt>
      <trkpt lat="46.72406" lon="-1.94904">
        <ele>6</ele>
        <time>2018-03-10T05:26:36Z</time>
      </trkpt>
      <trkpt lat="46.72393" lon="-1.94904">
        <ele>6</ele>
        <time>2018-03-10T05:27:36Z</time>
      </trkpt>
      <trkpt lat="46.72384" lon="-1.94904">
        <ele>6</ele>
        <time>2018-03-10T05:28:36Z</time>
      </trkpt>
      <trkpt lat="46.72377" lon="-1.94905">
        <ele>6</ele>
        <time>2018-03-10T05:29:36Z</time>
      </trkpt>
      <trkpt lat="46.72368" lon="-1.94908">
        <ele>7</ele>
        <time>2018-03-10T05:30:36Z</time>
      </trkpt>
      <trkpt lat="46.72359" lon="-1.94911">
        <ele>7</ele>
        <time>2018-03-10T05:31:36Z</time>
      </trkpt>
      <trkpt lat="46.72359" lon="-1.94911">
        <ele>7</ele>
        <time>2018-03-10T05:32:36Z</time>
      </trkpt>
      <trkpt lat="46.72359" lon="-1.94915">
        <ele>7</ele>
        <time>2018-03-10T05:33:36Z</time>
      </trkpt>
      <trkpt lat="46.72358" lon="-1.94918">
        <ele>7</ele>
        <time>2018-03-10T05:34:36Z</time>
      </trkpt>
      <trkpt lat="46.72356" lon="-1.94921">
        <ele>7</ele>
        <time>2018-03-10T05:35:36Z</time>
      </trkpt>
      <trkpt lat="46.72355" lon="-1.94922">
        <ele>7</ele>
        <time>2018-03-10T05:36:36Z</time>
      </trkpt>
      <trkpt lat="46.72353" lon="-1.94923">
        <ele>7</ele>
        <time>2018-03-10T05:37:36Z</time>
      </trkpt>
      <trkpt lat="46.72351" lon="-1.94924">
        <ele>7</ele>
        <time>2018-03-10T05:38:36Z</time>
      </trkpt>
      <trkpt lat="46.72348" lon="-1.94924">
        <ele>7</ele>
        <time>2018-03-10T05:39:36Z</time>
      </trkpt>
      <trkpt lat="46.72345" lon="-1.94924">
        <ele>7</ele>
        <time>2018-03-10T05:40:36Z</time>
      </trkpt>
      <trkpt lat="46.72343" lon="-1.94923">
        <ele>7</ele>
        <time>2018-03-10T05:41:36Z</time>
      </trkpt>
      <trkpt lat="46.72341" lon="-1.9492">
        <ele>7</ele>
        <time>2018-03-10T05:42:36Z</time>
      </trkpt>
      <trkpt lat="46.72339" lon="-1.94918">
        <ele>7</ele>
        <time>2018-03-10T05:43:36Z</time>
      </trkpt>
      <trkpt lat="46.72338" lon="-1.94914">
        <ele>7</ele>
        <time>2018-03-10T05:44:36Z</time>
      </trkpt>
      <trkpt lat="46.72338" lon="-1.94911">
        <ele>7</ele>
        <time>2018-03-10T05:45:36Z</time>
      </trkpt>
      <trkpt lat="46.72338" lon="-1.94909">
        <ele>7</ele>
        <time>2018-03-10T05:46:36Z</time>
      </trkpt>
      <trkpt lat="46.72332" lon="-1.94895">
        <ele>7</ele>
        <time>2018-03-10T05:47:36Z</time>
      </trkpt>
      <trkpt lat="46.72332" lon="-1.94895">
        <ele>7</ele>
        <time>2018-03-10T05:48:36Z</time>
      </trkpt>
      <trkpt lat="46.72323" lon="-1.94892">
        <ele>7</ele>
        <time>2018-03-10T05:49:36Z</time>
      </trkpt>
      <trkpt lat="46.72313" lon="-1.94888">
        <ele>7</ele>
        <time>2018-03-10T05:50:36Z</time>
      </trkpt>
      <trkpt lat="46.72301" lon="-1.94886">
        <ele>7</ele>
        <time>2018-03-10T05:51:36Z</time>
      </trkpt>
      <trkpt lat="46.72279" lon="-1.9488">
        <ele>8</ele>
        <time>2018-03-10T05:52:36Z</time>
      </trkpt>
      <trkpt lat="46.72229" lon="-1.94864">
        <ele>9</ele>
        <time>2018-03-10T05:53:36Z</time>
      </trkpt>
      <trkpt lat="46.72173" lon="-1.94851">
        <ele>9</ele>
        <time>2018-03-10T05:54:36Z</time>
      </trkpt>
      <trkpt lat="46.72135" lon="-1.9485">
        <ele>10</ele>
        <time>2018-03-10T05:55:36Z</time>
      </trkpt>
      <trkpt lat="46.72103" lon="-1.94856">
        <ele>11</ele>
        <time>2018-03-10T05:56:36Z</time>
      </trkpt>
      <trkpt lat="46.72072" lon="-1.94873">
        <ele>12</ele>
        <time>2018-03-10T05:57:36Z</time>
      </trkpt>
      <trkpt lat="46.72056" lon="-1.94881">
        <ele>12</ele>
        <time>2018-03-10T05:58:36Z</time>
      </trkpt>
      <trkpt lat="46.72036" lon="-1.94891">
        <ele>12</ele>
        <time>2018-03-10T05:59:36Z</time>
      </trkpt>
      <trkpt lat="46.72021" lon="-1.94898">
        <ele>12</ele>
        <time>2018-03-10T06:00:36Z</time>
      </trkpt>
      <trkpt lat="46.71992" lon="-1.9491">
        <ele>13</ele>
        <time>2018-03-10T06:01:36Z</time>
      </trkpt>
      <trkpt lat="46.71969" lon="-1.94918">
        <ele>13</ele>
        <time>2018-03-10T06:02:36Z</time>
      </trkpt>
      <trkpt lat="46.71948" lon="-1.94924">
        <ele>14</ele>
        <time>2018-03-10T06:03:36Z</time>
      </trkpt>
      <trkpt lat="46.71914" lon="-1.94934">
        <ele>14</ele>
        <time>2018-03-10T06:04:36Z</time>
      </trkpt>
      <trkpt lat="46.71894" lon="-1.9494">
        <ele>14</ele>
        <time>2018-03-10T06:05:36Z</time>
      </trkpt>
      <trkpt lat="46.71878" lon="-1.94946">
        <ele>14</ele>
        <time>2018-03-10T06:06:36Z</time>
      </trkpt>
      <trkpt lat="46.71868" lon="-1.94951">
        <ele>14</ele>
        <time>2018-03-10T06:07:36Z</time>
      </trkpt>
      <trkpt lat="46.7186" lon="-1.94957">
        <ele>14</ele>
        <time>2018-03-10T06:08:36Z</time>
      </trkpt>
      <trkpt lat="46.71849" lon="-1.94963">
        <ele>14</ele>
        <time>2018-03-10T06:09:36Z</time>
      </trkpt>
      <trkpt lat="46.71836" lon="-1.94967">
        <ele>14</ele>
        <time>2018-03-10T06:10:36Z</time>
      </trkpt>
      <trkpt lat="46.71814" lon="-1.94979">
        <ele>15</ele>
        <time>2018-03-10T06:11:36Z</time>
      </trkpt>
      <trkpt lat="46.71778" lon="-1.94996">
        <ele>15</ele>
        <time>2018-03-10T06:12:36Z</time>
      </trkpt>
      <trkpt lat="46.71752" lon="-1.95011">
        <ele>16</ele>
        <time>2018-03-10T06:13:36Z</time>
      </trkpt>
      <trkpt lat="46.71729" lon="-1.95025">
        <ele>17</ele>
        <time>2018-03-10T06:14:36Z</time>
      </trkpt>
      <trkpt lat="46.717" lon="-1.95043">
        <ele>17</ele>
        <time>2018-03-10T06:15:36Z</time>
      </trkpt>
      <trkpt lat="46.7167" lon="-1.95065">
        <ele>18</ele>
        <time>2018-03-10T06:16:36Z</time>
      </trkpt>
      <trkpt lat="46.71654" lon="-1.95077">
        <ele>18</ele>
        <time>2018-03-10T06:17:36Z</time>
      </trkpt>
      <trkpt lat="46.71639" lon="-1.95089">
        <ele>18</ele>
        <time>2018-03-10T06:18:36Z</time>
      </trkpt>
      <trkpt lat="46.71605" lon="-1.95115">
        <ele>18</ele>
        <time>2018-03-10T06:19:36Z</time>
      </trkpt>
      <trkpt lat="46.71604" lon="-1.95116">
        <ele>18</ele>
        <time>2018-03-10T06:20:36Z</time>
      </trkpt>
      <trkpt lat="46.71603" lon="-1.95116">
        <ele>18</ele>
        <time>2018-03-10T06:21:36Z</time>
      </trkpt>
      <trkpt lat="46.71567" lon="-1.95143">
        <ele>18</ele>
        <time>2018-03-10T06:22:36Z</time>
      </trkpt>
      <trkpt lat="46.71561" lon="-1.95149">
        <ele>18</ele>
        <time>2018-03-10T06:23:36Z</time>
      </trkpt>
      <trkpt lat="46.71532" lon="-1.95171">
        <ele>18</ele>
        <time>2018-03-10T06:24:36Z</time>
      </trkpt>
      <trkpt lat="46.71495" lon="-1.95201">
        <ele>18</ele>
        <time>2018-03-10T06:25:36Z</time>
      </trkpt>
      <trkpt lat="46.71468" lon="-1.95228">
        <ele>17</ele>
        <time>2018-03-10T06:26:36Z</time>
      </trkpt>
      <trkpt lat="46.71444" lon="-1.95256">
        <ele>18</ele>
        <time>2018-03-10T06:27:36Z</time>
      </trkpt>
      <trkpt lat="46.71427" lon="-1.95277">
        <ele>18</ele>
        <time>2018-03-10T06:28:36Z</time>
      </trkpt>
      <trkpt lat="46.71422" lon="-1.95284">
        <ele>18</ele>
        <time>2018-03-10T06:29:36Z</time>
      </trkpt>
      <trkpt lat="46.71422" lon="-1.95284">
        <ele>18</ele>
        <time>2018-03-10T06:30:36Z</time>
      </trkpt>
      <trkpt lat="46.71423" lon="-1.95286">
        <ele>18</ele>
        <time>2018-03-10T06:31:36Z</time>
      </trkpt>
      <trkpt lat="46.71423" lon="-1.95288">
        <ele>18</ele>
        <time>2018-03-10T06:32:36Z</time>
      </trkpt>
      <trkpt lat="46.71423" lon="-1.9529">
        <ele>17</ele>
        <time>2018-03-10T06:33:36Z</time>
      </trkpt>
      <trkpt lat="46.71423" lon="-1.95293">
        <ele>17</ele>
        <time>2018-03-10T06:34:36Z</time>
      </trkpt>
      <trkpt lat="46.71422" lon="-1.95296">
        <ele>17</ele>
        <time>2018-03-10T06:35:36Z</time>
      </trkpt>
      <trkpt lat="46.71422" lon="-1.95297">
        <ele>17</ele>
        <time>2018-03-10T06:36:36Z</time>
      </trkpt>
      <trkpt lat="46.7142" lon="-1.953">
        <ele>17</ele>
        <time>2018-03-10T06:37:36Z</time>
      </trkpt>
      <trkpt lat="46.71418" lon="-1.95302">
        <ele>17</ele>
        <time>2018-03-10T06:38:36Z</time>
      </trkpt>
      <trkpt lat="46.71416" lon="-1.95303">
        <ele>17</ele>
        <time>2018-03-10T06:39:36Z</time>
      </trkpt>
      <trkpt lat="46.71414" lon="-1.95303">
        <ele>17</ele>
        <time>2018-03-10T06:40:36Z</time>
      </trkpt>
      <trkpt lat="46.71412" lon="-1.95302">
        <ele>17</ele>
        <time>2018-03-10T06:41:36Z</time>
      </trkpt>
      <trkpt lat="46.7141" lon="-1.95301">
        <ele>17</ele>
        <time>2018-03-10T06:42:36Z</time>
      </trkpt>
      <trkpt lat="46.71408" lon="-1.95299">
        <ele>17</ele>
        <time>2018-03-10T06:43:36Z</time>
      </trkpt>
      <trkpt lat="46.71407" lon="-1.95296">
        <ele>17</ele>
        <time>2018-03-10T06:44:36Z</time>
      </trkpt>
      <trkpt lat="46.71406" lon="-1.95293">
        <ele>17</ele>
        <time>2018-03-10T06:45:36Z</time>
      </trkpt>
      <trkpt lat="46.71405" lon="-1.9529">
        <ele>18</ele>
        <time>2018-03-10T06:46:36Z</time>
      </trkpt>
      <trkpt lat="46.71401" lon="-1.95291">
        <ele>18</ele>
        <time>2018-03-10T06:47:36Z</time>
      </trkpt>
      <trkpt lat="46.71393" lon="-1.95292">
        <ele>17</ele>
        <time>2018-03-10T06:48:36Z</time>
      </trkpt>
      <trkpt lat="46.7139" lon="-1.9529">
        <ele>18</ele>
        <time>2018-03-10T06:49:36Z</time>
      </trkpt>
      <trkpt lat="46.71384" lon="-1.95292">
        <ele>17</ele>
        <time>2018-03-10T06:50:36Z</time>
      </trkpt>
      <trkpt lat="46.71377" lon="-1.95294">
        <ele>17</ele>
        <time>2018-03-10T06:51:36Z</time>
      </trkpt>
      <trkpt lat="46.71371" lon="-1.95296">
        <ele>17</ele>
        <time>2018-03-10T06:52:36Z</time>
      </trkpt>
      <trkpt lat="46.71343" lon="-1.95296">
        <ele>17</ele>
        <time>2018-03-10T06:53:36Z</time>
      </trkpt>
      <trkpt lat="46.71336" lon="-1.95296">
        <ele>17</ele>
        <time>2018-03-10T06:54:36Z</time>
      </trkpt>
      <trkpt lat="46.71317" lon="-1.95296">
        <ele>17</ele>
        <time>2018-03-10T06:55:36Z</time>
      </trkpt>
      <trkpt lat="46.71281" lon="-1.95294">
        <ele>17</ele>
        <time>2018-03-10T06:56:36Z</time>
      </trkpt>
      <trkpt lat="46.71262" lon="-1.95293">
        <ele>17</ele>
        <time>2018-03-10T06:57:36Z</time>
      </trkpt>
      <trkpt lat="46.71256" lon="-1.95293">
        <ele>17</ele>
        <time>2018-03-10T06:58:36Z</time>
      </trkpt>
      <trkpt lat="46.71237" lon="-1.95291">
        <ele>18</ele>
        <time>2018-03-10T06:59:36Z</time>
      </trkpt>
      <trkpt lat="46.71219" lon="-1.95289">
        <ele>18</ele>
        <time>2018-03-10T07:00:36Z</time>
      </trkpt>
      <trkpt lat="46.71205" lon="-1.95288">
        <ele>17</ele>
        <time>2018-03-10T07:01:36Z</time>
      </trkpt>
      <trkpt lat="46.71184" lon="-1.9529">
        <ele>17</ele>
        <time>2018-03-10T07:02:36Z</time>
      </trkpt>
      <trkpt lat="46.71171" lon="-1.95291">
        <ele>17</ele>
        <time>2018-03-10T07:03:36Z</time>
      </trkpt>
      <trkpt lat="46.71168" lon="-1.95291">
        <ele>17</ele>
        <time>2018-03-10T07:04:36Z</time>
      </trkpt>
      <trkpt lat="46.71164" lon="-1.95291">
        <ele>17</ele>
        <time>2018-03-10T07:05:36Z</time>
      </trkpt>
      <trkpt lat="46.71159" lon="-1.9529">
        <ele>17</ele>
        <time>2018-03-10T07:06:36Z</time>
      </trkpt>
      <trkpt lat="46.71158" lon="-1.9529">
        <ele>17</ele>
        <time>2018-03-10T07:07:36Z</time>
      </trkpt>
      <trkpt lat="46.71142" lon="-1.95285">
        <ele>17</ele>
        <time>2018-03-10T07:08:36Z</time>
      </trkpt>
      <trkpt lat="46.71122" lon="-1.95278">
        <ele>17</ele>
        <time>2018-03-10T07:09:36Z</time>
      </trkpt>
      <trkpt lat="46.71099" lon="-1.95269">
        <ele>17</ele>
        <time>2018-03-10T07:10:36Z</time>
      </trkpt>
      <trkpt lat="46.71083" lon="-1.95264">
        <ele>17</ele>
        <time>2018-03-10T07:11:36Z</time>
      </trkpt>
      <trkpt lat="46.71073" lon="-1.95259">
        <ele>17</ele>
        <time>2018-03-10T07:12:36Z</time>
      </trkpt>
      <trkpt lat="46.71062" lon="-1.95252">
        <ele>17</ele>
        <time>2018-03-10T07:13:36Z</time>
      </trkpt>
      <trkpt lat="46.71053" lon="-1.95246">
        <ele>17</ele>
        <time>2018-03-10T07:14:36Z</time>
      </trkpt>
      <trkpt lat="46.71044" lon="-1.95238">
        <ele>17</ele>
        <time>2018-03-10T07:15:36Z</time>
      </trkpt>
      <trkpt lat="46.71036" lon="-1.95233">
        <ele>17</ele>
        <time>2018-03-10T07:16:36Z</time>
      </trkpt>
      <trkpt lat="46.7103" lon="-1.9523">
        <ele>17</ele>
        <time>2018-03-10T07:17:36Z</time>
      </trkpt>
      <trkpt lat="46.71025" lon="-1.95228">
        <ele>17</ele>
        <time>2018-03-10T07:18:36Z</time>
      </trkpt>
      <trkpt lat="46.71018" lon="-1.95227">
        <ele>17</ele>
        <time>2018-03-10T07:19:36Z</time>
      </trkpt>
      <trkpt lat="46.71018" lon="-1.95227">
        <ele>17</ele>
        <time>2018-03-10T07:20:36Z</time>
      </trkpt>
      <trkpt lat="46.71015" lon="-1.95188">
        <ele>17</ele>
        <time>2018-03-10T07:21:36Z</time>
      </trkpt>
      <trkpt lat="46.71012" lon="-1.95149">
        <ele>17</ele>
        <time>2018-03-10T07:22:36Z</time>
      </trkpt>
      <trkpt lat="46.71007" lon="-1.95088">
        <ele>17</ele>
        <time>2018-03-10T07:23:36Z</time>
      </trkpt>
      <trkpt lat="46.71007" lon="-1.95076">
        <ele>17</ele>
        <time>2018-03-10T07:24:36Z</time>
      </trkpt>
      <trkpt lat="46.71006" lon="-1.95067">
        <ele>17</ele>
        <time>2018-03-10T07:25:36Z</time>
      </trkpt>
      <trkpt lat="46.71003" lon="-1.95044">
        <ele>17</ele>
        <time>2018-03-10T07:26:36Z</time>
      </trkpt>
      <trkpt lat="46.71003" lon="-1.95044">
        <ele>17</ele>
        <time>2018-03-10T07:27:36Z</time>
      </trkpt>
      <trkpt lat="46.7098" lon="-1.95048">
        <ele>16</ele>
        <time>2018-03-10T07:28:36Z</time>
      </trkpt>
      <trkpt lat="46.70962" lon="-1.9505">
        <ele>16</ele>
        <time>2018-03-10T07:29:36Z</time>
      </trkpt>
      <trkpt lat="46.70945" lon="-1.95051">
        <ele>16</ele>
        <time>2018-03-10T07:30:36Z</time>
      </trkpt>
      <trkpt lat="46.70861" lon="-1.95051">
        <ele>16</ele>
        <time>2018-03-10T07:31:36Z</time>
      </trkpt>
      <trkpt lat="46.70837" lon="-1.95052">
        <ele>16</ele>
        <time>2018-03-10T07:32:36Z</time>
      </trkpt>
      <trkpt lat="46.70814" lon="-1.95056">
        <ele>16</ele>
        <time>2018-03-10T07:33:36Z</time>
      </trkpt>
      <trkpt lat="46.708" lon="-1.9506">
        <ele>16</ele>
        <time>2018-03-10T07:34:36Z</time>
      </trkpt>
      <trkpt lat="46.7078" lon="-1.95067">
        <ele>16</ele>
        <time>2018-03-10T07:35:36Z</time>
      </trkpt>
      <trkpt lat="46.70769" lon="-1.95072">
        <ele>16</ele>
        <time>2018-03-10T07:36:36Z</time>
      </trkpt>
      <trkpt lat="46.70752" lon="-1.9508">
        <ele>16</ele>
        <time>2018-03-10T07:37:36Z</time>
      </trkpt>
      <trkpt lat="46.70717" lon="-1.95098">
        <ele>15</ele>
        <time>2018-03-10T07:38:36Z</time>
      </trkpt>
      <trkpt lat="46.70684" lon="-1.95112">
        <ele>14</ele>
        <time>2018-03-10T07:39:36Z</time>
      </trkpt>
      <trkpt lat="46.70652" lon="-1.95119">
        <ele>14</ele>
        <time>2018-03-10T07:40:36Z</time>
      </trkpt>
      <trkpt lat="46.70622" lon="-1.95125">
        <ele>13</ele>
        <time>2018-03-10T07:41:36Z</time>
      </trkpt>
      <trkpt lat="46.70612" lon="-1.95126">
        <ele>13</ele>
        <time>2018-03-10T07:42:36Z</time>
      </trkpt>
      <trkpt lat="46.70602" lon="-1.95126">
        <ele>13</ele>
        <time>2018-03-10T07:43:36Z</time>
      </trkpt>
      <trkpt lat="46.70582" lon="-1.95125">
        <ele>13</ele>
        <time>2018-03-10T07:44:36Z</time>
      </trkpt>
      <trkpt lat="46.70561" lon="-1.95123">
        <ele>13</ele>
        <time>2018-03-10T07:45:36Z</time>
      </trkpt>
      <trkpt lat="46.70542" lon="-1.95121">
        <ele>13</ele>
        <time>2018-03-10T07:46:36Z</time>
      </trkpt>
      <trkpt lat="46.7052" lon="-1.95118">
        <ele>13</ele>
        <time>2018-03-10T07:47:36Z</time>
      </trkpt>
      <trkpt lat="46.70493" lon="-1.95114">
        <ele>13</ele>
        <time>2018-03-10T07:48:36Z</time>
      </trkpt>
      <trkpt lat="46.70473" lon="-1.9511">
        <ele>12</ele>
        <time>2018-03-10T07:49:36Z</time>
      </trkpt>
      <trkpt lat="46.70438" lon="-1.95104">
        <ele>11</ele>
        <time>2018-03-10T07:50:36Z</time>
      </trkpt>
      <trkpt lat="46.70415" lon="-1.951">
        <ele>10</ele>
        <time>2018-03-10T07:51:36Z</time>
      </trkpt>
      <trkpt lat="46.70377" lon="-1.95094">
        <ele>10</ele>
        <time>2018-03-10T07:52:36Z</time>
      </trkpt>
      <trkpt lat="46.70342" lon="-1.95088">
        <ele>9</ele>
        <time>2018-03-10T07:53:36Z</time>
      </trkpt>
      <trkpt lat="46.70313" lon="-1.95083">
        <ele>9</ele>
        <time>2018-03-10T07:54:36Z</time>
      </trkpt>
      <trkpt lat="46.70307" lon="-1.95082">
        <ele>8</ele>
        <time>2018-03-10T07:55:36Z</time>
      </trkpt>
      <trkpt lat="46.70277" lon="-1.95078">
        <ele>8</ele>
        <time>2018-03-10T07:56:36Z</time>
      </trkpt>
      <trkpt lat="46.7025" lon="-1.95073">
        <ele>7</ele>
        <time>2018-03-10T07:57:36Z</time>
      </trkpt>
      <trkpt lat="46.70216" lon="-1.95068">
        <ele>6</ele>
        <time>2018-03-10T07:58:36Z</time>
      </trkpt>
      <trkpt lat="46.70198" lon="-1.95064">
        <ele>5</ele>
        <time>2018-03-10T07:59:36Z</time>
      </trkpt>
      <trkpt lat="46.70185" lon="-1.95063">
        <ele>5</ele>
        <time>2018-03-10T08:00:36Z</time>
      </trkpt>
      <trkpt lat="46.70162" lon="-1.9506">
        <ele>5</ele>
        <time>2018-03-10T08:01:36Z</time>
      </trkpt>
      <trkpt lat="46.70162" lon="-1.95061">
        <ele>5</ele>
        <time>2018-03-10T08:02:36Z</time>
      </trkpt>
      <trkpt lat="46.70162" lon="-1.95062">
        <ele>5</ele>
        <time>2018-03-10T08:03:36Z</time>
      </trkpt>
      <trkpt lat="46.70161" lon="-1.95063">
        <ele>5</ele>
        <time>2018-03-10T08:04:36Z</time>
      </trkpt>
      <trkpt lat="46.70161" lon="-1.95064">
        <ele>5</ele>
        <time>2018-03-10T08:05:36Z</time>
      </trkpt>
      <trkpt lat="46.70161" lon="-1.95065">
        <ele>5</ele>
        <time>2018-03-10T08:06:36Z</time>
      </trkpt>
      <trkpt lat="46.7016" lon="-1.95066">
        <ele>5</ele>
        <time>2018-03-10T08:07:36Z</time>
      </trkpt>
      <trkpt lat="46.7016" lon="-1.95067">
        <ele>5</ele>
        <time>2018-03-10T08:08:36Z</time>
      </trkpt>
      <trkpt lat="46.70159" lon="-1.95067">
        <ele>5</ele>
        <time>2018-03-10T08:09:36Z</time>
      </trkpt>
      <trkpt lat="46.70159" lon="-1.95068">
        <ele>5</ele>
        <time>2018-03-10T08:10:36Z</time>
      </trkpt>
      <trkpt lat="46.70158" lon="-1.95068">
        <ele>5</ele>
        <time>2018-03-10T08:11:36Z</time>
      </trkpt>
      <trkpt lat="46.70158" lon="-1.95069">
        <ele>5</ele>
        <time>2018-03-10T08:12:36Z</time>
      </trkpt>
      <trkpt lat="46.70157" lon="-1.95069">
        <ele>5</ele>
        <time>2018-03-10T08:13:36Z</time>
      </trkpt>
      <trkpt lat="46.70156" lon="-1.95069">
        <ele>5</ele>
        <time>2018-03-10T08:14:36Z</time>
      </trkpt>
      <trkpt lat="46.70155" lon="-1.95069">
        <ele>5</ele>
        <time>2018-03-10T08:15:36Z</time>
      </trkpt>
      <trkpt lat="46.70154" lon="-1.95069">
        <ele>5</ele>
        <time>2018-03-10T08:16:36Z</time>
      </trkpt>
      <trkpt lat="46.70153" lon="-1.95069">
        <ele>5</ele>
        <time>2018-03-10T08:17:36Z</time>
      </trkpt>
      <trkpt lat="46.70152" lon="-1.95069">
        <ele>5</ele>
        <time>2018-03-10T08:18:36Z</time>
      </trkpt>
      <trkpt lat="46.70152" lon="-1.95068">
        <ele>5</ele>
        <time>2018-03-10T08:19:36Z</time>
      </trkpt>
      <trkpt lat="46.70151" lon="-1.95068">
        <ele>5</ele>
        <time>2018-03-10T08:20:36Z</time>
      </trkpt>
      <trkpt lat="46.70151" lon="-1.95067">
        <ele>5</ele>
        <time>2018-03-10T08:21:36Z</time>
      </trkpt>
      <trkpt lat="46.7015" lon="-1.95067">
        <ele>5</ele>
        <time>2018-03-10T08:22:36Z</time>
      </trkpt>
      <trkpt lat="46.7015" lon="-1.95066">
        <ele>5</ele>
        <time>2018-03-10T08:23:36Z</time>
      </trkpt>
      <trkpt lat="46.70149" lon="-1.95066">
        <ele>5</ele>
        <time>2018-03-10T08:24:36Z</time>
      </trkpt>
      <trkpt lat="46.70149" lon="-1.95065">
        <ele>5</ele>
        <time>2018-03-10T08:25:36Z</time>
      </trkpt>
      <trkpt lat="46.70149" lon="-1.95064">
        <ele>5</ele>
        <time>2018-03-10T08:26:36Z</time>
      </trkpt>
      <trkpt lat="46.70149" lon="-1.95063">
        <ele>5</ele>
        <time>2018-03-10T08:27:36Z</time>
      </trkpt>
      <trkpt lat="46.70148" lon="-1.95063">
        <ele>5</ele>
        <time>2018-03-10T08:28:36Z</time>
      </trkpt>
      <trkpt lat="46.70148" lon="-1.95062">
        <ele>5</ele>
        <time>2018-03-10T08:29:36Z</time>
      </trkpt>
      <trkpt lat="46.70148" lon="-1.95061">
        <ele>5</ele>
        <time>2018-03-10T08:30:36Z</time>
      </trkpt>
      <trkpt lat="46.70148" lon="-1.9506">
        <ele>5</ele>
        <time>2018-03-10T08:31:36Z</time>
      </trkpt>
      <trkpt lat="46.70148" lon="-1.95059">
        <ele>5</ele>
        <time>2018-03-10T08:32:36Z</time>
      </trkpt>
      <trkpt lat="46.70148" lon="-1.95058">
        <ele>5</ele>
        <time>2018-03-10T08:33:36Z</time>
      </trkpt>
      <trkpt lat="46.70125" lon="-1.95054">
        <ele>5</ele>
        <time>2018-03-10T08:34:36Z</time>
      </trkpt>
      <trkpt lat="46.70103" lon="-1.9505">
        <ele>5</ele>
        <time>2018-03-10T08:35:36Z</time>
      </trkpt>
      <trkpt lat="46.70069" lon="-1.95044">
        <ele>6</ele>
        <time>2018-03-10T08:36:36Z</time>
      </trkpt>
      <trkpt lat="46.7005" lon="-1.95039">
        <ele>6</ele>
        <time>2018-03-10T08:37:36Z</time>
      </trkpt>
      <trkpt lat="46.70034" lon="-1.95036">
        <ele>7</ele>
        <time>2018-03-10T08:38:36Z</time>
      </trkpt>
      <trkpt lat="46.70019" lon="-1.9503">
        <ele>7</ele>
        <time>2018-03-10T08:39:36Z</time>
      </trkpt>
      <trkpt lat="46.70013" lon="-1.95027">
        <ele>7</ele>
        <time>2018-03-10T08:40:36Z</time>
      </trkpt>
      <trkpt lat="46.70007" lon="-1.95023">
        <ele>7</ele>
        <time>2018-03-10T08:41:36Z</time>
      </trkpt>
      <trkpt lat="46.69997" lon="-1.95014">
        <ele>7</ele>
        <time>2018-03-10T08:42:36Z</time>
      </trkpt>
      <trkpt lat="46.69981" lon="-1.94999">
        <ele>7</ele>
        <time>2018-03-10T08:43:36Z</time>
      </trkpt>
      <trkpt lat="46.69963" lon="-1.9498">
        <ele>8</ele>
        <time>2018-03-10T08:44:36Z</time>
      </trkpt>
      <trkpt lat="46.69949" lon="-1.94964">
        <ele>8</ele>
        <time>2018-03-10T08:45:36Z</time>
      </trkpt>
      <trkpt lat="46.69934" lon="-1.94944">
        <ele>8</ele>
        <time>2018-03-10T08:46:36Z</time>
      </trkpt>
      <trkpt lat="46.69918" lon="-1.94924">
        <ele>7</ele>
        <time>2018-03-10T08:47:36Z</time>
      </trkpt>
      <trkpt lat="46.69911" lon="-1.94912">
        <ele>7</ele>
        <time>2018-03-10T08:48:36Z</time>
      </trkpt>
      <trkpt lat="46.69896" lon="-1.94891">
        <ele>6</ele>
        <time>2018-03-10T08:49:36Z</time>
      </trkpt>
      <trkpt lat="46.69874" lon="-1.94856">
        <ele>6</ele>
        <time>2018-03-10T08:50:36Z</time>
      </trkpt>
      <trkpt lat="46.69867" lon="-1.94841">
        <ele>5</ele>
        <time>2018-03-10T08:51:36Z</time>
      </trkpt>
      <trkpt lat="46.6986" lon="-1.94828">
        <ele>5</ele>
        <time>2018-03-10T08:52:36Z</time>
      </trkpt>
      <trkpt lat="46.69848" lon="-1.94802">
        <ele>5</ele>
        <time>2018-03-10T08:53:36Z</time>
      </trkpt>
      <trkpt lat="46.69836" lon="-1.94769">
        <ele>5</ele>
        <time>2018-03-10T08:54:36Z</time>
      </trkpt>
      <trkpt lat="46.69828" lon="-1.94745">
        <ele>5</ele>
        <time>2018-03-10T08:55:36Z</time>
      </trkpt>
      <trkpt lat="46.69828" lon="-1.94745">
        <ele>5</ele>
        <time>2018-03-10T08:56:36Z</time>
      </trkpt>
      <trkpt lat="46.69826" lon="-1.94736">
        <ele>5</ele>
        <time>2018-03-10T08:57:36Z</time>
      </trkpt>
      <trkpt lat="46.69825" lon="-1.94732">
        <ele>5</ele>
        <time>2018-03-10T08:58:36Z</time>
      </trkpt>
      <trkpt lat="46.69819" lon="-1.94712">
        <ele>4</ele>
        <time>2018-03-10T08:59:36Z</time>
      </trkpt>
      <trkpt lat="46.69814" lon="-1.94695">
        <ele>4</ele>
        <time>2018-03-10T09:00:36Z</time>
      </trkpt>
      <trkpt lat="46.69809" lon="-1.94676">
        <ele>4</ele>
        <time>2018-03-10T09:01:36Z</time>
      </trkpt>
      <trkpt lat="46.69805" lon="-1.94657">
        <ele>4</ele>
        <time>2018-03-10T09:02:36Z</time>
      </trkpt>
      <trkpt lat="46.69799" lon="-1.94634">
        <ele>4</ele>
        <time>2018-03-10T09:03:36Z</time>
      </trkpt>
      <trkpt lat="46.6978" lon="-1.94548">
        <ele>3</ele>
        <time>2018-03-10T09:04:36Z</time>
      </trkpt>
      <trkpt lat="46.69765" lon="-1.94496">
        <ele>4</ele>
        <time>2018-03-10T09:05:36Z</time>
      </trkpt>
      <trkpt lat="46.69758" lon="-1.94477">
        <ele>4</ele>
        <time>2018-03-10T09:06:36Z</time>
      </trkpt>
      <trkpt lat="46.69753" lon="-1.94463">
        <ele>4</ele>
        <time>2018-03-10T09:07:36Z</time>
      </trkpt>
      <trkpt lat="46.69748" lon="-1.94448">
        <ele>2</ele>
        <time>2018-03-10T09:08:36Z</time>
      </trkpt>
      <trkpt lat="46.69745" lon="-1.9444">
        <ele>2</ele>
        <time>2018-03-10T09:09:36Z</time>
      </trkpt>
      <trkpt lat="46.69735" lon="-1.94411">
        <ele>3</ele>
        <time>2018-03-10T09:10:36Z</time>
      </trkpt>
      <trkpt lat="46.69732" lon="-1.944">
        <ele>4</ele>
        <time>2018-03-10T09:11:36Z</time>
      </trkpt>
      <trkpt lat="46.69727" lon="-1.94384">
        <ele>4</ele>
        <time>2018-03-10T09:12:36Z</time>
      </trkpt>
      <trkpt lat="46.69718" lon="-1.9436">
        <ele>4</ele>
        <time>2018-03-10T09:13:36Z</time>
      </trkpt>
      <trkpt lat="46.69709" lon="-1.94333">
        <ele>4</ele>
        <time>2018-03-10T09:14:36Z</time>
      </trkpt>
      <trkpt lat="46.69703" lon="-1.94314">
        <ele>4</ele>
        <time>2018-03-10T09:15:36Z</time>
      </trkpt>
      <trkpt lat="46.697" lon="-1.94303">
        <ele>4</ele>
        <time>2018-03-10T09:16:36Z</time>
      </trkpt>
      <trkpt lat="46.69696" lon="-1.94286">
        <ele>4</ele>
        <time>2018-03-10T09:17:36Z</time>
      </trkpt>
      <trkpt lat="46.69688" lon="-1.94251">
        <ele>4</ele>
        <time>2018-03-10T09:18:36Z</time>
      </trkpt>
      <trkpt lat="46.69675" lon="-1.94202">
        <ele>5</ele>
        <time>2018-03-10T09:19:36Z</time>
      </trkpt>
      <trkpt lat="46.6966" lon="-1.94143">
        <ele>4</ele>
        <time>2018-03-10T09:20:36Z</time>
      </trkpt>
      <trkpt lat="46.69658" lon="-1.94132">
        <ele>4</ele>
        <time>2018-03-10T09:21:36Z</time>
      </trkpt>
      <trkpt lat="46.69653" lon="-1.9411">
        <ele>3</ele>
        <time>2018-03-10T09:22:36Z</time>
      </trkpt>
      <trkpt lat="46.69653" lon="-1.9411">
        <ele>3</ele>
        <time>2018-03-10T09:23:36Z</time>
      </trkpt>
      <trkpt lat="46.69644" lon="-1.94108">
        <ele>3</ele>
        <time>2018-03-10T09:24:36Z</time>
      </trkpt>
      <trkpt lat="46.69639" lon="-1.94108">
        <ele>3</ele>
        <time>2018-03-10T09:25:36Z</time>
      </trkpt>
      <trkpt lat="46.69636" lon="-1.9411">
        <ele>3</ele>
        <time>2018-03-10T09:26:36Z</time>
      </trkpt>
      <trkpt lat="46.69633" lon="-1.94111">
        <ele>3</ele>
        <time>2018-03-10T09:27:36Z</time>
      </trkpt>
      <trkpt lat="46.69622" lon="-1.94114">
        <ele>3</ele>
        <time>2018-03-10T09:28:36Z</time>
      </trkpt>
      <trkpt lat="46.69618" lon="-1.94115">
        <ele>3</ele>
        <time>2018-03-10T09:29:36Z</time>
      </trkpt>
      <trkpt lat="46.69615" lon="-1.94114">
        <ele>3</ele>
        <time>2018-03-10T09:30:36Z</time>
      </trkpt>
      <trkpt lat="46.69612" lon="-1.94113">
        <ele>3</ele>
        <time>2018-03-10T09:31:36Z</time>
      </trkpt>
      <trkpt lat="46.6961" lon="-1.94112">
        <ele>3</ele>
        <time>2018-03-10T09:32:36Z</time>
      </trkpt>
      <trkpt lat="46.69608" lon="-1.9411">
        <ele>3</ele>
        <time>2018-03-10T09:33:36Z</time>
      </trkpt>
      <trkpt lat="46.69606" lon="-1.94105">
        <ele>3</ele>
        <time>2018-03-10T09:34:36Z</time>
      </trkpt>
      <trkpt lat="46.69593" lon="-1.94071">
        <ele>3</ele>
        <time>2018-03-10T09:35:36Z</time>
      </trkpt>
      <trkpt lat="46.69582" lon="-1.94047">
        <ele>3</ele>
        <time>2018-03-10T09:36:36Z</time>
      </trkpt>
      <trkpt lat="46.69582" lon="-1.94047">
        <ele>3</ele>
        <time>2018-03-10T09:37:36Z</time>
      </trkpt>
      <trkpt lat="46.69573" lon="-1.94025">
        <ele>4</ele>
        <time>2018-03-10T09:38:36Z</time>
      </trkpt>
      <trkpt lat="46.69548" lon="-1.93973">
        <ele>4</ele>
        <time>2018-03-10T09:39:36Z</time>
      </trkpt>
      <trkpt lat="46.69544" lon="-1.93963">
        <ele>4</ele>
        <time>2018-03-10T09:40:36Z</time>
      </trkpt>
      <trkpt lat="46.69543" lon="-1.9396">
        <ele>4</ele>
        <time>2018-03-10T09:41:36Z</time>
      </trkpt>
      <trkpt lat="46.69535" lon="-1.93937">
        <ele>4</ele>
        <time>2018-03-10T09:42:36Z</time>
      </trkpt>
      <trkpt lat="46.69532" lon="-1.93928">
        <ele>4</ele>
        <time>2018-03-10T09:43:36Z</time>
      </trkpt>
      <trkpt lat="46.69529" lon="-1.9392">
        <ele>4</ele>
        <time>2018-03-10T09:44:36Z</time>
      </trkpt>
      <trkpt lat="46.69526" lon="-1.93911">
        <ele>4</ele>
        <time>2018-03-10T09:45:36Z</time>
      </trkpt>
      <trkpt lat="46.69525" lon="-1.93905">
        <ele>4</ele>
        <time>2018-03-10T09:46:36Z</time>
      </trkpt>
      <trkpt lat="46.69522" lon="-1.93898">
        <ele>4</ele>
        <time>2018-03-10T09:47:36Z</time>
      </trkpt>
      <trkpt lat="46.69511" lon="-1.93878">
        <ele>4</ele>
        <time>2018-03-10T09:48:36Z</time>
      </trkpt>
      <trkpt lat="46.6951" lon="-1.93875">
        <ele>4</ele>
        <time>2018-03-10T09:49:36Z</time>
      </trkpt>
      <trkpt lat="46.69507" lon="-1.93869">
        <ele>4</ele>
        <time>2018-03-10T09:50:36Z</time>
      </trkpt>
      <trkpt lat="46.69505" lon="-1.93865">
        <ele>4</ele>
        <time>2018-03-10T09:51:36Z</time>
      </trkpt>
      <trkpt lat="46.69495" lon="-1.93843">
        <ele>3</ele>
        <time>2018-03-10T09:52:36Z</time>
      </trkpt>
      <trkpt lat="46.69492" lon="-1.93841">
        <ele>3</ele>
        <time>2018-03-10T09:53:36Z</time>
      </trkpt>
      <trkpt lat="46.69488" lon="-1.93834">
        <ele>3</ele>
        <time>2018-03-10T09:54:36Z</time>
      </trkpt>
      <trkpt lat="46.6947" lon="-1.93801">
        <ele>3</ele>
        <time>2018-03-10T09:55:36Z</time>
      </trkpt>
      <trkpt lat="46.69464" lon="-1.93789">
        <ele>3</ele>
        <time>2018-03-10T09:56:36Z</time>
      </trkpt>
      <trkpt lat="46.6946" lon="-1.93781">
        <ele>3</ele>
        <time>2018-03-10T09:57:36Z</time>
      </trkpt>
      <trkpt lat="46.69451" lon="-1.93756">
        <ele>3</ele>
        <time>2018-03-10T09:58:36Z</time>
      </trkpt>
      <trkpt lat="46.69449" lon="-1.93753">
        <ele>3</ele>
        <time>2018-03-10T09:59:36Z</time>
      </trkpt>
      <trkpt lat="46.69443" lon="-1.9374">
        <ele>3</ele>
        <time>2018-03-10T10:00:36Z</time>
      </trkpt>
      <trkpt lat="46.69441" lon="-1.93734">
        <ele>3</ele>
        <time>2018-03-10T10:01:36Z</time>
      </trkpt>
      <trkpt lat="46.69438" lon="-1.93724">
        <ele>3</ele>
        <time>2018-03-10T10:02:36Z</time>
      </trkpt>
      <trkpt lat="46.69433" lon="-1.93699">
        <ele>3</ele>
        <time>2018-03-10T10:03:36Z</time>
      </trkpt>
      <trkpt lat="46.69425" lon="-1.93665">
        <ele>3</ele>
        <time>2018-03-10T10:04:36Z</time>
      </trkpt>
      <trkpt lat="46.69423" lon="-1.93652">
        <ele>3</ele>
        <time>2018-03-10T10:05:36Z</time>
      </trkpt>
      <trkpt lat="46.69422" lon="-1.93638">
        <ele>2</ele>
        <time>2018-03-10T10:06:36Z</time>
      </trkpt>
      <trkpt lat="46.69422" lon="-1.93633">
        <ele>2</ele>
        <time>2018-03-10T10:07:36Z</time>
      </trkpt>
      <trkpt lat="46.69423" lon="-1.93624">
        <ele>2</ele>
        <time>2018-03-10T10:08:36Z</time>
      </trkpt>
      <trkpt lat="46.69425" lon="-1.93616">
        <ele>2</ele>
        <time>2018-03-10T10:09:36Z</time>
      </trkpt>
      <trkpt lat="46.69427" lon="-1.9361">
        <ele>2</ele>
        <time>2018-03-10T10:10:36Z</time>
      </trkpt>
      <trkpt lat="46.69428" lon="-1.93608">
        <ele>2</ele>
        <time>2018-03-10T10:11:36Z</time>
      </trkpt>
      <trkpt lat="46.69433" lon="-1.93601">
        <ele>2</ele>
        <time>2018-03-10T10:12:36Z</time>
      </trkpt>
      <trkpt lat="46.6944" lon="-1.93596">
        <ele>2</ele>
        <time>2018-03-10T10:13:36Z</time>
      </trkpt>
      <trkpt lat="46.69455" lon="-1.9359">
        <ele>2</ele>
        <time>2018-03-10T10:14:36Z</time>
      </trkpt>
      <trkpt lat="46.69478" lon="-1.93583">
        <ele>2</ele>
        <time>2018-03-10T10:15:36Z</time>
      </trkpt>
      <trkpt lat="46.69488" lon="-1.93581">
        <ele>3</ele>
        <time>2018-03-10T10:16:36Z</time>
      </trkpt>
      <trkpt lat="46.69498" lon="-1.93578">
        <ele>3</ele>
        <time>2018-03-10T10:17:36Z</time>
      </trkpt>
      <trkpt lat="46.69507" lon="-1.93574">
        <ele>3</ele>
        <time>2018-03-10T10:18:36Z</time>
      </trkpt>
      <trkpt lat="46.6951" lon="-1.93574">
        <ele>3</ele>
        <time>2018-03-10T10:19:36Z</time>
      </trkpt>
      <trkpt lat="46.69514" lon="-1.93574">
        <ele>3</ele>
        <time>2018-03-10T10:20:36Z</time>
      </trkpt>
      <trkpt lat="46.69519" lon="-1.93575">
        <ele>3</ele>
        <time>2018-03-10T10:21:36Z</time>
      </trkpt>
      <trkpt lat="46.6953" lon="-1.93579">
        <ele>3</ele>
        <time>2018-03-10T10:22:36Z</time>
      </trkpt>
      <trkpt lat="46.69542" lon="-1.93584">
        <ele>4</ele>
        <time>2018-03-10T10:23:36Z</time>
      </trkpt>
      <trkpt lat="46.69552" lon="-1.93588">
        <ele>4</ele>
        <time>2018-03-10T10:24:36Z</time>
      </trkpt>
      <trkpt lat="46.69561" lon="-1.93593">
        <ele>4</ele>
        <time>2018-03-10T10:25:36Z</time>
      </trkpt>
      <trkpt lat="46.69564" lon="-1.93594">
        <ele>4</ele>
        <time>2018-03-10T10:26:36Z</time>
      </trkpt>
      <trkpt lat="46.69585" lon="-1.93586">
        <ele>4</ele>
        <time>2018-03-10T10:27:36Z</time>
      </trkpt>
      <trkpt lat="46.69585" lon="-1.93586">
        <ele>4</ele>
        <time>2018-03-10T10:28:36Z</time>
      </trkpt>
      <trkpt lat="46.69585" lon="-1.93585">
        <ele>4</ele>
        <time>2018-03-10T10:29:36Z</time>
      </trkpt>
      <trkpt lat="46.69585" lon="-1.93584">
        <ele>4</ele>
        <time>2018-03-10T10:30:36Z</time>
      </trkpt>
      <trkpt lat="46.69585" lon="-1.93583">
        <ele>4</ele>
        <time>2018-03-10T10:31:36Z</time>
      </trkpt>
      <trkpt lat="46.69585" lon="-1.93582">
        <ele>4</ele>
        <time>2018-03-10T10:32:36Z</time>
      </trkpt>
      <trkpt lat="46.69586" lon="-1.93582">
        <ele>4</ele>
        <time>2018-03-10T10:33:36Z</time>
      </trkpt>
      <trkpt lat="46.69586" lon="-1.93581">
        <ele>4</ele>
        <time>2018-03-10T10:34:36Z</time>
      </trkpt>
      <trkpt lat="46.69586" lon="-1.9358">
        <ele>4</ele>
        <time>2018-03-10T10:35:36Z</time>
      </trkpt>
      <trkpt lat="46.69587" lon="-1.9358">
        <ele>4</ele>
        <time>2018-03-10T10:36:36Z</time>
      </trkpt>
      <trkpt lat="46.69587" lon="-1.93579">
        <ele>4</ele>
        <time>2018-03-10T10:37:36Z</time>
      </trkpt>
      <trkpt lat="46.69587" lon="-1.93578">
        <ele>4</ele>
        <time>2018-03-10T10:38:36Z</time>
      </trkpt>
      <trkpt lat="46.69588" lon="-1.93578">
        <ele>4</ele>
        <time>2018-03-10T10:39:36Z</time>
      </trkpt>
      <trkpt lat="46.69588" lon="-1.93577">
        <ele>4</ele>
        <time>2018-03-10T10:40:36Z</time>
      </trkpt>
      <trkpt lat="46.69589" lon="-1.93577">
        <ele>4</ele>
        <time>2018-03-10T10:41:36Z</time>
      </trkpt>
      <trkpt lat="46.69589" lon="-1.93576">
        <ele>4</ele>
        <time>2018-03-10T10:42:36Z</time>
      </trkpt>
      <trkpt lat="46.6959" lon="-1.93576">
        <ele>4</ele>
        <time>2018-03-10T10:43:36Z</time>
      </trkpt>
      <trkpt lat="46.6959" lon="-1.93575">
        <ele>4</ele>
        <time>2018-03-10T10:44:36Z</time>
      </trkpt>
      <trkpt lat="46.69591" lon="-1.93575">
        <ele>4</ele>
        <time>2018-03-10T10:45:36Z</time>
      </trkpt>
      <trkpt lat="46.69592" lon="-1.93574">
        <ele>4</ele>
        <time>2018-03-10T10:46:36Z</time>
      </trkpt>
      <trkpt lat="46.69593" lon="-1.93574">
        <ele>4</ele>
        <time>2018-03-10T10:47:36Z</time>
      </trkpt>
      <trkpt lat="46.69594" lon="-1.93574">
        <ele>4</ele>
        <time>2018-03-10T10:48:36Z</time>
      </trkpt>
      <trkpt lat="46.69602" lon="-1.9355">
        <ele>4</ele>
        <time>2018-03-10T10:49:36Z</time>
      </trkpt>
      <trkpt lat="46.69606" lon="-1.93531">
        <ele>4</ele>
        <time>2018-03-10T10:50:36Z</time>
      </trkpt>
      <trkpt lat="46.69613" lon="-1.93483">
        <ele>4</ele>
        <time>2018-03-10T10:51:36Z</time>
      </trkpt>
      <trkpt lat="46.69619" lon="-1.93445">
        <ele>4</ele>
        <time>2018-03-10T10:52:36Z</time>
      </trkpt>
      <trkpt lat="46.69622" lon="-1.93436">
        <ele>4</ele>
        <time>2018-03-10T10:53:36Z</time>
      </trkpt>
      <trkpt lat="46.69622" lon="-1.93436">
        <ele>4</ele>
        <time>2018-03-10T10:54:36Z</time>
      </trkpt>
      <trkpt lat="46.69621" lon="-1.93436">
        <ele>4</ele>
        <time>2018-03-10T10:55:36Z</time>
      </trkpt>
      <trkpt lat="46.6962" lon="-1.93435">
        <ele>4</ele>
        <time>2018-03-10T10:56:36Z</time>
      </trkpt>
      <trkpt lat="46.69619" lon="-1.93434">
        <ele>4</ele>
        <time>2018-03-10T10:57:36Z</time>
      </trkpt>
      <trkpt lat="46.69619" lon="-1.93433">
        <ele>4</ele>
        <time>2018-03-10T10:58:36Z</time>
      </trkpt>
      <trkpt lat="46.69618" lon="-1.93433">
        <ele>4</ele>
        <time>2018-03-10T10:59:36Z</time>
      </trkpt>
      <trkpt lat="46.69618" lon="-1.93432">
        <ele>4</ele>
        <time>2018-03-10T11:00:36Z</time>
      </trkpt>
      <trkpt lat="46.69618" lon="-1.93431">
        <ele>4</ele>
        <time>2018-03-10T11:01:36Z</time>
      </trkpt>
      <trkpt lat="46.69617" lon="-1.93431">
        <ele>4</ele>
        <time>2018-03-10T11:02:36Z</time>
      </trkpt>
      <trkpt lat="46.69617" lon="-1.9343">
        <ele>4</ele>
        <time>2018-03-10T11:03:36Z</time>
      </trkpt>
      <trkpt lat="46.69617" lon="-1.93429">
        <ele>4</ele>
        <time>2018-03-10T11:04:36Z</time>
      </trkpt>
      <trkpt lat="46.69617" lon="-1.93428">
        <ele>4</ele>
        <time>2018-03-10T11:05:36Z</time>
      </trkpt>
      <trkpt lat="46.69616" lon="-1.93428">
        <ele>4</ele>
        <time>2018-03-10T11:06:36Z</time>
      </trkpt>
      <trkpt lat="46.69616" lon="-1.93427">
        <ele>4</ele>
        <time>2018-03-10T11:07:36Z</time>
      </trkpt>
      <trkpt lat="46.69616" lon="-1.93426">
        <ele>4</ele>
        <time>2018-03-10T11:08:36Z</time>
      </trkpt>
      <trkpt lat="46.69616" lon="-1.93425">
        <ele>4</ele>
        <time>2018-03-10T11:09:36Z</time>
      </trkpt>
      <trkpt lat="46.69616" lon="-1.93424">
        <ele>4</ele>
        <time>2018-03-10T11:10:36Z</time>
      </trkpt>
      <trkpt lat="46.69616" lon="-1.93423">
        <ele>4</ele>
        <time>2018-03-10T11:11:36Z</time>
      </trkpt>
      <trkpt lat="46.69616" lon="-1.93422">
        <ele>4</ele>
        <time>2018-03-10T11:12:36Z</time>
      </trkpt>
      <trkpt lat="46.69616" lon="-1.93421">
        <ele>4</ele>
        <time>2018-03-10T11:13:36Z</time>
      </trkpt>
      <trkpt lat="46.69617" lon="-1.93421">
        <ele>4</ele>
        <time>2018-03-10T11:14:36Z</time>
      </trkpt>
      <trkpt lat="46.69617" lon="-1.9342">
        <ele>4</ele>
        <time>2018-03-10T11:15:36Z</time>
      </trkpt>
      <trkpt lat="46.69617" lon="-1.93419">
        <ele>4</ele>
        <time>2018-03-10T11:16:36Z</time>
      </trkpt>
      <trkpt lat="46.69617" lon="-1.93418">
        <ele>4</ele>
        <time>2018-03-10T11:17:36Z</time>
      </trkpt>
      <trkpt lat="46.69618" lon="-1.93418">
        <ele>4</ele>
        <time>2018-03-10T11:18:36Z</time>
      </trkpt>
      <trkpt lat="46.69618" lon="-1.93417">
        <ele>4</ele>
        <time>2018-03-10T11:19:36Z</time>
      </trkpt>
      <trkpt lat="46.69618" lon="-1.93416">
        <ele>4</ele>
        <time>2018-03-10T11:20:36Z</time>
      </trkpt>
      <trkpt lat="46.69619" lon="-1.93416">
        <ele>4</ele>
        <time>2018-03-10T11:21:36Z</time>
      </trkpt>
      <trkpt lat="46.69619" lon="-1.93415">
        <ele>4</ele>
        <time>2018-03-10T11:22:36Z</time>
      </trkpt>
      <trkpt lat="46.6962" lon="-1.93415">
        <ele>4</ele>
        <time>2018-03-10T11:23:36Z</time>
      </trkpt>
      <trkpt lat="46.6962" lon="-1.93414">
        <ele>5</ele>
        <time>2018-03-10T11:24:36Z</time>
      </trkpt>
      <trkpt lat="46.69621" lon="-1.93414">
        <ele>5</ele>
        <time>2018-03-10T11:25:36Z</time>
      </trkpt>
      <trkpt lat="46.69621" lon="-1.93413">
        <ele>5</ele>
        <time>2018-03-10T11:26:36Z</time>
      </trkpt>
      <trkpt lat="46.69622" lon="-1.93413">
        <ele>5</ele>
        <time>2018-03-10T11:27:36Z</time>
      </trkpt>
      <trkpt lat="46.69623" lon="-1.93412">
        <ele>5</ele>
        <time>2018-03-10T11:28:36Z</time>
      </trkpt>
      <trkpt lat="46.69624" lon="-1.93412">
        <ele>5</ele>
        <time>2018-03-10T11:29:36Z</time>
      </trkpt>
      <trkpt lat="46.69625" lon="-1.93412">
        <ele>5</ele>
        <time>2018-03-10T11:30:36Z</time>
      </trkpt>
      <trkpt lat="46.69626" lon="-1.93412">
        <ele>5</ele>
        <time>2018-03-10T11:31:36Z</time>
      </trkpt>
      <trkpt lat="46.69627" lon="-1.93412">
        <ele>5</ele>
        <time>2018-03-10T11:32:36Z</time>
      </trkpt>
      <trkpt lat="46.69627" lon="-1.93413">
        <ele>5</ele>
        <time>2018-03-10T11:33:36Z</time>
      </trkpt>
      <trkpt lat="46.69628" lon="-1.93413">
        <ele>5</ele>
        <time>2018-03-10T11:34:36Z</time>
      </trkpt>
      <trkpt lat="46.69629" lon="-1.93413">
        <ele>5</ele>
        <time>2018-03-10T11:35:36Z</time>
      </trkpt>
      <trkpt lat="46.69629" lon="-1.93414">
        <ele>5</ele>
        <time>2018-03-10T11:36:36Z</time>
      </trkpt>
      <trkpt lat="46.6963" lon="-1.93414">
        <ele>5</ele>
        <time>2018-03-10T11:37:36Z</time>
      </trkpt>
      <trkpt lat="46.6963" lon="-1.93415">
        <ele>5</ele>
        <time>2018-03-10T11:38:36Z</time>
      </trkpt>
      <trkpt lat="46.69631" lon="-1.93416">
        <ele>5</ele>
        <time>2018-03-10T11:39:36Z</time>
      </trkpt>
      <trkpt lat="46.69631" lon="-1.93417">
        <ele>5</ele>
        <time>2018-03-10T11:40:36Z</time>
      </trkpt>
      <trkpt lat="46.69632" lon="-1.93417">
        <ele>5</ele>
        <time>2018-03-10T11:41:36Z</time>
      </trkpt>
      <trkpt lat="46.69632" lon="-1.93418">
        <ele>5</ele>
        <time>2018-03-10T11:42:36Z</time>
      </trkpt>
      <trkpt lat="46.69632" lon="-1.93419">
        <ele>5</ele>
        <time>2018-03-10T11:43:36Z</time>
      </trkpt>
      <trkpt lat="46.69633" lon="-1.93419">
        <ele>5</ele>
        <time>2018-03-10T11:44:36Z</time>
      </trkpt>
      <trkpt lat="46.69633" lon="-1.9342">
        <ele>5</ele>
        <time>2018-03-10T11:45:36Z</time>
      </trkpt>
      <trkpt lat="46.69633" lon="-1.93421">
        <ele>5</ele>
        <time>2018-03-10T11:46:36Z</time>
      </trkpt>
      <trkpt lat="46.69633" lon="-1.93422">
        <ele>5</ele>
        <time>2018-03-10T11:47:36Z</time>
      </trkpt>
      <trkpt lat="46.69633" lon="-1.93423">
        <ele>5</ele>
        <time>2018-03-10T11:48:36Z</time>
      </trkpt>
      <trkpt lat="46.69685" lon="-1.93435">
        <ele>5</ele>
        <time>2018-03-10T11:49:36Z</time>
      </trkpt>
      <trkpt lat="46.69697" lon="-1.93436">
        <ele>5</ele>
        <time>2018-03-10T11:50:36Z</time>
      </trkpt>
      <trkpt lat="46.69714" lon="-1.93435">
        <ele>5</ele>
        <time>2018-03-10T11:51:36Z</time>
      </trkpt>
      <trkpt lat="46.69721" lon="-1.93434">
        <ele>5</ele>
        <time>2018-03-10T11:52:36Z</time>
      </trkpt>
      <trkpt lat="46.69759" lon="-1.93424">
        <ele>5</ele>
        <time>2018-03-10T11:53:36Z</time>
      </trkpt>
      <trkpt lat="46.69762" lon="-1.93423">
        <ele>5</ele>
        <time>2018-03-10T11:54:36Z</time>
      </trkpt>
      <trkpt lat="46.69772" lon="-1.9342">
        <ele>5</ele>
        <time>2018-03-10T11:55:36Z</time>
      </trkpt>
      <trkpt lat="46.69776" lon="-1.9342">
        <ele>5</ele>
        <time>2018-03-10T11:56:36Z</time>
      </trkpt>
      <trkpt lat="46.69779" lon="-1.9342">
        <ele>5</ele>
        <time>2018-03-10T11:57:36Z</time>
      </trkpt>
      <trkpt lat="46.69785" lon="-1.93422">
        <ele>5</ele>
        <time>2018-03-10T11:58:36Z</time>
      </trkpt>
      <trkpt lat="46.69785" lon="-1.93421">
        <ele>5</ele>
        <time>2018-03-10T11:59:36Z</time>
      </trkpt>
      <trkpt lat="46.69786" lon="-1.93421">
        <ele>5</ele>
        <time>2018-03-10T12:00:36Z</time>
      </trkpt>
      <trkpt lat="46.69786" lon="-1.9342">
        <ele>5</ele>
        <time>2018-03-10T12:01:36Z</time>
      </trkpt>
      <trkpt lat="46.69786" lon="-1.93419">
        <ele>5</ele>
        <time>2018-03-10T12:02:36Z</time>
      </trkpt>
      <trkpt lat="46.69786" lon="-1.93418">
        <ele>5</ele>
        <time>2018-03-10T12:03:36Z</time>
      </trkpt>
      <trkpt lat="46.69787" lon="-1.93418">
        <ele>5</ele>
        <time>2018-03-10T12:04:36Z</time>
      </trkpt>
      <trkpt lat="46.69787" lon="-1.93417">
        <ele>5</ele>
        <time>2018-03-10T12:05:36Z</time>
      </trkpt>
      <trkpt lat="46.69788" lon="-1.93417">
        <ele>5</ele>
        <time>2018-03-10T12:06:36Z</time>
      </trkpt>
      <trkpt lat="46.69789" lon="-1.93417">
        <ele>5</ele>
        <time>2018-03-10T12:07:36Z</time>
      </trkpt>
      <trkpt lat="46.6979" lon="-1.93417">
        <ele>5</ele>
        <time>2018-03-10T12:08:36Z</time>
      </trkpt>
      <trkpt lat="46.69791" lon="-1.93417">
        <ele>5</ele>
        <time>2018-03-10T12:09:36Z</time>
      </trkpt>
      <trkpt lat="46.69791" lon="-1.93418">
        <ele>5</ele>
        <time>2018-03-10T12:10:36Z</time>
      </trkpt>
      <trkpt lat="46.69792" lon="-1.93418">
        <ele>5</ele>
        <time>2018-03-10T12:11:36Z</time>
      </trkpt>
      <trkpt lat="46.69792" lon="-1.93419">
        <ele>5</ele>
        <time>2018-03-10T12:12:36Z</time>
      </trkpt>
      <trkpt lat="46.69792" lon="-1.9342">
        <ele>5</ele>
        <time>2018-03-10T12:13:36Z</time>
      </trkpt>
      <trkpt lat="46.69793" lon="-1.9342">
        <ele>5</ele>
        <time>2018-03-10T12:14:36Z</time>
      </trkpt>
      <trkpt lat="46.69797" lon="-1.93421">
        <ele>5</ele>
        <time>2018-03-10T12:15:36Z</time>
      </trkpt>
      <trkpt lat="46.69798" lon="-1.93421">
        <ele>5</ele>
        <time>2018-03-10T12:16:36Z</time>
      </trkpt>
      <trkpt lat="46.69806" lon="-1.93419">
        <ele>5</ele>
        <time>2018-03-10T12:17:36Z</time>
      </trkpt>
      <trkpt lat="46.69824" lon="-1.93411">
        <ele>5</ele>
        <time>2018-03-10T12:18:36Z</time>
      </trkpt>
    </trkseg>
  </trk>
</gpx>